# Wetter Temperatur Luftdruck Luftfeuchtigkeit Sichtweite Windgeschwindigkeit Windrichtung Zeit
1 Clear 13 1018 87 10000 1.5 20 20:18 17.10.2019
2 Clear 13 1018 93 10000 1.5 30 19:42 17.10.2019
3 Clear 13 1018 93 10000 1.5 30 19:42 17.10.2019
4 Clear 14 1018 93 10000 1.5 30 19:21 17.10.2019
5 Clear 15 1018 87 10000 2.6 100 18:59 17.10.2019
6 Clear 16 1018 87 10000 2.6 110 18:39 17.10.2019
7 Clear 16 1018 87 10000 2.6 110 18:21 17.10.2019
8 Clear 16 1018 87 10000 2.6 110 18:21 17.10.2019
9 Clear 17 1018 87 10000 3.6 110 17:54 17.10.2019
10 Clear 17 1018 82 10000 4.6 100 17:36 17.10.2019
11 Clear 18 1018 82 10000 4.6 100 17:18 17.10.2019
12 Clear 20 1018 68 10000 4.6 100 16:41 17.10.2019
13 Clear 21 1018 68 10000 4.6 100 16:19 17.10.2019
14 Clear 21 1018 68 10000 4.6 100 16:19 17.10.2019
15 Clear 21 1018 68 10000 5.7 110 15:57 17.10.2019
16 Clear 21 1018 68 10000 5.7 120 15:39 17.10.2019
17 Clouds 22 1018 68 10000 5.7 120 15:20 17.10.2019
18 Clouds 22 1018 68 10000 5.7 120 15:20 17.10.2019
19 Clouds 22 1018 68 10000 4.6 120 14:57 17.10.2019
20 Clouds 22 1018 68 10000 4.1 120 14:38 17.10.2019
21 Clouds 21 1018 68 10000 4.1 120 14:20 17.10.2019
22 Clouds 21 1018 64 10000 2.1 0 13:41 17.10.2019
23 Clouds 21 1018 64 10000 2.1 0 13:21 17.10.2019
24 Clouds 21 1019 68 8000 1.5 0 12:58 17.10.2019
25 Clouds 20 1019 72 6000 1.5 270 12:38 17.10.2019
26 Clouds 20 1019 72 6000 1.5 270 12:19 17.10.2019
27 Clouds 19 1019 82 6000 2.1 210 11:55 17.10.2019
28 Clouds 19 1019 82 6000 2.1 210 11:55 17.10.2019
29 -273 0 0 0 0 0 11:55 17.10.2019
30 Clouds 19 1019 82 6000 2.1 210 11:55 17.10.2019
31 Clouds 18 1019 82 9000 2.6 240 11:37 17.10.2019
32 Clouds 18 1019 82 9000 2.6 240 11:18 17.10.2019
33 Mist 16 1019 93 5000 1.5 280 10:41 17.10.2019
34 Mist 16 1019 93 5000 1.5 280 10:19 17.10.2019
35 Mist 14 1019 93 5000 1.5 250 09:56 17.10.2019
36 Mist 14 1019 93 5000 1.5 250 09:56 17.10.2019
37 Mist 14 1019 100 3700 1.5 0 09:38 17.10.2019
38 Mist 14 1019 100 3700 1.5 0 09:19 17.10.2019
39 Mist 13 1019 93 1600 2.1 260 08:48 17.10.2019
40 -273 0 0 0 0 0 08:27 17.10.2019
41 Mist 11 1019 93 3200 2.928 317 07:59 17.10.2019
42 Fog 10 1018 100 800 2.928 317 07:41 17.10.2019
43 Fog 10 1018 100 800 2.928 317 07:21 17.10.2019
44 Fog 10 1018 100 800 2.928 317 07:21 17.10.2019
45 Fog 9 1018 100 250 1.5 230 06:43 17.10.2019
46 Fog 8 1018 100 250 1.5 230 06:24 17.10.2019
47 Fog 8 1018 100 3000 0.5 0 05:59 17.10.2019
48 Fog 8 1018 100 1800 1.5 270 05:35 17.10.2019
49 Mist 9 1018 93 4600 0.5 270 04:58 17.10.2019
50 Clouds 8 1018 100 9000 2.576 311 04:31 17.10.2019
51 Clouds 9 1018 93 10000 2.576 311 03:45 17.10.2019
52 Clouds 11 1018 93 10000 1 0 01:56 17.10.2019
53 Clouds 11 1018 87 10000 0.5 0 00:42 17.10.2019
54 Clouds 12 1018 87 10000 0.5 0 00:20 17.10.2019
55 Clouds 12 1018 87 10000 1.277 84 23:42 16.10.2019
56 Clouds 14 1018 87 10000 1.277 84 23:22 16.10.2019
57 Clouds 12 1018 93 10000 1.277 84 22:58 16.10.2019
58 Clouds 11 1018 93 10000 1 270 22:38 16.10.2019
59 Clouds 12 1018 93 10000 1 270 22:20 16.10.2019
60 Clouds 12 1018 87 10000 0.5 0 21:58 16.10.2019
61 Clouds 12 1018 87 10000 0.5 0 21:58 16.10.2019
62 Clouds 12 1018 87 10000 1.277 84 21:38 16.10.2019
63 Clouds 12 1018 87 10000 2.577 66 21:20 16.10.2019
64 Clouds 13 1018 87 10000 1 0 20:59 16.10.2019
65 Clouds 13 1018 87 10000 1 0 20:59 16.10.2019
66 Clouds 13 1018 93 10000 1 10 20:41 16.10.2019
67 Clouds 13 1018 93 10000 1 10 20:22 16.10.2019
68 Clouds 13 1018 87 10000 1 40 19:59 16.10.2019
69 Clouds 13 1018 87 10000 1 0 19:40 16.10.2019
70 Clouds 14 1018 87 10000 1 0 19:21 16.10.2019
71 Clouds 14 1018 87 10000 1 0 18:57 16.10.2019
72 Clouds 14 1018 87 10000 1 0 18:56 16.10.2019
73 Clear 14 1017 87 10000 1 130 18:37 16.10.2019
74 Clear 15 1017 87 10000 1 130 18:18 16.10.2019
75 Clear 15 1017 82 10000 3.1 130 17:55 16.10.2019
76 Clear 17 1017 77 10000 4.6 130 17:36 16.10.2019
77 Clear 17 1017 77 10000 4.6 130 17:18 16.10.2019
78 Clear 18 1017 72 10000 4.6 130 16:43 16.10.2019
79 Clear 21 1017 72 10000 4.6 130 16:23 16.10.2019
80 Clear 22 1017 68 10000 4.6 120 15:59 16.10.2019
81 Clear 21 1018 63 10000 4.6 130 15:39 16.10.2019
82 Clear 21 1018 63 10000 4.6 130 15:39 16.10.2019
83 Clouds 20 1018 63 10000 4.6 130 15:19 16.10.2019
84 Clouds 20 1018 63 10000 4.6 130 15:19 16.10.2019
85 Clouds 21 1017 64 10000 5.1 140 14:58 16.10.2019
86 Clouds 21 1017 64 10000 5.1 140 14:39 16.10.2019
87 Clouds 21 1017 64 10000 4.6 110 14:19 16.10.2019
88 Clouds 20 1018 64 10000 5.1 120 13:57 16.10.2019
89 Clouds 20 1018 64 10000 5.1 120 13:38 16.10.2019
90 Clouds 20 1018 64 10000 5.1 120 13:38 16.10.2019
91 Clouds 20 1018 60 10000 4.6 100 13:20 16.10.2019
92 Clouds 20 1018 64 10000 4.6 110 12:42 16.10.2019
93 Clouds 20 1018 64 10000 4.6 110 12:19 16.10.2019
94 Clouds 19 1018 60 10000 3.6 110 11:45 16.10.2019
95 Clouds 18 1018 68 10000 3.6 150 11:19 16.10.2019
96 -273 0 0 0 0 0 10:55 16.10.2019
97 Clouds 18 1019 68 10000 3.1 110 10:36 16.10.2019
98 Clouds 18 1019 68 10000 3.6 140 10:18 16.10.2019
99 Clouds 17 1019 68 10000 4.1 130 09:40 16.10.2019
100 Clouds 17 1019 77 10000 3.1 130 09:21 16.10.2019
101 Clouds 16 1019 72 10000 3.1 120 08:44 16.10.2019
102 Clouds 16 1018 72 10000 2.6 130 08:26 16.10.2019
103 Clouds 16 1018 77 10000 2.1 150 07:56 16.10.2019
104 Clouds 16 1018 77 10000 2.1 150 07:38 16.10.2019
105 Clouds 15 1018 82 10000 1.5 160 07:20 16.10.2019
106 Clouds 15 1018 82 10000 1 0 06:40 16.10.2019
107 Clouds 16 1018 82 10000 0.5 0 06:19 16.10.2019
108 Clouds 14 1018 82 10000 2.1 150 03:46 16.10.2019
109 Clouds 13 1018 87 10000 1.09 116 02:50 16.10.2019
110 Clouds 11 1018 87 10000 1 0 01:20 16.10.2019
111 Clouds 11 1018 87 10000 0.5 0 00:57 16.10.2019
112 Clouds 12 1018 87 10000 0.5 0 00:37 16.10.2019
113 Clouds 13 1019 87 10000 2.507 116 23:42 15.10.2019
114 Clouds 16 1019 82 10000 0.5 0 23:22 15.10.2019
115 Clouds 14 1019 87 10000 2.507 116 22:58 15.10.2019
116 Clouds 14 1019 87 10000 2.507 116 22:40 15.10.2019
117 Clouds 13 1019 87 10000 2.507 116 22:21 15.10.2019
118 Clouds 13 1019 87 10000 2.507 116 21:57 15.10.2019
119 Clouds 13 1019 87 10000 2.507 116 21:38 15.10.2019
120 Clouds 13 1019 87 10000 2.76 88 21:20 15.10.2019
121 Clouds 13 1019 87 10000 2.76 88 20:58 15.10.2019
122 Clouds 13 1019 87 10000 2.76 88 20:40 15.10.2019
123 Clouds 13 1019 87 10000 2.76 88 20:21 15.10.2019
124 Clouds 13 1018 87 10000 0.5 0 19:59 15.10.2019
125 Clouds 13 1018 87 10000 0.5 0 19:41 15.10.2019
126 Clouds 13 1018 93 10000 1.5 60 19:20 15.10.2019
127 Clouds 14 1018 87 10000 1.5 50 18:55 15.10.2019
128 Clouds 14 1018 87 10000 1.5 50 18:36 15.10.2019
129 Clouds 14 1018 82 10000 2.6 110 18:18 15.10.2019
130 Clouds 16 1018 82 10000 3.6 120 17:41 15.10.2019
131 Clouds 16 1018 82 10000 3.6 120 17:41 15.10.2019
132 Clouds 17 1018 77 10000 4.1 120 17:20 15.10.2019
133 Clouds 17 1018 77 10000 4.1 120 17:20 15.10.2019
134 Clouds 18 1018 72 10000 5.1 120 16:58 15.10.2019
135 Clouds 19 1018 72 10000 5.1 120 16:39 15.10.2019
136 Clouds 19 1018 72 10000 4.6 130 16:20 15.10.2019
137 Clouds 20 1018 68 10000 5.7 130 15:55 15.10.2019
138 Clouds 20 1018 68 10000 5.7 130 15:55 15.10.2019
139 Clouds 20 1018 68 10000 5.7 130 15:36 15.10.2019
140 Clouds 20 1019 68 10000 5.1 120 15:18 15.10.2019
141 Clouds 21 1019 64 10000 5.1 140 14:38 15.10.2019
142 Clouds 21 1019 64 10000 4.1 110 14:20 15.10.2019
143 Clouds 21 1019 64 10000 4.1 110 14:20 15.10.2019
144 Clouds 21 1019 64 10000 4.1 110 13:58 15.10.2019
145 Clouds 21 1019 64 10000 4.1 110 13:40 15.10.2019
146 Clouds 21 1019 64 10000 4.6 100 13:19 15.10.2019
147 Clouds 20 1020 64 10000 4.1 120 12:43 15.10.2019
148 Clouds 20 1020 64 10000 4.1 120 12:22 15.10.2019
149 Clouds 20 1020 64 10000 4.1 110 11:57 15.10.2019
150 Clouds 20 1020 64 10000 4.1 110 11:38 15.10.2019
151 Clouds 20 1020 64 10000 4.1 90 11:19 15.10.2019
152 Clouds 19 1020 72 10000 3.1 110 10:45 15.10.2019
153 Clouds 18 1020 77 10000 2.1 130 10:22 15.10.2019
154 Clouds 17 1021 72 10000 1.5 0 09:58 15.10.2019
155 Clouds 17 1021 72 10000 1.5 0 09:38 15.10.2019
156 Clouds 16 1021 87 10000 1 0 09:20 15.10.2019
157 Clouds 15 1020 87 9000 1.5 290 08:55 15.10.2019
158 Mist 15 1020 93 6000 0.5 0 08:36 15.10.2019
159 Mist 15 1020 93 6000 0.5 0 08:36 15.10.2019
160 Mist 14 1020 93 6000 0.5 0 08:18 15.10.2019
161 Mist 13 1020 93 5000 0.5 0 07:41 15.10.2019
162 Clouds 12 1020 100 7000 0.5 0 07:21 15.10.2019
163 Clouds 11 1020 93 7000 0.5 0 06:45 15.10.2019
164 Clouds 11 1020 100 10000 1.82 157.414 06:27 15.10.2019
165 Clouds 10 1020 93 10000 1.5 350 05:44 15.10.2019
166 Clouds 11 1020 100 10000 1 0 05:24 15.10.2019
167 Clouds 11 1020 93 9000 1.5 30 04:33 15.10.2019
168 Clouds 13 1019 93 10000 1.52 166.329 03:38 15.10.2019
169 Clouds 13 1019 93 10000 1.52 166.329 03:38 15.10.2019
170 Clouds 14 1020 82 10000 0.5 0 02:42 15.10.2019
171 Clouds 15 1020 87 10000 1.99 176.029 01:49 15.10.2019
172 Clouds 15 1021 87 10000 0.5 0 01:22 15.10.2019
173 Clouds 14 1021 87 10000 0.5 0 00:49 15.10.2019
174 Clouds 14 1021 87 10000 2.31 175.851 00:22 15.10.2019
175 Clouds 13 1021 87 10000 2.31 175.851 23:45 14.10.2019
176 Clouds 13 1021 87 10000 2.31 175.851 23:20 14.10.2019
177 Clouds 13 1021 87 10000 2.31 175.851 23:20 14.10.2019
178 Clouds 13 1021 93 10000 2.31 175.851 22:57 14.10.2019
179 Clouds 13 1021 93 10000 2.31 175.851 22:38 14.10.2019
180 Clouds 13 1021 93 10000 2.31 175.851 22:18 14.10.2019
181 Clouds 13 1021 93 10000 2.31 175.851 22:18 14.10.2019
182 Clouds 13 1021 87 10000 0.5 0 21:55 14.10.2019
183 Clouds 13 1021 87 10000 0.5 0 21:36 14.10.2019
184 Clouds 14 1021 87 10000 2.9 159.181 21:18 14.10.2019
185 Clouds 14 1021 93 10000 0.5 0 20:40 14.10.2019
186 Clouds 14 1021 93 10000 1.5 100 20:22 14.10.2019
187 Clouds 14 1022 93 10000 3.06 159.113 19:59 14.10.2019
188 Clouds 14 1022 93 10000 3.019 105 19:41 14.10.2019
189 Clear 14 1021 87 10000 1.5 90 19:23 14.10.2019
190 Clear 15 1021 82 10000 2.1 70 18:58 14.10.2019
191 Clear 15 1021 82 10000 2.1 70 18:38 14.10.2019
192 Clear 15 1021 87 10000 3.1 100 18:19 14.10.2019
193 Clear 17 1021 77 10000 4.6 120 17:44 14.10.2019
194 Clear 18 1021 77 10000 4.6 120 17:26 14.10.2019
195 Clear 20 1021 72 10000 4.6 130 16:59 14.10.2019
196 Clear 20 1021 72 10000 5.1 130 16:40 14.10.2019
197 Clear 21 1021 72 10000 5.1 130 16:21 14.10.2019
198 Clear 21 1021 68 10000 4.6 120 15:42 14.10.2019
199 Clear 22 1021 68 10000 4.6 120 15:22 14.10.2019
200 Clear 22 1022 64 10000 4.6 130 14:56 14.10.2019
201 Clear 22 1022 64 10000 4.6 130 14:56 14.10.2019
202 Clear 21 1022 60 10000 4.6 130 14:38 14.10.2019
203 Clear 22 1022 60 10000 4.6 130 14:19 14.10.2019
204 Clear 22 1022 60 10000 3.6 110 13:43 14.10.2019
205 Clear 22 1022 60 10000 3.6 110 13:21 14.10.2019
206 Clear 21 1023 64 10000 3.6 120 12:54 14.10.2019
207 Clouds 21 1023 64 10000 3.6 100 12:36 14.10.2019
208 Clouds 20 1023 64 10000 3.1 140 12:18 14.10.2019
209 Clouds 21 1023 68 10000 2.6 150 11:43 14.10.2019
210 Clouds 19 1023 68 10000 2.6 150 11:24 14.10.2019
211 Clouds 18 1024 72 10000 1 0 10:55 14.10.2019
212 Clouds 18 1024 77 10000 1 0 10:37 14.10.2019
213 Clouds 17 1024 93 7000 1 0 10:18 14.10.2019
214 Mist 16 1024 100 4200 1.5 280 09:41 14.10.2019
215 Mist 14 1024 100 3500 1.5 250 09:21 14.10.2019
216 Mist 14 1024 100 3500 1.5 250 08:50 14.10.2019
217 Mist 14 1024 100 3500 1.5 250 08:50 14.10.2019
218 Mist 14 1024 93 3800 1.5 280 08:23 14.10.2019
219 Mist 12 1023 100 3200 2.1 172.044 07:47 14.10.2019
220 Mist 12 1023 100 3200 2.1 172.044 07:25 14.10.2019
221 Mist 12 1023 100 3200 2.1 172.044 07:25 14.10.2019
222 Mist 12 1023 100 1100 0.5 0 06:58 14.10.2019
223 Fog 11 1023 100 550 0.5 0 06:28 14.10.2019
224 Fog 12 1023 93 1400 1 0 05:56 14.10.2019
225 Clouds 11 1023 93 8000 1 0 05:25 14.10.2019
226 Fog 8 1023 100 500 1 290 03:50 14.10.2019
227 Fog 9 1023 100 450 1.81 177.307 03:23 14.10.2019
228 Fog 9 1023 93 300 1.81 177.307 02:25 14.10.2019
229 Fog 11 1023 100 5000 1 350 01:19 14.10.2019
230 Clear 11 1023 100 7000 0.5 0 00:41 14.10.2019
231 Clear 12 1023 100 7000 0.5 0 00:18 14.10.2019
232 Clear 12 1024 93 10000 1.5 10 23:40 13.10.2019
233 Clear 12 1024 93 10000 1.5 10 23:19 13.10.2019
234 Clouds 12 1024 100 10000 1 10 22:56 13.10.2019
235 Clouds 12 1024 100 10000 2.1 20 22:38 13.10.2019
236 Clouds 12 1024 100 10000 2.1 20 22:19 13.10.2019
237 -273 0 0 0 0 0 21:56 13.10.2019
238 Clouds 13 1024 93 10000 2.1 30 21:36 13.10.2019
239 Clouds 13 1024 93 10000 2.1 30 21:36 13.10.2019
240 Clouds 13 1024 93 10000 2.1 30 21:18 13.10.2019
241 Clouds 13 1024 93 10000 1.5 20 21:18 13.10.2019
242 Clouds 14 1024 93 10000 1.5 20 20:55 13.10.2019
243 Clear 13 1024 93 10000 2.1 30 20:37 13.10.2019
244 Clear 14 1024 93 10000 2.1 30 20:18 13.10.2019
245 Clear 14 1024 87 10000 2.1 30 19:54 13.10.2019
246 Clear 14 1024 87 10000 2.1 20 19:36 13.10.2019
247 Clear 14 1024 87 10000 2.1 20 19:36 13.10.2019
248 Clear 14 1024 87 10000 2.1 20 19:36 13.10.2019
249 Clear 14 1024 87 10000 2.1 20 19:18 13.10.2019
250 Clear 15 1023 77 10000 2.6 120 18:40 13.10.2019
251 Clear 15 1023 77 10000 2.6 120 18:40 13.10.2019
252 Clear 16 1023 77 10000 2.6 120 18:21 13.10.2019
253 Clear 16 1023 77 10000 3.6 120 17:59 13.10.2019
254 Clear 18 1023 72 10000 4.1 130 17:41 13.10.2019
255 Clear 18 1023 72 10000 4.1 130 17:22 13.10.2019
256 Clear 21 1023 64 10000 5.1 110 16:43 13.10.2019
257 Clear 21 1023 68 10000 5.1 110 16:19 13.10.2019
258 Clear 22 1023 68 10000 5.1 110 15:58 13.10.2019
259 Clear 22 1023 68 10000 5.1 110 15:57 13.10.2019
260 Clear 22 1023 68 10000 5.1 110 15:57 13.10.2019
261 Clear 22 1023 68 10000 5.7 100 15:38 13.10.2019
262 Clear 22 1023 64 10000 6.2 100 15:19 13.10.2019
263 Clear 22 1023 64 10000 6.2 100 14:57 13.10.2019
264 Clear 23 1023 64 10000 6.2 100 14:38 13.10.2019
265 Clear 23 1023 64 10000 6.2 100 14:19 13.10.2019
266 Clear 23 1023 60 10000 5.7 110 13:42 13.10.2019
267 Clear 23 1023 60 10000 5.7 110 13:42 13.10.2019
268 Clear 23 1023 60 10000 5.7 110 13:23 13.10.2019
269 Clear 23 1024 60 10000 5.1 100 12:59 13.10.2019
270 Clear 22 1024 60 10000 4.6 110 12:39 13.10.2019
271 Clear 22 1024 60 10000 4.6 110 12:21 13.10.2019
272 Clear 22 1024 52 10000 1.5 0 11:59 13.10.2019
273 Clear 22 1024 60 10000 1 0 11:39 13.10.2019
274 Clear 22 1024 60 10000 1 0 11:20 13.10.2019
275 Clear 21 1025 64 10000 1 0 10:57 13.10.2019
276 Clear 21 1025 68 10000 1.5 0 10:38 13.10.2019
277 Clear 20 1025 68 10000 1.5 0 10:20 13.10.2019
278 Clear 18 1025 82 8000 3.12 181.543 09:39 13.10.2019
279 Clear 18 1025 82 8000 2.85 181.892 09:21 13.10.2019
280 Clear 15 1024 100 8000 3.47 175.786 08:44 13.10.2019
281 Clear 15 1024 100 8000 3.47 175.786 08:26 13.10.2019
282 Mist 14 1024 93 4000 3.47 175.786 07:52 13.10.2019
283 Fog 11 1024 100 2900 3.47 175.786 07:33 13.10.2019
284 Fog 10 1024 93 8000 3.47 175.786 06:54 13.10.2019
285 Fog 9 1024 100 10000 3.47 175.786 06:24 13.10.2019
286 Fog 9 1024 100 10000 3.47 175.786 06:24 13.10.2019
287 Fog 10 1024 100 6000 2.93 177.512 05:21 13.10.2019
288 Clear 10 1024 100 8000 1 340 04:34 13.10.2019
289 Clear 12 1024 93 10000 2.6 30 03:24 13.10.2019
290 Clear 11 1025 93 10000 2.1 20 02:30 13.10.2019
291 Clear 11 1025 93 10000 2.1 20 01:36 13.10.2019
292 Clear 12 1025 93 10000 1.5 50 00:56 13.10.2019
293 Clear 12 1025 93 10000 2.1 30 00:37 13.10.2019
294 Clear 12 1025 93 10000 2.1 30 00:18 13.10.2019
295 Clear 12 1025 93 10000 1 50 23:41 12.10.2019
296 Clear 12 1025 93 10000 1 50 23:22 12.10.2019
297 Clear 12 1026 93 10000 1.5 10 22:58 12.10.2019
298 Clear 12 1025 87 10000 1 0 22:40 12.10.2019
299 Clear 12 1025 87 10000 1 0 22:40 12.10.2019
300 Clear 13 1025 87 10000 1 0 22:22 12.10.2019
301 Clear 13 1025 87 10000 1 0 22:22 12.10.2019
302 Clear 13 1025 87 10000 1.5 60 21:57 12.10.2019
303 Clear 14 1025 82 10000 1 50 21:39 12.10.2019
304 Clear 14 1025 82 10000 1 50 21:20 12.10.2019
305 Clear 14 1025 82 10000 1 50 21:20 12.10.2019
306 Clear 13 1025 82 10000 1 60 20:45 12.10.2019
307 Clear 13 1025 82 10000 1 60 20:45 12.10.2019
308 Clear 14 1025 82 10000 1 60 20:27 12.10.2019
309 Clear 15 1025 77 10000 2.6 130 19:42 12.10.2019
310 Clear 15 1025 77 10000 2.6 130 19:24 12.10.2019
311 Clear 16 1025 67 10000 2.6 130 18:59 12.10.2019
312 Clear 16 1025 67 10000 2.6 130 18:41 12.10.2019
313 Clear 16 1025 67 10000 2.6 130 18:41 12.10.2019
314 Clear 16 1025 67 10000 2.6 130 18:23 12.10.2019
315 Clear 17 1025 63 10000 4.1 140 17:45 12.10.2019
316 Clear 18 1025 63 10000 4.1 140 17:21 12.10.2019
317 Clear 19 1025 59 10000 5.1 120 16:57 12.10.2019
318 Clear 19 1025 59 10000 5.1 120 16:57 12.10.2019
319 Clear 20 1025 56 10000 5.7 120 16:38 12.10.2019
320 Clear 20 1025 56 10000 5.7 120 16:19 12.10.2019
321 Clear 21 1025 56 10000 5.7 130 15:45 12.10.2019
322 Clear 21 1025 56 10000 5.7 130 15:26 12.10.2019
323 Clear 21 1025 49 10000 6.7 120 14:59 12.10.2019
324 Clear 21 1025 49 10000 6.7 120 14:38 12.10.2019
325 Clear 21 1025 49 10000 6.7 120 14:19 12.10.2019
326 Clouds 22 1026 52 10000 7.2 120 13:45 12.10.2019
327 Clouds 22 1026 52 10000 7.2 120 13:27 12.10.2019
328 Clouds 22 1026 43 10000 5.1 140 12:41 12.10.2019
329 Clouds 22 1026 43 10000 5.1 140 12:22 12.10.2019
330 Clouds 22 1026 43 10000 5.1 140 12:22 12.10.2019
331 Clouds 21 1027 46 10000 4.6 160 11:59 12.10.2019
332 Clouds 21 1027 46 10000 5.1 150 11:40 12.10.2019
333 Clouds 21 1027 46 10000 5.1 150 11:22 12.10.2019
334 Clear 21 1027 56 10000 3.1 170 10:56 12.10.2019
335 Clear 21 1027 60 10000 2.6 150 10:37 12.10.2019
336 Clear 20 1027 60 10000 2.6 150 10:18 12.10.2019
337 Clear 19 1027 77 8000 0.5 0 09:55 12.10.2019
338 Clear 17 1027 93 8000 4.61 181.529 09:37 12.10.2019
339 Clear 17 1027 93 8000 3.22 179.146 09:18 12.10.2019
340 Mist 15 1027 100 3300 3.45 175.446 08:41 12.10.2019
341 Mist 15 1027 100 3300 3.45 175.446 08:41 12.10.2019
342 Mist 14 1027 100 3300 3.45 175.446 08:20 12.10.2019
343 Mist 14 1027 100 3300 3.45 175.446 08:20 12.10.2019
344 Mist 14 1027 100 3300 3.45 175.446 08:20 12.10.2019
345 Fog 12 1026 100 300 0.5 260 07:36 12.10.2019
346 Fog 11 1026 100 900 3.45 175.446 06:59 12.10.2019
347 Fog 10 1026 93 3500 0.5 270 05:49 12.10.2019
348 Clouds 10 1026 100 7000 2.35 181.246 05:24 12.10.2019
349 Clear 10 1026 93 7000 2.35 181.246 04:26 12.10.2019
350 Clear 10 1026 93 7000 2.35 181.246 04:26 12.10.2019
351 Clear 10 1026 100 8000 2.35 181.246 03:41 12.10.2019
352 Clouds 10 1026 93 10000 0.5 350 01:56 12.10.2019
353 Clouds 10 1026 100 10000 2.55 177.935 01:29 12.10.2019
354 Clear 10 1026 93 10000 1.5 330 00:43 12.10.2019
355 Clear 10 1026 93 10000 1.5 330 00:19 12.10.2019
356 Clear 10 1026 93 10000 1.5 330 00:19 12.10.2019
357 Clear 12 1026 87 10000 1.5 10 23:40 11.10.2019
358 Clear 12 1026 87 10000 1.5 10 23:20 11.10.2019
359 Clear 12 1025 87 10000 1.5 20 22:41 11.10.2019
360 Clear 12 1025 87 10000 1.5 20 22:22 11.10.2019
361 Clear 13 1025 87 10000 2.1 10 21:59 11.10.2019
362 Clear 13 1025 87 10000 2.1 20 21:40 11.10.2019
363 Clear 13 1025 87 10000 2.1 20 21:21 11.10.2019
364 Clear 13 1025 82 10000 1.5 50 20:45 11.10.2019
365 Clear 13 1025 82 10000 1.5 50 20:27 11.10.2019
366 Clear 13 1025 77 10000 1.5 20 19:59 11.10.2019
367 Clear 14 1024 72 10000 2.89 163.094 19:39 11.10.2019
368 Clear 14 1024 72 10000 2.89 163.094 19:18 11.10.2019
369 Clear 14 1024 72 10000 2.89 163.094 19:18 11.10.2019
370 Clear 14 1024 72 10000 2.89 163.094 19:18 11.10.2019
371 Clear 14 1024 72 10000 1 110 18:59 11.10.2019
372 Clear 16 1024 72 10000 3.1 130 18:38 11.10.2019
373 Clear 16 1024 72 10000 3.1 130 18:19 11.10.2019
374 Clear 17 1024 72 10000 4.1 130 17:59 11.10.2019
375 Clear 17 1024 72 10000 4.1 130 17:59 11.10.2019
376 Clear 19 1023 37 10000 2.6 0 17:38 11.10.2019
377 Clear 19 1023 37 10000 2.6 0 17:19 11.10.2019
378 Clouds 21 1023 40 10000 2.6 360 16:58 11.10.2019
379 Clouds 21 1023 37 10000 1.5 360 16:39 11.10.2019
380 Clouds 21 1023 37 10000 1.5 360 16:19 11.10.2019
381 Clouds 21 1023 37 10000 1.5 360 16:19 11.10.2019
382 Clouds 21 1023 43 10000 4.1 360 15:42 11.10.2019
383 Clouds 21 1023 43 10000 4.1 360 15:21 11.10.2019
384 Clouds 22 1022 40 10000 3.6 350 14:59 11.10.2019
385 Clouds 21 1023 43 10000 5.7 330 14:39 11.10.2019
386 Clouds 21 1023 43 10000 5.7 330 14:20 11.10.2019
387 Clouds 21 1022 43 10000 4.6 340 13:45 11.10.2019
388 Clouds 21 1022 43 10000 4.6 340 13:45 11.10.2019
389 Clouds 21 1022 43 10000 4.6 340 13:25 11.10.2019
390 Clouds 20 1022 46 10000 4.1 30 12:57 11.10.2019
391 Clouds 21 1022 46 10000 4.6 20 12:38 11.10.2019
392 Clouds 20 1022 46 10000 4.6 20 12:20 11.10.2019
393 Clouds 20 1022 56 10000 5.1 360 11:58 11.10.2019
394 Clouds 20 1022 52 10000 5.7 320 11:38 11.10.2019
395 Clouds 18 1022 67 10000 4.1 320 11:20 11.10.2019
396 Clouds 18 1022 67 10000 4.1 320 10:54 11.10.2019
397 Clouds 18 1022 67 10000 4.1 320 10:54 11.10.2019
398 Clouds 18 1022 72 10000 6.7 350 10:36 11.10.2019
399 Clouds 17 1022 72 10000 7.2 300 10:18 11.10.2019
400 Clouds 16 1021 68 10000 6.7 290 09:41 11.10.2019
401 Clouds 16 1021 68 10000 6.7 290 09:20 11.10.2019
402 Clouds 16 1020 72 10000 4.6 280 08:56 11.10.2019
403 Clouds 16 1020 72 10000 3.1 250 08:38 11.10.2019
404 Clouds 16 1020 72 10000 3.1 250 08:19 11.10.2019
405 Clouds 16 1020 77 10000 2.6 230 07:51 11.10.2019
406 Clouds 16 1019 77 10000 3.1 270 07:33 11.10.2019
407 Clouds 15 1019 77 10000 2.6 270 06:49 11.10.2019
408 Clouds 16 1019 72 10000 2.6 270 06:24 11.10.2019
409 Clear 16 1018 67 10000 3.6 240 05:46 11.10.2019
410 Clear 15 1018 67 10000 3.6 240 05:27 11.10.2019
411 Clear 15 1018 67 10000 4.6 260 04:47 11.10.2019
412 Clear 16 1016 59 10000 6.7 330 02:59 11.10.2019
413 Clear 16 1015 71 10000 1 0 00:52 11.10.2019
414 Clear 16 1015 72 10000 1.5 10 00:30 11.10.2019
415 Clear 15 1015 71 10000 2.1 360 23:50 10.10.2019
416 Clear 16 1015 63 10000 1.5 350 23:24 10.10.2019
417 Clear 15 1015 67 10000 2.6 10 22:59 10.10.2019
418 Clear 14 1015 71 10000 0.5 0 22:40 10.10.2019
419 Clear 14 1015 71 10000 0.5 0 22:21 10.10.2019
420 Clear 14 1015 71 10000 0.5 0 22:21 10.10.2019
421 Clear 15 1015 63 10000 1 10 21:59 10.10.2019
422 Clear 15 1015 59 10000 2.1 360 21:40 10.10.2019
423 Clear 15 1015 59 10000 2.1 360 21:40 10.10.2019
424 Clear 15 1015 59 10000 2.1 360 21:22 10.10.2019
425 Clear 16 1015 55 10000 0.5 0 20:57 10.10.2019
426 Clear 16 1015 52 10000 1 360 20:39 10.10.2019
427 Clear 17 1015 52 10000 1 360 20:19 10.10.2019
428 Clear 18 1015 45 10000 2.1 10 19:55 10.10.2019
429 Clear 18 1015 42 10000 0.5 0 19:36 10.10.2019
430 Clear 18 1015 42 10000 0.5 0 19:18 10.10.2019
431 Clear 20 1014 40 10000 0.5 0 18:41 10.10.2019
432 Clear 21 1014 40 10000 0.5 0 18:20 10.10.2019
433 Clear 22 1014 33 10000 2.6 250 17:56 10.10.2019
434 Clear 23 1014 29 10000 3.6 260 17:37 10.10.2019
435 Clear 23 1014 29 10000 3.6 260 17:18 10.10.2019
436 Clear 25 1014 26 10000 6.7 280 16:47 10.10.2019
437 Clear 25 1014 26 10000 6.7 280 16:26 10.10.2019
438 Clear 25 1014 26 10000 6.7 280 16:26 10.10.2019
439 Clear 26 1014 28 10000 5.7 280 15:58 10.10.2019
440 Clear 26 1014 30 10000 6.2 260 15:38 10.10.2019
441 Clear 26 1014 30 10000 6.2 260 15:19 10.10.2019
442 Clear 26 1014 28 10000 5.1 280 14:55 10.10.2019
443 Clear 26 1014 30 10000 8.2 270 14:36 10.10.2019
444 Clear 26 1014 30 10000 8.2 270 14:18 10.10.2019
445 Clear 25 1015 34 10000 7.7 280 13:42 10.10.2019
446 Clear 25 1015 34 10000 7.7 280 13:24 10.10.2019
447 Clear 24 1015 36 10000 6.7 270 12:58 10.10.2019
448 Clear 24 1015 41 10000 5.7 260 12:40 10.10.2019
449 Clear 24 1015 41 10000 5.7 260 12:20 10.10.2019
450 Clear 23 1015 41 10000 6.7 270 11:58 10.10.2019
451 Clear 23 1016 46 10000 5.7 260 11:38 10.10.2019
452 Clear 22 1016 46 10000 5.7 260 11:19 10.10.2019
453 Clear 20 1016 68 10000 3.1 240 10:44 10.10.2019
454 Clear 20 1016 68 10000 3.1 240 10:26 10.10.2019
455 Clear 19 1016 67 10000 2.6 250 09:56 10.10.2019
456 Clouds 17 1016 77 8000 2.6 270 09:38 10.10.2019
457 Clouds 17 1016 77 8000 2.6 270 09:20 10.10.2019
458 Clear 16 1016 93 9000 1.5 260 08:57 10.10.2019
459 Clear 15 1016 93 8000 2.04 221.154 08:37 10.10.2019
460 Clear 15 1016 93 8000 2.04 221.154 08:18 10.10.2019
461 Clear 15 1016 93 8000 2.04 221.154 08:18 10.10.2019
462 Fog 12 1015 100 7000 1.5 300 07:42 10.10.2019
463 Fog 12 1015 100 7000 1.5 300 07:20 10.10.2019
464 Fog 11 1015 100 7000 1.5 350 06:48 10.10.2019
465 Clear 10 1015 100 9000 0.5 360 06:29 10.10.2019
466 Clear 10 1016 93 10000 1.5 50 05:27 10.10.2019
467 Clear 11 1016 93 10000 2.1 10 04:39 10.10.2019
468 Clear 11 1016 93 10000 2.1 10 04:21 10.10.2019
469 Clear 12 1017 93 10000 3.82 177.151 01:43 10.10.2019
470 Clear 12 1017 93 10000 3.53 180.843 01:24 10.10.2019
471 Clear 12 1018 93 10000 3.53 180.843 00:54 10.10.2019
472 Clear 13 1018 93 10000 3.45 170.876 00:22 10.10.2019
473 Clear 13 1018 93 10000 3.45 170.876 23:40 09.10.2019
474 Clear 13 1018 93 10000 3.45 170.876 23:20 09.10.2019
475 Clear 14 1018 87 10000 3.45 170.876 22:56 09.10.2019
476 Clear 14 1019 87 10000 0.5 0 22:37 09.10.2019
477 Clear 14 1019 87 10000 0.5 0 22:19 09.10.2019
478 Clear 14 1019 87 10000 3.45 170.876 21:40 09.10.2019
479 Clear 14 1019 87 10000 4.8 171.502 21:20 09.10.2019
480 Clear 15 1019 77 10000 1.5 180 20:56 09.10.2019
481 Clear 14 1019 87 10000 0.5 0 20:38 09.10.2019
482 Clear 14 1019 87 10000 0.5 0 20:38 09.10.2019
483 Clear 14 1019 87 10000 0.5 0 20:19 09.10.2019
484 Clear 14 1019 87 10000 0.5 0 20:19 09.10.2019
485 Clear 14 1019 77 10000 5.02 170.153 19:57 09.10.2019
486 Clear 15 1019 77 10000 3.1 160 19:39 09.10.2019
487 Clear 15 1019 77 10000 3.1 160 19:20 09.10.2019
488 Clear 16 1019 72 10000 3.6 160 18:38 09.10.2019
489 Clear 16 1019 72 10000 3.6 160 18:19 09.10.2019
490 Clear 17 1019 68 10000 3.6 150 17:57 09.10.2019
491 Clear 18 1019 49 10000 4.1 160 17:37 09.10.2019
492 Clear 19 1019 49 10000 4.6 200 17:19 09.10.2019
493 Clear 20 1019 46 10000 5.1 200 16:42 09.10.2019
494 Clear 20 1019 46 10000 5.1 200 16:24 09.10.2019
495 Clear 20 1019 43 10000 4.6 190 15:58 09.10.2019
496 Clear 20 1019 46 10000 4.1 190 15:40 09.10.2019
497 Clear 21 1019 46 10000 4.1 190 15:20 09.10.2019
498 Clear 21 1020 46 10000 4.1 200 14:59 09.10.2019
499 Clear 21 1020 46 10000 4.6 200 14:41 09.10.2019
500 Clear 21 1020 46 10000 4.6 200 14:18 09.10.2019
501 Clear 20 1021 49 10000 4.1 210 13:40 09.10.2019
502 Clear 20 1021 49 10000 4.1 210 13:22 09.10.2019
503 Clear 19 1021 49 10000 4.6 200 12:59 09.10.2019
504 Clear 20 1022 49 10000 4.6 210 12:41 09.10.2019
505 Clear 19 1022 49 10000 4.6 210 12:21 09.10.2019
506 Clouds 19 1022 49 10000 5.1 220 11:55 09.10.2019
507 Clouds 18 1023 52 10000 4.6 210 11:37 09.10.2019
508 Clear 17 1023 55 10000 4.1 200 11:19 09.10.2019
509 Clear 17 1023 59 10000 2.6 220 10:43 09.10.2019
510 Clear 17 1023 59 10000 2.6 220 10:43 09.10.2019
511 Clear 16 1023 59 10000 2.6 220 10:21 09.10.2019
512 Clear 16 1024 67 10000 2.1 160 09:59 09.10.2019
513 Clear 15 1024 63 10000 0.5 0 09:40 09.10.2019
514 Clear 15 1024 63 10000 0.5 0 09:40 09.10.2019
515 Clear 15 1024 63 10000 0.5 0 09:40 09.10.2019
516 Clear 15 1024 63 10000 0.5 0 09:18 09.10.2019
517 Clear 13 1024 76 10000 6.5 190.293 08:41 09.10.2019
518 Clear 13 1024 76 10000 6.5 190.293 08:21 09.10.2019
519 Clear 11 1024 93 10000 0.5 0 07:56 09.10.2019
520 Clear 10 1023 100 10000 2.1 10 07:37 09.10.2019
521 Clear 10 1023 100 10000 2.1 10 07:19 09.10.2019
522 Clear 10 1023 100 10000 2.1 10 07:19 09.10.2019
523 Clouds 9 1023 100 10000 1 30 06:49 09.10.2019
524 Clouds 9 1023 93 10000 4.02 183.194 05:55 09.10.2019
525 Clouds 9 1024 93 10000 4.02 183.194 05:28 09.10.2019
526 Clouds 9 1024 93 10000 4.02 183.194 04:24 09.10.2019
527 Clouds 9 1024 93 10000 2.1 360 02:50 09.10.2019
528 Clouds 9 1025 87 10000 2.6 10 01:43 09.10.2019
529 Clouds 9 1025 87 10000 2.6 10 01:19 09.10.2019
530 Clouds 9 1025 87 10000 2.6 10 01:19 09.10.2019
531 Clouds 8 1025 93 10000 1.5 350 00:56 09.10.2019
532 Clouds 9 1025 87 10000 1.5 340 00:38 09.10.2019
533 Clouds 9 1025 87 10000 1.5 340 00:38 09.10.2019
534 Clouds 9 1025 87 10000 1.5 340 00:38 09.10.2019
535 Clouds 8 1025 87 10000 1.5 340 00:19 09.10.2019
536 Clouds 8 1025 87 10000 1.5 20 23:39 08.10.2019
537 Clouds 8 1025 87 10000 1.5 20 23:18 08.10.2019
538 Clouds 7 1025 81 10000 2.1 20 22:56 08.10.2019
539 Clouds 8 1025 81 10000 1.5 20 22:38 08.10.2019
540 Clouds 8 1025 81 10000 1.5 20 22:19 08.10.2019
541 Clouds 8 1025 81 10000 3.18 170.277 21:57 08.10.2019
542 Clouds 9 1025 71 10000 1 100 21:38 08.10.2019
543 Clouds 9 1025 71 10000 1 100 21:18 08.10.2019
544 Clouds 9 1025 71 10000 0.5 0 20:55 08.10.2019
545 Clouds 9 1025 71 10000 3.1 50 20:37 08.10.2019
546 Clouds 9 1025 71 10000 3.1 50 20:18 08.10.2019
547 Clouds 9 1024 66 10000 2.6 60 19:55 08.10.2019
548 Clouds 10 1024 62 10000 3.6 50 19:36 08.10.2019
549 Clouds 11 1024 62 10000 3.6 50 19:18 08.10.2019
550 Clouds 12 1024 58 10000 2.6 50 18:42 08.10.2019
551 Clouds 12 1024 58 10000 2.6 50 18:24 08.10.2019
552 Clouds 13 1023 54 10000 2.6 70 17:57 08.10.2019
553 Clouds 13 1023 54 10000 2.6 70 17:57 08.10.2019
554 Clouds 13 1023 54 10000 3.6 70 17:39 08.10.2019
555 Clouds 13 1023 54 10000 3.6 70 17:19 08.10.2019
556 -273 0 0 0 0 0 16:56 08.10.2019
557 Clouds 14 1023 51 10000 3.6 80 16:56 08.10.2019
558 Clouds 14 1023 54 10000 3.1 60 16:37 08.10.2019
559 Clouds 14 1023 48 10000 4.1 70 16:18 08.10.2019
560 Clouds 14 1022 48 10000 3.1 70 15:38 08.10.2019
561 Clouds 14 1022 48 10000 3.1 60 15:20 08.10.2019
562 Clouds 14 1022 48 10000 3.1 60 15:20 08.10.2019
563 Clouds 15 1022 48 10000 3.1 60 14:56 08.10.2019
564 Clouds 15 1022 51 10000 3.1 70 14:37 08.10.2019
565 Clouds 15 1022 51 10000 3.1 70 14:19 08.10.2019
566 Clouds 15 1022 51 10000 4.1 70 13:55 08.10.2019
567 Clouds 15 1022 58 10000 4.1 80 13:37 08.10.2019
568 Clouds 14 1022 58 10000 4.1 80 13:18 08.10.2019
569 Clouds 15 1022 58 10000 4.1 80 13:18 08.10.2019
570 Clouds 14 1022 58 10000 4.1 80 13:18 08.10.2019
571 Clouds 14 1022 58 10000 5.1 70 12:41 08.10.2019
572 Clouds 14 1022 58 10000 5.1 70 12:20 08.10.2019
573 Clouds 13 1022 62 10000 1.5 0 11:57 08.10.2019
574 Clouds 13 1022 62 10000 1.5 0 11:57 08.10.2019
575 Clouds 12 1022 62 10000 1.5 170 11:38 08.10.2019
576 Clouds 12 1022 62 10000 1.5 170 11:20 08.10.2019
577 Clouds 11 1022 66 10000 2.1 0 10:42 08.10.2019
578 Clouds 11 1022 66 10000 2.1 0 10:23 08.10.2019
579 Clouds 10 1021 66 10000 9.3 30 09:59 08.10.2019
580 Clouds 10 1021 71 10000 8.7 20 09:40 08.10.2019
581 Clouds 10 1021 71 10000 8.7 20 09:22 08.10.2019
582 Clouds 9 1020 71 10000 8.2 20 08:45 08.10.2019
583 Clouds 9 1020 71 10000 8.2 20 08:25 08.10.2019
584 Clouds 8 1020 70 10000 6.7 20 07:48 08.10.2019
585 Clouds 8 1020 70 10000 6.7 20 07:23 08.10.2019
586 Clouds 8 1019 76 10000 6.7 20 06:59 08.10.2019
587 Clear 8 1019 70 10000 7.2 20 06:39 08.10.2019
588 Clear 8 1019 70 10000 6.7 20 06:21 08.10.2019
589 Clear 8 1019 66 10000 5.1 30 05:43 08.10.2019
590 Clear 8 1018 66 10000 6.2 30 04:56 08.10.2019
591 Clouds 8 1018 66 10000 7.2 30 03:31 08.10.2019
592 Clouds 8 1018 71 10000 4.6 20 02:41 08.10.2019
593 Clear 8 1018 71 10000 1 0 01:58 08.10.2019
594 Clear 8 1018 76 10000 1.5 0 01:40 08.10.2019
595 Clear 8 1018 71 10000 2.1 0 00:55 08.10.2019
596 Clear 8 1017 71 10000 7.7 30 00:23 08.10.2019
597 Clouds 9 1017 76 10000 5.7 30 23:46 07.10.2019
598 Clouds 10 1017 76 10000 5.7 30 23:21 07.10.2019
599 Clouds 10 1017 76 10000 5.7 30 23:21 07.10.2019
600 Clouds 9 1017 71 10000 2.6 0 22:59 07.10.2019
601 Clouds 10 1017 71 10000 2.6 0 22:41 07.10.2019
602 Clouds 9 1017 71 10000 2.6 0 22:23 07.10.2019
603 Clouds 10 1017 71 10000 0.5 0 21:59 07.10.2019
604 Clouds 10 1018 71 10000 1.5 0 21:40 07.10.2019
605 Clouds 10 1018 71 10000 1.5 0 21:21 07.10.2019
606 Clouds 10 1017 71 10000 2.6 150 20:59 07.10.2019
607 Clouds 10 1017 71 10000 4.6 10 20:40 07.10.2019
608 Clouds 10 1017 71 10000 4.6 10 20:21 07.10.2019
609 Clouds 10 1016 66 10000 5.7 360 19:59 07.10.2019
610 Clouds 10 1016 66 10000 5.1 360 19:41 07.10.2019
611 Clouds 10 1016 71 10000 6.2 10 19:20 07.10.2019
612 Clouds 10 1016 71 10000 6.2 10 18:59 07.10.2019
613 Clouds 10 1016 71 10000 6.2 10 18:39 07.10.2019
614 Clouds 11 1015 66 10000 4.1 20 18:19 07.10.2019
615 Clouds 12 1015 62 10000 4.6 20 17:43 07.10.2019
616 Clouds 12 1015 62 10000 4.6 20 17:23 07.10.2019
617 Clouds 12 1015 66 10000 4.6 40 16:59 07.10.2019
618 Clouds 12 1014 62 10000 3.6 70 16:41 07.10.2019
619 Clouds 12 1014 62 10000 3.6 70 16:22 07.10.2019
620 Clouds 13 1014 58 10000 3.1 130 15:46 07.10.2019
621 Clouds 13 1014 58 10000 3.1 130 15:26 07.10.2019
622 Clouds 14 1014 55 10000 2.6 120 14:58 07.10.2019
623 Clouds 14 1014 58 10000 4.1 120 14:40 07.10.2019
624 Clouds 14 1014 58 10000 4.1 120 14:21 07.10.2019
625 Clouds 14 1014 51 10000 2.6 180 13:43 07.10.2019
626 Clouds 14 1014 51 10000 2.6 180 13:21 07.10.2019
627 Clouds 15 1014 51 10000 2.1 0 12:57 07.10.2019
628 Clouds 14 1014 51 10000 2.1 20 12:39 07.10.2019
629 Clouds 15 1014 51 10000 2.1 20 12:19 07.10.2019
630 Clouds 15 1014 48 10000 3.1 290 11:57 07.10.2019
631 Clouds 14 1014 51 10000 2.1 330 11:38 07.10.2019
632 Clouds 13 1014 51 10000 2.1 330 11:20 07.10.2019
633 Clouds 13 1014 51 10000 2.1 330 11:20 07.10.2019
634 Clouds 12 1014 62 10000 3.1 310 10:42 07.10.2019
635 Clouds 12 1014 62 10000 3.1 310 10:21 07.10.2019
636 Clear 11 1014 62 10000 3.6 310 09:43 07.10.2019
637 Clear 11 1014 62 10000 3.6 310 09:25 07.10.2019
638 Clear 11 1014 71 10000 3.1 330 08:58 07.10.2019
639 Clear 10 1014 76 10000 3.6 300 08:39 07.10.2019
640 Clear 10 1014 76 10000 3.6 300 08:20 07.10.2019
641 Clear 9 1013 81 10000 1 0 07:43 07.10.2019
642 Clear 9 1013 81 10000 1 0 07:25 07.10.2019
643 Clear 9 1013 81 10000 2.6 290 06:55 07.10.2019
644 Clear 8 1013 87 10000 2.1 270 06:37 07.10.2019
645 Clear 8 1013 87 10000 3.6 270 05:50 07.10.2019
646 Clear 8 1013 87 10000 4.6 280 05:24 07.10.2019
647 Clear 9 1013 81 10000 4.1 260 04:42 07.10.2019
648 Clear 9 1013 76 10000 5.1 280 03:45 07.10.2019
649 Clear 9 1013 76 10000 5.1 280 03:45 07.10.2019
650 Clear 9 1013 76 10000 5.1 280 03:23 07.10.2019
651 Clear 9 1013 76 10000 5.1 280 03:23 07.10.2019
652 Clear 9 1013 76 10000 3.1 320 02:23 07.10.2019
653 Clear 9 1013 76 10000 3.1 320 02:23 07.10.2019
654 Clouds 9 1013 76 10000 4.6 280 01:57 07.10.2019
655 Clouds 9 1013 76 10000 4.1 200 01:22 07.10.2019
656 Clear 9 1013 76 10000 4.6 280 00:44 07.10.2019
657 Clear 9 1013 76 10000 4.6 280 00:22 07.10.2019
658 Clear 10 1013 71 10000 4.6 280 23:56 06.10.2019
659 Clear 11 1013 62 10000 6.2 280 23:38 06.10.2019
660 Clear 11 1013 62 10000 6.2 280 23:18 06.10.2019
661 Clear 10 1013 66 10000 4.1 280 22:42 06.10.2019
662 Clear 10 1013 66 10000 4.1 280 22:22 06.10.2019
663 Clear 10 1013 66 10000 3.1 250 21:58 06.10.2019
664 Clear 10 1013 76 10000 1.5 0 21:38 06.10.2019
665 Clear 10 1013 76 10000 1.5 0 21:19 06.10.2019
666 Clear 11 1013 66 10000 2.1 290 20:58 06.10.2019
667 Clear 11 1013 71 10000 0.5 0 20:40 06.10.2019
668 Clear 10 1013 71 10000 0.5 0 20:21 06.10.2019
669 Clear 11 1012 66 10000 3.6 320 19:57 06.10.2019
670 Clear 11 1012 66 10000 3.6 320 19:37 06.10.2019
671 Clear 10 1012 66 10000 3.6 320 19:19 06.10.2019
672 Clouds 12 1012 62 10000 4.1 300 18:57 06.10.2019
673 Clouds 13 1012 62 10000 2.6 310 18:38 06.10.2019
674 Clouds 13 1012 62 10000 2.6 310 18:19 06.10.2019
675 Clouds 14 1011 62 10000 4.6 280 17:57 06.10.2019
676 Clouds 15 1011 59 10000 4.6 280 17:39 06.10.2019
677 Clouds 15 1011 59 10000 4.6 280 17:19 06.10.2019
678 Clouds 16 1011 67 10000 3.1 330 16:42 06.10.2019
679 Clouds 16 1011 67 10000 3.1 330 16:24 06.10.2019
680 Clouds 15 1011 62 10000 4.6 300 15:56 06.10.2019
681 Clouds 16 1011 72 10000 3.1 290 15:38 06.10.2019
682 Clouds 15 1011 72 10000 3.1 290 15:18 06.10.2019
683 Clouds 16 1011 48 10000 6.7 290 14:42 06.10.2019
684 Clouds 16 1011 48 10000 6.7 290 14:24 06.10.2019
685 Clouds 17 1010 48 10000 7.2 290 13:56 06.10.2019
686 Clouds 17 1010 48 10000 7.2 290 13:56 06.10.2019
687 Clouds 18 1010 48 10000 7.2 280 13:38 06.10.2019
688 Clouds 18 1010 48 10000 7.2 280 13:19 06.10.2019
689 Clouds 18 1010 52 10000 5.1 270 12:56 06.10.2019
690 Clouds 18 1010 52 10000 4.1 280 12:38 06.10.2019
691 Clouds 18 1010 55 10000 4.6 290 12:19 06.10.2019
692 Clouds 18 1010 55 10000 4.6 290 11:55 06.10.2019
693 Clouds 17 1010 59 10000 5.1 280 11:36 06.10.2019
694 Clouds 16 1010 59 10000 5.1 280 11:18 06.10.2019
695 Clouds 16 1010 59 10000 3.6 300 10:42 06.10.2019
696 Clouds 16 1010 59 10000 3.6 300 10:24 06.10.2019
697 Clouds 15 1010 76 10000 2.6 260 09:42 06.10.2019
698 Clouds 15 1010 76 10000 2.6 260 09:22 06.10.2019
699 Clouds 15 1010 76 10000 2.6 260 09:22 06.10.2019
700 Clouds 15 1010 76 10000 2.6 260 09:22 06.10.2019
701 Clear 15 1010 82 10000 2.1 240 08:59 06.10.2019
702 Clouds 13 1010 93 9000 2.6 240 08:40 06.10.2019
703 Clouds 13 1010 93 9000 2.6 240 08:20 06.10.2019
704 Clouds 11 1010 93 9000 3.1 240 07:44 06.10.2019
705 Clouds 11 1010 93 9000 3.1 240 07:18 06.10.2019
706 Clouds 9 1009 93 10000 3.1 280 06:19 06.10.2019
707 Clear 9 1009 93 10000 1.5 290 05:28 06.10.2019
708 Clear 10 1009 87 10000 1 270 03:35 06.10.2019
709 Clear 10 1010 93 10000 1 300 02:40 06.10.2019
710 Clear 10 1010 93 10000 1 300 02:19 06.10.2019
711 Clear 11 1010 81 10000 1.5 310 01:38 06.10.2019
712 Clear 11 1010 81 10000 1.5 310 01:20 06.10.2019
713 Clouds 11 1010 81 10000 1 0 00:45 06.10.2019
714 Clouds 11 1010 81 10000 1 0 00:21 06.10.2019
715 Clouds 11 1010 81 10000 1 280 23:43 05.10.2019
716 Clouds 11 1010 81 10000 1 280 23:21 05.10.2019
717 Clouds 12 1010 76 10000 1.03 204.058 22:56 05.10.2019
718 Clouds 12 1011 76 10000 1 290 22:38 05.10.2019
719 Clouds 12 1011 76 10000 1 290 22:38 05.10.2019
720 Clouds 12 1011 76 10000 1 290 22:19 05.10.2019
721 Clouds 12 1010 76 10000 1 330 21:42 05.10.2019
722 Clouds 12 1010 76 10000 1 330 21:24 05.10.2019
723 Clouds 12 1010 71 10000 3.1 300 20:58 05.10.2019
724 Clouds 12 1010 71 10000 3.1 340 20:40 05.10.2019
725 Clouds 12 1010 71 10000 3.1 340 20:19 05.10.2019
726 Clouds 12 1010 71 10000 2.1 350 19:56 05.10.2019
727 Clouds 12 1010 71 10000 2.6 290 19:37 05.10.2019
728 Clouds 13 1010 71 10000 2.1 290 19:18 05.10.2019
729 Clouds 13 1010 71 10000 2.1 290 18:55 05.10.2019
730 Clouds 13 1010 71 10000 3.6 310 18:36 05.10.2019
731 Clouds 13 1010 71 10000 3.6 310 18:18 05.10.2019
732 Clouds 13 1009 62 10000 4.6 300 17:41 05.10.2019
733 Clouds 14 1009 62 10000 4.6 300 17:21 05.10.2019
734 Clouds 14 1009 62 10000 4.6 300 16:55 05.10.2019
735 Clouds 14 1009 62 10000 4.6 300 16:55 05.10.2019
736 Clouds 14 1009 62 10000 4.6 310 16:36 05.10.2019
737 Clouds 14 1009 62 10000 4.6 310 16:18 05.10.2019
738 Clouds 15 1009 59 10000 4.1 300 15:55 05.10.2019
739 Clouds 15 1009 59 10000 5.7 310 15:37 05.10.2019
740 Clouds 15 1009 59 10000 5.7 310 15:18 05.10.2019
741 Clouds 15 1009 62 10000 6.7 310 14:41 05.10.2019
742 Clouds 15 1009 67 10000 6.2 330 14:20 05.10.2019
743 Clouds 14 1009 67 10000 5.7 310 13:43 05.10.2019
744 Clouds 14 1009 67 10000 5.7 310 13:25 05.10.2019
745 Clouds 14 1009 67 10000 6.7 310 12:58 05.10.2019
746 Clouds 13 1009 71 10000 6.2 320 12:40 05.10.2019
747 Clouds 13 1009 71 10000 6.7 300 12:18 05.10.2019
748 Clouds 12 1009 76 10000 6.2 310 11:39 05.10.2019
749 Clouds 12 1009 76 10000 5.1 300 11:20 05.10.2019
750 Clouds 12 1009 76 10000 5.1 300 10:54 05.10.2019
751 Clouds 12 1009 81 10000 6.2 300 10:36 05.10.2019
752 Clouds 11 1009 87 10000 5.1 300 10:18 05.10.2019
753 Clouds 11 1009 81 10000 6.2 300 09:39 05.10.2019
754 Clouds 10 1009 81 10000 6.2 300 09:21 05.10.2019
755 Clouds 10 1008 87 10000 6.2 300 08:41 05.10.2019
756 Clouds 10 1008 87 10000 6.2 300 08:21 05.10.2019
757 Rain 9 1008 93 10000 6.7 300 07:58 05.10.2019
758 Rain 9 1008 93 9000 5.1 290 07:38 05.10.2019
759 Rain 9 1008 93 10000 5.7 290 07:19 05.10.2019
760 Clouds 10 1008 87 10000 4.6 290 06:28 05.10.2019
761 Clouds 10 1008 87 10000 4.6 270 05:59 05.10.2019
762 Clouds 10 1008 87 10000 3.1 300 04:42 05.10.2019
763 Clouds 10 1007 93 10000 5.1 270 03:29 05.10.2019
764 Rain 10 1008 93 8000 6.2 340 01:55 05.10.2019
765 Rain 10 1008 87 10000 6.2 330 01:23 05.10.2019
766 Rain 11 1008 87 10000 6.2 330 00:45 05.10.2019
767 Rain 11 1008 87 10000 6.2 330 00:26 05.10.2019
768 Rain 11 1008 87 9000 4.1 340 23:45 04.10.2019
769 Rain 11 1008 87 9000 4.1 340 23:26 04.10.2019
770 Clouds 11 1008 87 10000 3.6 330 22:59 04.10.2019
771 Clouds 11 1008 87 10000 3.6 320 22:41 04.10.2019
772 Clouds 11 1008 87 10000 3.6 320 22:22 04.10.2019
773 Clouds 11 1009 87 10000 2.1 330 21:58 04.10.2019
774 Clouds 12 1008 87 10000 3.1 360 21:39 04.10.2019
775 Clouds 12 1008 87 10000 3.1 360 21:21 04.10.2019
776 Clouds 12 1008 87 10000 3.1 360 20:57 04.10.2019
777 -273 0 0 0 0 0 20:57 04.10.2019
778 Rain 12 1009 87 10000 2.1 10 20:38 04.10.2019
779 Rain 12 1009 87 10000 2.1 10 20:38 04.10.2019
780 Rain 12 1009 87 10000 2.1 10 20:20 04.10.2019
781 Clouds 12 1010 87 10000 1 0 19:48 04.10.2019
782 Clouds 12 1010 87 10000 1 0 19:29 04.10.2019
783 Clouds 12 1009 87 10000 2.6 60 18:59 04.10.2019
784 Clouds 12 1009 87 10000 1.5 0 18:39 04.10.2019
785 Clouds 12 1009 87 10000 1.5 0 18:19 04.10.2019
786 Clouds 12 1008 87 10000 3.1 20 17:55 04.10.2019
787 Thunderstorm 12 1009 93 2900 4.6 30 17:36 04.10.2019
788 Thunderstorm 12 1009 93 2900 4.6 30 17:18 04.10.2019
789 Rain 13 1009 82 10000 4.6 10 16:42 04.10.2019
790 Rain 13 1009 82 10000 4.6 10 16:19 04.10.2019
791 Clouds 13 1009 82 10000 3.6 360 15:59 04.10.2019
792 Clouds 13 1010 82 10000 3.1 360 15:40 04.10.2019
793 Rain 14 1010 82 10000 3.1 360 15:21 04.10.2019
794 Rain 14 1010 87 10000 2.6 340 14:59 04.10.2019
795 Rain 14 1009 82 8000 3.1 20 14:41 04.10.2019
796 Rain 14 1009 82 8000 3.1 20 14:22 04.10.2019
797 Rain 14 1009 82 6000 3.6 360 13:54 04.10.2019
798 Rain 14 1010 82 10000 4.1 320 13:36 04.10.2019
799 Rain 14 1010 82 10000 4.1 320 13:18 04.10.2019
800 Clouds 15 1011 72 10000 4.6 270 12:42 04.10.2019
801 Clouds 15 1011 72 10000 4.6 270 12:24 04.10.2019
802 Clouds 16 1011 72 10000 4.1 330 11:43 04.10.2019
803 Clouds 16 1011 72 10000 4.1 330 11:43 04.10.2019
804 Clouds 16 1011 72 10000 4.1 330 11:43 04.10.2019
805 Clouds 16 1011 72 10000 4.1 330 11:43 04.10.2019
806 Clouds 16 1011 72 10000 4.1 330 11:22 04.10.2019
807 Clouds 15 1010 72 10000 4.1 330 10:57 04.10.2019
808 Clouds 15 1010 77 10000 5.7 330 10:38 04.10.2019
809 Clouds 15 1010 77 10000 5.7 330 10:19 04.10.2019
810 Clouds 15 1010 82 10000 5.1 340 09:43 04.10.2019
811 Clouds 14 1010 82 10000 5.1 340 09:25 04.10.2019
812 Clouds 15 1010 82 10000 4.6 300 08:46 04.10.2019
813 Clouds 15 1010 82 10000 4.6 300 08:27 04.10.2019
814 Clouds 16 1010 82 10000 4.6 310 07:56 04.10.2019
815 Clouds 16 1009 82 10000 4.6 300 07:37 04.10.2019
816 Clouds 16 1009 82 10000 4.6 300 07:18 04.10.2019
817 Clouds 16 1009 82 10000 3.1 270 06:40 04.10.2019
818 Clouds 16 1009 82 10000 3.1 270 06:21 04.10.2019
819 Clouds 17 1008 82 10000 3.6 310 05:21 04.10.2019
820 Clouds 16 1008 87 10000 2.1 310 04:39 04.10.2019
821 Rain 17 1007 77 10000 1 0 03:32 04.10.2019
822 Clear 17 1007 77 10000 0.5 0 02:45 04.10.2019
823 Clear 17 1007 77 10000 2.1 270 01:54 04.10.2019
824 -273 0 0 0 0 0 01:54 04.10.2019
825 -273 0 0 0 0 0 01:54 04.10.2019
826 Clouds 18 1007 72 10000 1.5 40 01:26 04.10.2019
827 Clear 18 1007 72 10000 3.6 270 00:34 04.10.2019
828 Clear 18 1007 68 10000 3.6 260 23:41 03.10.2019
829 Clear 18 1007 68 10000 3.6 260 23:22 03.10.2019
830 Clear 18 1007 68 10000 3.6 260 23:22 03.10.2019
831 Clouds 19 1007 68 10000 3.1 270 22:58 03.10.2019
832 Clouds 19 1007 68 10000 3.1 270 22:58 03.10.2019
833 Clear 19 1007 68 10000 1.5 310 22:39 03.10.2019
834 Clear 19 1007 68 10000 1.5 310 22:39 03.10.2019
835 Clear 19 1007 68 10000 1.5 310 22:39 03.10.2019
836 Clear 19 1007 68 10000 1.5 310 22:21 03.10.2019
837 Clouds 19 1007 68 10000 2.1 300 21:58 03.10.2019
838 Clear 21 1006 60 10000 3.1 280 21:40 03.10.2019
839 Clear 21 1006 60 10000 3.1 280 21:20 03.10.2019
840 Clear 23 1006 57 10000 3.1 260 20:58 03.10.2019
841 Clear 22 1006 57 10000 3.6 290 20:39 03.10.2019
842 Clear 22 1006 57 10000 3.6 290 20:20 03.10.2019
843 Clear 22 1005 60 10000 2.1 0 19:56 03.10.2019
844 Clear 22 1005 69 10000 2.1 80 19:38 03.10.2019
845 Clouds 23 1005 69 10000 2.1 80 19:19 03.10.2019
846 Clouds 23 1005 69 10000 2.1 80 18:56 03.10.2019
847 Clouds 24 1005 61 10000 2.6 120 18:37 03.10.2019
848 Clouds 25 1005 61 10000 2.6 120 18:18 03.10.2019
849 Clouds 27 1005 48 10000 4.6 180 17:42 03.10.2019
850 Clouds 27 1005 48 10000 4.6 180 17:21 03.10.2019
851 Clouds 28 1005 42 10000 5.7 210 16:55 03.10.2019
852 Clear 27 1004 37 10000 5.1 210 16:37 03.10.2019
853 Clear 27 1004 37 10000 5.1 210 16:19 03.10.2019
854 Clear 26 1005 45 10000 3.1 120 15:43 03.10.2019
855 Clear 26 1005 45 10000 3.1 120 15:43 03.10.2019
856 Clear 28 1005 45 10000 3.1 120 15:23 03.10.2019
857 Clear 27 1005 48 10000 5.1 90 14:57 03.10.2019
858 Clear 27 1005 51 10000 5.7 110 14:36 03.10.2019
859 Clear 27 1005 51 10000 5.7 110 14:36 03.10.2019
860 Clear 27 1005 51 10000 5.7 110 14:36 03.10.2019
861 Clear 27 1005 51 10000 5.7 110 14:18 03.10.2019
862 Clear 27 1006 51 10000 4.6 120 13:43 03.10.2019
863 Clear 27 1006 51 10000 4.6 120 13:24 03.10.2019
864 Clear 26 1006 54 10000 3.1 110 12:58 03.10.2019
865 Clear 26 1006 54 10000 4.1 130 12:39 03.10.2019
866 Clear 25 1006 50 10000 3.1 140 12:20 03.10.2019
867 Clear 25 1006 50 10000 3.1 140 11:58 03.10.2019
868 Clear 25 1006 53 10000 3.6 150 11:39 03.10.2019
869 Clear 25 1006 53 10000 3.6 150 11:21 03.10.2019
870 Clear 24 1007 57 10000 3.1 170 10:56 03.10.2019
871 Clear 24 1007 57 10000 3.1 120 10:38 03.10.2019
872 Clear 23 1007 57 10000 3.1 120 10:18 03.10.2019
873 Clear 22 1007 64 10000 3.1 150 09:56 03.10.2019
874 Clear 22 1007 73 10000 3.1 140 09:37 03.10.2019
875 Clear 21 1007 73 10000 3.1 140 09:18 03.10.2019
876 Clouds 20 1007 94 9000 3.1 120 08:41 03.10.2019
877 Clouds 20 1007 94 9000 3.1 120 08:41 03.10.2019
878 Clouds 20 1007 94 9000 3.1 120 08:23 03.10.2019
879 Clouds 18 1007 93 6000 1.5 120 07:41 03.10.2019
880 Clouds 18 1007 93 6000 1.5 120 07:41 03.10.2019
881 Clouds 19 1007 93 6000 1.5 120 07:20 03.10.2019
882 Fog 17 1006 100 6000 3.1 110 06:52 03.10.2019
883 Clouds 17 1006 100 10000 2.6 130 06:26 03.10.2019
884 Clouds 17 1007 93 10000 2.1 120 05:47 03.10.2019
885 Clouds 17 1007 93 10000 2.1 120 05:25 03.10.2019
886 Clouds 17 1007 93 10000 2.1 120 04:39 03.10.2019
887 Clouds 18 1007 88 10000 2.1 110 03:30 03.10.2019
888 Clouds 17 1008 93 10000 1.5 70 02:45 03.10.2019
889 Clouds 17 1008 93 10000 1.5 70 02:19 03.10.2019
890 Clouds 17 1008 93 10000 4.36 167.114 01:37 03.10.2019
891 Clouds 17 1009 93 10000 1 0 00:51 03.10.2019
892 Clouds 17 1009 93 10000 0.5 0 00:28 03.10.2019
893 Clouds 17 1009 93 10000 2.1 100 23:44 02.10.2019
894 Clouds 17 1009 93 10000 2.1 100 23:24 02.10.2019
895 Clouds 17 1009 88 10000 2.1 100 22:47 02.10.2019
896 Clouds 18 1009 93 10000 2.1 110 22:24 02.10.2019
897 Clouds 18 1009 93 10000 2.6 110 21:58 02.10.2019
898 Clouds 18 1010 88 10000 2.1 120 21:39 02.10.2019
899 Clouds 18 1010 88 10000 2.1 120 21:20 02.10.2019
900 Clouds 18 1010 93 10000 1.5 140 20:58 02.10.2019
901 Clouds 18 1010 88 10000 3.1 130 20:39 02.10.2019
902 Clouds 18 1010 88 10000 3.1 130 20:21 02.10.2019
903 Clouds 18 1010 88 10000 3.1 120 19:57 02.10.2019
904 Clouds 18 1010 88 10000 2.6 120 19:39 02.10.2019
905 Clouds 18 1010 88 10000 2.6 120 19:21 02.10.2019
906 Clouds 18 1010 88 10000 3.6 120 18:57 02.10.2019
907 Clouds 19 1010 82 10000 4.6 110 18:38 02.10.2019
908 Clouds 19 1010 82 10000 4.6 110 18:20 02.10.2019
909 Clouds 19 1010 82 10000 5.1 120 17:56 02.10.2019
910 Clouds 20 1010 77 10000 5.7 110 17:37 02.10.2019
911 Clouds 21 1010 77 10000 5.7 110 17:19 02.10.2019
912 Clouds 21 1010 77 10000 5.7 110 17:19 02.10.2019
913 Clouds 22 1010 73 10000 6.7 110 16:42 02.10.2019
914 Clouds 22 1010 73 10000 6.7 110 16:22 02.10.2019
915 Clouds 23 1010 69 10000 6.7 110 15:57 02.10.2019
916 Clear 23 1010 69 10000 6.2 110 15:38 02.10.2019
917 Clear 23 1010 69 10000 6.2 110 15:19 02.10.2019
918 Clear 24 1010 69 10000 6.2 110 14:56 02.10.2019
919 Clear 23 1010 69 10000 6.2 110 14:38 02.10.2019
920 Clouds 24 1010 64 10000 6.2 110 14:20 02.10.2019
921 Clear 24 1011 64 10000 7.2 110 13:43 02.10.2019
922 Clouds 24 1011 69 10000 7.2 100 13:23 02.10.2019
923 Clouds 24 1011 69 10000 6.7 110 12:56 02.10.2019
924 Clouds 24 1011 64 10000 6.7 120 12:37 02.10.2019
925 Clouds 24 1011 64 10000 6.7 120 12:37 02.10.2019
926 Clouds 24 1011 64 10000 6.7 120 12:18 02.10.2019
927 Clouds 24 1011 69 10000 7.2 110 11:43 02.10.2019
928 Clouds 24 1012 69 10000 5.7 120 11:22 02.10.2019
929 Clouds 23 1012 69 10000 5.7 120 10:41 02.10.2019
930 Clouds 22 1012 73 10000 5.1 120 10:20 02.10.2019
931 Clouds 22 1012 73 10000 4.6 130 09:56 02.10.2019
932 Clouds 21 1012 73 10000 4.6 130 09:36 02.10.2019
933 Clouds 21 1012 73 10000 4.6 130 09:18 02.10.2019
934 Clouds 20 1012 82 10000 3.1 140 08:42 02.10.2019
935 Clouds 20 1012 82 10000 3.1 140 08:42 02.10.2019
936 Clouds 20 1012 82 10000 1.5 120 08:22 02.10.2019
937 Clouds 19 1012 93 10000 5.37 163.024 07:55 02.10.2019
938 Clouds 18 1012 93 10000 5.37 163.024 07:37 02.10.2019
939 Clouds 17 1012 93 10000 5.37 163.024 07:18 02.10.2019
940 Clouds 16 1012 100 10000 5.37 163.024 06:29 02.10.2019
941 Clouds 16 1012 93 10000 1 60 05:51 02.10.2019
942 Clouds 16 1013 100 10000 4.36 166.99 05:22 02.10.2019
943 Clouds 16 1013 100 10000 4.36 166.99 04:18 02.10.2019
944 Clouds 16 1013 100 10000 4.36 166.99 03:50 02.10.2019
945 Clouds 16 1013 93 10000 4.26 167.807 02:38 02.10.2019
946 Clouds 16 1014 100 10000 4.26 167.807 02:20 02.10.2019
947 Clouds 16 1014 88 10000 4.43 166.149 00:55 02.10.2019
948 Clouds 15 1014 93 10000 1.5 30 00:30 02.10.2019
949 Clouds 15 1014 93 10000 1.5 30 23:57 01.10.2019
950 Clouds 16 1014 87 10000 1.5 40 23:39 01.10.2019
951 Clouds 16 1014 87 10000 1.5 40 23:21 01.10.2019
952 Clouds 16 1014 87 10000 1.5 40 22:58 01.10.2019
953 Clouds 16 1014 87 10000 1.5 40 22:58 01.10.2019
954 Clouds 15 1014 87 10000 4.22 156.673 22:38 01.10.2019
955 Clouds 15 1014 87 10000 4.22 156.673 22:18 01.10.2019
956 Clouds 16 1015 82 10000 1.5 90 21:43 01.10.2019
957 Clouds 16 1015 82 10000 1.5 90 21:23 01.10.2019
958 Clear 16 1015 82 10000 1.5 110 20:58 01.10.2019
959 Clear 16 1015 82 10000 1.5 110 20:39 01.10.2019
960 Clear 16 1015 82 10000 2.1 90 20:20 01.10.2019
961 Clear 17 1014 77 10000 3.1 100 19:58 01.10.2019
962 Clear 18 1014 72 10000 3.6 120 19:39 01.10.2019
963 Clear 18 1014 72 10000 3.6 120 19:21 01.10.2019
964 Clear 18 1014 72 10000 4.6 120 18:56 01.10.2019
965 Clear 19 1014 68 10000 5.7 120 18:38 01.10.2019
966 Clear 19 1014 68 10000 5.7 120 18:19 01.10.2019
967 Clear 20 1014 68 10000 5.7 120 17:43 01.10.2019
968 Clear 21 1014 68 10000 6.7 120 17:21 01.10.2019
969 Clear 21 1014 68 10000 8.2 110 16:59 01.10.2019
970 Clear 21 1014 68 10000 8.2 110 16:40 01.10.2019
971 Clear 23 1014 56 10000 7.7 120 16:22 01.10.2019
972 Clear 23 1014 60 10000 8.2 110 15:48 01.10.2019
973 Clear 23 1014 60 10000 8.2 120 15:24 01.10.2019
974 Clear 24 1014 60 10000 8.2 120 14:58 01.10.2019
975 Clouds 24 1014 60 10000 8.7 120 14:38 01.10.2019
976 Clouds 23 1014 60 10000 8.7 120 14:19 01.10.2019
977 Clouds 24 1014 57 10000 8.2 110 13:56 01.10.2019
978 Clouds 25 1013 53 10000 8.2 100 13:37 01.10.2019
979 Clouds 25 1013 53 10000 8.2 100 13:18 01.10.2019
980 Clouds 25 1013 47 10000 8.2 120 12:54 01.10.2019
981 Clouds 25 1013 53 10000 9.8 130 12:36 01.10.2019
982 Clouds 24 1013 53 10000 9.8 130 12:18 01.10.2019
983 Clear 25 1013 34 10000 2.6 240 11:54 01.10.2019
984 Clear 25 1013 36 10000 3.6 360 11:36 01.10.2019
985 Clear 26 1013 36 10000 3.6 360 11:18 01.10.2019
986 Clear 25 1013 39 10000 2.6 10 10:43 01.10.2019
987 Clear 25 1013 39 10000 3.1 10 10:24 01.10.2019
988 Clear 24 1013 41 10000 7.2 340 09:44 01.10.2019
989 Clear 24 1013 44 10000 5.7 330 09:25 01.10.2019
990 Clear 24 1013 44 10000 5.7 330 09:25 01.10.2019
991 Clear 22 1012 53 10000 3.6 230 08:44 01.10.2019
992 Clear 21 1012 53 10000 3.6 230 08:25 01.10.2019
993 Clear 20 1012 52 10000 5.1 300 07:49 01.10.2019
994 Clear 19 1012 63 10000 3.1 220 07:26 01.10.2019
995 Clear 18 1011 67 10000 1 190 06:50 01.10.2019
996 Clear 18 1011 63 10000 0.5 0 06:23 01.10.2019
997 Clear 17 1011 72 10000 3.34 308.132 05:46 01.10.2019
998 Clear 18 1010 63 10000 3.34 308.132 05:19 01.10.2019
999 Clear 18 1010 67 10000 3.34 308.132 04:34 01.10.2019
1000 Clear 17 1009 72 10000 0.5 0 02:30 01.10.2019
1001 Clear 18 1009 72 10000 2.1 330 01:59 01.10.2019
1002 Clear 19 1009 56 10000 2.1 360 01:28 01.10.2019
1003 Clear 19 1009 63 10000 3.1 350 00:40 01.10.2019
1004 Clear 19 1009 63 10000 3.1 350 00:40 01.10.2019
1005 Clear 19 1009 60 10000 2.6 360 00:22 01.10.2019
1006 Clear 19 1009 68 10000 2.1 340 23:41 30.09.2019
1007 Clear 19 1009 68 10000 2.1 340 23:41 30.09.2019
1008 Clear 18 1009 72 10000 1.5 360 23:41 30.09.2019
1009 Clear 19 1009 72 10000 1.5 360 23:21 30.09.2019
1010 Clear 20 1009 68 10000 1 0 22:45 30.09.2019
1011 Clear 20 1009 68 10000 1.5 10 22:26 30.09.2019
1012 Clear 19 1008 68 10000 1.5 360 21:58 30.09.2019
1013 Clear 19 1008 68 10000 1.5 360 21:39 30.09.2019
1014 Clear 20 1008 64 10000 1 0 21:20 30.09.2019
1015 Clear 20 1008 64 10000 1 0 21:20 30.09.2019
1016 Clear 20 1008 60 10000 2.6 20 20:58 30.09.2019
1017 Clear 21 1008 60 10000 2.6 20 20:39 30.09.2019
1018 Clear 21 1008 60 10000 1.5 80 20:20 30.09.2019
1019 Clear 22 1008 56 10000 2.1 90 19:57 30.09.2019
1020 Clear 22 1008 60 10000 1.5 80 19:39 30.09.2019
1021 Clear 22 1008 60 10000 1.5 80 19:19 30.09.2019
1022 Clear 23 1007 53 10000 3.1 90 18:57 30.09.2019
1023 Clear 23 1007 53 10000 4.1 90 18:39 30.09.2019
1024 Clear 24 1007 53 10000 4.1 90 18:20 30.09.2019
1025 Clear 24 1007 57 10000 5.1 110 17:44 30.09.2019
1026 Clear 25 1007 57 10000 5.1 100 17:24 30.09.2019
1027 Clear 26 1007 54 10000 5.1 90 16:58 30.09.2019
1028 Clear 26 1007 50 10000 6.7 100 16:40 30.09.2019
1029 Clear 26 1007 50 10000 6.7 100 16:19 30.09.2019
1030 Clear 27 1007 51 10000 7.2 100 15:58 30.09.2019
1031 Clear 27 1008 51 10000 6.2 90 15:38 30.09.2019
1032 Clear 27 1008 51 10000 6.2 90 15:19 30.09.2019
1033 Clear 27 1008 51 10000 6.7 100 14:57 30.09.2019
1034 Clear 27 1008 51 10000 6.2 100 14:37 30.09.2019
1035 Clear 27 1008 51 10000 6.2 100 14:19 30.09.2019
1036 Clear 27 1009 45 10000 5.1 100 13:57 30.09.2019
1037 Clear 27 1009 45 10000 6.7 100 13:38 30.09.2019
1038 Clear 27 1009 45 10000 6.7 100 13:20 30.09.2019
1039 Clear 28 1009 42 10000 6.7 100 12:43 30.09.2019
1040 Clear 27 1010 39 10000 3.6 180 12:22 30.09.2019
1041 Clear 27 1010 37 10000 3.6 210 11:57 30.09.2019
1042 Clear 27 1010 39 10000 2.6 210 11:39 30.09.2019
1043 Clear 27 1010 39 10000 2.6 210 11:19 30.09.2019
1044 Clear 25 1011 44 10000 1.5 0 10:54 30.09.2019
1045 Clear 25 1011 50 10000 1 0 10:36 30.09.2019
1046 Clear 24 1011 50 10000 1 0 10:18 30.09.2019
1047 Clear 24 1011 53 10000 1 0 09:40 30.09.2019
1048 Clear 23 1011 53 10000 0.5 0 09:21 30.09.2019
1049 Mist 22 1011 64 10000 4.32 185.6 08:51 30.09.2019
1050 Mist 20 1011 88 8000 1 320 08:33 30.09.2019
1051 Mist 19 1011 93 8000 4.22 188.512 07:46 30.09.2019
1052 Mist 18 1011 88 8000 4.22 188.512 07:28 30.09.2019
1053 Clouds 17 1011 100 8000 0.5 0 06:59 30.09.2019
1054 Mist 17 1011 100 6000 1.5 360 06:34 30.09.2019
1055 Fog 18 1011 100 1900 3.07 180.318 05:49 30.09.2019
1056 Fog 18 1011 100 1900 3.07 180.318 05:49 30.09.2019
1057 Clouds 18 1011 93 6000 3.07 180.318 05:25 30.09.2019
1058 Clouds 19 1013 93 10000 1.5 100 02:49 30.09.2019
1059 Clear 19 1013 88 10000 1.5 100 01:39 30.09.2019
1060 -273 0 0 0 0 0 00:44 30.09.2019
1061 Clear 18 1014 88 10000 3.1 100 00:24 30.09.2019
1062 Clear 18 1014 93 10000 4.1 100 23:57 29.09.2019
1063 Clear 18 1014 88 10000 4.1 100 23:39 29.09.2019
1064 Clear 18 1014 88 10000 4.1 100 23:19 29.09.2019
1065 Clear 18 1014 88 10000 3.6 100 22:43 29.09.2019
1066 Clear 18 1014 82 10000 3.6 100 22:23 29.09.2019
1067 Clear 19 1014 72 10000 2.6 120 21:58 29.09.2019
1068 Clear 19 1014 72 10000 2.6 120 21:38 29.09.2019
1069 Clear 19 1014 68 10000 2.1 110 21:19 29.09.2019
1070 Clear 19 1014 68 10000 2.1 110 21:19 29.09.2019
1071 Clear 19 1014 68 10000 2.1 110 21:19 29.09.2019
1072 -273 0 0 0 0 0 20:56 29.09.2019
1073 Clear 19 1014 64 10000 4.6 90 20:55 29.09.2019
1074 Clear 19 1014 64 10000 4.6 90 20:55 29.09.2019
1075 Clear 19 1014 64 10000 4.6 90 20:55 29.09.2019
1076 Clear 20 1014 64 10000 5.1 90 20:37 29.09.2019
1077 Clear 19 1014 64 10000 5.1 90 20:19 29.09.2019
1078 Clear 20 1014 64 10000 4.6 100 19:39 29.09.2019
1079 Clear 20 1013 64 10000 5.1 100 19:19 29.09.2019
1080 Clouds 21 1013 56 10000 5.7 100 18:57 29.09.2019
1081 Clouds 21 1013 56 10000 5.7 100 18:57 29.09.2019
1082 Clouds 21 1013 56 10000 5.7 100 18:57 29.09.2019
1083 Clear 21 1013 53 10000 5.7 100 18:38 29.09.2019
1084 Clear 22 1013 53 10000 5.7 100 18:20 29.09.2019
1085 Clear 24 1013 50 10000 5.7 100 17:59 29.09.2019
1086 Clear 24 1013 44 10000 5.1 90 17:41 29.09.2019
1087 Clear 27 1013 44 10000 5.1 90 17:20 29.09.2019
1088 Clear 27 1013 47 10000 5.1 100 16:59 29.09.2019
1089 Clear 27 1013 47 10000 5.1 100 16:59 29.09.2019
1090 Clear 25 1013 47 10000 5.1 100 16:41 29.09.2019
1091 Clear 25 1013 47 10000 5.1 100 16:20 29.09.2019
1092 Clear 25 1013 47 10000 5.1 100 16:20 29.09.2019
1093 Clear 25 1013 47 10000 5.7 100 15:57 29.09.2019
1094 Clear 27 1014 42 10000 5.1 100 15:37 29.09.2019
1095 Clear 28 1014 42 10000 5.1 100 15:18 29.09.2019
1096 Clear 28 1014 30 10000 3.6 290 14:56 29.09.2019
1097 Clear 29 1014 32 10000 4.6 280 14:37 29.09.2019
1098 Clear 29 1014 32 10000 4.6 280 14:18 29.09.2019
1099 Clear 28 1014 34 10000 6.2 290 13:55 29.09.2019
1100 Clear 28 1014 34 10000 6.2 290 13:55 29.09.2019
1101 Clear 28 1014 32 10000 4.6 270 13:36 29.09.2019
1102 Clear 28 1014 32 10000 4.6 270 13:18 29.09.2019
1103 -273 0 0 0 0 0 12:55 29.09.2019
1104 Clear 28 1015 34 10000 4.1 0 12:55 29.09.2019
1105 Clear 28 1015 34 10000 5.1 290 12:37 29.09.2019
1106 Clear 28 1015 34 10000 5.1 290 12:18 29.09.2019
1107 Clear 26 1015 47 10000 3.1 230 11:40 29.09.2019
1108 Clear 25 1015 47 10000 3.1 230 11:19 29.09.2019
1109 Clear 26 1016 50 10000 2.1 250 10:58 29.09.2019
1110 Clear 24 1016 56 10000 2.1 280 10:38 29.09.2019
1111 Clear 24 1016 56 10000 2.1 280 10:19 29.09.2019
1112 Clear 23 1016 68 10000 3.1 270 09:56 29.09.2019
1113 Clear 23 1016 68 10000 3.1 270 09:56 29.09.2019
1114 Clear 22 1016 72 10000 3.1 260 09:38 29.09.2019
1115 Clear 19 1016 72 10000 3.1 260 09:18 29.09.2019
1116 Clear 20 1016 88 7000 1 0 08:42 29.09.2019
1117 Mist 18 1016 100 3600 1.5 280 08:21 29.09.2019
1118 Fog 17 1016 100 3400 1.5 270 07:43 29.09.2019
1119 Fog 15 1016 93 5000 2.1 280 07:25 29.09.2019
1120 Fog 14 1015 100 10000 2.1 300 06:46 29.09.2019
1121 Clear 13 1015 100 8000 1.5 330 05:47 29.09.2019
1122 Fog 13 1015 100 8000 2.57 216.25 04:41 29.09.2019
1123 Fog 14 1015 100 4000 0.5 330 04:23 29.09.2019
1124 Clear 15 1016 93 10000 2.1 80 02:51 29.09.2019
1125 Clear 16 1016 88 10000 2.1 100 02:19 29.09.2019
1126 Clear 15 1017 93 10000 1.5 90 01:38 29.09.2019
1127 Clouds 16 1017 93 10000 1.5 110 00:53 29.09.2019
1128 Clouds 16 1017 93 10000 1.5 110 00:53 29.09.2019
1129 Clouds 16 1017 88 10000 1.5 110 00:21 29.09.2019
1130 Clouds 16 1017 88 10000 2.1 100 23:55 28.09.2019
1131 Clouds 16 1017 88 10000 2.1 110 23:36 28.09.2019
1132 Clouds 16 1017 88 10000 2.1 110 23:18 28.09.2019
1133 Clouds 16 1018 82 10000 2.6 110 22:39 28.09.2019
1134 Clouds 16 1018 88 10000 2.1 120 22:21 28.09.2019
1135 Clouds 17 1018 82 10000 2.6 120 21:57 28.09.2019
1136 Clouds 17 1018 82 10000 2.6 120 21:38 28.09.2019
1137 Clouds 17 1018 82 10000 2.6 120 21:38 28.09.2019
1138 Clouds 17 1018 82 10000 3.1 130 21:20 28.09.2019
1139 Clear 17 1018 82 10000 2.6 120 20:57 28.09.2019
1140 Clear 17 1018 82 10000 2.6 140 20:38 28.09.2019
1141 Clear 17 1018 82 10000 2.6 140 20:18 28.09.2019
1142 Clear 17 1018 82 10000 2.6 120 19:55 28.09.2019
1143 Clear 18 1018 77 10000 3.6 130 19:37 28.09.2019
1144 Clear 18 1018 77 10000 3.6 130 19:18 28.09.2019
1145 Clear 18 1018 72 10000 3.1 120 18:42 28.09.2019
1146 Clear 18 1018 72 10000 4.1 130 18:22 28.09.2019
1147 Clear 19 1018 68 10000 4.6 120 17:59 28.09.2019
1148 Clear 20 1018 68 10000 4.6 120 17:40 28.09.2019
1149 Clear 21 1018 64 10000 5.7 110 17:21 28.09.2019
1150 Clear 21 1018 64 10000 6.2 120 16:55 28.09.2019
1151 Clear 22 1018 60 10000 6.7 110 16:37 28.09.2019
1152 Clear 22 1018 60 10000 6.7 110 16:18 28.09.2019
1153 Clear 22 1018 60 10000 7.7 110 15:40 28.09.2019
1154 Clouds 23 1018 49 10000 7.2 110 15:22 28.09.2019
1155 Clouds 23 1018 49 10000 7.2 110 14:55 28.09.2019
1156 Clouds 23 1018 49 10000 7.2 110 14:55 28.09.2019
1157 Clouds 24 1019 44 10000 6.2 120 14:37 28.09.2019
1158 Clouds 24 1019 44 10000 6.2 120 14:37 28.09.2019
1159 Clouds 24 1019 44 10000 6.2 120 14:18 28.09.2019
1160 Clouds 24 1019 53 10000 7.7 100 13:43 28.09.2019
1161 Clouds 24 1019 53 10000 7.7 100 13:43 28.09.2019
1162 Clouds 24 1019 56 10000 7.2 100 13:20 28.09.2019
1163 Clouds 24 1019 46 10000 6.2 100 12:57 28.09.2019
1164 Clouds 24 1020 46 10000 5.1 110 12:39 28.09.2019
1165 Clouds 24 1020 46 10000 5.1 110 12:18 28.09.2019
1166 Clear 24 1020 46 10000 4.1 130 11:41 28.09.2019
1167 Clear 24 1020 43 10000 3.1 0 11:20 28.09.2019
1168 Clear 23 1020 46 10000 2.1 0 10:56 28.09.2019
1169 Clear 23 1020 46 10000 2.1 0 10:38 28.09.2019
1170 Clouds 22 1020 49 10000 1 0 10:18 28.09.2019
1171 Clear 21 1020 52 10000 0.5 0 09:41 28.09.2019
1172 Clear 18 1020 63 10000 1.5 250 09:20 28.09.2019
1173 Clear 18 1020 72 10000 2.02 184.229 08:48 28.09.2019
1174 Clear 16 1020 87 6000 1 0 08:29 28.09.2019
1175 Clear 15 1020 87 7000 1.5 250 07:57 28.09.2019
1176 Clear 15 1020 87 7000 1.5 250 07:38 28.09.2019
1177 Clear 13 1020 93 9000 1.5 180 07:19 28.09.2019
1178 Clear 10 1020 93 9000 2.02 184.229 06:40 28.09.2019
1179 Clear 10 1019 93 9000 1.12 206.932 06:21 28.09.2019
1180 Clear 9 1019 93 10000 2.1 210 05:25 28.09.2019
1181 Clear 10 1019 93 10000 1 0 04:56 28.09.2019
1182 Clear 10 1019 93 10000 2.1 270 04:30 28.09.2019
1183 Clear 10 1019 93 10000 2.1 10 03:41 28.09.2019
1184 Clear 11 1019 87 10000 0.5 0 02:59 28.09.2019
1185 Clear 11 1019 87 10000 0.5 0 02:40 28.09.2019
1186 Clear 11 1019 93 10000 2.1 330 02:19 28.09.2019
1187 Clear 11 1019 93 10000 2.1 350 01:42 28.09.2019
1188 Clear 11 1019 93 10000 2.6 360 01:19 28.09.2019
1189 Clear 10 1019 87 10000 1 0 00:45 28.09.2019
1190 Clear 11 1019 87 10000 2.1 270 00:27 28.09.2019
1191 Clear 12 1019 82 10000 0.59 337.689 23:39 27.09.2019
1192 Clear 12 1019 82 10000 0.59 337.689 23:21 27.09.2019
1193 Clear 13 1019 82 10000 1 0 22:49 27.09.2019
1194 Clear 13 1019 82 10000 0.5 300 22:21 27.09.2019
1195 Clear 13 1018 77 10000 3.1 320 22:00 27.09.2019
1196 Clear 14 1018 77 10000 3.1 320 21:41 27.09.2019
1197 Clear 14 1018 77 10000 3.1 260 21:21 27.09.2019
1198 Clear 14 1017 77 10000 2.1 360 20:59 27.09.2019
1199 Clear 14 1017 77 10000 2.1 360 20:59 27.09.2019
1200 Clear 15 1017 77 10000 2.1 360 20:40 27.09.2019
1201 Clear 15 1017 72 10000 2.6 10 20:20 27.09.2019
1202 Clear 15 1017 72 10000 2.6 10 20:20 27.09.2019
1203 Clear 16 1017 67 10000 4.1 330 19:58 27.09.2019
1204 Clear 15 1017 67 10000 4.1 330 19:39 27.09.2019
1205 Clear 16 1016 67 10000 3.1 330 19:20 27.09.2019
1206 Clear 17 1016 59 10000 5.7 320 18:43 27.09.2019
1207 Clear 17 1016 59 10000 5.7 320 18:24 27.09.2019
1208 Clouds 18 1015 56 10000 6.7 330 17:57 27.09.2019
1209 Clouds 19 1015 49 10000 10.8 330 17:38 27.09.2019
1210 Clouds 19 1015 49 10000 10.8 330 17:20 27.09.2019
1211 Clouds 20 1015 52 10000 7.7 320 16:57 27.09.2019
1212 Clouds 20 1015 52 10000 7.7 320 16:38 27.09.2019
1213 Clouds 20 1014 60 10000 7.7 330 16:18 27.09.2019
1214 Clouds 20 1014 56 10000 8.2 350 15:47 27.09.2019
1215 Clouds 20 1014 46 10000 8.7 310 15:21 27.09.2019
1216 Clouds 20 1014 46 10000 7.7 300 14:59 27.09.2019
1217 Clouds 20 1014 46 10000 7.7 300 14:41 27.09.2019
1218 Clouds 21 1014 49 10000 9.8 310 14:21 27.09.2019
1219 Clouds 22 1013 46 10000 9.3 300 13:58 27.09.2019
1220 Clouds 22 1013 46 10000 9.3 300 13:58 27.09.2019
1221 Clouds 21 1013 46 10000 9.3 300 13:39 27.09.2019
1222 Clouds 21 1013 46 10000 8.7 310 13:21 27.09.2019
1223 Clouds 21 1013 46 10000 8.7 310 13:21 27.09.2019
1224 Clouds 21 1013 49 10000 9.3 310 12:54 27.09.2019
1225 Clouds 22 1013 46 10000 9.3 300 12:24 27.09.2019
1226 Clouds 21 1013 49 10000 8.7 300 11:58 27.09.2019
1227 Clouds 21 1013 49 10000 8.7 300 11:38 27.09.2019
1228 Clouds 21 1013 49 10000 8.7 300 11:20 27.09.2019
1229 Clouds 20 1013 60 10000 7.7 280 10:43 27.09.2019
1230 Clear 20 1013 60 10000 7.2 290 10:23 27.09.2019
1231 Clear 19 1013 64 10000 6.7 290 09:58 27.09.2019
1232 Clear 19 1013 64 10000 6.7 290 09:40 27.09.2019
1233 Clouds 18 1013 72 10000 7.2 290 09:19 27.09.2019
1234 Clouds 17 1013 72 10000 7.7 290 08:42 27.09.2019
1235 Clouds 16 1012 77 10000 8.7 280 08:21 27.09.2019
1236 Clouds 16 1012 77 10000 6.7 280 07:55 27.09.2019
1237 Clouds 16 1012 82 10000 6.2 260 07:37 27.09.2019
1238 Clouds 16 1012 82 10000 6.2 260 07:18 27.09.2019
1239 Clouds 15 1012 82 10000 6.7 260 06:40 27.09.2019
1240 Clouds 14 1012 82 10000 6.7 260 06:21 27.09.2019
1241 Clouds 14 1012 82 10000 6.2 260 05:45 27.09.2019
1242 Clouds 15 1012 82 10000 6.2 280 05:26 27.09.2019
1243 Clouds 15 1011 82 10000 5.1 290 03:39 27.09.2019
1244 Clouds 17 1011 88 10000 2.6 290 01:56 27.09.2019
1245 Clouds 17 1011 88 10000 3.1 270 01:31 27.09.2019
1246 Clouds 17 1011 93 10000 2.6 250 00:41 27.09.2019
1247 Rain 17 1011 93 10000 2.6 280 23:57 26.09.2019
1248 Clouds 18 1011 100 6000 1.5 300 23:39 26.09.2019
1249 Clouds 18 1011 100 6000 1.5 300 23:19 26.09.2019
1250 Clouds 18 1011 100 6000 1.5 300 23:19 26.09.2019
1251 Fog 18 1011 100 7000 1 0 22:58 26.09.2019
1252 Fog 18 1011 100 7000 1 0 22:39 26.09.2019
1253 Rain 18 1011 93 7000 3.22 240.885 22:18 26.09.2019
1254 Rain 18 1011 93 10000 1 0 21:58 26.09.2019
1255 Rain 18 1011 100 10000 3.22 240.885 21:37 26.09.2019
1256 Rain 18 1011 100 10000 3.79 171.502 21:19 26.09.2019
1257 Rain 18 1011 93 10000 2.1 100 20:58 26.09.2019
1258 Rain 18 1011 93 10000 2.1 100 20:39 26.09.2019
1259 Rain 18 1011 88 9000 2.1 110 20:21 26.09.2019
1260 Rain 19 1011 88 10000 1.5 70 19:56 26.09.2019
1261 Rain 19 1011 88 10000 2.6 120 19:37 26.09.2019
1262 Rain 19 1011 88 10000 2.6 120 19:18 26.09.2019
1263 Rain 19 1011 88 10000 2.6 120 19:18 26.09.2019
1264 Rain 19 1010 83 10000 5.1 120 18:42 26.09.2019
1265 Clouds 19 1010 83 10000 5.7 110 18:22 26.09.2019
1266 Clouds 19 1010 77 10000 6.2 110 17:59 26.09.2019
1267 Clouds 19 1010 77 10000 6.7 110 17:37 26.09.2019
1268 Clouds 19 1010 77 10000 6.7 110 17:19 26.09.2019
1269 Clouds 20 1010 73 10000 6.7 110 16:55 26.09.2019
1270 Clouds 21 1010 69 10000 7.2 120 16:37 26.09.2019
1271 Clouds 21 1010 69 10000 7.2 120 16:18 26.09.2019
1272 Clouds 21 1010 64 10000 6.7 110 15:41 26.09.2019
1273 Clouds 21 1010 64 10000 6.2 110 15:23 26.09.2019
1274 Clouds 21 1011 60 10000 6.2 130 14:58 26.09.2019
1275 Clouds 21 1011 60 10000 6.2 130 14:58 26.09.2019
1276 Clouds 22 1011 60 10000 6.2 130 14:40 26.09.2019
1277 Clouds 22 1011 68 10000 6.2 110 14:21 26.09.2019
1278 Clouds 22 1011 69 10000 6.2 120 13:57 26.09.2019
1279 Clouds 21 1011 69 10000 6.2 120 13:39 26.09.2019
1280 Clouds 21 1011 69 10000 6.2 120 13:39 26.09.2019
1281 Clouds 22 1011 64 10000 5.7 120 13:19 26.09.2019
1282 Clouds 22 1011 60 10000 5.7 130 12:41 26.09.2019
1283 Clouds 22 1011 57 10000 4.1 120 12:22 26.09.2019
1284 Clouds 21 1011 60 10000 3.1 120 11:57 26.09.2019
1285 Rain 21 1012 69 10000 4.6 130 11:38 26.09.2019
1286 Rain 22 1012 69 10000 4.6 130 11:19 26.09.2019
1287 Rain 22 1012 60 10000 2.1 0 10:42 26.09.2019
1288 Rain 22 1012 60 10000 2.1 0 10:42 26.09.2019
1289 Clouds 22 1012 64 10000 2.1 200 10:23 26.09.2019
1290 Clouds 21 1012 73 10000 2.1 180 09:57 26.09.2019
1291 Clouds 21 1012 73 10000 2.1 180 09:39 26.09.2019
1292 Clouds 21 1012 73 10000 2.1 180 09:39 26.09.2019
1293 Clouds 20 1012 77 10000 0.5 0 09:18 26.09.2019
1294 Clouds 19 1012 82 10000 0.5 0 08:47 26.09.2019
1295 Clouds 18 1012 88 10000 4.01 161.448 08:29 26.09.2019
1296 Clouds 16 1012 88 10000 1.5 270 07:45 26.09.2019
1297 Clouds 17 1012 93 10000 4.01 161.448 07:22 26.09.2019
1298 Clouds 17 1012 88 10000 4.01 161.448 06:50 26.09.2019
1299 Clouds 17 1012 88 10000 1.5 90 06:28 26.09.2019
1300 Clouds 17 1012 82 10000 1.5 10 05:52 26.09.2019
1301 Clouds 17 1012 88 10000 1.5 50 05:26 26.09.2019
1302 Clouds 17 1012 82 10000 1 0 03:27 26.09.2019
1303 Clouds 17 1012 82 10000 2.6 120 01:56 26.09.2019
1304 Clouds 17 1012 82 10000 2.6 110 01:38 26.09.2019
1305 Clouds 17 1012 82 10000 2.6 110 01:19 26.09.2019
1306 Clouds 17 1012 82 10000 2.6 110 00:41 26.09.2019
1307 Clouds 17 1013 82 10000 3.6 100 00:21 26.09.2019
1308 Clouds 17 1013 88 10000 3.1 120 23:43 25.09.2019
1309 Clouds 17 1013 82 10000 4.1 120 23:19 25.09.2019
1310 Clouds 17 1013 88 10000 4.1 120 22:43 25.09.2019
1311 Clouds 17 1013 88 10000 3.6 120 22:22 25.09.2019
1312 Clouds 17 1013 88 10000 3.6 90 21:58 25.09.2019
1313 Clouds 17 1013 88 10000 3.6 90 21:40 25.09.2019
1314 Rain 17 1013 88 10000 2.6 60 21:19 25.09.2019
1315 Clouds 17 1013 77 10000 3.1 50 20:59 25.09.2019
1316 Clouds 17 1013 77 10000 3.1 50 20:40 25.09.2019
1317 Clouds 17 1013 82 10000 2.1 30 20:22 25.09.2019
1318 Clouds 17 1013 77 10000 3.1 60 19:59 25.09.2019
1319 Clouds 18 1013 72 10000 2.6 90 19:38 25.09.2019
1320 Clouds 18 1013 72 10000 2.6 90 19:19 25.09.2019
1321 Clouds 18 1013 72 10000 4.1 70 18:56 25.09.2019
1322 Clouds 18 1013 68 10000 4.1 90 18:37 25.09.2019
1323 Clouds 18 1013 68 10000 4.1 90 18:18 25.09.2019
1324 Clouds 19 1012 68 10000 5.1 90 17:39 25.09.2019
1325 Clouds 19 1012 68 10000 5.1 90 17:20 25.09.2019
1326 Clouds 19 1012 68 10000 5.7 80 16:56 25.09.2019
1327 Clouds 20 1012 68 10000 5.7 90 16:36 25.09.2019
1328 Clouds 20 1012 68 10000 5.7 90 16:18 25.09.2019
1329 Clouds 20 1012 60 10000 5.1 90 15:42 25.09.2019
1330 Clouds 20 1012 60 10000 5.1 90 15:23 25.09.2019
1331 Clouds 20 1012 53 10000 4.1 90 14:57 25.09.2019
1332 Clouds 21 1012 53 10000 4.1 90 14:39 25.09.2019
1333 Clouds 21 1012 53 10000 3.6 80 14:21 25.09.2019
1334 Clouds 20 1012 53 10000 3.6 80 13:56 25.09.2019
1335 Clouds 20 1012 53 10000 3.6 80 13:56 25.09.2019
1336 Clouds 20 1012 56 10000 4.6 80 13:37 25.09.2019
1337 Clouds 20 1012 56 10000 4.6 80 13:19 25.09.2019
1338 Clouds 20 1012 56 10000 4.6 70 12:41 25.09.2019
1339 Clouds 20 1013 60 10000 5.1 60 12:23 25.09.2019
1340 Clouds 20 1012 60 10000 6.2 70 11:57 25.09.2019
1341 Clouds 20 1012 60 10000 5.1 100 11:38 25.09.2019
1342 Clouds 20 1012 60 10000 5.1 100 11:19 25.09.2019
1343 Clouds 19 1012 82 10000 2.1 160 10:43 25.09.2019
1344 -273 0 0 0 0 0 10:25 25.09.2019
1345 Clouds 18 1012 72 10000 4.1 80 09:58 25.09.2019
1346 Clouds 18 1012 72 10000 4.1 80 09:58 25.09.2019
1347 Clouds 18 1012 77 10000 2.1 10 09:37 25.09.2019
1348 Clouds 18 1012 77 10000 2.1 10 09:19 25.09.2019
1349 Clouds 18 1011 82 10000 2.6 60 08:44 25.09.2019
1350 Clouds 17 1011 82 10000 4.6 40 08:21 25.09.2019
1351 Clouds 16 1011 88 10000 2.6 360 07:57 25.09.2019
1352 Clouds 16 1011 88 10000 2.6 360 07:38 25.09.2019
1353 Rain 16 1011 82 10000 2.6 360 07:20 25.09.2019
1354 Clouds 15 1011 87 10000 1.5 350 06:43 25.09.2019
1355 Clouds 16 1011 82 10000 1.5 60 06:22 25.09.2019
1356 Clouds 15 1011 87 10000 0.5 0 05:31 25.09.2019
1357 Rain 16 1011 82 10000 0.5 0 04:55 25.09.2019
1358 Clear 15 1011 82 10000 2.1 300 02:19 25.09.2019
1359 Clouds 15 1011 82 10000 1.5 330 00:46 25.09.2019
1360 Clouds 15 1011 87 10000 2.1 200 00:26 25.09.2019
1361 Clouds 15 1011 77 10000 0.5 0 23:58 24.09.2019
1362 Clouds 16 1011 77 10000 1.5 290 23:39 24.09.2019
1363 Clouds 15 1011 77 10000 1.5 290 23:20 24.09.2019
1364 Clouds 16 1011 82 10000 0.5 0 22:39 24.09.2019
1365 Clouds 16 1011 82 10000 0.5 0 22:21 24.09.2019
1366 Clouds 16 1011 82 10000 1 0 21:58 24.09.2019
1367 Clouds 16 1011 82 10000 1 0 21:58 24.09.2019
1368 Clouds 16 1011 82 10000 1 0 21:58 24.09.2019
1369 Clouds 16 1011 82 10000 1 0 21:37 24.09.2019
1370 Clouds 16 1011 82 10000 1 0 21:19 24.09.2019
1371 Clouds 16 1011 88 10000 1.5 150 20:58 24.09.2019
1372 Clouds 16 1011 88 10000 2.1 10 20:40 24.09.2019
1373 Clouds 16 1011 88 10000 2.1 10 20:21 24.09.2019
1374 Clouds 16 1011 88 10000 2.6 50 19:57 24.09.2019
1375 Clouds 16 1011 88 10000 2.6 50 19:57 24.09.2019
1376 Clouds 16 1011 88 10000 2.6 60 19:39 24.09.2019
1377 Clouds 16 1011 88 10000 2.6 60 19:18 24.09.2019
1378 Rain 17 1011 82 10000 3.6 50 18:42 24.09.2019
1379 Clouds 17 1011 77 10000 3.6 70 18:22 24.09.2019
1380 Clouds 17 1011 77 10000 2.1 60 17:59 24.09.2019
1381 Clouds 17 1011 77 10000 2.6 90 17:39 24.09.2019
1382 Clouds 17 1011 77 10000 2.6 90 17:21 24.09.2019
1383 Clouds 18 1011 68 10000 3.6 90 16:59 24.09.2019
1384 Clouds 18 1011 68 10000 3.6 90 16:59 24.09.2019
1385 Clouds 18 1011 68 10000 3.6 90 16:40 24.09.2019
1386 Clouds 18 1011 68 10000 3.6 80 16:19 24.09.2019
1387 Clouds 18 1011 68 10000 3.6 80 16:19 24.09.2019
1388 Clouds 18 1011 72 10000 4.6 80 15:42 24.09.2019
1389 Clouds 18 1011 64 10000 4.6 80 15:23 24.09.2019
1390 Clouds 18 1012 68 10000 4.6 70 14:45 24.09.2019
1391 Clouds 18 1012 72 10000 5.7 90 14:21 24.09.2019
1392 Rain 18 1012 82 10000 6.2 100 13:59 24.09.2019
1393 Rain 18 1012 77 10000 6.7 100 13:40 24.09.2019
1394 Rain 18 1012 77 10000 6.7 100 13:21 24.09.2019
1395 Rain 18 1012 77 10000 5.7 90 12:40 24.09.2019
1396 Rain 18 1012 77 10000 5.7 90 12:21 24.09.2019
1397 Rain 18 1013 77 10000 5.7 100 11:57 24.09.2019
1398 Clouds 19 1013 72 10000 5.1 100 11:39 24.09.2019
1399 Clouds 19 1013 72 10000 5.1 100 11:18 24.09.2019
1400 Rain 18 1013 77 10000 5.1 110 10:39 24.09.2019
1401 Rain 18 1013 72 10000 5.7 110 10:21 24.09.2019
1402 Drizzle 18 1013 72 10000 6.2 90 09:56 24.09.2019
1403 Drizzle 18 1013 77 10000 4.6 90 09:37 24.09.2019
1404 Drizzle 17 1013 77 10000 4.6 90 09:18 24.09.2019
1405 Drizzle 17 1013 82 10000 4.1 90 08:41 24.09.2019
1406 Drizzle 17 1013 82 10000 4.1 90 08:41 24.09.2019
1407 Drizzle 17 1013 82 10000 4.1 90 08:41 24.09.2019
1408 Rain 16 1013 88 10000 4.6 90 08:23 24.09.2019
1409 Drizzle 17 1013 82 10000 4.1 80 07:59 24.09.2019
1410 Drizzle 17 1013 82 10000 4.1 80 07:41 24.09.2019
1411 Rain 16 1013 88 10000 3.1 80 07:22 24.09.2019
1412 Rain 17 1012 88 10000 3.1 70 06:40 24.09.2019
1413 Rain 17 1012 82 10000 2.6 90 06:19 24.09.2019
1414 Clouds 17 1012 82 10000 1.5 110 05:23 24.09.2019
1415 Clouds 18 1013 77 10000 1.5 130 03:46 24.09.2019
1416 Clouds 18 1013 77 10000 2.1 120 03:25 24.09.2019
1417 Clouds 17 1012 82 10000 2.1 110 02:44 24.09.2019
1418 Clear 17 1013 77 10000 2.1 100 01:41 24.09.2019
1419 Clear 17 1013 77 10000 2.6 120 00:42 24.09.2019
1420 Clouds 17 1013 77 10000 2.6 120 00:22 24.09.2019
1421 Clouds 17 1013 77 10000 2.6 110 23:43 23.09.2019
1422 Clouds 17 1013 77 10000 2.6 110 23:23 23.09.2019
1423 Clouds 17 1014 77 10000 2.6 120 22:41 23.09.2019
1424 Clouds 17 1014 77 10000 2.6 120 22:22 23.09.2019
1425 Clear 17 1014 77 10000 2.6 120 21:59 23.09.2019
1426 Clear 17 1014 77 10000 2.6 120 21:41 23.09.2019
1427 Clear 17 1014 77 10000 2.6 110 21:20 23.09.2019
1428 Clear 17 1014 82 10000 2.6 110 20:59 23.09.2019
1429 Clear 17 1014 82 10000 2.6 110 20:40 23.09.2019
1430 Clear 17 1014 82 10000 3.1 120 20:19 23.09.2019
1431 Clear 17 1014 77 10000 2.6 130 19:40 23.09.2019
1432 Clear 18 1014 72 10000 3.1 130 19:22 23.09.2019
1433 Clear 18 1013 72 10000 3.6 120 18:59 23.09.2019
1434 Clear 18 1013 64 10000 3.6 130 18:41 23.09.2019
1435 Clear 18 1013 64 10000 3.6 130 18:41 23.09.2019
1436 Clear 19 1013 64 10000 3.6 130 18:19 23.09.2019
1437 Clear 19 1014 64 10000 3.6 130 17:57 23.09.2019
1438 Clear 19 1014 60 10000 4.1 130 17:39 23.09.2019
1439 Clear 19 1014 60 10000 4.1 130 17:20 23.09.2019
1440 Clear 20 1014 60 10000 5.7 120 16:57 23.09.2019
1441 Clear 20 1014 56 10000 6.7 120 16:36 23.09.2019
1442 Clear 21 1014 56 10000 6.7 120 16:18 23.09.2019
1443 Clear 21 1014 56 10000 6.7 110 15:56 23.09.2019
1444 Clear 21 1014 56 10000 6.7 110 15:56 23.09.2019
1445 Clear 21 1014 52 10000 6.7 110 15:38 23.09.2019
1446 Clear 22 1014 52 10000 6.7 110 15:18 23.09.2019
1447 Clear 23 1014 46 10000 6.7 110 14:40 23.09.2019
1448 Clear 24 1014 49 10000 6.2 120 14:20 23.09.2019
1449 Clear 24 1014 46 10000 5.1 120 13:58 23.09.2019
1450 Clear 24 1014 43 10000 4.6 120 13:38 23.09.2019
1451 Clear 24 1014 43 10000 4.6 120 13:18 23.09.2019
1452 Clear 24 1015 43 10000 3.6 130 12:44 23.09.2019
1453 Clear 24 1015 40 10000 2.1 0 12:23 23.09.2019
1454 Clear 23 1015 46 10000 3.1 140 11:58 23.09.2019
1455 Clear 22 1016 49 10000 1.5 0 11:40 23.09.2019
1456 Clear 22 1016 49 10000 1.5 0 11:21 23.09.2019
1457 Clear 22 1016 48 10000 1 0 10:49 23.09.2019
1458 Clear 18 1016 52 10000 1.5 250 10:22 23.09.2019
1459 Clear 20 1016 55 10000 1.5 0 09:58 23.09.2019
1460 Clear 19 1016 63 10000 0.5 0 09:37 23.09.2019
1461 Clear 19 1016 63 10000 0.5 0 09:19 23.09.2019
1462 Clear 17 1016 72 10000 2.24 191.476 08:44 23.09.2019
1463 Clear 15 1016 81 10000 2.73 187.013 08:25 23.09.2019
1464 Clear 14 1016 87 10000 2.73 187.013 07:47 23.09.2019
1465 Clear 12 1016 87 10000 1 340 07:27 23.09.2019
1466 Clear 10 1016 93 10000 0.5 350 06:24 23.09.2019
1467 Clear 8 1017 93 10000 1 30 05:47 23.09.2019
1468 Clear 8 1017 93 10000 1 30 05:19 23.09.2019
1469 Clear 9 1017 93 10000 3.27 191.702 04:54 23.09.2019
1470 Clear 10 1018 87 10000 3.12 185.346 02:36 23.09.2019
1471 Clear 12 1018 76 10000 1.5 60 00:42 23.09.2019
1472 Clear 12 1018 81 10000 1.5 70 00:22 23.09.2019
1473 Clear 12 1019 81 10000 1.5 40 23:46 22.09.2019
1474 Clear 12 1019 76 10000 1.5 50 23:27 22.09.2019
1475 Clear 12 1019 76 10000 2.1 40 22:57 22.09.2019
1476 Clear 13 1019 76 10000 2.1 40 22:38 22.09.2019
1477 Clear 13 1019 76 10000 2.1 40 22:20 22.09.2019
1478 Clear 12 1019 76 10000 1.5 40 21:43 22.09.2019
1479 Clear 13 1019 71 10000 1 0 21:21 22.09.2019
1480 Clear 13 1020 71 10000 0.5 0 20:46 22.09.2019
1481 Clear 14 1020 62 10000 1 0 20:28 22.09.2019
1482 Clear 15 1020 63 10000 1.5 150 19:59 22.09.2019
1483 Clear 15 1020 63 10000 1.5 150 19:41 22.09.2019
1484 Clear 15 1019 63 10000 2.6 140 19:21 22.09.2019
1485 Clear 15 1019 63 10000 3.1 130 18:58 22.09.2019
1486 Clear 16 1020 55 10000 4.1 130 18:38 22.09.2019
1487 Clear 17 1020 55 10000 4.1 130 18:18 22.09.2019
1488 Clear 18 1020 55 10000 4.6 140 17:48 22.09.2019
1489 Clear 19 1020 48 10000 5.1 130 17:27 22.09.2019
1490 Clear 20 1020 48 10000 5.7 130 16:59 22.09.2019
1491 Clear 20 1020 48 10000 5.7 130 16:59 22.09.2019
1492 Clear 20 1020 48 10000 5.7 130 16:59 22.09.2019
1493 Clear 20 1020 48 10000 5.7 130 16:40 22.09.2019
1494 Clear 20 1020 48 10000 5.7 130 16:40 22.09.2019
1495 Clear 21 1020 45 10000 5.7 130 16:21 22.09.2019
1496 Clear 21 1021 42 10000 6.7 110 15:46 22.09.2019
1497 Clear 21 1021 42 10000 6.7 110 15:27 22.09.2019
1498 Clear 21 1021 45 10000 7.2 110 14:57 22.09.2019
1499 Clear 21 1021 45 10000 7.2 110 14:57 22.09.2019
1500 Clear 22 1021 40 10000 6.7 100 14:39 22.09.2019
1501 Clear 22 1021 40 10000 6.7 100 14:21 22.09.2019
1502 Clear 22 1022 40 10000 5.1 100 13:45 22.09.2019
1503 Clear 22 1022 40 10000 5.1 100 13:26 22.09.2019
1504 Clear 21 1022 35 10000 3.1 120 12:58 22.09.2019
1505 Clear 21 1023 34 10000 3.1 190 12:40 22.09.2019
1506 Clear 21 1023 34 10000 3.1 190 12:21 22.09.2019
1507 Clear 21 1023 34 10000 3.1 220 11:56 22.09.2019
1508 Clear 21 1024 37 10000 1.5 0 11:38 22.09.2019
1509 Clear 21 1024 37 10000 1.5 0 11:19 22.09.2019
1510 Clear 20 1024 42 10000 3.1 250 10:42 22.09.2019
1511 Clear 19 1024 45 10000 3.1 260 10:20 22.09.2019
1512 Clear 19 1024 45 10000 3.1 260 10:20 22.09.2019
1513 Clear 18 1025 48 10000 2.6 270 09:55 22.09.2019
1514 Clear 17 1025 58 10000 1 0 09:36 22.09.2019
1515 Clear 17 1025 58 10000 1 0 09:18 22.09.2019
1516 Clear 16 1025 62 10000 1.5 260 08:42 22.09.2019
1517 Fog 14 1025 71 8000 3.67 201.445 08:22 22.09.2019
1518 Fog 14 1025 71 8000 3.67 201.445 08:22 22.09.2019
1519 Fog 12 1025 81 7000 3.67 201.445 07:44 22.09.2019
1520 Fog 12 1025 81 7000 3.67 201.445 07:44 22.09.2019
1521 Fog 10 1025 87 6000 1.5 260 07:26 22.09.2019
1522 Fog 9 1025 87 7000 3.67 201.445 06:58 22.09.2019
1523 Fog 8 1025 87 8000 0.5 0 06:34 22.09.2019
1524 Clear 8 1025 81 10000 2.83 201.602 03:56 22.09.2019
1525 Clear 8 1025 81 10000 1 290 02:44 22.09.2019
1526 Clear 9 1025 81 10000 1.5 320 02:24 22.09.2019
1527 Clear 9 1026 81 10000 1 350 01:36 22.09.2019
1528 Clear 8 1026 81 10000 2.1 340 00:44 22.09.2019
1529 Clear 8 1026 81 10000 1.5 10 00:26 22.09.2019
1530 Clear 9 1026 76 10000 2.1 10 23:47 21.09.2019
1531 Clear 9 1026 81 10000 1.5 360 23:27 21.09.2019
1532 Clear 9 1026 76 10000 2.6 360 22:43 21.09.2019
1533 Clear 9 1026 81 10000 1 350 22:23 21.09.2019
1534 Clear 10 1026 76 10000 1.5 20 21:58 21.09.2019
1535 Clear 10 1026 76 10000 1 0 21:40 21.09.2019
1536 Clear 10 1026 76 10000 1 0 21:18 21.09.2019
1537 Clear 10 1027 71 10000 1.5 360 20:41 21.09.2019
1538 Clear 11 1026 62 10000 1.5 30 20:23 21.09.2019
1539 Clear 12 1026 54 10000 3.17 168.47 19:57 21.09.2019
1540 Clear 12 1026 54 10000 3.17 168.47 19:57 21.09.2019
1541 Clear 13 1026 54 10000 3.17 168.47 19:39 21.09.2019
1542 Clear 13 1026 54 10000 1.5 120 19:18 21.09.2019
1543 Clear 15 1025 48 10000 4.1 130 18:39 21.09.2019
1544 Clear 15 1025 48 10000 4.1 130 18:20 21.09.2019
1545 Clear 15 1025 48 10000 4.1 130 18:20 21.09.2019
1546 Clear 18 1025 42 10000 5.1 110 17:42 21.09.2019
1547 Clear 18 1025 42 10000 5.1 110 17:23 21.09.2019
1548 Clear 19 1025 25 10000 3.1 320 16:56 21.09.2019
1549 Clear 19 1025 25 10000 3.6 290 16:36 21.09.2019
1550 Clear 19 1025 25 10000 3.6 290 16:18 21.09.2019
1551 Clear 20 1025 26 10000 4.1 330 15:42 21.09.2019
1552 Clear 20 1025 25 10000 2.6 0 15:20 21.09.2019
1553 Clear 20 1025 26 10000 4.6 350 14:47 21.09.2019
1554 Clear 19 1026 25 10000 2.6 0 14:28 21.09.2019
1555 Clear 19 1026 26 10000 4.1 320 13:45 21.09.2019
1556 Clear 18 1026 25 10000 4.1 330 13:25 21.09.2019
1557 Clear 19 1026 26 10000 3.1 0 12:58 21.09.2019
1558 Clear 19 1027 26 10000 3.6 0 12:39 21.09.2019
1559 Clear 19 1027 31 10000 3.6 0 12:20 21.09.2019
1560 Clear 18 1027 31 10000 3.6 320 11:57 21.09.2019
1561 Clear 18 1027 33 10000 5.1 350 11:38 21.09.2019
1562 Clear 17 1027 33 10000 5.1 350 11:18 21.09.2019
1563 Clear 17 1027 31 10000 4.1 20 10:40 21.09.2019
1564 Clear 16 1027 36 10000 5.1 30 10:20 21.09.2019
1565 Clear 16 1027 31 10000 5.7 10 09:55 21.09.2019
1566 Clear 15 1026 31 10000 5.1 20 09:37 21.09.2019
1567 Clear 15 1026 41 10000 5.1 20 09:19 21.09.2019
1568 Clear 15 1026 41 10000 6.2 10 08:45 21.09.2019
1569 Clear 13 1026 43 10000 2.6 360 07:59 21.09.2019
1570 Clear 12 1025 50 10000 1.5 0 07:40 21.09.2019
1571 Clear 12 1025 50 10000 1.5 0 07:20 21.09.2019
1572 Clear 10 1025 50 10000 3.6 10 06:36 21.09.2019
1573 Clear 9 1025 46 10000 3.1 360 05:51 21.09.2019
1574 Clear 10 1024 46 10000 4.1 20 04:39 21.09.2019
1575 Clear 11 1024 50 10000 4.1 10 03:34 21.09.2019
1576 Clear 11 1024 54 10000 1.5 0 02:25 21.09.2019
1577 Clear 11 1024 54 10000 0.5 0 01:48 21.09.2019
1578 Clear 11 1024 58 10000 1 0 01:25 21.09.2019
1579 Clear 11 1024 71 10000 1.5 220 00:23 21.09.2019
1580 Clear 11 1023 66 10000 0.5 0 23:56 20.09.2019
1581 Clear 11 1023 66 10000 1 0 23:30 20.09.2019
1582 Clear 10 1023 71 10000 2.1 330 22:56 20.09.2019
1583 Clear 11 1023 62 10000 1.5 360 22:37 20.09.2019
1584 Clear 10 1023 62 10000 1.5 360 22:19 20.09.2019
1585 Clear 10 1023 66 10000 1.5 10 21:54 20.09.2019
1586 Clear 10 1023 62 10000 1 340 21:36 20.09.2019
1587 Clear 10 1023 62 10000 1 340 21:18 20.09.2019
1588 Clear 10 1023 58 10000 1 0 20:41 20.09.2019
1589 Clear 10 1022 58 10000 2.6 10 20:20 20.09.2019
1590 Clear 11 1022 58 10000 2.6 360 19:56 20.09.2019
1591 Clear 11 1022 58 10000 2.6 360 19:56 20.09.2019
1592 Clear 12 1022 58 10000 1.5 10 19:37 20.09.2019
1593 Clear 12 1022 58 10000 1.5 10 19:18 20.09.2019
1594 Clouds 15 1021 41 10000 1.5 20 18:39 20.09.2019
1595 Clouds 15 1021 41 10000 1.5 20 18:20 20.09.2019
1596 Clouds 16 1021 36 10000 3.6 30 17:56 20.09.2019
1597 Clouds 16 1021 36 10000 3.6 30 17:56 20.09.2019
1598 Clouds 17 1021 34 10000 4.1 10 17:38 20.09.2019
1599 Clouds 17 1021 34 10000 4.1 10 17:18 20.09.2019
1600 Clouds 18 1020 36 10000 5.1 10 16:38 20.09.2019
1601 Clouds 18 1020 36 10000 5.1 10 16:19 20.09.2019
1602 Clouds 19 1020 39 10000 5.1 20 15:42 20.09.2019
1603 Clouds 19 1020 37 10000 6.7 360 15:23 20.09.2019
1604 Clouds 19 1020 37 10000 6.7 360 15:23 20.09.2019
1605 Clouds 19 1020 42 10000 5.7 10 14:56 20.09.2019
1606 Clouds 19 1020 42 10000 5.7 10 14:38 20.09.2019
1607 Clouds 18 1020 42 10000 6.2 20 14:18 20.09.2019
1608 Clouds 18 1020 45 10000 6.7 10 13:44 20.09.2019
1609 Clouds 17 1019 48 10000 8.2 10 13:25 20.09.2019
1610 Clouds 16 1019 48 10000 8.2 10 12:42 20.09.2019
1611 Clouds 16 1019 59 10000 7.7 10 12:23 20.09.2019
1612 Clouds 15 1020 72 10000 5.1 10 11:57 20.09.2019
1613 Clouds 15 1019 82 10000 5.7 10 11:39 20.09.2019
1614 Clouds 14 1019 82 10000 5.7 10 11:19 20.09.2019
1615 Clouds 13 1020 87 10000 3.6 0 10:42 20.09.2019
1616 Clouds 12 1020 87 10000 2.1 320 10:22 20.09.2019
1617 Rain 12 1020 87 10000 3.6 290 09:38 20.09.2019
1618 Rain 12 1020 87 10000 3.6 290 09:19 20.09.2019
1619 Rain 12 1019 93 10000 4.1 280 08:48 20.09.2019
1620 Rain 12 1019 87 9000 4.1 290 08:29 20.09.2019
1621 Rain 12 1019 87 9000 3.1 280 07:59 20.09.2019
1622 Rain 12 1019 87 9000 3.1 280 07:40 20.09.2019
1623 Rain 12 1019 93 10000 4.1 270 07:22 20.09.2019
1624 Rain 11 1019 93 9000 4.1 290 06:42 20.09.2019
1625 Rain 11 1019 93 10000 4.1 290 06:18 20.09.2019
1626 Rain 12 1019 87 9000 5.7 320 04:32 20.09.2019
1627 Rain 13 1019 76 10000 3.6 320 03:29 20.09.2019
1628 Rain 13 1019 76 10000 5.7 350 02:22 20.09.2019
1629 Rain 13 1019 76 10000 5.1 330 01:43 20.09.2019
1630 Rain 13 1019 76 10000 3.6 340 00:42 20.09.2019
1631 Drizzle 14 1019 88 10000 2.74 326.745 23:50 19.09.2019
1632 Drizzle 14 1019 88 10000 2.74 326.745 23:50 19.09.2019
1633 Clouds 15 1019 82 10000 2.6 120 23:28 19.09.2019
1634 Clouds 16 1019 82 10000 3.1 110 22:59 19.09.2019
1635 Clouds 16 1019 82 10000 3.1 110 22:40 19.09.2019
1636 Clouds 16 1019 88 10000 2.6 120 22:21 19.09.2019
1637 Clouds 16 1019 88 10000 3.6 100 21:57 19.09.2019
1638 Clouds 16 1019 88 10000 3.6 100 21:38 19.09.2019
1639 Clouds 16 1019 88 10000 3.6 100 21:19 19.09.2019
1640 Clouds 16 1019 88 10000 3.6 100 20:55 19.09.2019
1641 Clouds 17 1019 88 10000 3.6 100 20:37 19.09.2019
1642 Clouds 16 1019 88 10000 3.6 100 20:18 19.09.2019
1643 Rain 17 1019 82 10000 3.6 120 19:39 19.09.2019
1644 Rain 17 1019 82 10000 3.6 120 19:21 19.09.2019
1645 Rain 17 1019 82 10000 3.6 110 18:58 19.09.2019
1646 Clouds 18 1019 63 10000 0.78 286.538 18:40 19.09.2019
1647 Clouds 18 1019 63 10000 0.85 112.765 18:21 19.09.2019
1648 Clouds 18 1019 63 10000 0.5 320 17:42 19.09.2019
1649 Clouds 18 1019 63 10000 0.5 320 17:24 19.09.2019
1650 Clouds 19 1019 56 10000 0.85 112.765 16:59 19.09.2019
1651 Clouds 19 1019 56 10000 0.85 112.765 16:40 19.09.2019
1652 Clouds 19 1019 56 10000 1.5 210 16:19 19.09.2019
1653 Rain 19 1019 64 10000 1 0 15:39 19.09.2019
1654 Rain 19 1019 64 10000 1 0 15:21 19.09.2019
1655 Rain 19 1019 64 10000 1 0 15:21 19.09.2019
1656 Drizzle 19 1019 52 10000 2.09 118.672 14:57 19.09.2019
1657 Drizzle 19 1019 52 10000 0.5 0 14:38 19.09.2019
1658 Drizzle 19 1019 52 10000 0.5 0 14:18 19.09.2019
1659 Drizzle 19 1019 52 10000 0.5 0 14:18 19.09.2019
1660 Clouds 20 1020 56 10000 1 0 13:40 19.09.2019
1661 Clouds 20 1020 56 10000 1 0 13:40 19.09.2019
1662 Clouds 20 1020 56 10000 2.1 100 13:20 19.09.2019
1663 Clouds 19 1020 56 10000 3.1 140 12:40 19.09.2019
1664 Clouds 19 1020 56 10000 3.1 140 12:20 19.09.2019
1665 Clouds 19 1020 56 10000 2.6 90 11:58 19.09.2019
1666 Clouds 19 1020 60 10000 0.5 0 11:39 19.09.2019
1667 Clouds 19 1020 60 10000 0.5 0 11:21 19.09.2019
1668 Clouds 18 1020 63 10000 1.5 0 10:56 19.09.2019
1669 Clouds 18 1020 63 10000 1.5 0 10:56 19.09.2019
1670 Clouds 18 1020 63 10000 1.5 0 10:56 19.09.2019
1671 Clouds 18 1020 63 10000 1.5 0 10:56 19.09.2019
1672 Clouds 18 1021 68 10000 2.1 30 10:36 19.09.2019
1673 Clouds 18 1021 68 10000 2.1 30 10:18 19.09.2019
1674 Clouds 17 1021 72 10000 2.6 330 09:41 19.09.2019
1675 Rain 17 1021 67 10000 3.6 280 09:21 19.09.2019
1676 Clouds 17 1021 59 10000 2.6 230 08:56 19.09.2019
1677 Clouds 17 1020 59 10000 2.1 80 08:29 19.09.2019
1678 Clouds 17 1020 59 10000 4.1 50 07:57 19.09.2019
1679 Clouds 17 1020 59 10000 4.1 50 07:57 19.09.2019
1680 Clouds 17 1020 59 10000 4.1 50 07:57 19.09.2019
1681 Clouds 17 1020 59 10000 5.1 50 07:38 19.09.2019
1682 Clouds 17 1020 59 10000 5.1 50 07:38 19.09.2019
1683 Clouds 17 1020 59 10000 5.1 50 07:20 19.09.2019
1684 Clear 16 1020 63 10000 6.2 40 06:45 19.09.2019
1685 Clear 16 1020 63 10000 6.2 40 06:45 19.09.2019
1686 Clear 16 1020 59 10000 6.7 40 06:25 19.09.2019
1687 Clear 16 1020 55 10000 5.7 40 05:50 19.09.2019
1688 Clear 16 1020 59 10000 4.6 50 04:39 19.09.2019
1689 Clear 16 1020 63 10000 4.1 50 03:22 19.09.2019
1690 Clear 16 1020 63 10000 3.1 40 01:53 19.09.2019
1691 Clear 16 1020 59 10000 3.6 50 01:21 19.09.2019
1692 Clear 16 1020 59 10000 2.6 70 00:49 19.09.2019
1693 Clear 16 1020 59 10000 2.6 50 00:25 19.09.2019
1694 Clear 16 1019 59 10000 3.1 50 23:39 18.09.2019
1695 Clear 16 1019 59 10000 3.1 50 23:21 18.09.2019
1696 Clear 17 1019 59 10000 1 0 22:43 18.09.2019
1697 Clear 17 1019 59 10000 2.6 50 22:20 18.09.2019
1698 Clear 17 1018 63 10000 4.1 90 21:58 18.09.2019
1699 Clear 17 1018 63 10000 4.1 90 21:58 18.09.2019
1700 Clear 17 1018 63 10000 4.1 90 21:40 18.09.2019
1701 Clear 18 1018 63 10000 3.1 80 21:19 18.09.2019
1702 Clear 18 1018 64 10000 1.5 0 20:58 18.09.2019
1703 Clear 18 1018 64 10000 1.5 0 20:40 18.09.2019
1704 Clear 18 1017 60 10000 6.2 50 20:22 18.09.2019
1705 Clear 19 1016 60 10000 3.6 70 19:57 18.09.2019
1706 Clear 19 1016 60 10000 3.6 70 19:57 18.09.2019
1707 Clear 19 1016 64 10000 4.1 70 19:38 18.09.2019
1708 Clear 19 1016 64 10000 4.1 70 19:19 18.09.2019
1709 Clear 20 1015 64 10000 3.6 120 18:55 18.09.2019
1710 Clouds 21 1014 60 10000 5.7 80 18:37 18.09.2019
1711 Clouds 22 1014 60 10000 5.7 80 18:18 18.09.2019
1712 Clouds 23 1014 50 8000 6.7 40 17:57 18.09.2019
1713 Clear 27 1013 26 10000 8.7 330 17:38 18.09.2019
1714 Clear 28 1013 26 10000 8.7 330 17:18 18.09.2019
1715 Clear 29 1012 32 10000 8.7 310 16:55 18.09.2019
1716 Clear 29 1012 30 10000 9.8 310 16:36 18.09.2019
1717 Clear 29 1012 30 10000 9.8 310 16:18 18.09.2019
1718 Clear 30 1012 30 10000 8.7 310 15:54 18.09.2019
1719 Clear 30 1011 27 10000 8.7 300 15:36 18.09.2019
1720 Clear 30 1011 27 10000 8.7 300 15:36 18.09.2019
1721 Clear 30 1011 27 10000 8.7 300 15:18 18.09.2019
1722 Clear 31 1011 27 10000 8.7 310 14:55 18.09.2019
1723 Clear 31 1011 25 10000 8.2 300 14:36 18.09.2019
1724 Clear 31 1011 25 10000 8.2 300 14:18 18.09.2019
1725 Clear 31 1011 24 10000 7.7 320 13:40 18.09.2019
1726 Clear 31 1011 25 10000 4.6 0 13:19 18.09.2019
1727 Clear 31 1011 25 10000 1 0 12:53 18.09.2019
1728 Clear 31 1011 24 10000 6.7 300 12:31 18.09.2019
1729 Clear 31 1010 25 10000 5.7 320 11:57 18.09.2019
1730 Clear 31 1010 25 10000 5.1 310 11:38 18.09.2019
1731 Clear 31 1010 25 10000 5.1 310 11:19 18.09.2019
1732 Clear 30 1010 32 10000 1.5 0 10:40 18.09.2019
1733 Clear 30 1010 32 10000 1.5 0 10:21 18.09.2019
1734 Clear 28 1011 34 10000 2.1 240 09:58 18.09.2019
1735 Clear 27 1011 41 10000 3.1 250 09:38 18.09.2019
1736 Clear 27 1011 41 10000 3.1 250 09:20 18.09.2019
1737 Clear 26 1010 44 10000 2.1 250 08:42 18.09.2019
1738 Clear 25 1010 43 10000 1.5 260 08:24 18.09.2019
1739 Clear 22 1010 56 10000 0.5 0 07:57 18.09.2019
1740 Clear 21 1010 56 10000 0.5 0 07:39 18.09.2019
1741 Clear 20 1010 59 10000 2.1 360 07:21 18.09.2019
1742 Clear 15 1010 62 10000 1 0 06:38 18.09.2019
1743 Clear 16 1010 62 10000 1 310 05:46 18.09.2019
1744 Clear 17 1010 59 10000 1 310 04:43 18.09.2019
1745 Clear 18 1010 55 10000 1 10 02:41 18.09.2019
1746 Clear 18 1011 63 10000 1 320 02:18 18.09.2019
1747 Clear 19 1011 55 10000 2.6 350 01:20 18.09.2019
1748 Clear 18 1011 59 10000 2.1 350 00:47 18.09.2019
1749 Clear 18 1011 55 10000 3.08 261.68 00:19 18.09.2019
1750 Clear 18 1011 52 10000 1.5 10 23:44 17.09.2019
1751 Clear 19 1011 49 10000 0.5 320 23:22 17.09.2019
1752 Clear 17 1011 55 10000 1.5 350 22:42 17.09.2019
1753 Clear 17 1011 55 10000 1.5 350 22:42 17.09.2019
1754 Clear 19 1011 45 10000 0.5 0 22:24 17.09.2019
1755 Clear 19 1011 43 10000 2.6 10 21:55 17.09.2019
1756 Clear 19 1011 46 10000 1.5 50 21:37 17.09.2019
1757 Clear 20 1011 46 10000 1.5 50 21:18 17.09.2019
1758 Clear 20 1011 73 10000 2.1 130 20:57 17.09.2019
1759 Clear 20 1011 73 10000 2.1 130 20:39 17.09.2019
1760 Clear 20 1011 73 10000 1.5 140 20:21 17.09.2019
1761 Clear 20 1011 73 10000 1.5 140 20:21 17.09.2019
1762 Clear 22 1011 60 10000 2.6 150 19:58 17.09.2019
1763 Clear 24 1011 28 10000 0.5 0 19:39 17.09.2019
1764 Clear 24 1011 28 10000 0.5 0 19:39 17.09.2019
1765 Clear 24 1011 28 10000 0.5 0 19:19 17.09.2019
1766 Clear 24 1011 28 10000 0.5 0 19:19 17.09.2019
1767 Clear 25 1010 28 10000 0.5 0 18:55 17.09.2019
1768 Clear 25 1010 28 10000 0.5 0 18:55 17.09.2019
1769 Clear 29 1010 25 10000 3.6 270 18:36 17.09.2019
1770 Clear 27 1010 25 10000 3.6 270 18:18 17.09.2019
1771 Clear 30 1010 22 10000 5.1 290 17:44 17.09.2019
1772 Clear 30 1010 22 10000 5.1 290 17:19 17.09.2019
1773 Clear 31 1010 19 10000 6.2 270 16:54 17.09.2019
1774 Clear 31 1010 18 10000 6.2 250 16:36 17.09.2019
1775 Clear 31 1010 18 10000 6.2 250 16:18 17.09.2019
1776 Clear 31 1010 22 10000 6.7 270 15:38 17.09.2019
1777 Clear 31 1010 22 10000 6.7 270 15:19 17.09.2019
1778 Clear 31 1011 21 10000 5.7 260 14:56 17.09.2019
1779 Clear 31 1011 21 10000 5.7 260 14:56 17.09.2019
1780 Clear 31 1011 19 10000 4.6 260 14:37 17.09.2019
1781 Clear 31 1011 19 10000 4.6 260 14:19 17.09.2019
1782 Clear 31 1011 19 10000 4.6 260 14:19 17.09.2019
1783 Clear 30 1011 22 10000 3.6 240 13:43 17.09.2019
1784 Clear 30 1011 22 10000 4.6 270 13:25 17.09.2019
1785 Clear 30 1012 25 10000 4.1 260 12:56 17.09.2019
1786 Clear 29 1012 27 10000 4.6 270 12:37 17.09.2019
1787 Clear 29 1012 27 10000 4.6 270 12:18 17.09.2019
1788 Clear 29 1012 30 10000 5.1 290 11:42 17.09.2019
1789 Clear 29 1012 32 10000 5.1 260 11:24 17.09.2019
1790 Clear 29 1012 32 10000 5.7 260 10:55 17.09.2019
1791 Clear 27 1013 34 10000 6.7 270 10:37 17.09.2019
1792 Clear 27 1013 34 10000 6.7 270 10:18 17.09.2019
1793 Clear 26 1013 36 10000 3.1 240 09:41 17.09.2019
1794 Clear 24 1013 46 10000 1.5 240 09:21 17.09.2019
1795 Clear 22 1013 56 8000 1 0 08:49 17.09.2019
1796 Clear 21 1013 68 9000 0.5 0 08:30 17.09.2019
1797 Clear 18 1013 77 9000 2.61 261.882 07:58 17.09.2019
1798 Clear 18 1013 77 9000 2.61 261.882 07:39 17.09.2019
1799 Clear 18 1013 77 9000 2.61 261.882 07:39 17.09.2019
1800 Clear 17 1013 76 10000 2.61 261.882 07:19 17.09.2019
1801 Clear 15 1013 82 10000 1.5 290 06:45 17.09.2019
1802 Clear 13 1013 87 10000 0.5 0 06:19 17.09.2019
1803 Clear 12 1013 93 10000 1 0 05:44 17.09.2019
1804 Clear 13 1013 87 10000 0.5 290 04:28 17.09.2019
1805 Clear 14 1013 82 10000 2.25 221.437 02:55 17.09.2019
1806 Clear 14 1013 82 10000 2.25 221.437 02:35 17.09.2019
1807 Clear 14 1014 82 10000 2.31 220.448 01:24 17.09.2019
1808 Clear 14 1014 82 10000 2.31 220.448 00:32 17.09.2019
1809 Clear 15 1014 77 10000 1.5 20 23:38 16.09.2019
1810 Clear 16 1014 77 10000 1.5 20 23:18 16.09.2019
1811 Clear 16 1014 77 10000 0.5 70 22:42 16.09.2019
1812 Clear 17 1014 72 10000 0.5 80 22:24 16.09.2019
1813 Clear 17 1014 77 10000 1 90 21:59 16.09.2019
1814 Clear 17 1014 77 10000 1 90 21:40 16.09.2019
1815 Clear 17 1014 77 10000 2.1 80 21:21 16.09.2019
1816 Clear 17 1014 77 10000 1.5 90 20:58 16.09.2019
1817 Clear 18 1014 77 10000 1.5 90 20:39 16.09.2019
1818 Clear 18 1014 68 10000 2.1 90 20:19 16.09.2019
1819 Clear 19 1014 68 10000 2.6 90 19:56 16.09.2019
1820 Clear 20 1014 68 10000 3.6 90 19:37 16.09.2019
1821 Clear 20 1014 68 10000 3.6 90 19:18 16.09.2019
1822 Clear 21 1014 60 10000 4.1 90 18:43 16.09.2019
1823 -273 0 0 0 0 0 18:25 16.09.2019
1824 Clear 24 1014 47 10000 5.1 100 17:54 16.09.2019
1825 Clear 24 1014 47 10000 4.6 110 17:36 16.09.2019
1826 Clear 25 1014 47 10000 4.6 110 17:18 16.09.2019
1827 Clear 26 1014 36 10000 5.1 120 16:43 16.09.2019
1828 Clear 26 1014 36 10000 5.7 120 16:21 16.09.2019
1829 Clear 26 1014 36 10000 6.2 110 15:57 16.09.2019
1830 Clear 27 1015 39 10000 6.2 120 15:38 16.09.2019
1831 Clear 27 1015 39 10000 6.2 120 15:20 16.09.2019
1832 Clear 27 1015 39 10000 6.2 120 14:58 16.09.2019
1833 Clear 27 1015 44 10000 6.7 90 14:39 16.09.2019
1834 Clear 27 1015 44 10000 6.7 90 14:20 16.09.2019
1835 Clear 26 1015 42 10000 5.7 100 13:41 16.09.2019
1836 Clear 26 1016 36 10000 5.1 120 13:22 16.09.2019
1837 Clear 26 1016 34 10000 2.6 170 12:55 16.09.2019
1838 Clear 26 1017 31 10000 4.1 190 12:36 16.09.2019
1839 Clear 26 1017 31 10000 4.1 190 12:18 16.09.2019
1840 Clear 26 1017 32 10000 3.6 210 11:44 16.09.2019
1841 Clear 25 1017 36 10000 2.6 230 11:22 16.09.2019
1842 Clear 24 1018 44 10000 2.1 0 10:40 16.09.2019
1843 Clear 22 1018 53 10000 1.5 250 10:21 16.09.2019
1844 Clear 23 1018 56 10000 2.6 250 09:59 16.09.2019
1845 Clear 23 1018 56 10000 2.6 250 09:41 16.09.2019
1846 Clear 21 1019 60 10000 3.1 270 09:20 16.09.2019
1847 Clear 20 1019 67 10000 2.6 280 08:48 16.09.2019
1848 Clear 17 1019 77 6000 1 0 08:29 16.09.2019
1849 Mist 17 1019 82 5000 0.5 290 07:57 16.09.2019
1850 Mist 16 1019 82 3200 1.8 223.064 07:39 16.09.2019
1851 Mist 16 1019 82 3200 1.8 223.064 07:20 16.09.2019
1852 Mist 12 1019 93 3300 1.8 223.064 06:48 16.09.2019
1853 Mist 12 1019 87 2500 1.8 223.064 06:30 16.09.2019
1854 Clouds 11 1019 93 6000 1.96 223.239 05:54 16.09.2019
1855 Clouds 11 1019 87 7000 1.96 223.239 05:35 16.09.2019
1856 Clear 12 1019 87 10000 1.96 223.239 04:55 16.09.2019
1857 Clear 12 1020 82 10000 1.96 223.239 03:31 16.09.2019
1858 Clear 12 1022 82 10000 1.5 330 00:44 16.09.2019
1859 Clear 13 1022 76 10000 2.1 340 00:26 16.09.2019
1860 Clear 13 1022 71 10000 2.1 10 23:45 15.09.2019
1861 Clear 13 1022 76 10000 2.1 20 23:22 15.09.2019
1862 Clear 13 1023 67 10000 2.8 198.532 22:59 15.09.2019
1863 Clear 13 1023 72 10000 1 0 22:38 15.09.2019
1864 Clear 14 1023 72 10000 1 0 22:18 15.09.2019
1865 Clear 14 1023 63 10000 2.8 198.532 21:56 15.09.2019
1866 Clear 15 1023 63 10000 2.8 198.532 21:37 15.09.2019
1867 Clear 15 1023 63 10000 3.4 154.816 21:18 15.09.2019
1868 Clear 16 1023 63 10000 2.6 60 20:44 15.09.2019
1869 Clear 16 1023 63 10000 2.6 60 20:44 15.09.2019
1870 Clear 17 1023 59 10000 2.6 80 20:25 15.09.2019
1871 Clear 17 1023 59 10000 2.6 80 19:47 15.09.2019
1872 Clear 18 1023 59 10000 3.1 100 19:27 15.09.2019
1873 Clear 18 1023 55 10000 3.1 110 18:56 15.09.2019
1874 Clear 20 1023 56 10000 4.6 120 18:37 15.09.2019
1875 Clear 19 1023 56 10000 4.6 120 18:18 15.09.2019
1876 Clear 21 1023 52 10000 5.7 120 17:41 15.09.2019
1877 Clear 22 1023 53 10000 6.2 110 17:22 15.09.2019
1878 Clear 22 1023 49 10000 7.2 110 16:57 15.09.2019
1879 Clear 22 1024 53 10000 6.7 120 16:38 15.09.2019
1880 Clear 24 1024 53 10000 6.7 120 16:20 15.09.2019
1881 Clear 25 1024 49 10000 7.2 130 15:41 15.09.2019
1882 Clear 25 1024 49 10000 7.2 130 15:21 15.09.2019
1883 Clear 25 1024 53 10000 6.7 140 14:59 15.09.2019
1884 Clear 25 1024 50 10000 8.2 130 14:41 15.09.2019
1885 Clear 25 1024 50 10000 8.2 130 14:23 15.09.2019
1886 Clear 25 1024 47 10000 6.7 150 13:48 15.09.2019
1887 Clear 25 1025 38 10000 3.6 80 13:25 15.09.2019
1888 Clear 25 1025 25 10000 4.1 10 12:58 15.09.2019
1889 Clear 25 1025 25 10000 4.6 60 12:40 15.09.2019
1890 Clear 25 1025 25 10000 4.6 60 12:20 15.09.2019
1891 Clear 25 1025 25 10000 4.6 60 12:20 15.09.2019
1892 Clear 25 1025 23 10000 5.1 50 11:43 15.09.2019
1893 Clear 24 1026 23 10000 4.1 50 11:23 15.09.2019
1894 Clear 23 1026 28 10000 4.6 20 10:59 15.09.2019
1895 Clear 23 1026 28 10000 4.6 20 10:40 15.09.2019
1896 Clear 22 1026 30 10000 4.1 20 10:21 15.09.2019
1897 Clear 21 1026 37 10000 2.6 360 09:43 15.09.2019
1898 Clear 21 1026 42 10000 4.1 50 09:21 15.09.2019
1899 Clear 21 1026 40 10000 2.1 50 08:58 15.09.2019
1900 Clear 20 1026 40 10000 2.1 50 08:39 15.09.2019
1901 Clear 19 1025 37 10000 2.6 270 08:18 15.09.2019
1902 Clear 18 1025 45 10000 3.1 0 07:41 15.09.2019
1903 Clear 17 1025 45 10000 2.6 20 06:44 15.09.2019
1904 Clear 16 1024 45 10000 7.2 20 05:35 15.09.2019
1905 Clear 18 1024 55 10000 8.2 20 03:19 15.09.2019
1906 Clear 19 1024 60 10000 7.2 20 02:18 15.09.2019
1907 Clear 19 1024 56 10000 6.7 20 01:36 15.09.2019
1908 Clear 20 1024 56 10000 6.7 20 01:36 15.09.2019
1909 Clear 19 1024 56 10000 7.7 30 00:56 15.09.2019
1910 Clear 20 1024 56 10000 6.7 20 00:36 15.09.2019
1911 Clear 20 1024 56 10000 6.7 20 00:18 15.09.2019
1912 Clear 19 1024 56 10000 7.2 20 23:55 14.09.2019
1913 Clear 20 1024 56 10000 8.2 30 23:37 14.09.2019
1914 Clear 20 1024 56 10000 8.2 30 23:18 14.09.2019
1915 Clear 20 1024 53 10000 6.2 20 22:55 14.09.2019
1916 Clear 21 1023 53 10000 6.2 30 22:37 14.09.2019
1917 Clear 20 1023 53 10000 6.2 30 22:18 14.09.2019
1918 Clear 20 1023 53 10000 4.6 30 21:40 14.09.2019
1919 Clear 19 1023 60 10000 1 0 21:20 14.09.2019
1920 Clear 19 1022 68 10000 1 0 20:57 14.09.2019
1921 Clear 19 1022 60 10000 3.35 52.464 20:38 14.09.2019
1922 Clear 19 1022 60 10000 3.35 52.464 20:20 14.09.2019
1923 Clear 20 1022 64 10000 0.5 0 19:46 14.09.2019
1924 Clear 21 1022 64 10000 0.5 0 19:21 14.09.2019
1925 Clear 22 1021 60 10000 2.6 120 18:57 14.09.2019
1926 Clear 23 1021 60 10000 2.6 130 18:38 14.09.2019
1927 Clear 23 1021 60 10000 2.6 130 18:38 14.09.2019
1928 Clear 23 1021 60 10000 2.6 130 18:19 14.09.2019
1929 Clear 24 1021 53 10000 3.1 130 17:44 14.09.2019
1930 Clear 25 1021 50 10000 3.6 120 17:22 14.09.2019
1931 Clear 25 1021 50 10000 4.6 130 16:48 14.09.2019
1932 Clear 25 1021 47 10000 4.6 130 16:28 14.09.2019
1933 Clear 26 1021 44 10000 5.7 130 15:58 14.09.2019
1934 Clear 26 1021 44 10000 5.7 130 15:40 14.09.2019
1935 Clear 28 1021 47 10000 5.7 130 15:20 14.09.2019
1936 Clear 28 1021 44 10000 6.7 120 14:44 14.09.2019
1937 Clear 28 1021 42 10000 8.7 110 14:19 14.09.2019
1938 Clear 29 1021 32 10000 7.2 120 13:48 14.09.2019
1939 Clear 30 1021 20 10000 4.1 10 13:24 14.09.2019
1940 Clear 29 1021 21 10000 7.2 40 12:59 14.09.2019
1941 Clear 30 1022 20 10000 4.6 50 12:38 14.09.2019
1942 Clear 30 1022 20 10000 4.6 50 12:18 14.09.2019
1943 Clear 30 1022 23 10000 3.6 0 11:40 14.09.2019
1944 Clear 29 1022 23 10000 3.6 0 11:19 14.09.2019
1945 Clear 29 1022 23 10000 4.1 360 10:39 14.09.2019
1946 Clear 28 1022 23 10000 4.6 360 10:21 14.09.2019
1947 Clear 27 1022 24 10000 6.2 340 09:57 14.09.2019
1948 Clear 27 1022 26 10000 4.6 350 09:39 14.09.2019
1949 Clear 27 1022 26 10000 4.6 350 09:19 14.09.2019
1950 Clear 24 1022 33 10000 2.1 260 08:46 14.09.2019
1951 Clear 21 1022 37 10000 2.1 180 08:24 14.09.2019
1952 Clear 21 1022 48 10000 2.1 240 07:47 14.09.2019
1953 Clear 20 1022 45 10000 1 0 07:28 14.09.2019
1954 Clear 16 1022 45 10000 2.1 0 06:52 14.09.2019
1955 Clear 16 1022 51 10000 3.1 240 06:28 14.09.2019
1956 Clear 12 1022 58 10000 1 0 05:26 14.09.2019
1957 Clear 13 1022 62 10000 1 0 03:46 14.09.2019
1958 Clear 14 1023 45 10000 3.1 350 02:53 14.09.2019
1959 Clear 15 1023 48 10000 2.1 270 01:51 14.09.2019
1960 Clear 15 1023 48 10000 3.6 350 01:22 14.09.2019
1961 Clear 16 1023 42 10000 4.6 360 00:57 14.09.2019
1962 Clear 16 1023 45 10000 3.6 360 00:38 14.09.2019
1963 Clear 16 1023 45 10000 3.6 360 00:20 14.09.2019
1964 Clear 15 1023 55 10000 1.5 330 23:38 13.09.2019
1965 Clear 14 1023 55 10000 1.5 330 23:19 13.09.2019
1966 Clear 14 1023 55 10000 1.5 330 23:19 13.09.2019
1967 Clear 15 1023 55 10000 2.1 330 22:58 13.09.2019
1968 Clear 16 1023 52 10000 0.75 346.389 22:38 13.09.2019
1969 Clear 16 1023 52 10000 0.75 346.389 22:38 13.09.2019
1970 Clear 16 1023 52 10000 0.75 346.389 22:20 13.09.2019
1971 Clear 16 1023 48 10000 0.75 346.389 21:42 13.09.2019
1972 Clear 17 1023 45 10000 2.6 50 21:20 13.09.2019
1973 Clear 18 1023 42 10000 3.1 40 20:59 13.09.2019
1974 Clear 18 1023 42 10000 3.1 40 20:40 13.09.2019
1975 Clear 19 1023 37 10000 3.6 40 20:21 13.09.2019
1976 Clear 20 1023 35 10000 3.6 50 19:56 13.09.2019
1977 Clear 21 1023 35 10000 3.1 50 19:37 13.09.2019
1978 Clear 21 1023 35 10000 3.1 50 19:19 13.09.2019
1979 Clear 24 1022 31 10000 4.1 80 18:55 13.09.2019
1980 Clear 26 1022 26 10000 5.7 80 18:36 13.09.2019
1981 Clear 25 1022 26 10000 5.7 80 18:18 13.09.2019
1982 Clear 26 1022 24 10000 5.7 80 17:38 13.09.2019
1983 Clear 26 1022 24 10000 5.7 80 17:18 13.09.2019
1984 Clear 27 1022 23 10000 6.7 60 16:41 13.09.2019
1985 Clear 27 1022 23 10000 6.7 60 16:20 13.09.2019
1986 Clear 27 1022 21 10000 6.2 30 15:46 13.09.2019
1987 Clear 27 1022 21 10000 6.2 40 15:28 13.09.2019
1988 Clear 28 1022 23 10000 5.7 50 14:58 13.09.2019
1989 Clear 28 1022 23 10000 5.7 50 14:58 13.09.2019
1990 Clear 28 1022 21 10000 8.2 90 14:39 13.09.2019
1991 Clear 27 1022 21 10000 8.2 90 14:19 13.09.2019
1992 Clear 27 1022 21 10000 8.2 90 14:19 13.09.2019
1993 Clear 27 1023 21 10000 8.2 70 13:46 13.09.2019
1994 Clear 27 1023 23 10000 8.7 80 13:24 13.09.2019
1995 Clear 28 1023 23 10000 8.2 70 12:56 13.09.2019
1996 Clear 28 1023 23 10000 8.2 70 12:56 13.09.2019
1997 Clear 27 1023 23 10000 7.2 60 12:38 13.09.2019
1998 Clear 27 1023 23 10000 7.2 60 12:20 13.09.2019
1999 Clear 26 1023 26 10000 7.7 60 11:54 13.09.2019
2000 Clear 26 1023 26 10000 9.8 90 11:18 13.09.2019
2001 Clear 25 1024 39 10000 7.7 50 10:38 13.09.2019
2002 Clear 25 1024 39 10000 7.7 50 10:19 13.09.2019
2003 Clear 24 1024 41 10000 7.2 40 09:44 13.09.2019
2004 Clear 23 1024 46 10000 7.2 30 09:24 13.09.2019
2005 Clear 22 1023 46 10000 6.2 30 08:58 13.09.2019
2006 Clear 22 1023 46 10000 6.2 30 08:40 13.09.2019
2007 Clear 20 1023 60 10000 4.6 20 08:20 13.09.2019
2008 Clear 18 1023 64 10000 5.7 20 07:45 13.09.2019
2009 Clear 18 1023 68 10000 6.2 20 07:27 13.09.2019
2010 Clear 17 1022 68 10000 5.1 20 06:45 13.09.2019
2011 Clear 19 1022 68 10000 5.7 20 05:47 13.09.2019
2012 Clear 19 1021 68 10000 6.7 30 04:51 13.09.2019
2013 Clear 18 1021 56 10000 6.7 30 03:38 13.09.2019
2014 Clear 18 1021 49 10000 6.2 10 02:20 13.09.2019
2015 Clear 18 1021 49 10000 6.7 10 01:42 13.09.2019
2016 Clear 18 1021 52 10000 6.7 10 01:21 13.09.2019
2017 Clear 19 1022 52 10000 5.7 20 00:37 13.09.2019
2018 Clear 19 1022 56 10000 5.1 20 23:57 12.09.2019
2019 Clear 19 1022 56 10000 6.7 20 23:35 12.09.2019
2020 Clear 19 1022 56 10000 5.7 20 22:59 12.09.2019
2021 Clear 20 1022 49 10000 5.1 20 22:40 12.09.2019
2022 Clear 20 1022 49 10000 5.1 20 22:40 12.09.2019
2023 Clear 20 1022 49 10000 5.1 20 22:22 12.09.2019
2024 Clear 20 1022 49 10000 3.1 30 21:56 12.09.2019
2025 Clear 20 1022 49 10000 3.1 30 21:56 12.09.2019
2026 Clear 21 1023 46 10000 1 0 21:37 12.09.2019
2027 Clear 20 1023 46 10000 1 0 21:19 12.09.2019
2028 Clear 21 1023 46 10000 0.5 0 20:44 12.09.2019
2029 Clear 21 1023 46 10000 0.5 0 20:44 12.09.2019
2030 Clear 21 1023 46 10000 2.6 30 20:23 12.09.2019
2031 Clear 22 1022 43 10000 2.1 50 19:58 12.09.2019
2032 Clear 23 1022 43 10000 2.1 50 19:40 12.09.2019
2033 Clear 22 1022 40 10000 3.1 40 19:20 12.09.2019
2034 Clear 23 1022 33 10000 6.2 30 18:57 12.09.2019
2035 Clear 25 1022 29 10000 5.7 50 18:36 12.09.2019
2036 Clear 24 1022 29 10000 5.7 50 18:18 12.09.2019
2037 Clear 25 1021 31 10000 6.7 60 17:41 12.09.2019
2038 Clear 25 1021 31 10000 6.7 60 17:20 12.09.2019
2039 Clear 25 1021 34 10000 6.2 70 16:56 12.09.2019
2040 Clouds 25 1021 39 10000 6.7 60 16:38 12.09.2019
2041 Clouds 26 1021 39 10000 6.7 60 16:19 12.09.2019
2042 Clouds 26 1021 39 10000 6.7 60 15:41 12.09.2019
2043 Clouds 27 1021 39 10000 6.7 60 15:23 12.09.2019
2044 Clouds 27 1021 50 10000 5.1 120 14:46 12.09.2019
2045 Clouds 27 1021 44 10000 6.2 110 14:22 12.09.2019
2046 Clouds 26 1021 51 10000 5.1 130 13:58 12.09.2019
2047 Clouds 26 1022 54 10000 3.6 110 13:37 12.09.2019
2048 Clouds 26 1022 54 10000 3.6 110 13:19 12.09.2019
2049 Clouds 26 1022 50 10000 4.6 30 12:45 12.09.2019
2050 Clouds 26 1022 50 10000 6.2 40 12:19 12.09.2019
2051 Clouds 26 1022 47 10000 5.1 40 11:56 12.09.2019
2052 Clouds 26 1022 50 10000 5.1 30 11:38 12.09.2019
2053 Clouds 26 1022 50 10000 5.1 30 11:19 12.09.2019
2054 Clouds 25 1022 54 10000 5.1 20 10:44 12.09.2019
2055 Clouds 25 1022 57 10000 5.7 20 10:26 12.09.2019
2056 Clouds 24 1022 64 10000 5.7 40 09:45 12.09.2019
2057 Clouds 23 1022 64 10000 5.7 40 09:25 12.09.2019
2058 Clear 22 1021 68 10000 5.1 20 08:59 12.09.2019
2059 Clear 21 1021 68 10000 5.1 20 08:40 12.09.2019
2060 Clear 21 1021 73 10000 5.7 20 08:21 12.09.2019
2061 Clear 21 1021 73 10000 5.7 20 08:21 12.09.2019
2062 Clouds 18 1021 77 10000 5.1 20 07:39 12.09.2019
2063 Clouds 18 1021 82 10000 1 0 07:19 12.09.2019
2064 Clouds 17 1021 82 10000 3.1 350 06:50 12.09.2019
2065 Clouds 16 1021 82 10000 3.1 330 06:19 12.09.2019
2066 Clear 15 1021 87 10000 1 0 05:49 12.09.2019
2067 Clear 16 1021 82 10000 3.6 20 05:30 12.09.2019
2068 Clear 16 1021 82 10000 3.1 340 04:35 12.09.2019
2069 Clear 16 1020 82 10000 2.6 280 02:24 12.09.2019
2070 Clear 17 1021 77 10000 3.1 280 01:30 12.09.2019
2071 Clear 17 1021 77 10000 1 0 00:59 12.09.2019
2072 Clear 17 1021 77 10000 1 0 00:41 12.09.2019
2073 Clear 18 1021 72 10000 2.1 200 00:23 12.09.2019
2074 Clear 17 1021 77 10000 1 0 23:41 11.09.2019
2075 Clear 17 1021 77 10000 1 0 23:41 11.09.2019
2076 Clear 18 1021 77 10000 3.1 330 23:21 11.09.2019
2077 Clear 18 1021 72 10000 3.6 10 22:56 11.09.2019
2078 Clear 19 1021 72 10000 3.1 10 22:37 11.09.2019
2079 Clear 18 1021 72 10000 3.1 10 22:18 11.09.2019
2080 Clear 19 1021 68 10000 2.1 10 21:42 11.09.2019
2081 Clear 19 1021 68 10000 2.1 10 21:42 11.09.2019
2082 Clear 19 1021 64 10000 2.6 20 21:24 11.09.2019
2083 Clear 19 1021 64 10000 2.1 20 20:57 11.09.2019
2084 Clear 19 1021 64 10000 2.1 20 20:57 11.09.2019
2085 Clear 20 1021 56 10000 2.1 40 20:39 11.09.2019
2086 Clear 20 1021 56 10000 2.1 40 20:19 11.09.2019
2087 Clear 20 1021 52 10000 2.6 40 19:58 11.09.2019
2088 Clear 22 1020 49 10000 3.1 40 19:39 11.09.2019
2089 Clear 22 1020 49 10000 3.1 40 19:39 11.09.2019
2090 Clear 21 1020 49 10000 3.1 40 19:19 11.09.2019
2091 Clear 23 1020 46 10000 4.1 50 18:56 11.09.2019
2092 Clear 25 1020 38 10000 6.2 60 18:37 11.09.2019
2093 Clear 23 1020 38 10000 6.2 60 18:19 11.09.2019
2094 Clear 24 1020 36 10000 7.2 60 17:42 11.09.2019
2095 Clear 25 1020 36 10000 7.2 60 17:22 11.09.2019
2096 Clear 25 1020 39 10000 7.2 90 16:59 11.09.2019
2097 Clear 26 1020 39 10000 7.2 90 16:40 11.09.2019
2098 Clear 26 1020 47 10000 7.7 110 16:21 11.09.2019
2099 Clear 26 1020 44 10000 6.7 110 15:47 11.09.2019
2100 Clouds 26 1020 42 10000 7.2 110 15:24 11.09.2019
2101 Clouds 27 1020 42 10000 6.7 90 14:59 11.09.2019
2102 Clouds 27 1020 37 10000 6.7 90 14:40 11.09.2019
2103 Clouds 27 1020 37 10000 6.7 90 14:20 11.09.2019
2104 Clouds 27 1020 42 10000 6.7 80 13:59 11.09.2019
2105 Clouds 27 1020 44 10000 6.7 90 13:37 11.09.2019
2106 Clouds 27 1020 44 10000 6.7 90 13:18 11.09.2019
2107 Clouds 26 1020 44 10000 7.2 90 12:42 11.09.2019
2108 Clouds 26 1020 39 10000 8.2 90 12:22 11.09.2019
2109 Clouds 26 1020 42 10000 7.2 80 11:58 11.09.2019
2110 Clouds 26 1020 50 10000 7.7 90 11:38 11.09.2019
2111 Clouds 25 1020 50 10000 7.7 90 11:19 11.09.2019
2112 Clouds 25 1020 53 10000 7.7 100 10:41 11.09.2019
2113 Clouds 24 1020 60 10000 4.6 130 10:22 11.09.2019
2114 Clouds 24 1020 73 10000 3.6 50 09:57 11.09.2019
2115 Clouds 23 1020 77 10000 1.5 10 09:37 11.09.2019
2116 Clouds 23 1020 77 10000 1.5 10 09:18 11.09.2019
2117 Clouds 21 1020 77 10000 0.5 0 08:41 11.09.2019
2118 Clouds 20 1019 72 10000 2.1 350 08:21 11.09.2019
2119 Clouds 19 1019 77 10000 1 0 07:53 11.09.2019
2120 Clouds 18 1019 77 10000 2.1 220 07:24 11.09.2019
2121 Clear 18 1018 77 10000 4.6 10 06:59 11.09.2019
2122 Clear 17 1018 82 10000 4.6 10 06:36 11.09.2019
2123 Clouds 16 1018 82 10000 4.6 10 05:53 11.09.2019
2124 Clear 16 1018 82 10000 4.6 10 05:33 11.09.2019
2125 Clear 16 1018 77 10000 4.1 20 04:52 11.09.2019
2126 Clouds 17 1018 72 10000 4.1 20 03:40 11.09.2019
2127 Clouds 17 1018 72 10000 4.1 20 03:20 11.09.2019
2128 Clear 17 1018 72 10000 2.1 350 02:28 11.09.2019
2129 Clear 17 1018 68 10000 1.5 0 01:21 11.09.2019
2130 Clear 17 1018 72 10000 3.6 10 00:31 11.09.2019
2131 Clear 17 1018 72 10000 3.1 20 23:58 10.09.2019
2132 Clear 17 1018 77 10000 4.6 30 23:39 10.09.2019
2133 Clear 17 1018 77 10000 4.6 30 23:20 10.09.2019
2134 Clear 19 1018 72 10000 4.6 30 22:41 10.09.2019
2135 Clear 19 1018 72 10000 4.1 40 22:20 10.09.2019
2136 Clear 18 1018 72 10000 3.6 50 21:57 10.09.2019
2137 Clear 18 1018 68 10000 3.1 60 21:38 10.09.2019
2138 Clear 19 1018 68 10000 3.1 60 21:20 10.09.2019
2139 Clear 20 1018 68 10000 3.1 60 20:58 10.09.2019
2140 Clear 19 1018 68 10000 3.1 60 20:40 10.09.2019
2141 Clear 20 1018 64 10000 3.6 50 20:22 10.09.2019
2142 Clear 22 1017 60 10000 4.1 70 19:57 10.09.2019
2143 Clear 23 1017 53 10000 5.7 80 19:38 10.09.2019
2144 Clear 23 1017 53 10000 5.7 80 19:19 10.09.2019
2145 Clear 23 1017 53 10000 6.2 80 18:56 10.09.2019
2146 Clear 24 1017 50 10000 5.7 80 18:37 10.09.2019
2147 Clear 23 1017 50 10000 5.7 80 18:19 10.09.2019
2148 Clear 24 1017 57 10000 6.2 100 17:44 10.09.2019
2149 Clear 24 1016 57 10000 8.2 90 17:23 10.09.2019
2150 Clear 25 1016 57 10000 7.7 90 16:59 10.09.2019
2151 Clear 25 1016 57 10000 7.7 90 16:59 10.09.2019
2152 Clear 25 1016 57 10000 7.7 90 16:40 10.09.2019
2153 Clouds 26 1016 57 10000 8.2 100 16:21 10.09.2019
2154 Clouds 26 1016 57 10000 8.2 100 16:21 10.09.2019
2155 Clear 26 1016 54 10000 8.2 90 15:59 10.09.2019
2156 Clear 26 1016 54 10000 8.2 90 15:40 10.09.2019
2157 Clear 26 1016 47 10000 7.7 90 15:20 10.09.2019
2158 Clouds 26 1016 45 10000 7.2 90 14:42 10.09.2019
2159 Clouds 26 1016 45 10000 7.7 100 14:24 10.09.2019
2160 Clouds 26 1016 42 10000 5.7 60 13:56 10.09.2019
2161 Clouds 26 1016 42 10000 6.2 120 13:37 10.09.2019
2162 Clouds 26 1016 42 10000 6.2 120 13:19 10.09.2019
2163 Clouds 27 1016 39 10000 6.7 100 12:43 10.09.2019
2164 Clouds 26 1016 42 10000 5.7 80 12:24 10.09.2019
2165 Clouds 26 1016 39 10000 4.6 30 11:57 10.09.2019
2166 Clouds 26 1016 39 10000 4.6 30 11:57 10.09.2019
2167 Clouds 26 1016 42 10000 5.1 70 11:39 10.09.2019
2168 Clouds 26 1016 42 10000 5.1 70 11:20 10.09.2019
2169 Clouds 25 1017 50 10000 4.1 60 10:42 10.09.2019
2170 Clouds 25 1017 50 10000 4.1 60 10:19 10.09.2019
2171 Clouds 24 1017 53 10000 4.1 80 09:56 10.09.2019
2172 Clear 24 1017 57 10000 4.6 30 09:37 10.09.2019
2173 Clear 24 1017 57 10000 4.6 30 09:18 10.09.2019
2174 Clear 22 1016 60 10000 6.2 30 08:44 10.09.2019
2175 Clear 21 1016 60 10000 4.6 30 08:26 10.09.2019
2176 Clear 19 1016 68 10000 1 0 07:45 10.09.2019
2177 Clear 19 1016 72 10000 0.5 0 07:26 10.09.2019
2178 Clear 16 1016 77 10000 1 0 06:53 10.09.2019
2179 Clear 15 1016 77 10000 0.5 0 06:35 10.09.2019
2180 Clear 14 1015 77 10000 2.6 100 05:24 10.09.2019
2181 Clear 15 1015 72 10000 3.1 90 03:50 10.09.2019
2182 Clear 16 1015 64 10000 3.6 80 02:23 10.09.2019
2183 Clear 16 1015 64 10000 3.6 80 02:23 10.09.2019
2184 Clear 16 1015 64 10000 3.6 80 02:23 10.09.2019
2185 Clear 15 1015 68 10000 2.6 100 01:57 10.09.2019
2186 Clear 15 1015 68 10000 2.6 100 01:57 10.09.2019
2187 Clear 16 1015 63 10000 2.1 110 01:39 10.09.2019
2188 Clear 16 1015 64 10000 1 0 00:46 10.09.2019
2189 Clear 18 1016 64 10000 3.1 50 00:25 10.09.2019
2190 Clear 18 1016 68 10000 4.1 50 23:47 09.09.2019
2191 Clear 18 1016 68 10000 4.1 50 23:20 09.09.2019
2192 Clear 18 1016 68 10000 3.6 40 22:56 09.09.2019
2193 Clear 18 1016 68 10000 4.1 40 22:38 09.09.2019
2194 Clear 18 1016 68 10000 4.1 40 22:20 09.09.2019
2195 Clouds 18 1016 68 10000 3.6 40 21:57 09.09.2019
2196 Clouds 19 1016 68 10000 3.1 40 21:38 09.09.2019
2197 Clouds 18 1016 68 10000 3.1 40 21:20 09.09.2019
2198 Clear 19 1016 64 10000 3.1 70 20:56 09.09.2019
2199 Clouds 20 1016 64 10000 2.1 20 20:37 09.09.2019
2200 Clouds 19 1016 64 10000 2.1 20 20:19 09.09.2019
2201 Clear 19 1016 68 10000 3.1 90 19:58 09.09.2019
2202 Clear 22 1015 56 10000 5.1 100 19:39 09.09.2019
2203 Clear 21 1015 56 10000 5.1 100 19:19 09.09.2019
2204 Clear 22 1015 60 10000 5.7 100 18:57 09.09.2019
2205 Clear 23 1015 56 10000 5.7 100 18:39 09.09.2019
2206 Clear 22 1015 56 10000 5.7 100 18:20 09.09.2019
2207 Clear 23 1015 57 10000 6.2 100 17:57 09.09.2019
2208 Clear 24 1015 53 10000 7.2 110 17:39 09.09.2019
2209 Clear 24 1015 53 10000 7.2 110 17:20 09.09.2019
2210 Clear 25 1015 53 10000 7.2 120 16:55 09.09.2019
2211 Clear 25 1015 50 10000 7.7 120 16:37 09.09.2019
2212 Clear 25 1015 50 10000 7.7 120 16:18 09.09.2019
2213 Clouds 26 1015 54 10000 7.7 130 15:44 09.09.2019
2214 Clouds 26 1015 54 10000 7.7 130 15:24 09.09.2019
2215 Clouds 26 1015 50 10000 7.2 120 14:59 09.09.2019
2216 Clear 26 1016 50 10000 7.2 120 14:40 09.09.2019
2217 Clear 26 1016 50 10000 7.2 120 14:40 09.09.2019
2218 Clear 26 1016 50 10000 7.2 120 14:22 09.09.2019
2219 Clear 26 1016 47 10000 7.7 120 13:58 09.09.2019
2220 Clouds 26 1016 47 10000 7.7 120 13:40 09.09.2019
2221 Clouds 26 1016 47 10000 7.7 120 13:19 09.09.2019
2222 Clouds 27 1016 44 10000 7.2 120 12:55 09.09.2019
2223 Clouds 26 1016 47 10000 7.2 120 12:36 09.09.2019
2224 Clouds 27 1016 47 10000 7.2 120 12:18 09.09.2019
2225 Clouds 26 1017 44 10000 5.7 130 11:43 09.09.2019
2226 Clouds 26 1017 44 10000 5.7 130 11:20 09.09.2019
2227 Clouds 25 1017 36 10000 4.6 80 10:54 09.09.2019
2228 Clouds 25 1017 44 10000 4.6 80 10:36 09.09.2019
2229 Clouds 25 1017 44 10000 4.6 80 10:18 09.09.2019
2230 Clouds 25 1017 44 10000 4.1 70 09:46 09.09.2019
2231 Clear 24 1017 57 10000 5.1 60 09:27 09.09.2019
2232 Clear 22 1017 60 10000 3.6 90 08:56 09.09.2019
2233 Clear 21 1017 64 10000 3.6 100 08:37 09.09.2019
2234 Clear 21 1017 64 10000 3.6 100 08:18 09.09.2019
2235 Clear 20 1017 77 10000 4.1 70 07:41 09.09.2019
2236 Clear 19 1017 77 10000 4.1 70 07:20 09.09.2019
2237 Clear 18 1017 77 10000 1.5 110 06:53 09.09.2019
2238 Clear 18 1017 77 10000 1.5 110 06:53 09.09.2019
2239 Clear 17 1017 82 10000 1 0 06:27 09.09.2019
2240 Clear 15 1018 77 10000 3.6 330 03:21 09.09.2019
2241 Clear 14 1018 77 10000 0.5 0 02:41 09.09.2019
2242 Clear 15 1019 72 10000 3.1 50 01:24 09.09.2019
2243 Clear 15 1019 72 10000 3.1 50 01:24 09.09.2019
2244 Clear 15 1019 72 10000 4.1 60 00:24 09.09.2019
2245 Clear 16 1019 68 10000 3.6 60 23:55 08.09.2019
2246 Clear 16 1019 72 10000 4.1 50 23:37 08.09.2019
2247 Clear 16 1019 72 10000 4.1 50 23:19 08.09.2019
2248 Clear 18 1019 68 10000 4.1 40 22:40 08.09.2019
2249 Clear 18 1019 68 10000 4.1 40 22:22 08.09.2019
2250 Clear 18 1019 72 10000 4.1 50 21:58 08.09.2019
2251 Clear 18 1019 72 10000 4.1 50 21:39 08.09.2019
2252 Clear 18 1019 72 10000 4.1 50 21:39 08.09.2019
2253 Clear 19 1019 72 10000 4.1 50 21:21 08.09.2019
2254 Clear 20 1019 68 10000 3.1 50 20:41 08.09.2019
2255 Clear 20 1019 68 10000 3.1 50 20:22 08.09.2019
2256 Clear 21 1019 64 10000 3.6 70 19:59 08.09.2019
2257 Clouds 22 1019 64 10000 4.6 90 19:39 08.09.2019
2258 Clouds 21 1019 64 10000 4.6 90 19:21 08.09.2019
2259 Clouds 23 1019 60 10000 4.6 100 18:58 08.09.2019
2260 Clear 24 1019 50 10000 6.2 100 18:39 08.09.2019
2261 Clear 23 1019 50 10000 6.2 100 18:19 08.09.2019
2262 Clear 23 1019 53 10000 6.7 100 17:58 08.09.2019
2263 Clouds 24 1019 47 10000 6.7 110 17:37 08.09.2019
2264 Clouds 24 1019 47 10000 6.7 110 17:18 08.09.2019
2265 Clouds 25 1018 50 10000 7.7 120 16:54 08.09.2019
2266 Clouds 25 1018 47 10000 8.2 110 16:36 08.09.2019
2267 Clouds 25 1018 47 10000 8.2 120 16:18 08.09.2019
2268 Clouds 26 1018 50 10000 8.2 120 15:41 08.09.2019
2269 Clouds 26 1018 50 10000 8.2 120 15:41 08.09.2019
2270 Clouds 25 1018 50 10000 8.2 120 15:22 08.09.2019
2271 Clouds 25 1018 50 10000 8.2 120 15:22 08.09.2019
2272 Clouds 26 1018 47 10000 8.2 110 14:58 08.09.2019
2273 Clouds 27 1018 47 10000 8.2 110 14:39 08.09.2019
2274 Clouds 26 1018 47 10000 8.2 110 14:20 08.09.2019
2275 Clouds 26 1018 44 10000 8.2 110 13:57 08.09.2019
2276 Clouds 26 1019 54 10000 7.7 110 13:38 08.09.2019
2277 Clouds 26 1019 54 10000 7.7 110 13:19 08.09.2019
2278 Clouds 25 1019 57 10000 7.2 100 12:43 08.09.2019
2279 Clouds 26 1019 57 10000 7.2 100 12:24 08.09.2019
2280 Clouds 26 1018 51 10000 7.7 100 11:59 08.09.2019
2281 Clouds 25 1018 57 10000 7.2 90 11:40 08.09.2019
2282 Clouds 25 1018 57 10000 7.2 90 11:20 08.09.2019
2283 Clouds 26 1018 54 10000 6.7 100 10:58 08.09.2019
2284 Clouds 25 1018 57 10000 6.2 90 10:40 08.09.2019
2285 Clouds 25 1018 57 10000 6.2 90 10:22 08.09.2019
2286 Clouds 24 1018 64 10000 4.1 60 09:39 08.09.2019
2287 Clouds 24 1018 64 10000 4.1 60 09:21 08.09.2019
2288 Clouds 24 1018 69 10000 2.6 0 08:57 08.09.2019
2289 Clear 23 1018 78 10000 2.1 130 08:38 08.09.2019
2290 Clear 22 1018 78 10000 2.1 130 08:18 08.09.2019
2291 Clouds 18 1018 88 10000 1 260 07:40 08.09.2019
2292 Clouds 17 1018 88 10000 1 260 07:21 08.09.2019
2293 Mist 17 1018 88 5000 2.1 110 06:53 08.09.2019
2294 Clouds 17 1018 88 10000 3.1 80 06:32 08.09.2019
2295 Clouds 17 1018 88 10000 3.1 80 06:32 08.09.2019
2296 Clouds 16 1017 93 8000 1 0 05:38 08.09.2019
2297 Clouds 16 1017 93 7000 0.5 240 04:18 08.09.2019
2298 Clouds 15 1017 100 10000 1.5 230 02:59 08.09.2019
2299 Clouds 15 1017 93 10000 0.91 46.464 02:26 08.09.2019
2300 Clouds 15 1017 88 10000 1 0 01:49 08.09.2019
2301 Clear 16 1017 88 10000 2.1 100 01:22 08.09.2019
2302 Clear 16 1017 88 10000 0.5 0 00:45 08.09.2019
2303 Clear 16 1017 88 10000 0.5 0 00:26 08.09.2019
2304 Clear 16 1017 88 10000 2.6 40 23:38 07.09.2019
2305 Clear 16 1017 88 10000 2.6 40 23:20 07.09.2019
2306 Clear 16 1017 88 10000 2.6 40 23:20 07.09.2019
2307 Clear 17 1017 88 10000 2.1 50 22:57 07.09.2019
2308 Clear 17 1017 82 10000 2.1 40 22:39 07.09.2019
2309 Clear 17 1017 82 10000 2.1 40 22:20 07.09.2019
2310 Clear 18 1017 82 10000 2.1 80 21:42 07.09.2019
2311 Clear 18 1017 82 10000 2.1 80 21:23 07.09.2019
2312 Clear 19 1018 82 10000 2.1 60 20:57 07.09.2019
2313 Clear 20 1017 73 10000 4.1 80 20:37 07.09.2019
2314 Clear 21 1017 73 10000 4.1 80 20:18 07.09.2019
2315 Clear 22 1017 73 10000 3.6 90 19:54 07.09.2019
2316 Clear 22 1017 78 10000 4.1 100 19:36 07.09.2019
2317 Clear 22 1017 78 10000 4.1 100 19:18 07.09.2019
2318 Clear 23 1017 73 10000 4.6 100 18:54 07.09.2019
2319 Clear 24 1017 69 10000 4.6 120 18:36 07.09.2019
2320 Clear 24 1017 69 10000 4.6 120 18:18 07.09.2019
2321 Clear 25 1017 61 10000 6.2 110 17:41 07.09.2019
2322 Clear 25 1017 61 10000 6.2 110 17:19 07.09.2019
2323 Clear 26 1017 57 10000 6.2 120 16:59 07.09.2019
2324 Clear 26 1016 54 10000 6.2 140 16:40 07.09.2019
2325 Clear 26 1016 54 10000 6.2 140 16:20 07.09.2019
2326 Clear 26 1016 50 10000 6.2 120 15:47 07.09.2019
2327 Clear 27 1016 44 10000 6.7 140 15:26 07.09.2019
2328 Clear 28 1016 54 10000 7.2 130 14:58 07.09.2019
2329 Clear 27 1016 57 10000 7.2 130 14:37 07.09.2019
2330 Clear 27 1016 57 10000 7.2 130 14:19 07.09.2019
2331 Clear 27 1016 61 10000 7.2 140 13:57 07.09.2019
2332 Clouds 26 1017 54 10000 7.7 130 13:39 07.09.2019
2333 Clouds 26 1017 54 10000 7.7 130 13:39 07.09.2019
2334 Clouds 27 1017 54 10000 7.7 130 13:21 07.09.2019
2335 Clouds 27 1017 54 10000 7.2 140 12:44 07.09.2019
2336 Clouds 27 1017 54 10000 7.2 140 12:25 07.09.2019
2337 Clouds 27 1017 44 10000 5.7 100 11:55 07.09.2019
2338 Clouds 28 1017 45 10000 5.1 110 11:36 07.09.2019
2339 Clouds 28 1017 45 10000 5.1 110 11:18 07.09.2019
2340 Clouds 26 1017 47 10000 3.6 120 10:38 07.09.2019
2341 Clouds 26 1017 47 10000 3.6 120 10:38 07.09.2019
2342 Clouds 26 1017 47 10000 3.6 120 10:20 07.09.2019
2343 Clear 25 1017 53 10000 2.6 70 09:43 07.09.2019
2344 Clear 25 1017 53 10000 2.6 70 09:25 07.09.2019
2345 Clear 25 1017 53 10000 3.6 70 08:59 07.09.2019
2346 Clear 23 1017 60 10000 1.5 0 08:40 07.09.2019
2347 Clear 22 1017 60 10000 1.5 0 08:22 07.09.2019
2348 Clear 21 1017 56 10000 2.1 0 07:45 07.09.2019
2349 Clear 19 1017 68 10000 2.1 190 07:25 07.09.2019
2350 Clear 17 1017 67 10000 1.5 170 06:47 07.09.2019
2351 Clear 16 1017 67 10000 2.6 350 06:19 07.09.2019
2352 Clear 15 1017 67 10000 2.6 250 04:45 07.09.2019
2353 Clear 15 1017 72 10000 1 0 04:19 07.09.2019
2354 Clear 15 1017 77 10000 1.5 210 02:44 07.09.2019
2355 Clear 15 1017 77 10000 1 220 01:44 07.09.2019
2356 Clear 15 1017 77 10000 1.5 280 00:57 07.09.2019
2357 Clear 14 1017 82 10000 0.5 0 00:38 07.09.2019
2358 Clear 14 1017 82 10000 0.5 0 00:19 07.09.2019
2359 Clear 15 1017 72 10000 2.1 340 23:39 06.09.2019
2360 Clear 15 1017 72 10000 2.1 340 23:21 06.09.2019
2361 Clear 15 1017 77 10000 1.5 320 22:57 06.09.2019
2362 Clear 15 1017 82 10000 1 0 22:37 06.09.2019
2363 Clear 15 1017 82 10000 1 0 22:19 06.09.2019
2364 Clear 16 1017 72 10000 1 10 21:56 06.09.2019
2365 Clear 16 1017 72 10000 1.5 320 21:38 06.09.2019
2366 Clear 16 1017 72 10000 1.5 320 21:19 06.09.2019
2367 Clear 17 1017 68 10000 2.6 360 20:54 06.09.2019
2368 Clear 18 1017 63 10000 2.1 20 20:36 06.09.2019
2369 Clear 18 1017 63 10000 2.1 20 20:18 06.09.2019
2370 Clear 18 1017 63 10000 2.1 20 20:18 06.09.2019
2371 Clear 21 1017 56 10000 2.1 100 19:41 06.09.2019
2372 Clear 20 1017 56 10000 2.1 100 19:23 06.09.2019
2373 Clear 22 1017 53 10000 3.1 120 18:56 06.09.2019
2374 Clear 23 1017 49 10000 4.1 120 18:38 06.09.2019
2375 Clear 22 1017 49 10000 4.1 120 18:19 06.09.2019
2376 Clear 24 1017 50 10000 6.2 120 17:40 06.09.2019
2377 Clear 25 1017 50 10000 6.2 120 17:20 06.09.2019
2378 Clear 26 1016 50 10000 6.2 120 16:56 06.09.2019
2379 Clear 26 1016 50 10000 7.2 120 16:38 06.09.2019
2380 Clear 27 1016 50 10000 7.2 120 16:18 06.09.2019
2381 Clear 27 1016 53 10000 7.2 130 15:41 06.09.2019
2382 Clear 27 1016 53 10000 7.2 130 15:22 06.09.2019
2383 Clouds 27 1016 53 10000 7.7 120 14:47 06.09.2019
2384 Clouds 26 1016 44 10000 8.2 120 14:19 06.09.2019
2385 Clear 28 1016 36 10000 3.1 140 13:44 06.09.2019
2386 Clear 28 1016 30 10000 2.6 0 13:24 06.09.2019
2387 Clear 27 1016 32 10000 4.1 50 12:59 06.09.2019
2388 Clouds 28 1016 32 10000 3.1 50 12:37 06.09.2019
2389 Clouds 27 1016 32 10000 3.1 50 12:18 06.09.2019
2390 Clouds 26 1016 38 10000 1.5 30 11:41 06.09.2019
2391 Clouds 26 1016 38 10000 1.5 30 11:23 06.09.2019
2392 Clouds 27 1017 34 10000 3.6 320 10:57 06.09.2019
2393 Clouds 26 1017 41 10000 2.1 0 10:39 06.09.2019
2394 Clouds 26 1017 41 10000 2.1 0 10:19 06.09.2019
2395 Clear 25 1017 60 10000 1.5 250 09:40 06.09.2019
2396 Clear 23 1017 60 10000 1.5 250 09:20 06.09.2019
2397 Clear 21 1016 68 10000 1 0 08:56 06.09.2019
2398 Clear 22 1016 77 7000 1 0 08:38 06.09.2019
2399 Clear 19 1016 77 7000 1 0 08:20 06.09.2019
2400 Mist 21 1016 82 3100 2.06 341.328 07:45 06.09.2019
2401 Mist 19 1016 93 4900 2.06 341.328 07:26 06.09.2019
2402 Clouds 16 1016 93 8000 0.5 260 06:54 06.09.2019
2403 Clear 12 1016 93 8000 0.83 247.109 05:58 06.09.2019
2404 Clear 12 1015 93 10000 1 250 05:19 06.09.2019
2405 Clear 12 1015 93 10000 0.83 247.109 04:38 06.09.2019
2406 Clear 13 1015 87 10000 0.83 247.109 03:42 06.09.2019
2407 Clear 13 1015 87 10000 1.19 207.146 01:51 06.09.2019
2408 Clear 14 1015 87 10000 1.33 203.893 00:32 06.09.2019
2409 Clouds 15 1015 87 10000 1 30 23:44 05.09.2019
2410 Clouds 15 1015 87 10000 1 30 23:24 05.09.2019
2411 Clear 16 1015 77 10000 0.5 60 22:54 05.09.2019
2412 Clear 16 1015 77 10000 0.5 60 22:54 05.09.2019
2413 Clouds 17 1015 77 10000 0.5 70 22:36 05.09.2019
2414 Clouds 17 1015 77 10000 0.5 70 22:18 05.09.2019
2415 Clouds 17 1015 77 10000 2.29 190.359 21:55 05.09.2019
2416 Clouds 17 1015 77 10000 2.29 190.359 21:37 05.09.2019
2417 Clouds 18 1015 77 10000 2.87 140.335 21:19 05.09.2019
2418 Clear 18 1015 77 10000 2.1 80 20:54 05.09.2019
2419 Clear 18 1015 77 10000 2.1 80 20:36 05.09.2019
2420 Clear 18 1015 77 10000 2.1 80 20:36 05.09.2019
2421 Clear 18 1015 77 10000 2.1 80 20:18 05.09.2019
2422 Clear 19 1014 72 10000 4.1 100 19:41 05.09.2019
2423 Clear 19 1014 72 10000 4.1 100 19:22 05.09.2019
2424 Clear 21 1014 68 10000 4.1 120 18:57 05.09.2019
2425 Clear 21 1014 68 10000 4.1 120 18:57 05.09.2019
2426 Clear 22 1014 64 10000 4.6 130 18:38 05.09.2019
2427 Clear 22 1014 60 10000 5.1 130 18:19 05.09.2019
2428 Clouds 23 1014 60 10000 5.7 130 17:41 05.09.2019
2429 Clouds 24 1014 60 10000 5.7 130 17:22 05.09.2019
2430 Clouds 24 1014 60 10000 6.2 130 16:58 05.09.2019
2431 Clouds 24 1014 60 10000 6.2 130 16:58 05.09.2019
2432 Clouds 24 1014 53 10000 4.1 100 16:40 05.09.2019
2433 Clouds 24 1014 53 10000 4.1 100 16:20 05.09.2019
2434 Clouds 24 1014 53 10000 2.6 90 15:55 05.09.2019
2435 Clouds 23 1014 53 10000 4.6 30 15:37 05.09.2019
2436 Clouds 23 1014 53 10000 4.6 30 15:37 05.09.2019
2437 Clouds 23 1014 53 10000 4.6 30 15:18 05.09.2019
2438 Clouds 23 1015 53 10000 3.1 50 14:42 05.09.2019
2439 Clouds 22 1015 53 10000 3.1 50 14:20 05.09.2019
2440 Clouds 22 1015 50 10000 3.6 40 13:44 05.09.2019
2441 Clouds 22 1015 50 10000 3.6 40 13:23 05.09.2019
2442 Clouds 22 1015 53 10000 4.1 20 12:58 05.09.2019
2443 Clouds 22 1015 49 10000 3.6 20 12:38 05.09.2019
2444 Clouds 20 1015 49 10000 3.6 20 12:20 05.09.2019
2445 Clouds 20 1015 53 10000 4.1 30 11:43 05.09.2019
2446 Clouds 20 1015 53 10000 4.1 30 11:20 05.09.2019
2447 Clouds 21 1015 56 10000 4.6 30 10:43 05.09.2019
2448 Clouds 21 1015 56 10000 4.6 30 10:23 05.09.2019
2449 Clouds 21 1015 56 10000 4.6 30 10:23 05.09.2019
2450 Clouds 21 1015 60 10000 4.6 30 09:59 05.09.2019
2451 Clouds 21 1015 60 10000 5.7 30 09:40 05.09.2019
2452 Clouds 21 1015 60 10000 5.7 30 09:40 05.09.2019
2453 Clouds 21 1015 60 10000 5.7 30 09:19 05.09.2019
2454 Clouds 21 1015 60 10000 5.7 30 09:19 05.09.2019
2455 Clouds 20 1015 56 10000 6.2 20 08:46 05.09.2019
2456 Clouds 19 1015 64 10000 6.2 10 08:27 05.09.2019
2457 Clouds 19 1015 68 10000 6.7 10 07:48 05.09.2019
2458 Clear 19 1015 68 10000 2.1 10 07:29 05.09.2019
2459 Clear 16 1015 72 10000 2.1 0 06:58 05.09.2019
2460 Clear 16 1015 68 10000 3.6 20 06:32 05.09.2019
2461 Clear 16 1015 68 10000 3.6 50 05:51 05.09.2019
2462 Clear 16 1015 72 10000 1.5 0 05:32 05.09.2019
2463 Clear 17 1015 68 10000 1 0 04:55 05.09.2019
2464 Clear 17 1015 68 10000 1.5 50 04:29 05.09.2019
2465 Clear 17 1015 72 10000 2.1 0 03:40 05.09.2019
2466 Clear 17 1015 72 10000 2.1 0 02:53 05.09.2019
2467 Clear 17 1015 72 10000 2.1 0 02:27 05.09.2019
2468 Clear 17 1015 72 10000 3.1 0 01:37 05.09.2019
2469 Clear 17 1016 77 10000 1.5 0 00:46 05.09.2019
2470 Clear 18 1016 77 10000 2.1 20 00:21 05.09.2019
2471 Clear 18 1016 72 10000 4.1 20 23:56 04.09.2019
2472 Clear 18 1016 72 10000 1 0 23:37 04.09.2019
2473 Clear 19 1016 72 10000 1 0 23:18 04.09.2019
2474 Clear 19 1015 77 10000 2.6 100 22:42 04.09.2019
2475 Clear 19 1015 77 10000 2.6 100 22:19 04.09.2019
2476 Clear 19 1016 77 10000 2.6 70 21:40 04.09.2019
2477 Clear 20 1016 77 10000 2.6 70 21:20 04.09.2019
2478 Clear 20 1016 77 10000 2.6 70 21:20 04.09.2019
2479 Clear 20 1016 72 10000 2.6 70 20:57 04.09.2019
2480 Clear 20 1016 72 10000 2.6 70 20:57 04.09.2019
2481 Clear 20 1015 68 10000 3.1 40 20:39 04.09.2019
2482 Clear 20 1015 68 10000 3.1 40 20:19 04.09.2019
2483 Clear 21 1015 68 10000 4.1 70 19:56 04.09.2019
2484 Clear 23 1015 64 10000 5.7 80 19:38 04.09.2019
2485 Clear 22 1015 64 10000 5.7 80 19:19 04.09.2019
2486 Clear 23 1014 53 10000 7.2 80 18:38 04.09.2019
2487 Clear 24 1014 53 10000 7.2 80 18:19 04.09.2019
2488 Clear 25 1014 54 10000 6.7 80 17:42 04.09.2019
2489 Clear 25 1014 54 10000 6.7 80 17:42 04.09.2019
2490 Clear 25 1014 54 10000 6.7 80 17:23 04.09.2019
2491 Clear 26 1014 54 10000 7.2 80 16:58 04.09.2019
2492 Clear 26 1014 54 10000 6.7 90 16:40 04.09.2019
2493 Clear 26 1014 54 10000 6.7 90 16:22 04.09.2019
2494 Clear 26 1014 51 10000 6.7 70 15:56 04.09.2019
2495 Clear 26 1014 51 10000 6.7 70 15:55 04.09.2019
2496 Clear 26 1014 65 10000 5.1 140 15:37 04.09.2019
2497 Clear 26 1014 65 10000 5.1 140 15:19 04.09.2019
2498 Clear 26 1014 61 10000 6.7 130 14:54 04.09.2019
2499 Clear 26 1014 61 10000 5.7 130 14:36 04.09.2019
2500 Clear 27 1015 45 10000 5.1 90 14:18 04.09.2019
2501 Clear 27 1015 45 10000 3.6 70 13:40 04.09.2019
2502 Clear 27 1015 45 10000 3.6 70 13:21 04.09.2019
2503 Clear 27 1015 45 10000 3.6 70 13:21 04.09.2019
2504 Clear 26 1015 47 10000 5.1 20 12:46 04.09.2019
2505 Clear 26 1015 50 10000 4.6 40 12:27 04.09.2019
2506 Clear 26 1015 47 10000 4.6 50 11:59 04.09.2019
2507 Clear 25 1015 50 10000 4.6 360 11:41 04.09.2019
2508 Clear 26 1015 50 10000 4.6 360 11:21 04.09.2019
2509 Clear 25 1015 50 10000 4.6 20 10:58 04.09.2019
2510 Clear 25 1015 50 10000 3.6 10 10:39 04.09.2019
2511 Clear 25 1015 50 10000 3.6 10 10:21 04.09.2019
2512 Clear 23 1016 50 10000 3.6 330 09:46 04.09.2019
2513 Clear 23 1015 57 10000 3.1 10 09:22 04.09.2019
2514 Clear 21 1016 60 10000 2.6 270 08:57 04.09.2019
2515 Clear 21 1015 60 10000 3.1 270 08:38 04.09.2019
2516 Clear 22 1015 60 10000 3.1 270 08:19 04.09.2019
2517 Clear 19 1015 56 10000 2.6 280 07:40 04.09.2019
2518 Clear 19 1015 56 10000 2.6 280 07:22 04.09.2019
2519 Clouds 18 1014 55 10000 2.1 270 06:39 04.09.2019
2520 Clouds 17 1014 72 7000 2.6 290 04:56 04.09.2019
2521 Mist 17 1014 72 5000 2.1 300 04:24 04.09.2019
2522 Clear 18 1014 72 10000 2.6 290 03:21 04.09.2019
2523 Clear 18 1014 72 10000 1.71 231.45 01:21 04.09.2019
2524 Clear 17 1014 72 10000 1.71 231.45 00:45 04.09.2019
2525 Clear 17 1014 72 10000 1.71 231.45 00:27 04.09.2019
2526 Clear 17 1014 77 10000 0.5 310 23:52 03.09.2019
2527 Clear 18 1014 59 10000 0.5 330 23:27 03.09.2019
2528 Clear 18 1014 55 10000 2.1 350 22:43 03.09.2019
2529 Clear 19 1014 55 10000 2.1 350 22:25 03.09.2019
2530 Clear 19 1015 59 10000 0.5 350 21:59 03.09.2019
2531 Clear 19 1015 59 10000 0.5 350 21:59 03.09.2019
2532 Clear 19 1015 63 10000 1.5 10 21:39 03.09.2019
2533 Clear 19 1015 63 10000 1.5 10 21:20 03.09.2019
2534 Clear 20 1015 56 10000 1.5 10 20:59 03.09.2019
2535 Clear 20 1014 60 10000 2.1 360 20:40 03.09.2019
2536 Clear 21 1014 60 10000 2.1 360 20:21 03.09.2019
2537 Clear 21 1014 68 10000 0.5 0 19:55 03.09.2019
2538 Clear 22 1014 69 10000 1.5 130 19:36 03.09.2019
2539 Clear 23 1014 69 10000 1.5 130 19:18 03.09.2019
2540 Clear 23 1014 69 10000 1.5 130 19:18 03.09.2019
2541 Clear 25 1014 61 10000 4.1 120 18:41 03.09.2019
2542 Clear 25 1014 61 10000 4.1 120 18:23 03.09.2019
2543 Clear 26 1014 57 10000 5.1 130 17:56 03.09.2019
2544 Clear 28 1014 51 10000 5.7 130 17:38 03.09.2019
2545 Clear 28 1014 51 10000 5.7 130 17:19 03.09.2019
2546 Clear 29 1014 39 10000 6.2 130 16:43 03.09.2019
2547 Clear 29 1014 39 10000 6.2 130 16:23 03.09.2019
2548 Clear 29 1014 45 10000 6.2 140 15:57 03.09.2019
2549 Clear 30 1014 39 10000 6.7 120 15:37 03.09.2019
2550 Clear 30 1014 39 10000 6.7 120 15:19 03.09.2019
2551 Clear 29 1015 39 10000 6.7 120 14:56 03.09.2019
2552 Clear 29 1015 42 10000 7.2 130 14:37 03.09.2019
2553 Clear 30 1015 42 10000 7.2 130 14:18 03.09.2019
2554 Clear 30 1015 42 10000 7.2 130 13:55 03.09.2019
2555 Clear 30 1015 42 10000 7.2 130 13:55 03.09.2019
2556 Clear 30 1015 42 10000 7.2 130 13:55 03.09.2019
2557 Clear 30 1015 42 10000 6.2 140 13:36 03.09.2019
2558 Clear 29 1015 30 10000 5.7 130 13:18 03.09.2019
2559 Clear 29 1015 32 10000 5.7 130 12:45 03.09.2019
2560 Clear 29 1015 32 10000 5.7 130 12:26 03.09.2019
2561 Clear 29 1015 35 10000 3.1 140 11:43 03.09.2019
2562 Clear 28 1015 35 10000 3.1 140 11:23 03.09.2019
2563 Clear 28 1015 37 10000 3.1 150 10:58 03.09.2019
2564 Clear 27 1015 39 10000 2.1 150 10:40 03.09.2019
2565 Clear 27 1015 39 10000 2.1 150 10:21 03.09.2019
2566 Clear 25 1015 39 10000 1 0 09:49 03.09.2019
2567 Clear 25 1015 50 10000 1.5 260 09:31 03.09.2019
2568 Clouds 22 1015 64 8000 1 0 08:57 03.09.2019
2569 Clouds 22 1015 72 6000 1.5 270 08:37 03.09.2019
2570 Clouds 21 1015 72 6000 1.5 270 08:19 03.09.2019
2571 Clear 19 1015 77 10000 1.82 33.463 07:42 03.09.2019
2572 Clear 19 1015 77 10000 1.82 33.463 07:24 03.09.2019
2573 Clouds 15 1015 87 9000 1.82 33.463 06:45 03.09.2019
2574 Clouds 15 1015 87 9000 0.71 159.33 06:27 03.09.2019
2575 Clear 14 1015 87 10000 0.71 159.33 03:44 03.09.2019
2576 Clear 14 1015 87 10000 1.21 169.865 02:47 03.09.2019
2577 Clear 14 1015 87 10000 1.5 260 02:26 03.09.2019
2578 Clear 14 1015 87 10000 0.5 0 01:52 03.09.2019
2579 Clear 14 1015 87 10000 1.07 183.007 01:33 03.09.2019
2580 Clear 15 1015 88 10000 1.07 183.007 00:56 03.09.2019
2581 Clear 16 1015 88 10000 0.5 290 00:26 03.09.2019
2582 Clear 16 1015 88 10000 0.5 0 23:40 02.09.2019
2583 Clear 16 1015 88 10000 0.5 0 23:40 02.09.2019
2584 Clear 16 1015 88 10000 0.5 0 23:40 02.09.2019
2585 Clear 16 1015 88 10000 0.5 0 23:20 02.09.2019
2586 Clear 17 1015 82 10000 2.1 20 22:56 02.09.2019
2587 Clear 17 1015 82 10000 2.1 20 22:56 02.09.2019
2588 Clear 17 1015 82 10000 2.1 20 22:56 02.09.2019
2589 Clear 17 1015 82 10000 0.5 0 22:38 02.09.2019
2590 Clear 18 1015 82 10000 0.5 0 22:20 02.09.2019
2591 Clear 19 1015 77 10000 1.64 152.11 21:57 02.09.2019
2592 Clear 19 1015 73 10000 0.5 0 21:39 02.09.2019
2593 Clear 19 1015 73 10000 0.5 0 21:20 02.09.2019
2594 Clear 20 1015 73 10000 0.5 20 20:58 02.09.2019
2595 Clear 20 1015 73 10000 2.1 30 20:39 02.09.2019
2596 Clear 20 1015 73 10000 2.1 30 20:18 02.09.2019
2597 Clear 21 1015 68 10000 2.1 60 19:56 02.09.2019
2598 Clear 22 1014 64 10000 4.6 90 19:38 02.09.2019
2599 Clear 23 1014 64 10000 4.6 90 19:19 02.09.2019
2600 Clear 25 1014 50 10000 5.7 100 18:40 02.09.2019
2601 Clear 25 1014 50 10000 5.7 100 18:21 02.09.2019
2602 Clear 26 1014 50 10000 5.7 110 17:57 02.09.2019
2603 Clear 27 1014 36 10000 6.7 120 17:39 02.09.2019
2604 Clear 27 1014 36 10000 6.7 120 17:19 02.09.2019
2605 Clear 27 1014 51 10000 7.2 110 16:42 02.09.2019
2606 Clear 27 1014 51 10000 7.2 110 16:22 02.09.2019
2607 Clear 28 1014 51 10000 7.7 120 15:57 02.09.2019
2608 Clear 28 1014 51 10000 7.2 130 15:38 02.09.2019
2609 Clear 28 1014 51 10000 7.2 130 15:19 02.09.2019
2610 Clear 29 1014 54 10000 7.7 120 14:56 02.09.2019
2611 Clear 29 1014 54 10000 7.7 120 14:37 02.09.2019
2612 Clear 29 1014 54 10000 7.7 120 14:37 02.09.2019
2613 Clear 29 1014 54 10000 7.7 120 14:18 02.09.2019
2614 Clear 29 1014 54 10000 8.2 130 13:44 02.09.2019
2615 Clear 29 1014 54 10000 8.2 130 13:25 02.09.2019
2616 Clear 29 1014 45 10000 8.2 130 12:47 02.09.2019
2617 Clear 29 1014 32 10000 6.2 130 12:27 02.09.2019
2618 Clear 29 1015 30 10000 5.1 140 12:00 02.09.2019
2619 Clear 29 1015 39 10000 3.6 150 11:41 02.09.2019
2620 Clear 29 1015 39 10000 3.6 150 11:22 02.09.2019
2621 Clear 28 1015 34 10000 3.1 170 10:59 02.09.2019
2622 Clear 28 1015 42 10000 2.1 180 10:41 02.09.2019
2623 Clear 28 1015 42 10000 2.1 180 10:22 02.09.2019
2624 Clear 26 1015 50 10000 2.1 250 09:58 02.09.2019
2625 Clear 26 1015 64 10000 2.1 240 09:38 02.09.2019
2626 Clear 26 1015 64 10000 2.1 240 09:19 02.09.2019
2627 Clear 26 1015 64 10000 2.1 240 09:19 02.09.2019
2628 Clear 22 1015 77 7000 2.6 270 08:39 02.09.2019
2629 Clear 22 1015 77 7000 2.6 270 08:21 02.09.2019
2630 Clear 19 1015 87 9000 1 0 07:42 02.09.2019
2631 Clear 18 1015 87 9000 1 0 07:22 02.09.2019
2632 Clear 15 1015 87 9000 1 0 06:58 02.09.2019
2633 Clear 14 1015 93 10000 1.5 270 06:39 02.09.2019
2634 Clear 13 1015 93 10000 0.5 0 05:50 02.09.2019
2635 Clear 13 1014 93 10000 1.14 4.622 05:20 02.09.2019
2636 Clear 14 1014 87 10000 0.5 0 04:45 02.09.2019
2637 Clear 14 1014 82 10000 0.5 0 01:50 02.09.2019
2638 Clear 15 1014 88 10000 1 240 00:55 02.09.2019
2639 Clear 16 1014 82 10000 1.5 360 00:32 02.09.2019
2640 Clear 17 1014 82 10000 0.5 0 23:48 01.09.2019
2641 Clear 17 1014 77 10000 2.1 50 23:23 01.09.2019
2642 Clear 18 1014 77 10000 2.6 70 22:59 01.09.2019
2643 Clear 18 1014 77 10000 2.6 70 22:59 01.09.2019
2644 Clear 19 1014 77 10000 2.6 70 22:40 01.09.2019
2645 Clear 19 1014 77 10000 2.6 70 22:20 01.09.2019
2646 Clear 19 1014 73 10000 3.1 90 21:59 01.09.2019
2647 Clear 20 1014 68 10000 1 0 21:40 01.09.2019
2648 Clear 20 1014 68 10000 1 0 21:22 01.09.2019
2649 Clear 21 1014 73 10000 1 0 20:57 01.09.2019
2650 Clear 21 1014 73 10000 3.22 117.377 20:38 01.09.2019
2651 Clear 21 1014 73 10000 3.22 117.377 20:19 01.09.2019
2652 Clear 22 1013 64 10000 2.6 110 19:58 01.09.2019
2653 Clear 22 1013 64 10000 2.6 110 19:58 01.09.2019
2654 Clear 23 1013 73 10000 2.6 130 19:37 01.09.2019
2655 Clear 23 1013 73 10000 2.6 130 19:19 01.09.2019
2656 Clear 26 1013 57 10000 4.1 120 18:43 01.09.2019
2657 Clear 26 1013 57 10000 4.1 120 18:25 01.09.2019
2658 Clear 27 1013 36 10000 5.7 110 17:56 01.09.2019
2659 Clear 28 1013 42 10000 6.2 110 17:38 01.09.2019
2660 Clear 28 1013 42 10000 6.2 110 17:19 01.09.2019
2661 Clear 28 1013 42 10000 6.2 110 17:19 01.09.2019
2662 Clear 28 1013 42 10000 6.7 120 16:41 01.09.2019
2663 Clear 28 1013 42 10000 6.7 120 16:19 01.09.2019
2664 Clear 28 1013 48 10000 6.7 120 15:49 01.09.2019
2665 Clear 28 1013 48 10000 8.2 110 15:31 01.09.2019
2666 Clear 28 1013 51 10000 8.2 120 14:59 01.09.2019
2667 Clear 28 1013 54 10000 8.2 130 14:40 01.09.2019
2668 Clear 28 1013 54 10000 8.2 130 14:20 01.09.2019
2669 Clear 28 1013 51 10000 8.2 130 13:54 01.09.2019
2670 Clear 28 1013 51 10000 8.2 120 13:36 01.09.2019
2671 Clear 29 1013 51 10000 8.2 120 13:18 01.09.2019
2672 Clear 29 1013 51 10000 5.7 110 12:41 01.09.2019
2673 Clear 28 1013 51 10000 5.7 110 12:22 01.09.2019
2674 Clear 29 1014 35 10000 5.1 80 11:41 01.09.2019
2675 Clear 28 1014 35 10000 5.1 80 11:20 01.09.2019
2676 Clear 28 1014 34 10000 5.1 50 10:58 01.09.2019
2677 Clear 28 1014 32 10000 5.7 70 10:40 01.09.2019
2678 Clear 27 1014 32 10000 5.7 70 10:21 01.09.2019
2679 Clear 25 1014 57 10000 7.2 30 09:43 01.09.2019
2680 Clear 25 1014 57 10000 7.2 30 09:25 01.09.2019
2681 Clear 24 1014 53 10000 2.1 0 08:44 01.09.2019
2682 Clear 23 1014 53 10000 2.1 0 08:24 01.09.2019
2683 Clear 22 1014 56 10000 2.6 30 07:51 01.09.2019
2684 Clear 22 1014 56 10000 2.6 30 07:51 01.09.2019
2685 Clear 20 1014 56 10000 3.1 320 07:33 01.09.2019
2686 Clear 18 1014 59 10000 2.1 0 06:42 01.09.2019
2687 Clear 18 1014 59 10000 2.1 0 06:23 01.09.2019
2688 Clear 16 1014 68 10000 0.5 0 05:39 01.09.2019
2689 Clear 17 1014 72 10000 2.6 270 04:29 01.09.2019
2690 Clear 18 1014 68 10000 1.5 240 03:41 01.09.2019
2691 Clear 17 1014 72 10000 1.5 230 02:57 01.09.2019
2692 Clear 17 1014 72 10000 1 0 02:26 01.09.2019
2693 Clear 17 1015 72 10000 1.5 250 01:50 01.09.2019
2694 Clear 17 1015 72 10000 1.5 250 01:50 01.09.2019
2695 Clear 18 1015 72 10000 1 0 01:22 01.09.2019
2696 Clear 18 1015 68 10000 1.5 220 00:45 01.09.2019
2697 Clear 18 1015 68 10000 1.5 220 00:22 01.09.2019
2698 Clear 19 1015 68 10000 1 0 23:48 31.08.2019
2699 Clear 19 1015 68 10000 1 0 23:22 31.08.2019
2700 Clear 19 1015 68 10000 3.1 20 22:57 31.08.2019
2701 Clear 18 1016 64 10000 3.6 30 22:39 31.08.2019
2702 Clear 18 1016 64 10000 3.6 30 22:21 31.08.2019
2703 Clear 19 1016 64 10000 3.1 20 21:55 31.08.2019
2704 Clear 19 1016 64 10000 3.6 30 21:37 31.08.2019
2705 Clear 19 1016 64 10000 3.6 30 21:18 31.08.2019
2706 Clear 20 1016 52 10000 3.6 40 20:43 31.08.2019
2707 Clear 20 1016 52 10000 3.6 40 20:24 31.08.2019
2708 Clear 22 1016 49 10000 3.6 50 19:47 31.08.2019
2709 Clear 23 1016 49 10000 3.6 80 19:23 31.08.2019
2710 Clear 25 1016 44 10000 5.7 90 18:58 31.08.2019
2711 Clear 26 1016 41 10000 6.2 90 18:39 31.08.2019
2712 Clear 25 1016 41 10000 6.2 90 18:19 31.08.2019
2713 Clear 25 1016 41 10000 7.2 90 17:55 31.08.2019
2714 Clear 26 1016 36 10000 8.2 90 17:37 31.08.2019
2715 Clear 26 1016 36 10000 8.2 90 17:18 31.08.2019
2716 Clear 27 1016 32 10000 7.7 90 16:55 31.08.2019
2717 Clear 27 1016 34 10000 8.2 90 16:37 31.08.2019
2718 Clear 27 1016 34 10000 8.2 90 16:18 31.08.2019
2719 Clear 28 1016 32 10000 8.2 80 15:41 31.08.2019
2720 Clear 28 1016 32 10000 8.2 80 15:19 31.08.2019
2721 Clear 28 1016 39 10000 8.7 90 14:55 31.08.2019
2722 Clouds 28 1016 39 10000 7.7 100 14:36 31.08.2019
2723 Clouds 28 1016 39 10000 7.7 100 14:18 31.08.2019
2724 Clear 28 1017 30 10000 7.7 50 13:39 31.08.2019
2725 Clear 28 1017 30 10000 7.7 50 13:21 31.08.2019
2726 Clear 28 1017 30 10000 6.7 60 12:56 31.08.2019
2727 Clear 28 1017 32 10000 7.2 60 12:38 31.08.2019
2728 Clear 28 1017 32 10000 7.2 60 12:18 31.08.2019
2729 Clear 28 1017 30 10000 6.7 40 11:44 31.08.2019
2730 Clear 28 1017 30 10000 6.7 40 11:26 31.08.2019
2731 Clear 26 1018 30 10000 6.7 40 10:56 31.08.2019
2732 Clear 27 1018 32 10000 5.7 40 10:36 31.08.2019
2733 Clear 26 1018 32 10000 5.7 40 10:18 31.08.2019
2734 Clear 26 1018 36 10000 5.1 20 09:40 31.08.2019
2735 Clear 26 1018 36 10000 5.1 20 09:40 31.08.2019
2736 Clear 26 1018 36 10000 5.1 20 09:22 31.08.2019
2737 Clear 25 1018 44 10000 5.7 10 08:57 31.08.2019
2738 Clear 24 1018 53 10000 6.2 10 08:38 31.08.2019
2739 Clear 22 1018 53 10000 6.2 10 08:20 31.08.2019
2740 Clear 20 1018 63 10000 5.1 360 07:38 31.08.2019
2741 Clear 19 1018 63 10000 5.1 360 07:18 31.08.2019
2742 Clear 17 1017 67 10000 4.1 350 06:27 31.08.2019
2743 Clear 15 1017 67 10000 3.6 350 05:54 31.08.2019
2744 Clear 15 1017 67 10000 2.6 310 05:28 31.08.2019
2745 Clear 16 1017 67 10000 3.1 320 04:29 31.08.2019
2746 Clear 15 1018 63 10000 2.1 300 03:42 31.08.2019
2747 Clear 15 1018 72 10000 1 0 02:23 31.08.2019
2748 Clear 15 1018 67 10000 2.6 350 01:47 31.08.2019
2749 Clear 15 1018 72 10000 0.5 0 01:29 31.08.2019
2750 Clear 16 1018 68 10000 1.5 90 00:46 31.08.2019
2751 Clear 16 1018 68 10000 1.5 270 00:27 31.08.2019
2752 Clear 16 1018 68 10000 1.5 270 00:27 31.08.2019
2753 Clear 16 1018 63 10000 0.5 0 23:50 30.08.2019
2754 Clear 16 1019 63 10000 0.5 0 23:19 30.08.2019
2755 Clear 18 1019 60 10000 1 0 22:58 30.08.2019
2756 Clear 18 1019 60 10000 1 0 22:58 30.08.2019
2757 Clear 18 1019 63 10000 1 0 22:38 30.08.2019
2758 Clear 18 1019 63 10000 1 0 22:19 30.08.2019
2759 Clear 19 1019 60 10000 0.5 0 21:56 30.08.2019
2760 Clear 19 1019 52 10000 2.1 40 21:36 30.08.2019
2761 Clear 20 1019 52 10000 2.1 40 21:18 30.08.2019
2762 Clear 20 1019 52 10000 2.1 40 21:18 30.08.2019
2763 Clear 20 1019 56 10000 2.6 60 20:55 30.08.2019
2764 Clear 20 1018 60 10000 2.6 50 20:37 30.08.2019
2765 Clear 21 1018 60 10000 2.6 50 20:18 30.08.2019
2766 Clear 22 1018 60 10000 5.1 100 19:41 30.08.2019
2767 Clear 22 1018 60 10000 5.1 100 19:22 30.08.2019
2768 Clear 23 1018 53 10000 5.7 100 18:59 30.08.2019
2769 Clouds 25 1018 50 10000 7.2 110 18:41 30.08.2019
2770 Clouds 24 1018 50 10000 7.2 110 18:23 30.08.2019
2771 Clear 25 1018 50 10000 8.2 110 17:56 30.08.2019
2772 Clear 26 1017 50 10000 9.3 110 17:38 30.08.2019
2773 Clear 26 1017 50 10000 9.3 110 17:18 30.08.2019
2774 Clear 26 1017 54 10000 8.2 130 16:44 30.08.2019
2775 Clear 26 1017 54 10000 8.2 130 16:25 30.08.2019
2776 Clear 26 1018 54 10000 8.2 130 15:55 30.08.2019
2777 Clear 27 1018 50 10000 8.2 130 15:36 30.08.2019
2778 Clear 27 1018 50 10000 8.2 130 15:18 30.08.2019
2779 Clouds 27 1018 51 10000 8.7 130 14:42 30.08.2019
2780 Clouds 27 1018 51 10000 8.7 130 14:23 30.08.2019
2781 Clouds 28 1019 45 10000 8.7 120 13:45 30.08.2019
2782 Clouds 28 1019 45 10000 8.7 120 13:23 30.08.2019
2783 Clouds 28 1019 42 10000 7.2 130 12:59 30.08.2019
2784 Clouds 28 1019 54 10000 7.2 120 12:41 30.08.2019
2785 Clouds 28 1019 54 10000 7.2 120 12:22 30.08.2019
2786 Clouds 28 1019 54 10000 7.2 120 12:22 30.08.2019
2787 Clouds 28 1018 45 10000 3.6 90 11:43 30.08.2019
2788 Clouds 27 1018 45 10000 3.6 90 11:24 30.08.2019
2789 Clouds 27 1019 37 10000 5.1 70 10:43 30.08.2019
2790 Clouds 27 1019 37 10000 5.1 70 10:25 30.08.2019
2791 Clouds 26 1019 47 10000 4.6 50 09:59 30.08.2019
2792 Clouds 26 1019 47 10000 4.1 70 09:40 30.08.2019
2793 Clouds 26 1019 47 10000 4.1 70 09:19 30.08.2019
2794 Clear 25 1018 57 10000 3.6 40 08:57 30.08.2019
2795 Clear 24 1018 73 10000 1.5 0 08:38 30.08.2019
2796 Clear 23 1018 73 10000 1.5 0 08:20 30.08.2019
2797 Clear 21 1018 77 7000 2.1 220 07:40 30.08.2019
2798 Clear 20 1018 77 7000 2.1 220 07:21 30.08.2019
2799 Clear 19 1018 88 7000 1.5 0 06:47 30.08.2019
2800 Clear 17 1018 93 7000 1 0 06:28 30.08.2019
2801 Clear 16 1018 88 10000 1 0 05:44 30.08.2019
2802 Clear 15 1017 93 10000 1.68 46.668 03:59 30.08.2019
2803 Clear 16 1017 88 10000 1.68 46.668 03:38 30.08.2019
2804 Clear 16 1017 88 10000 1 0 02:56 30.08.2019
2805 Clear 16 1018 93 10000 0.2 136.397 02:26 30.08.2019
2806 Clear 17 1018 93 10000 0.24 76.196 01:28 30.08.2019
2807 Clear 17 1018 93 10000 1 320 00:29 30.08.2019
2808 Clear 18 1018 88 10000 2.1 330 23:59 29.08.2019
2809 Clear 18 1018 88 10000 1 330 23:40 29.08.2019
2810 Clear 18 1018 88 10000 1 330 23:20 29.08.2019
2811 Clear 18 1018 82 10000 1.5 340 22:43 29.08.2019
2812 Clear 19 1018 82 10000 1.5 340 22:24 29.08.2019
2813 Clear 19 1018 77 10000 2.1 10 21:56 29.08.2019
2814 Clear 19 1018 72 10000 1.5 10 21:38 29.08.2019
2815 Clear 19 1018 72 10000 1.5 10 21:20 29.08.2019
2816 Clear 21 1018 78 10000 1.5 50 20:43 29.08.2019
2817 Clear 23 1018 73 10000 1.5 170 20:20 29.08.2019
2818 Clear 23 1018 73 10000 1.5 170 19:59 29.08.2019
2819 Clear 23 1018 73 10000 3.1 130 19:40 29.08.2019
2820 Clear 24 1018 69 10000 3.1 130 19:21 29.08.2019
2821 Clear 25 1018 61 10000 4.6 120 18:43 29.08.2019
2822 Clear 26 1018 61 10000 5.7 130 18:21 29.08.2019
2823 Clear 26 1018 61 10000 5.7 130 17:56 29.08.2019
2824 Clear 27 1018 65 10000 6.2 130 17:38 29.08.2019
2825 Clear 28 1018 54 10000 6.2 130 17:19 29.08.2019
2826 Clear 28 1018 54 10000 6.2 130 16:57 29.08.2019
2827 Clear 29 1018 58 10000 6.7 140 16:38 29.08.2019
2828 Clear 29 1018 61 10000 7.2 140 16:20 29.08.2019
2829 Clear 29 1018 54 10000 7.7 140 15:39 29.08.2019
2830 Clear 30 1018 54 10000 7.7 140 15:20 29.08.2019
2831 Clear 30 1018 42 10000 7.7 130 14:50 29.08.2019
2832 Clear 30 1018 54 10000 7.7 130 14:24 29.08.2019
2833 Clouds 30 1018 54 10000 9.3 130 13:59 29.08.2019
2834 Clear 31 1018 48 10000 8.2 130 13:39 29.08.2019
2835 Clear 30 1018 48 10000 8.2 130 13:20 29.08.2019
2836 Clear 30 1018 45 10000 7.7 130 12:59 29.08.2019
2837 Clear 30 1018 35 10000 7.2 130 12:39 29.08.2019
2838 Clear 30 1018 35 10000 7.2 130 12:21 29.08.2019
2839 Clear 28 1018 39 10000 5.7 150 11:59 29.08.2019
2840 Clear 28 1018 37 10000 4.6 150 11:39 29.08.2019
2841 Clear 29 1018 37 10000 4.6 150 11:19 29.08.2019
2842 Clear 28 1018 30 10000 3.6 30 10:45 29.08.2019
2843 Clear 28 1019 30 10000 3.6 30 10:25 29.08.2019
2844 Clear 27 1019 30 10000 4.6 50 09:56 29.08.2019
2845 Clear 27 1019 30 10000 4.6 50 09:56 29.08.2019
2846 Clear 27 1019 36 10000 2.1 0 09:38 29.08.2019
2847 Clear 27 1019 36 10000 2.1 0 09:18 29.08.2019
2848 Clear 23 1019 64 10000 2.6 260 08:41 29.08.2019
2849 Clear 23 1019 64 10000 2.6 260 08:22 29.08.2019
2850 Clear 19 1019 77 9000 2.1 250 07:51 29.08.2019
2851 Clear 18 1019 88 8000 1 0 07:29 29.08.2019
2852 Clear 16 1019 93 7000 1.5 0 06:53 29.08.2019
2853 Mist 15 1019 93 5000 1.5 280 06:33 29.08.2019
2854 Clear 14 1019 93 8000 1 280 05:43 29.08.2019
2855 Clear 13 1019 93 8000 1.5 290 04:51 29.08.2019
2856 Clear 14 1018 93 10000 0.5 260 04:30 29.08.2019
2857 Clear 15 1019 93 10000 2.34 13.306 03:35 29.08.2019
2858 Clear 15 1019 87 10000 1.5 260 01:50 29.08.2019
2859 Clear 16 1019 82 10000 0.58 86.239 01:30 29.08.2019
2860 Clear 16 1019 77 10000 1 320 00:45 29.08.2019
2861 Clear 15 1019 77 10000 1 320 00:21 29.08.2019
2862 Clear 15 1019 77 10000 1 320 00:21 29.08.2019
2863 Clear 17 1019 77 10000 1.5 350 23:44 28.08.2019
2864 Clear 17 1019 77 10000 1.5 350 23:25 28.08.2019
2865 Clear 18 1019 72 10000 2.1 340 22:59 28.08.2019
2866 Clear 18 1019 77 10000 1 340 22:39 28.08.2019
2867 Clear 18 1019 77 10000 1 340 22:39 28.08.2019
2868 Clear 18 1019 77 10000 1 340 22:18 28.08.2019
2869 Clear 20 1019 73 10000 1 90 21:58 28.08.2019
2870 Clear 21 1019 68 10000 1 0 21:39 28.08.2019
2871 Clear 21 1019 68 10000 1 0 21:20 28.08.2019
2872 Clear 22 1019 60 10000 3.1 50 20:42 28.08.2019
2873 Clear 22 1019 60 10000 3.1 50 20:24 28.08.2019
2874 Clear 23 1019 53 10000 2.6 60 19:57 28.08.2019
2875 Clear 24 1019 53 10000 5.1 100 19:39 28.08.2019
2876 Clear 24 1019 53 10000 5.1 100 19:20 28.08.2019
2877 Clear 27 1019 44 10000 5.1 120 18:42 28.08.2019
2878 Clear 27 1019 44 10000 5.1 120 18:21 28.08.2019
2879 Clear 27 1018 54 10000 5.1 130 17:55 28.08.2019
2880 Clear 28 1018 61 10000 6.7 130 17:37 28.08.2019
2881 Clear 28 1018 61 10000 6.7 130 17:19 28.08.2019
2882 Clear 29 1018 61 10000 7.2 120 16:42 28.08.2019
2883 Clear 30 1018 61 10000 7.2 120 16:19 28.08.2019
2884 Clear 30 1018 58 10000 7.2 120 15:57 28.08.2019
2885 Clear 30 1018 51 10000 7.7 130 15:36 28.08.2019
2886 Clear 30 1018 51 10000 7.7 130 15:18 28.08.2019
2887 Clear 31 1018 35 10000 7.2 120 14:55 28.08.2019
2888 Clear 31 1018 33 10000 7.2 130 14:37 28.08.2019
2889 Clear 31 1018 33 10000 7.2 130 14:37 28.08.2019
2890 Clear 31 1018 33 10000 7.2 130 14:18 28.08.2019
2891 Clear 30 1019 40 10000 8.2 130 13:56 28.08.2019
2892 Clear 30 1019 35 10000 8.2 140 13:36 28.08.2019
2893 Clear 30 1019 35 10000 8.2 140 13:18 28.08.2019
2894 Clear 31 1019 33 10000 5.7 130 12:40 28.08.2019
2895 Clear 31 1019 33 10000 5.7 130 12:21 28.08.2019
2896 Clear 31 1020 27 10000 4.1 70 11:41 28.08.2019
2897 Clear 31 1020 27 10000 4.1 70 11:22 28.08.2019
2898 Clear 30 1020 28 10000 4.6 80 10:58 28.08.2019
2899 Clear 30 1020 30 10000 5.7 120 10:40 28.08.2019
2900 Clear 29 1020 30 10000 5.7 120 10:20 28.08.2019
2901 Clear 27 1020 39 10000 4.1 50 09:42 28.08.2019
2902 Clear 27 1020 39 10000 4.1 50 09:22 28.08.2019
2903 Clear 25 1020 44 10000 4.1 20 08:59 28.08.2019
2904 Clear 25 1020 47 10000 4.6 20 08:38 28.08.2019
2905 Clear 25 1020 47 10000 4.6 20 08:19 28.08.2019
2906 Clear 20 1020 72 10000 1.5 0 07:39 28.08.2019
2907 Clear 19 1020 72 10000 1.5 0 07:20 28.08.2019
2908 Clear 17 1020 77 10000 2.1 220 06:50 28.08.2019
2909 Clear 16 1020 77 10000 2.6 310 06:31 28.08.2019
2910 Clear 14 1020 87 10000 2.6 280 05:24 28.08.2019
2911 Clear 16 1020 77 10000 2.1 320 02:20 28.08.2019
2912 Clear 18 1020 68 10000 0.5 0 01:31 28.08.2019
2913 Clear 18 1020 68 10000 0.5 0 00:52 28.08.2019
2914 Clear 18 1020 68 10000 0.5 0 00:33 28.08.2019
2915 Clear 19 1020 56 10000 0.5 0 23:58 27.08.2019
2916 Clear 19 1020 60 10000 2.6 60 23:38 27.08.2019
2917 Clear 20 1020 60 10000 2.6 60 23:19 27.08.2019
2918 Clear 20 1020 60 10000 1.5 20 22:41 27.08.2019
2919 Clear 20 1020 60 10000 1.5 20 22:23 27.08.2019
2920 Clear 20 1020 56 10000 2.1 40 21:57 27.08.2019
2921 Clear 21 1020 56 10000 2.1 50 21:38 27.08.2019
2922 Clear 21 1020 56 10000 2.1 50 21:19 27.08.2019
2923 Clear 22 1020 53 10000 2.1 50 20:58 27.08.2019
2924 Clear 22 1020 56 10000 3.6 40 20:39 27.08.2019
2925 Clear 23 1020 56 10000 3.6 40 20:19 27.08.2019
2926 Clear 26 1019 47 10000 4.1 80 19:44 27.08.2019
2927 Clear 26 1019 47 10000 4.1 80 19:26 27.08.2019
2928 Clear 26 1019 42 10000 5.1 90 18:56 27.08.2019
2929 Clear 27 1019 39 10000 6.2 100 18:38 27.08.2019
2930 Clear 28 1019 39 10000 6.2 100 18:18 27.08.2019
2931 Clear 30 1019 35 10000 7.2 110 17:43 27.08.2019
2932 Clear 30 1019 35 10000 7.2 110 17:43 27.08.2019
2933 -273 0 0 0 0 0 17:25 27.08.2019
2934 Clear 30 1019 31 10000 7.2 120 16:57 27.08.2019
2935 Clear 30 1019 31 10000 7.7 100 16:38 27.08.2019
2936 Clear 30 1019 31 10000 7.7 100 16:19 27.08.2019
2937 Clear 31 1019 33 10000 8.2 100 15:42 27.08.2019
2938 Clear 31 1019 33 10000 8.2 100 15:23 27.08.2019
2939 Clear 31 1019 40 10000 7.2 130 14:59 27.08.2019
2940 Clear 31 1019 40 10000 7.2 130 14:59 27.08.2019
2941 Clear 30 1019 58 10000 7.2 140 14:41 27.08.2019
2942 Clear 30 1019 58 10000 7.2 140 14:41 27.08.2019
2943 Clear 30 1019 58 10000 7.2 140 14:23 27.08.2019
2944 Clear 31 1019 48 10000 7.7 130 13:43 27.08.2019
2945 Clear 31 1019 48 10000 7.7 130 13:24 27.08.2019
2946 Clear 31 1019 43 10000 7.2 130 12:56 27.08.2019
2947 Clear 30 1019 40 10000 5.7 140 12:37 27.08.2019
2948 Clear 30 1019 40 10000 5.7 140 12:18 27.08.2019
2949 Clear 30 1019 38 10000 2.6 0 11:43 27.08.2019
2950 Clear 30 1019 38 10000 2.6 0 11:25 27.08.2019
2951 Clear 30 1020 42 10000 2.1 0 10:44 27.08.2019
2952 Clear 30 1020 42 10000 2.1 0 10:21 27.08.2019
2953 Clear 28 1020 42 10000 1.5 0 09:58 27.08.2019
2954 Clear 28 1020 48 10000 2.1 0 09:38 27.08.2019
2955 Clear 28 1020 48 10000 2.1 0 09:20 27.08.2019
2956 Clear 27 1020 51 10000 3.6 50 08:48 27.08.2019
2957 Clear 25 1020 64 10000 1.5 0 08:27 27.08.2019
2958 Clear 25 1020 64 10000 1.5 0 08:27 27.08.2019
2959 Clear 22 1020 73 10000 1.5 270 07:59 27.08.2019
2960 Clear 21 1019 82 10000 1 0 07:39 27.08.2019
2961 Clear 21 1019 82 10000 1 0 07:19 27.08.2019
2962 Clear 21 1019 82 10000 2.1 270 06:50 27.08.2019
2963 Clear 19 1019 77 10000 2.6 350 06:22 27.08.2019
2964 Clear 17 1019 88 10000 1.5 250 05:30 27.08.2019
2965 Clear 17 1019 88 10000 1 0 04:28 27.08.2019
2966 Clear 18 1019 77 10000 1.5 0 03:32 27.08.2019
2967 Clear 19 1019 73 10000 2.6 30 02:22 27.08.2019
2968 Clear 21 1019 69 10000 2.6 40 01:34 27.08.2019
2969 Clear 21 1019 69 10000 1.5 0 00:50 27.08.2019
2970 Clear 21 1019 69 10000 2.1 60 00:29 27.08.2019
2971 Clear 21 1019 69 10000 2.1 90 23:54 26.08.2019
2972 Clear 21 1019 69 10000 2.1 100 23:36 26.08.2019
2973 Clear 21 1019 69 10000 2.1 100 23:18 26.08.2019
2974 Clear 22 1019 60 10000 1.5 0 22:38 26.08.2019
2975 Clear 22 1019 60 10000 1.5 0 22:19 26.08.2019
2976 Clear 24 1019 57 10000 2.6 100 21:40 26.08.2019
2977 Clear 24 1019 57 10000 2.1 100 21:22 26.08.2019
2978 Clear 23 1019 57 10000 2.1 100 20:59 26.08.2019
2979 Clear 24 1019 61 10000 1 0 20:41 26.08.2019
2980 Clear 24 1019 57 10000 2.1 50 20:21 26.08.2019
2981 Clear 24 1019 57 10000 2.1 50 19:59 26.08.2019
2982 Clear 27 1019 54 10000 4.1 80 19:41 26.08.2019
2983 Clear 27 1019 54 10000 4.1 80 19:41 26.08.2019
2984 Clear 26 1019 51 10000 5.1 60 19:19 26.08.2019
2985 -273 0 0 0 0 0 18:55 26.08.2019
2986 Clear 29 1018 48 10000 7.2 80 18:37 26.08.2019
2987 Clear 29 1018 40 10000 6.7 80 18:18 26.08.2019
2988 Clear 30 1019 31 10000 7.7 80 17:43 26.08.2019
2989 Clear 30 1018 33 10000 8.7 90 17:19 26.08.2019
2990 Clear 30 1018 33 10000 8.7 90 16:57 26.08.2019
2991 Clear 32 1019 29 10000 9.8 90 16:38 26.08.2019
2992 Clear 33 1019 24 10000 9.8 90 16:18 26.08.2019
2993 Clear 33 1019 24 10000 9.8 90 15:42 26.08.2019
2994 Clear 33 1019 26 10000 8.7 90 15:22 26.08.2019
2995 Clear 33 1019 26 10000 8.7 90 14:57 26.08.2019
2996 Clear 33 1019 28 10000 8.7 90 14:37 26.08.2019
2997 Clear 33 1019 28 10000 8.2 100 14:19 26.08.2019
2998 Clear 33 1019 26 10000 7.7 100 13:42 26.08.2019
2999 Clear 33 1019 28 10000 7.2 90 13:21 26.08.2019
3000 Clear 33 1019 28 10000 6.7 80 12:46 26.08.2019
3001 Clear 33 1019 28 10000 6.7 80 12:28 26.08.2019
3002 Clear 32 1019 43 10000 5.7 140 11:59 26.08.2019
3003 Clear 32 1019 38 10000 6.2 150 11:38 26.08.2019
3004 Clear 31 1019 35 10000 4.1 140 11:19 26.08.2019
3005 Clear 31 1019 38 10000 3.6 120 10:55 26.08.2019
3006 Clear 31 1019 38 10000 3.6 120 10:55 26.08.2019
3007 Clear 31 1019 38 10000 3.6 120 10:36 26.08.2019
3008 Clear 29 1019 45 10000 2.1 0 10:18 26.08.2019
3009 Clear 29 1019 48 10000 3.1 70 09:41 26.08.2019
3010 Clear 27 1019 51 10000 2.1 0 09:23 26.08.2019
3011 Clear 27 1019 51 10000 2.1 0 08:56 26.08.2019
3012 Clear 27 1019 54 10000 2.6 0 08:37 26.08.2019
3013 Clear 24 1019 57 10000 2.6 0 08:19 26.08.2019
3014 Clear 24 1019 61 10000 1.5 250 07:42 26.08.2019
3015 Clear 23 1019 61 10000 1.5 250 07:24 26.08.2019
3016 Clear 24 1019 60 10000 2.1 70 06:50 26.08.2019
3017 Clear 23 1019 60 10000 2.1 70 06:25 26.08.2019
3018 Clear 22 1019 64 10000 1 0 05:56 26.08.2019
3019 Clear 22 1018 64 10000 1 0 04:35 26.08.2019
3020 Clear 22 1018 61 10000 2.1 40 03:30 26.08.2019
3021 Clear 21 1018 69 10000 0.5 0 01:41 26.08.2019
3022 Clear 22 1019 57 10000 2.35 36.445 01:21 26.08.2019
3023 Clear 22 1019 61 10000 1 0 00:42 26.08.2019
3024 Clear 22 1019 61 10000 0.5 0 00:23 26.08.2019
3025 Clear 23 1019 61 10000 2.1 50 23:43 25.08.2019
3026 Clear 23 1019 65 10000 2.1 90 23:19 25.08.2019
3027 Clear 23 1019 65 10000 2.1 90 22:57 25.08.2019
3028 Clear 23 1019 65 10000 2.1 90 22:57 25.08.2019
3029 Clear 23 1019 65 10000 3.1 80 22:39 25.08.2019
3030 Clear 23 1018 61 10000 4.6 70 22:20 25.08.2019
3031 Clear 24 1018 61 10000 4.6 70 21:57 25.08.2019
3032 Clear 24 1018 61 10000 4.6 70 21:57 25.08.2019
3033 Clear 23 1018 69 10000 2.1 80 21:37 25.08.2019
3034 Clear 24 1018 65 10000 2.6 130 21:18 25.08.2019
3035 Clear 24 1018 65 10000 2.6 130 21:18 25.08.2019
3036 Clear 25 1018 65 10000 3.6 120 20:40 25.08.2019
3037 Clear 25 1018 69 10000 2.6 110 20:20 25.08.2019
3038 Clear 25 1018 69 10000 2.6 110 19:58 25.08.2019
3039 Clear 26 1018 61 10000 4.6 120 19:39 25.08.2019
3040 Clear 26 1017 58 10000 4.6 110 19:19 25.08.2019
3041 Clear 27 1017 58 10000 4.6 110 18:57 25.08.2019
3042 Clear 27 1017 58 10000 4.6 110 18:39 25.08.2019
3043 Clear 27 1017 69 10000 5.7 140 18:21 25.08.2019
3044 Clear 29 1017 51 10000 4.6 130 17:43 25.08.2019
3045 Clear 29 1017 51 10000 4.6 130 17:25 25.08.2019
3046 Clear 29 1017 43 10000 6.7 120 16:56 25.08.2019
3047 Clear 29 1017 43 10000 8.2 110 16:36 25.08.2019
3048 Clear 30 1017 45 10000 8.7 110 16:18 25.08.2019
3049 Clear 30 1017 43 10000 9.3 110 15:42 25.08.2019
3050 Clear 31 1017 40 10000 10.3 110 15:24 25.08.2019
3051 Clear 30 1017 58 10000 8.7 130 14:43 25.08.2019
3052 Clear 31 1017 58 10000 8.7 130 14:24 25.08.2019
3053 Clear 32 1017 62 10000 7.7 130 13:56 25.08.2019
3054 Clear 31 1017 66 10000 7.2 140 13:37 25.08.2019
3055 Clear 33 1017 46 10000 6.2 140 13:18 25.08.2019
3056 Clear 32 1017 52 10000 5.7 140 12:44 25.08.2019
3057 Clear 32 1017 52 10000 5.7 140 12:25 25.08.2019
3058 Clear 32 1017 45 10000 5.1 150 11:59 25.08.2019
3059 Clear 32 1017 45 10000 4.6 140 11:38 25.08.2019
3060 Clear 31 1017 43 10000 4.1 150 11:20 25.08.2019
3061 Clear 32 1017 43 10000 4.1 150 10:57 25.08.2019
3062 Clear 33 1017 33 10000 3.1 0 10:38 25.08.2019
3063 Clear 31 1017 40 10000 2.1 0 10:19 25.08.2019
3064 Clear 30 1017 42 10000 1.5 0 09:44 25.08.2019
3065 Clear 30 1017 48 10000 3.1 20 09:24 25.08.2019
3066 Clear 28 1017 51 10000 2.1 0 08:48 25.08.2019
3067 Clear 28 1017 51 10000 2.1 0 08:29 25.08.2019
3068 Clear 26 1017 54 10000 2.6 240 07:55 25.08.2019
3069 Clear 25 1017 57 10000 3.1 240 07:33 25.08.2019
3070 Clear 23 1017 60 10000 2.1 0 06:39 25.08.2019
3071 Clear 21 1017 60 10000 3.1 340 05:28 25.08.2019
3072 Clear 21 1018 60 10000 2.1 320 03:51 25.08.2019
3073 Clear 22 1018 53 10000 2.6 310 02:44 25.08.2019
3074 Clear 22 1018 57 10000 3.1 280 02:20 25.08.2019
3075 Clear 21 1018 57 10000 3.6 350 00:56 25.08.2019
3076 Clear 21 1018 64 10000 3.1 350 00:24 25.08.2019
3077 Clear 21 1018 64 10000 3.1 350 23:58 24.08.2019
3078 Clear 21 1018 60 10000 2.1 330 23:40 24.08.2019
3079 Clear 21 1019 64 10000 1.5 310 23:22 24.08.2019
3080 Clear 22 1019 57 10000 1 0 22:54 24.08.2019
3081 Clear 22 1019 57 10000 1 0 22:36 24.08.2019
3082 Clear 23 1019 53 10000 1.5 70 22:18 24.08.2019
3083 Clear 23 1019 57 10000 1 0 21:42 24.08.2019
3084 Clear 24 1019 57 10000 3.98 79.463 21:23 24.08.2019
3085 Clear 24 1019 57 10000 3.98 79.463 20:58 24.08.2019
3086 Clear 24 1019 57 10000 3.98 79.463 20:58 24.08.2019
3087 Clear 25 1019 57 10000 2.1 50 20:39 24.08.2019
3088 Clear 26 1019 51 10000 3.6 70 20:19 24.08.2019
3089 Clear 26 1019 51 10000 3.6 70 19:57 24.08.2019
3090 Clear 28 1019 51 10000 4.1 70 19:38 24.08.2019
3091 Clear 28 1018 48 10000 5.1 70 19:20 24.08.2019
3092 Clear 29 1018 42 10000 5.7 70 18:46 24.08.2019
3093 Clear 30 1018 40 10000 5.7 100 18:24 24.08.2019
3094 Clear 30 1018 40 10000 6.7 90 17:46 24.08.2019
3095 Clear 30 1018 40 10000 6.7 90 17:46 24.08.2019
3096 Clear 30 1018 40 10000 6.7 90 17:28 24.08.2019
3097 Clouds 31 1018 35 10000 6.7 90 16:57 24.08.2019
3098 Clouds 32 1018 35 10000 7.2 100 16:38 24.08.2019
3099 Clouds 31 1018 52 10000 5.7 120 16:19 24.08.2019
3100 Clouds 31 1018 48 10000 7.2 130 15:44 24.08.2019
3101 Clouds 31 1018 48 10000 7.2 130 15:26 24.08.2019
3102 Clouds 31 1018 58 10000 6.2 140 14:57 24.08.2019
3103 Clouds 32 1018 49 10000 6.7 120 14:39 24.08.2019
3104 Clouds 32 1018 52 10000 6.2 130 14:18 24.08.2019
3105 Clouds 33 1019 33 10000 4.1 40 13:43 24.08.2019
3106 Smoke 33 1019 34 10000 3.6 30 13:23 24.08.2019
3107 Smoke 33 1019 34 10000 3.6 30 13:23 24.08.2019
3108 Smoke 33 1019 34 10000 3.6 30 12:59 24.08.2019
3109 Smoke 34 1019 34 10000 5.1 60 12:40 24.08.2019
3110 Smoke 33 1019 33 10000 5.7 30 12:22 24.08.2019
3111 Smoke 33 1019 33 10000 5.7 30 12:22 24.08.2019
3112 Clear 33 1019 33 10000 6.7 50 11:49 24.08.2019
3113 Clear 32 1019 33 10000 6.7 50 11:31 24.08.2019
3114 Clear 32 1019 36 10000 5.7 30 10:59 24.08.2019
3115 Clear 31 1019 38 10000 5.7 20 10:39 24.08.2019
3116 Clear 31 1019 40 10000 5.7 20 10:20 24.08.2019
3117 Clear 29 1019 48 10000 5.7 10 09:42 24.08.2019
3118 Clear 28 1019 51 10000 6.7 20 09:19 24.08.2019
3119 Clear 27 1019 54 10000 7.7 20 08:43 24.08.2019
3120 Clear 27 1019 54 10000 7.7 20 08:25 24.08.2019
3121 Clear 25 1019 57 10000 8.2 20 07:52 24.08.2019
3122 Clear 25 1019 57 10000 8.2 20 07:30 24.08.2019
3123 Clear 23 1019 57 10000 6.7 20 06:39 24.08.2019
3124 Clear 22 1019 57 10000 6.7 20 06:21 24.08.2019
3125 Clear 21 1018 57 10000 7.7 10 05:35 24.08.2019
3126 Clear 23 1018 53 10000 6.2 20 03:41 24.08.2019
3127 Clear 24 1019 50 10000 5.7 10 02:50 24.08.2019
3128 Clear 23 1019 57 10000 3.1 320 01:54 24.08.2019
3129 Clear 23 1019 57 10000 3.1 320 01:24 24.08.2019
3130 Clear 23 1019 60 10000 2.1 300 00:46 24.08.2019
3131 Clear 23 1019 60 10000 2.1 250 00:22 24.08.2019
3132 Clear 23 1019 60 10000 0.5 0 23:45 23.08.2019
3133 Clear 24 1019 61 10000 1 0 23:20 23.08.2019
3134 Clear 23 1019 64 10000 2.1 280 22:44 23.08.2019
3135 Clear 24 1019 61 10000 1 0 22:25 23.08.2019
3136 Clear 24 1019 61 10000 1 0 21:56 23.08.2019
3137 Clear 25 1019 57 10000 0.5 0 21:37 23.08.2019
3138 Clear 25 1019 57 10000 0.5 0 21:37 23.08.2019
3139 Clear 27 1019 54 10000 2.6 50 21:19 23.08.2019
3140 Clear 27 1019 54 10000 2.6 50 20:51 23.08.2019
3141 Clear 28 1019 54 10000 2.6 50 20:33 23.08.2019
3142 Clear 28 1019 48 10000 4.6 70 19:46 23.08.2019
3143 Clear 29 1018 45 10000 5.7 70 19:19 23.08.2019
3144 Clear 29 1018 45 10000 5.7 70 18:55 23.08.2019
3145 Clear 30 1018 43 10000 6.2 80 18:37 23.08.2019
3146 Clear 30 1018 40 10000 6.2 80 18:18 23.08.2019
3147 Clear 31 1018 40 10000 6.2 80 17:41 23.08.2019
3148 Clear 31 1018 48 10000 5.7 130 17:23 23.08.2019
3149 Clear 32 1018 58 10000 5.1 140 16:49 23.08.2019
3150 Clear 32 1018 58 10000 5.1 140 16:30 23.08.2019
3151 Clear 32 1018 58 10000 6.7 140 15:59 23.08.2019
3152 Clear 33 1018 43 10000 6.7 100 15:40 23.08.2019
3153 Clear 33 1018 32 10000 5.7 20 15:21 23.08.2019
3154 Clear 33 1018 28 10000 6.7 20 14:56 23.08.2019
3155 Clear 33 1018 28 10000 6.7 20 14:38 23.08.2019
3156 Clear 33 1018 32 10000 7.2 20 14:19 23.08.2019
3157 Clear 33 1019 32 10000 7.7 10 13:42 23.08.2019
3158 Clear 33 1019 32 10000 7.7 10 13:23 23.08.2019
3159 Clear 32 1019 33 10000 7.7 10 12:59 23.08.2019
3160 Clear 32 1019 33 10000 6.7 10 12:41 23.08.2019
3161 Clear 31 1019 35 10000 7.2 10 12:21 23.08.2019
3162 Clear 31 1019 35 10000 7.2 10 11:57 23.08.2019
3163 Clear 30 1019 40 10000 5.1 10 11:39 23.08.2019
3164 Clear 29 1019 42 10000 5.7 350 11:19 23.08.2019
3165 Clear 28 1019 42 10000 5.7 350 10:55 23.08.2019
3166 Clear 28 1019 45 10000 6.7 360 10:37 23.08.2019
3167 Clear 27 1019 51 10000 6.2 360 10:18 23.08.2019
3168 Clear 27 1019 51 10000 7.2 350 09:43 23.08.2019
3169 Clear 25 1019 57 10000 7.7 360 09:20 23.08.2019
3170 Clear 24 1019 60 10000 7.7 360 08:45 23.08.2019
3171 Clear 23 1019 60 10000 8.7 350 08:21 23.08.2019
3172 Clear 22 1019 60 10000 8.7 350 07:56 23.08.2019
3173 Clear 22 1019 64 10000 9.3 360 07:38 23.08.2019
3174 Clear 22 1019 68 10000 9.8 360 07:20 23.08.2019
3175 Clear 21 1019 68 10000 9.8 360 06:41 23.08.2019
3176 Clear 20 1018 68 10000 9.8 360 06:21 23.08.2019
3177 Clear 20 1018 68 10000 9.3 360 05:44 23.08.2019
3178 Clear 19 1018 68 10000 9.3 360 05:23 23.08.2019
3179 Clear 21 1018 64 10000 9.3 360 03:37 23.08.2019
3180 Clear 22 1018 57 10000 8.7 360 02:37 23.08.2019
3181 Clear 22 1019 57 10000 8.7 360 02:18 23.08.2019
3182 Clear 24 1019 47 10000 6.7 360 00:46 23.08.2019
3183 Clear 24 1019 47 10000 6.7 10 00:23 23.08.2019
3184 Clear 25 1019 44 10000 6.2 10 23:53 22.08.2019
3185 Clear 25 1019 44 10000 6.2 10 23:33 22.08.2019
3186 Clear 26 1019 44 10000 6.2 10 22:59 22.08.2019
3187 Clear 26 1019 44 10000 6.2 10 22:59 22.08.2019
3188 Clear 25 1019 47 10000 4.1 360 22:41 22.08.2019
3189 Clear 25 1019 50 10000 3.1 350 22:22 22.08.2019
3190 Clear 25 1019 50 10000 3.1 350 21:57 22.08.2019
3191 Clear 25 1019 50 10000 2.1 320 21:39 22.08.2019
3192 Clear 25 1019 53 10000 2.1 310 21:20 22.08.2019
3193 Clear 25 1019 53 10000 2.1 310 20:57 22.08.2019
3194 Clear 26 1019 53 10000 1.5 300 20:39 22.08.2019
3195 Clear 27 1018 51 10000 1.5 170 20:19 22.08.2019
3196 Clear 27 1018 51 10000 1.5 170 19:56 22.08.2019
3197 Clear 27 1018 51 10000 1.5 170 19:55 22.08.2019
3198 Clear 27 1018 47 10000 2.6 150 19:37 22.08.2019
3199 Clear 29 1018 39 10000 5.1 100 19:19 22.08.2019
3200 Clear 29 1018 39 10000 5.1 100 18:56 22.08.2019
3201 Clear 30 1017 37 10000 6.2 110 18:37 22.08.2019
3202 Clear 31 1017 31 10000 5.7 110 18:18 22.08.2019
3203 Clear 32 1017 29 10000 7.2 100 17:42 22.08.2019
3204 Clear 32 1017 29 10000 7.2 100 17:21 22.08.2019
3205 Clear 32 1017 29 10000 7.2 100 17:21 22.08.2019
3206 Clear 33 1017 24 10000 5.7 60 16:58 22.08.2019
3207 Clear 33 1017 24 10000 5.7 60 16:39 22.08.2019
3208 Clear 33 1017 30 10000 6.2 30 16:20 22.08.2019
3209 Clear 33 1017 30 10000 6.2 30 15:57 22.08.2019
3210 Clear 33 1017 30 10000 6.2 30 15:57 22.08.2019
3211 Clear 33 1017 30 10000 6.2 30 15:57 22.08.2019
3212 Clear 33 1017 30 10000 6.2 30 15:57 22.08.2019
3213 Clear 33 1017 30 10000 6.7 10 15:38 22.08.2019
3214 Clear 34 1017 28 10000 6.2 10 15:19 22.08.2019
3215 Clear 34 1017 28 10000 6.2 10 15:19 22.08.2019
3216 Clear 34 1017 28 10000 6.2 10 14:56 22.08.2019
3217 Clear 34 1017 26 10000 5.7 10 14:38 22.08.2019
3218 Clear 34 1017 26 10000 5.7 20 14:18 22.08.2019
3219 Clear 34 1017 26 10000 6.7 30 13:42 22.08.2019
3220 Clear 34 1017 26 10000 6.7 30 13:24 22.08.2019
3221 Clear 33 1018 26 10000 7.2 40 12:59 22.08.2019
3222 Clear 33 1018 26 10000 7.7 30 12:39 22.08.2019
3223 Clear 32 1017 26 10000 8.7 40 12:20 22.08.2019
3224 Clear 32 1017 26 10000 8.7 40 12:20 22.08.2019
3225 Clear 32 1017 29 10000 7.7 10 11:43 22.08.2019
3226 Clear 31 1017 29 10000 6.7 10 11:22 22.08.2019
3227 Clear 31 1017 29 10000 6.7 10 10:59 22.08.2019
3228 Clear 31 1018 33 10000 6.2 360 10:41 22.08.2019
3229 Clear 31 1018 33 10000 6.2 360 10:41 22.08.2019
3230 Clouds 31 1018 33 10000 10.3 340 10:23 22.08.2019
3231 Clear 29 1017 35 10000 6.2 350 10:00 22.08.2019
3232 Clear 28 1017 39 10000 7.2 360 09:39 22.08.2019
3233 Clear 28 1017 39 10000 7.2 360 09:21 22.08.2019
3234 Clear 27 1017 39 10000 7.2 360 08:57 22.08.2019
3235 Clear 27 1017 39 10000 7.2 360 08:38 22.08.2019
3236 Clear 26 1017 42 10000 7.2 360 08:20 22.08.2019
3237 Clear 24 1017 47 10000 7.2 360 07:41 22.08.2019
3238 Clear 23 1017 50 10000 5.1 360 07:20 22.08.2019
3239 Clear 22 1017 50 10000 5.1 360 06:55 22.08.2019
3240 Clear 22 1016 50 10000 6.2 360 06:24 22.08.2019
3241 Clear 22 1016 50 10000 6.2 360 05:58 22.08.2019
3242 Clear 21 1016 53 10000 5.1 360 04:38 22.08.2019
3243 Clear 22 1016 50 10000 5.1 360 02:51 22.08.2019
3244 Clear 22 1016 50 10000 5.1 360 02:33 22.08.2019
3245 Clear 22 1016 53 10000 4.6 360 01:25 22.08.2019
3246 Clear 22 1017 53 10000 3.1 330 00:45 22.08.2019
3247 Clear 22 1017 53 10000 3.1 330 00:27 22.08.2019
3248 Clear 22 1017 56 10000 1.5 350 23:54 21.08.2019
3249 Clear 22 1017 56 10000 3.6 340 23:36 21.08.2019
3250 Clear 22 1017 64 10000 2.6 310 23:18 21.08.2019
3251 Clear 22 1017 60 10000 2.1 290 22:41 21.08.2019
3252 Clear 22 1017 60 10000 1 0 22:22 21.08.2019
3253 Clear 23 1017 60 10000 1 0 21:58 21.08.2019
3254 Clear 24 1017 53 10000 2.1 350 21:39 21.08.2019
3255 Clear 24 1017 60 10000 2.1 330 21:20 21.08.2019
3256 Clear 24 1017 60 10000 2.1 330 20:59 21.08.2019
3257 Clear 24 1017 61 10000 0.5 0 20:41 21.08.2019
3258 Clear 25 1017 61 10000 0.5 0 20:23 21.08.2019
3259 Clear 26 1016 57 10000 3.1 130 19:56 21.08.2019
3260 Clear 26 1016 57 10000 3.1 130 19:37 21.08.2019
3261 Clear 28 1016 48 10000 1 0 19:19 21.08.2019
3262 Clear 28 1016 51 10000 3.1 140 18:43 21.08.2019
3263 Clear 30 1016 51 10000 4.1 140 18:23 21.08.2019
3264 Clear 30 1016 51 10000 4.1 140 18:23 21.08.2019
3265 Clear 31 1016 51 10000 4.1 140 17:54 21.08.2019
3266 Clear 31 1016 45 10000 4.1 140 17:36 21.08.2019
3267 Clear 31 1016 51 10000 5.7 140 17:18 21.08.2019
3268 Clear 32 1016 48 10000 5.1 140 16:42 21.08.2019
3269 Clear 31 1017 45 10000 6.2 140 16:23 21.08.2019
3270 Clear 31 1017 45 10000 6.2 140 15:59 21.08.2019
3271 Clear 31 1017 45 10000 6.7 130 15:40 21.08.2019
3272 Clear 32 1017 36 10000 4.1 90 15:21 21.08.2019
3273 Clear 32 1017 36 10000 4.1 90 14:57 21.08.2019
3274 Clear 32 1017 33 10000 4.6 50 14:39 21.08.2019
3275 Clear 31 1017 40 10000 4.1 100 14:20 21.08.2019
3276 Clear 31 1017 40 10000 4.1 100 14:20 21.08.2019
3277 Clear 31 1017 40 10000 4.1 100 14:20 21.08.2019
3278 Clear 31 1017 35 10000 5.1 50 13:45 21.08.2019
3279 Clear 31 1017 38 10000 4.1 60 13:23 21.08.2019
3280 Clear 31 1017 38 10000 4.1 60 12:59 21.08.2019
3281 Clear 32 1017 38 10000 5.7 30 12:40 21.08.2019
3282 Clear 32 1017 35 10000 4.6 50 12:21 21.08.2019
3283 Clear 31 1017 35 10000 4.6 50 11:58 21.08.2019
3284 Clear 31 1018 38 10000 5.7 50 11:39 21.08.2019
3285 Clear 31 1018 38 10000 5.7 50 11:39 21.08.2019
3286 Clear 31 1018 38 10000 5.7 50 11:39 21.08.2019
3287 Clear 30 1018 40 10000 4.6 10 11:21 21.08.2019
3288 Clear 30 1018 40 10000 4.6 10 10:56 21.08.2019
3289 Clear 29 1018 39 10000 5.7 10 10:37 21.08.2019
3290 Clear 28 1018 42 10000 5.7 20 10:19 21.08.2019
3291 Clear 28 1018 39 10000 6.2 10 09:43 21.08.2019
3292 Clear 27 1018 39 10000 6.7 10 09:24 21.08.2019
3293 Clear 27 1018 39 10000 6.7 10 08:59 21.08.2019
3294 Clouds 26 1018 44 10000 4.1 360 08:41 21.08.2019
3295 Clouds 25 1018 47 10000 4.1 40 08:21 21.08.2019
3296 Clouds 23 1018 56 10000 3.6 310 07:40 21.08.2019
3297 Clouds 22 1018 56 10000 1.5 290 07:21 21.08.2019
3298 Clouds 21 1018 60 10000 2.1 300 06:49 21.08.2019
3299 Clear 21 1018 60 10000 3.6 330 06:22 21.08.2019
3300 Clouds 20 1018 56 10000 3.1 300 05:42 21.08.2019
3301 Clear 18 1018 72 10000 3.1 260 05:23 21.08.2019
3302 Clear 17 1018 77 10000 2.1 240 03:38 21.08.2019
3303 Clear 18 1019 77 10000 2.1 320 01:47 21.08.2019
3304 Clear 18 1019 77 10000 1.5 290 00:46 21.08.2019
3305 Clear 17 1020 72 10000 1.5 290 00:24 21.08.2019
3306 Clear 18 1020 72 10000 1.5 290 23:57 20.08.2019
3307 Clear 18 1020 72 10000 2.1 320 23:38 20.08.2019
3308 Clear 18 1020 72 10000 2.1 360 23:18 20.08.2019
3309 Clear 18 1020 72 10000 2.1 360 23:18 20.08.2019
3310 Clear 18 1020 72 10000 2.1 360 22:55 20.08.2019
3311 Clear 19 1020 72 10000 2.1 340 22:36 20.08.2019
3312 Clear 19 1020 72 10000 2.6 10 22:18 20.08.2019
3313 Clear 19 1020 72 10000 2.6 10 21:56 20.08.2019
3314 Clear 20 1020 72 10000 2.1 360 21:37 20.08.2019
3315 Clear 21 1020 68 10000 2.1 20 21:18 20.08.2019
3316 Clear 22 1020 64 10000 1.5 10 20:42 20.08.2019
3317 Clear 23 1020 64 10000 1.5 10 20:24 20.08.2019
3318 Clear 24 1020 60 10000 2.1 150 19:54 20.08.2019
3319 Clear 25 1020 57 10000 3.1 150 19:36 20.08.2019
3320 Clear 25 1020 57 10000 3.6 140 19:18 20.08.2019
3321 Clear 26 1020 57 10000 3.6 140 18:55 20.08.2019
3322 Clear 26 1020 57 10000 3.6 140 18:55 20.08.2019
3323 Clear 26 1019 50 10000 4.1 140 18:36 20.08.2019
3324 Clear 27 1020 47 10000 4.6 140 18:18 20.08.2019
3325 Clear 28 1020 47 10000 6.2 120 17:39 20.08.2019
3326 Clear 28 1020 47 10000 6.2 120 17:20 20.08.2019
3327 Clear 29 1019 42 10000 6.7 120 16:48 20.08.2019
3328 Clear 29 1019 45 10000 6.7 130 16:28 20.08.2019
3329 Clear 29 1019 45 10000 7.2 140 15:59 20.08.2019
3330 Clear 29 1019 48 10000 6.7 140 15:41 20.08.2019
3331 Clear 29 1019 48 10000 6.7 140 15:18 20.08.2019
3332 Clear 29 1019 48 10000 6.7 140 15:18 20.08.2019
3333 Clear 29 1019 51 10000 8.7 120 14:44 20.08.2019
3334 Clear 29 1019 51 10000 8.7 120 14:22 20.08.2019
3335 Clear 29 1019 51 10000 8.7 120 14:22 20.08.2019
3336 Clouds 28 1020 48 10000 8.7 130 13:59 20.08.2019
3337 Clouds 28 1020 57 10000 7.7 140 13:40 20.08.2019
3338 Clouds 28 1020 57 10000 7.7 140 13:22 20.08.2019
3339 Clouds 28 1020 57 10000 7.7 140 13:22 20.08.2019
3340 Clouds 28 1020 57 10000 8.2 130 12:59 20.08.2019
3341 Clouds 27 1020 54 10000 7.2 130 12:40 20.08.2019
3342 Clouds 28 1020 54 10000 7.2 130 12:22 20.08.2019
3343 Clear 27 1020 45 10000 6.2 150 11:42 20.08.2019
3344 Clear 27 1020 45 10000 6.2 150 11:22 20.08.2019
3345 Clear 27 1020 47 10000 5.1 150 10:58 20.08.2019
3346 Clear 27 1020 51 10000 4.1 140 10:39 20.08.2019
3347 Clear 27 1020 51 10000 4.1 140 10:39 20.08.2019
3348 Clear 27 1020 51 10000 4.1 140 10:21 20.08.2019
3349 Clear 26 1020 47 10000 2.6 0 09:58 20.08.2019
3350 Clear 26 1020 50 10000 3.1 90 09:40 20.08.2019
3351 Clear 26 1020 50 10000 3.1 90 09:40 20.08.2019
3352 Clear 26 1020 50 10000 3.1 90 09:21 20.08.2019
3353 Clear 26 1020 50 10000 3.1 90 09:21 20.08.2019
3354 Clear 24 1020 60 10000 2.1 20 08:42 20.08.2019
3355 Clear 23 1020 60 10000 2.1 20 08:23 20.08.2019
3356 Clear 19 1020 72 10000 1 230 07:57 20.08.2019
3357 Clear 19 1020 72 10000 1 230 07:57 20.08.2019
3358 Clear 19 1020 72 10000 1 230 07:57 20.08.2019
3359 Clear 20 1020 82 10000 1.5 250 07:38 20.08.2019
3360 Clear 20 1020 82 10000 1.5 250 07:20 20.08.2019
3361 Clear 18 1020 87 10000 1 0 06:43 20.08.2019
3362 Clear 15 1020 87 10000 1 0 06:20 20.08.2019
3363 Clear 13 1019 93 10000 0.5 0 05:42 20.08.2019
3364 Clear 15 1019 87 10000 1 300 04:26 20.08.2019
3365 Clear 14 1019 87 10000 0.5 0 02:48 20.08.2019
3366 Clear 15 1018 87 10000 1.5 230 01:53 20.08.2019
3367 Clear 16 1018 82 10000 1 250 01:20 20.08.2019
3368 Clear 16 1019 77 10000 1.5 330 00:44 20.08.2019
3369 Clear 16 1019 77 10000 1.5 330 00:24 20.08.2019
3370 Clear 16 1019 77 10000 1 320 23:44 19.08.2019
3371 Clear 16 1019 77 10000 1 320 23:19 19.08.2019
3372 Clear 16 1019 77 10000 1.5 20 22:58 19.08.2019
3373 Clear 17 1019 72 10000 2.1 320 22:40 19.08.2019
3374 Clear 17 1019 72 10000 2.1 320 22:19 19.08.2019
3375 Clear 18 1019 77 10000 1.81 189.811 21:56 19.08.2019
3376 Clear 18 1019 72 10000 1.5 20 21:38 19.08.2019
3377 Clear 18 1019 72 10000 1.5 20 21:19 19.08.2019
3378 Clear 19 1019 68 10000 2.6 50 20:40 19.08.2019
3379 Clear 20 1019 68 10000 2.6 50 20:21 19.08.2019
3380 Clear 21 1019 60 10000 2.1 110 19:59 19.08.2019
3381 Clear 22 1019 60 10000 2.6 120 19:41 19.08.2019
3382 Clear 23 1019 60 10000 2.6 120 19:19 19.08.2019
3383 Clear 23 1019 60 10000 2.6 120 19:19 19.08.2019
3384 Clear 23 1019 60 10000 2.6 120 19:19 19.08.2019
3385 Clear 23 1019 60 10000 2.6 120 19:19 19.08.2019
3386 Clear 24 1019 53 10000 3.6 120 18:59 19.08.2019
3387 Clear 24 1019 53 10000 3.6 120 18:59 19.08.2019
3388 Clear 25 1018 50 10000 4.6 120 18:39 19.08.2019
3389 Clear 25 1018 50 10000 4.6 120 18:21 19.08.2019
3390 Clear 26 1018 50 10000 5.7 130 17:55 19.08.2019
3391 Clear 26 1018 44 10000 5.1 140 17:36 19.08.2019
3392 Clear 27 1018 44 10000 5.1 140 17:18 19.08.2019
3393 Clear 27 1018 36 10000 6.7 130 16:38 19.08.2019
3394 Clear 27 1018 36 10000 6.7 130 16:20 19.08.2019
3395 Clear 27 1018 36 10000 6.7 130 15:56 19.08.2019
3396 Clear 27 1018 36 10000 6.7 130 15:56 19.08.2019
3397 Clear 27 1018 36 10000 6.7 120 15:38 19.08.2019
3398 Clear 27 1018 36 10000 6.7 130 15:19 19.08.2019
3399 Clear 28 1018 32 10000 7.7 130 14:43 19.08.2019
3400 Clear 28 1018 32 10000 7.7 130 14:23 19.08.2019
3401 Clear 28 1018 32 10000 7.7 130 13:58 19.08.2019
3402 Clear 28 1018 30 10000 7.2 120 13:38 19.08.2019
3403 Clear 28 1018 32 10000 7.2 120 13:19 19.08.2019
3404 Clear 29 1018 32 10000 7.2 120 12:57 19.08.2019
3405 Clear 28 1018 32 10000 7.2 120 12:57 19.08.2019
3406 Clear 28 1018 32 10000 5.7 130 12:39 19.08.2019
3407 Clear 28 1018 32 10000 6.2 130 12:19 19.08.2019
3408 Clear 28 1018 32 10000 5.1 140 11:40 19.08.2019
3409 Clear 28 1018 34 10000 3.6 120 11:21 19.08.2019
3410 Clear 28 1018 34 10000 3.6 120 10:58 19.08.2019
3411 Clear 27 1018 32 10000 4.1 130 10:37 19.08.2019
3412 Clear 27 1018 34 10000 2.1 150 10:18 19.08.2019
3413 Clear 27 1018 44 10000 1 0 09:45 19.08.2019
3414 Clear 26 1018 44 10000 1 0 09:24 19.08.2019
3415 Clear 25 1018 56 10000 1 0 08:57 19.08.2019
3416 Clear 22 1018 64 10000 1.5 240 08:39 19.08.2019
3417 Clear 19 1018 68 10000 1 0 08:19 19.08.2019
3418 Clear 21 1018 82 8000 1 0 07:45 19.08.2019
3419 Clear 21 1018 82 8000 1 0 07:27 19.08.2019
3420 Clear 18 1017 82 8000 1.5 290 06:47 19.08.2019
3421 Clear 17 1017 82 10000 1 0 06:26 19.08.2019
3422 Clear 17 1017 82 10000 1 0 06:26 19.08.2019
3423 Clear 14 1017 82 10000 1.47 225.608 04:56 19.08.2019
3424 Clear 14 1017 82 10000 1.47 225.608 04:25 19.08.2019
3425 Clear 15 1017 82 10000 1 260 03:21 19.08.2019
3426 Clear 16 1017 77 10000 2.1 310 02:19 19.08.2019
3427 Clear 16 1017 72 10000 1.5 350 01:21 19.08.2019
3428 Clear 16 1017 77 10000 1.5 350 00:43 19.08.2019
3429 Clear 16 1017 77 10000 1.5 350 00:43 19.08.2019
3430 Clear 17 1017 72 10000 1.5 350 00:23 19.08.2019
3431 Clear 17 1017 72 10000 2.6 20 23:42 18.08.2019
3432 Clear 17 1017 72 10000 2.1 10 23:21 18.08.2019
3433 Clear 17 1017 72 10000 2.1 340 22:42 18.08.2019
3434 Clear 18 1017 68 10000 2.1 20 22:22 18.08.2019
3435 Clear 18 1017 68 10000 2.1 20 21:59 18.08.2019
3436 Clear 19 1017 63 10000 2.1 10 21:41 18.08.2019
3437 Clear 20 1017 60 10000 1.5 50 21:22 18.08.2019
3438 Clear 20 1017 60 10000 1.5 50 20:59 18.08.2019
3439 Clear 21 1016 60 10000 2.1 140 20:41 18.08.2019
3440 Clear 22 1016 56 10000 2.6 130 20:23 18.08.2019
3441 Clear 23 1016 49 10000 3.1 130 19:43 18.08.2019
3442 Clear 24 1016 47 10000 4.6 120 19:25 18.08.2019
3443 Clear 24 1016 47 10000 4.6 120 18:59 18.08.2019
3444 Clear 24 1016 47 10000 5.1 130 18:40 18.08.2019
3445 Clear 25 1016 47 10000 5.1 130 18:21 18.08.2019
3446 Clear 25 1016 47 10000 5.1 130 18:21 18.08.2019
3447 Clear 29 1016 47 10000 5.1 130 17:55 18.08.2019
3448 Clear 29 1016 39 10000 5.1 120 17:37 18.08.2019
3449 Clear 28 1016 41 10000 5.7 130 17:18 18.08.2019
3450 Clear 28 1016 41 10000 5.7 130 16:55 18.08.2019
3451 Clear 28 1016 41 10000 5.7 130 16:55 18.08.2019
3452 Clear 28 1016 39 10000 6.2 120 16:36 18.08.2019
3453 Clear 28 1016 39 10000 6.7 120 16:18 18.08.2019
3454 Clear 27 1016 36 10000 6.7 130 15:40 18.08.2019
3455 Clear 29 1016 41 10000 7.7 130 15:20 18.08.2019
3456 Clear 29 1016 41 10000 7.7 130 14:58 18.08.2019
3457 Clouds 28 1016 44 10000 7.7 130 14:38 18.08.2019
3458 Clear 29 1016 39 10000 4.6 110 14:19 18.08.2019
3459 Clear 27 1016 39 10000 4.6 110 13:56 18.08.2019
3460 Clear 28 1016 26 10000 5.1 350 13:38 18.08.2019
3461 Clear 28 1016 28 10000 3.1 20 13:19 18.08.2019
3462 Clear 28 1016 28 10000 4.1 340 12:45 18.08.2019
3463 Clear 28 1016 30 10000 3.1 0 12:23 18.08.2019
3464 Clear 28 1016 30 10000 3.1 0 11:56 18.08.2019
3465 Clear 28 1016 30 10000 4.1 40 11:37 18.08.2019
3466 Clear 26 1016 34 10000 4.6 330 11:19 18.08.2019
3467 Clear 26 1016 34 10000 4.6 360 10:41 18.08.2019
3468 Clear 26 1016 34 10000 2.6 0 10:22 18.08.2019
3469 Clear 26 1016 34 10000 2.6 0 09:53 18.08.2019
3470 Clear 25 1016 36 10000 4.1 10 09:24 18.08.2019
3471 Clear 24 1015 38 10000 4.6 360 08:59 18.08.2019
3472 Clear 24 1015 38 10000 4.1 360 08:41 18.08.2019
3473 Clear 24 1015 38 10000 4.1 360 08:23 18.08.2019
3474 Clear 19 1015 63 10000 2.1 290 07:49 18.08.2019
3475 Clear 19 1015 63 10000 2.1 290 07:29 18.08.2019
3476 Clear 15 1015 82 10000 4.1 280 05:49 18.08.2019
3477 Clear 15 1015 87 10000 1.65 348.649 04:54 18.08.2019
3478 Clear 15 1015 87 10000 0.5 0 03:42 18.08.2019
3479 Clear 16 1015 77 10000 2.1 270 02:46 18.08.2019
3480 Clear 16 1015 77 10000 1.5 260 02:24 18.08.2019
3481 Clear 17 1015 72 10000 1.5 340 01:44 18.08.2019
3482 Clear 17 1015 72 10000 1.5 340 01:19 18.08.2019
3483 Clear 17 1015 72 10000 1 340 00:38 18.08.2019
3484 Clear 17 1015 72 10000 1 340 00:38 18.08.2019
3485 Clear 17 1015 72 10000 1 0 00:19 18.08.2019
3486 Clear 17 1015 72 10000 1 0 23:57 17.08.2019
3487 Clear 17 1015 72 10000 1.5 310 23:37 17.08.2019
3488 Clear 18 1015 68 10000 1.5 360 23:18 17.08.2019
3489 Clear 18 1015 68 10000 1.5 360 23:18 17.08.2019
3490 Clear 18 1015 68 10000 1.5 360 22:56 17.08.2019
3491 Clear 18 1015 68 10000 1.5 360 22:56 17.08.2019
3492 Clear 18 1015 68 10000 1 0 22:37 17.08.2019
3493 Clear 18 1014 68 10000 1.5 350 22:18 17.08.2019
3494 Clear 19 1014 68 10000 2.1 10 21:41 17.08.2019
3495 Clear 20 1015 64 10000 1 0 21:23 17.08.2019
3496 Clear 21 1014 60 10000 2.1 60 20:41 17.08.2019
3497 Clear 22 1014 60 10000 2.6 140 20:21 17.08.2019
3498 Clear 22 1014 60 10000 2.6 140 19:59 17.08.2019
3499 Clear 23 1014 56 10000 2.6 140 19:39 17.08.2019
3500 Clear 24 1014 50 10000 3.6 110 19:20 17.08.2019
3501 Clear 24 1013 50 10000 5.1 130 18:41 17.08.2019
3502 Clear 24 1013 53 10000 5.1 140 18:20 17.08.2019
3503 Clear 24 1013 53 10000 5.1 140 17:59 17.08.2019
3504 Clear 25 1013 47 10000 5.1 120 17:41 17.08.2019
3505 Clear 26 1013 47 10000 6.2 120 17:21 17.08.2019
3506 Clear 26 1013 47 10000 6.2 120 17:21 17.08.2019
3507 Clear 26 1013 47 10000 6.2 120 16:55 17.08.2019
3508 Clear 26 1013 50 10000 5.1 120 16:36 17.08.2019
3509 Clear 26 1013 50 10000 5.1 130 16:18 17.08.2019
3510 Clear 26 1013 50 10000 5.7 120 15:41 17.08.2019
3511 Clear 25 1013 50 10000 5.7 100 15:21 17.08.2019
3512 Clear 26 1013 50 10000 5.7 100 14:56 17.08.2019
3513 Clear 27 1013 32 10000 3.6 360 14:36 17.08.2019
3514 Clouds 28 1013 34 10000 5.1 360 14:18 17.08.2019
3515 Clouds 28 1014 34 10000 4.1 360 13:42 17.08.2019
3516 Clouds 27 1014 36 10000 3.1 0 13:19 17.08.2019
3517 Clouds 27 1014 34 10000 4.6 350 12:42 17.08.2019
3518 Clouds 26 1014 39 10000 5.1 340 12:19 17.08.2019
3519 Clouds 26 1014 39 10000 5.1 340 11:57 17.08.2019
3520 Clouds 27 1014 36 10000 5.7 320 11:36 17.08.2019
3521 Clouds 27 1014 39 10000 4.1 330 11:18 17.08.2019
3522 Clouds 26 1014 38 10000 1.5 0 10:39 17.08.2019
3523 Clear 26 1014 36 10000 3.6 40 10:19 17.08.2019
3524 Clear 25 1015 38 10000 3.6 50 09:50 17.08.2019
3525 Clear 25 1015 38 10000 3.6 50 09:31 17.08.2019
3526 Clear 23 1014 46 10000 2.1 180 08:54 17.08.2019
3527 Clear 23 1014 46 10000 2.1 180 08:26 17.08.2019
3528 Clear 21 1014 56 10000 2.1 0 07:53 17.08.2019
3529 Clear 20 1014 63 10000 2.6 310 07:22 17.08.2019
3530 Clear 20 1014 63 10000 2.6 310 07:22 17.08.2019
3531 Clear 19 1014 72 10000 2.1 0 06:55 17.08.2019
3532 Clear 17 1014 67 10000 2.6 300 05:55 17.08.2019
3533 Clear 18 1014 63 10000 2.6 290 04:30 17.08.2019
3534 Clear 19 1014 59 10000 1 0 03:35 17.08.2019
3535 Clear 19 1014 63 10000 1.5 260 01:48 17.08.2019
3536 Clear 19 1014 63 10000 1.5 260 01:28 17.08.2019
3537 Clear 17 1014 63 10000 2.6 250 00:55 17.08.2019
3538 Clear 17 1014 72 10000 2.6 220 00:31 17.08.2019
3539 Clear 17 1014 68 10000 1.5 330 23:52 16.08.2019
3540 Clear 17 1014 68 10000 1.5 330 23:27 16.08.2019
3541 Clear 18 1014 68 10000 2.1 310 22:57 16.08.2019
3542 Clear 18 1013 63 10000 1 0 22:39 16.08.2019
3543 Clear 19 1013 60 10000 1.5 340 22:19 16.08.2019
3544 Clear 19 1013 60 10000 1.5 340 22:19 16.08.2019
3545 Clear 19 1014 60 10000 1.5 290 21:41 16.08.2019
3546 Clear 20 1013 60 10000 2.1 260 21:20 16.08.2019
3547 Clear 20 1013 60 10000 2.1 260 20:56 16.08.2019
3548 Clear 20 1013 60 10000 2.1 290 20:37 16.08.2019
3549 Clear 21 1013 53 10000 1 0 20:18 16.08.2019
3550 Clear 21 1013 53 10000 3.1 330 19:42 16.08.2019
3551 Clear 22 1013 50 10000 3.6 320 19:22 16.08.2019
3552 Clear 23 1013 47 10000 3.1 310 18:44 16.08.2019
3553 Clear 24 1012 50 10000 3.1 320 18:26 16.08.2019
3554 Clear 24 1012 50 10000 3.1 320 18:26 16.08.2019
3555 Clear 24 1012 50 10000 3.1 320 17:58 16.08.2019
3556 Clear 24 1013 47 10000 1 0 17:39 16.08.2019
3557 Clear 25 1013 47 10000 3.1 20 17:20 16.08.2019
3558 Clear 25 1013 47 10000 3.1 20 17:20 16.08.2019
3559 Clear 25 1013 47 10000 3.6 350 16:42 16.08.2019
3560 Clear 23 1013 50 10000 3.6 320 16:22 16.08.2019
3561 Clear 23 1013 50 10000 3.6 320 15:59 16.08.2019
3562 Clear 23 1013 47 10000 3.1 290 15:40 16.08.2019
3563 Clear 22 1013 53 10000 2.1 0 15:21 16.08.2019
3564 Clear 22 1013 53 10000 2.1 0 14:58 16.08.2019
3565 Clear 22 1013 50 10000 3.6 340 14:38 16.08.2019
3566 Clear 21 1013 56 10000 3.1 360 14:19 16.08.2019
3567 Rain 20 1013 60 10000 3.1 10 13:41 16.08.2019
3568 Rain 20 1013 60 10000 3.1 10 13:41 16.08.2019
3569 Rain 20 1013 60 10000 3.1 10 13:23 16.08.2019
3570 Clear 20 1014 60 10000 3.1 360 12:56 16.08.2019
3571 Clouds 20 1014 64 10000 4.6 350 12:37 16.08.2019
3572 Clouds 19 1013 60 10000 3.1 0 12:19 16.08.2019
3573 Clouds 19 1013 60 10000 3.1 0 12:19 16.08.2019
3574 Clouds 19 1013 56 10000 3.1 330 11:42 16.08.2019
3575 Clouds 19 1013 56 10000 3.1 330 11:23 16.08.2019
3576 Clouds 19 1014 64 10000 2.6 0 10:43 16.08.2019
3577 Clouds 19 1014 64 10000 2.6 0 10:25 16.08.2019
3578 Clouds 18 1014 64 10000 2.6 0 09:56 16.08.2019
3579 Clouds 18 1013 64 10000 3.1 350 09:37 16.08.2019
3580 Clouds 18 1013 64 10000 3.1 350 09:37 16.08.2019
3581 Clouds 17 1013 68 10000 3.6 320 09:18 16.08.2019
3582 Clouds 17 1013 68 10000 3.1 310 08:41 16.08.2019
3583 Clouds 17 1013 72 10000 4.1 310 08:21 16.08.2019
3584 Clouds 17 1013 72 10000 4.1 310 07:53 16.08.2019
3585 Clouds 17 1014 72 10000 2.6 0 07:32 16.08.2019
3586 Clouds 16 1013 77 10000 2.6 290 06:57 16.08.2019
3587 Rain 17 1013 77 10000 3.6 350 06:21 16.08.2019
3588 Rain 18 1013 72 10000 4.6 330 05:40 16.08.2019
3589 Clear 18 1012 72 10000 3.6 310 04:27 16.08.2019
3590 Clear 18 1012 64 10000 3.1 360 02:28 16.08.2019
3591 Clear 18 1012 64 10000 2.6 0 01:30 16.08.2019
3592 Clear 19 1012 64 10000 4.6 340 00:57 16.08.2019
3593 Clear 19 1012 64 10000 4.6 360 00:39 16.08.2019
3594 Clear 20 1012 64 10000 6.2 360 00:20 16.08.2019
3595 Clear 20 1011 60 10000 5.7 360 23:42 15.08.2019
3596 Clear 20 1011 60 10000 6.2 360 23:21 15.08.2019
3597 Clear 20 1011 60 10000 6.2 360 22:57 15.08.2019
3598 Clear 20 1011 60 10000 6.2 360 22:57 15.08.2019
3599 Clear 21 1011 60 10000 4.1 350 22:39 15.08.2019
3600 Clear 21 1011 60 10000 3.6 10 22:20 15.08.2019
3601 Clear 22 1011 60 10000 2.6 360 21:40 15.08.2019
3602 Clear 22 1011 57 10000 1 0 21:20 15.08.2019
3603 Clear 22 1011 57 10000 1 0 20:59 15.08.2019
3604 Clear 23 1010 53 10000 1.5 70 20:41 15.08.2019
3605 Clear 23 1010 53 10000 2.1 70 20:21 15.08.2019
3606 Clear 23 1010 53 10000 2.1 70 19:57 15.08.2019
3607 Clear 24 1010 57 10000 2.1 0 19:38 15.08.2019
3608 Clear 24 1009 61 10000 2.6 90 19:19 15.08.2019
3609 Clear 25 1009 69 10000 3.1 110 18:46 15.08.2019
3610 Clear 27 1009 61 10000 3.6 140 18:22 15.08.2019
3611 Clear 27 1009 61 10000 3.6 140 17:56 15.08.2019
3612 Clear 26 1009 65 10000 4.6 140 17:37 15.08.2019
3613 Clear 26 1008 65 10000 5.1 130 17:19 15.08.2019
3614 Clear 27 1008 61 10000 5.7 130 16:48 15.08.2019
3615 Clear 28 1008 61 10000 5.7 130 16:27 15.08.2019
3616 Clear 29 1008 40 10000 4.6 120 15:57 15.08.2019
3617 Clear 29 1008 42 10000 3.6 10 15:38 15.08.2019
3618 Clear 29 1008 40 10000 3.1 70 15:19 15.08.2019
3619 Clear 29 1009 42 10000 3.6 50 14:42 15.08.2019
3620 Clear 29 1009 45 10000 5.7 330 14:23 15.08.2019
3621 Clear 29 1009 45 10000 5.7 330 13:57 15.08.2019
3622 Clear 29 1009 48 10000 5.7 300 13:39 15.08.2019
3623 Clear 28 1010 48 10000 4.1 340 13:20 15.08.2019
3624 Clear 28 1010 48 10000 4.1 340 12:57 15.08.2019
3625 Clear 28 1010 48 10000 4.1 340 12:57 15.08.2019
3626 Clear 28 1009 51 10000 6.2 330 12:38 15.08.2019
3627 Clear 27 1009 51 10000 7.2 310 12:18 15.08.2019
3628 Clear 27 1009 51 10000 7.2 310 11:57 15.08.2019
3629 Clear 26 1010 54 10000 6.2 310 11:36 15.08.2019
3630 Clouds 25 1010 57 10000 6.7 330 11:18 15.08.2019
3631 Clear 25 1010 57 10000 6.7 330 10:40 15.08.2019
3632 Clouds 24 1010 57 10000 6.7 340 10:20 15.08.2019
3633 Clouds 24 1010 57 10000 6.7 340 09:58 15.08.2019
3634 Clouds 23 1010 60 10000 7.2 320 09:39 15.08.2019
3635 Clouds 22 1010 60 10000 7.2 320 09:21 15.08.2019
3636 Clear 21 1009 68 10000 6.2 300 08:38 15.08.2019
3637 Clear 21 1009 73 10000 7.7 300 08:19 15.08.2019
3638 Clear 20 1009 73 10000 8.2 290 07:46 15.08.2019
3639 Clear 20 1009 73 10000 8.2 290 07:28 15.08.2019
3640 Clear 20 1008 73 10000 7.7 280 06:56 15.08.2019
3641 Clear 20 1008 73 10000 5.1 270 06:34 15.08.2019
3642 Clear 20 1007 73 10000 6.2 280 05:54 15.08.2019
3643 Clear 19 1007 82 10000 3.6 260 05:29 15.08.2019
3644 Clear 19 1008 88 10000 1.5 210 04:39 15.08.2019
3645 Clear 20 1008 94 10000 2.6 290 03:48 15.08.2019
3646 Clear 20 1008 88 10000 3.1 170 02:46 15.08.2019
3647 Clear 20 1007 94 10000 0.5 0 01:54 15.08.2019
3648 Clear 20 1007 94 10000 2.1 340 01:36 15.08.2019
3649 Clear 20 1008 94 10000 3.1 300 00:41 15.08.2019
3650 Clear 20 1008 88 10000 0.5 0 00:21 15.08.2019
3651 Clear 19 1008 88 10000 0.5 0 23:58 14.08.2019
3652 Clear 19 1007 94 10000 2.1 310 23:38 14.08.2019
3653 Clear 19 1007 94 10000 2.1 310 23:38 14.08.2019
3654 Clear 20 1008 88 10000 1 0 23:19 14.08.2019
3655 Clear 20 1008 88 10000 1 0 22:57 14.08.2019
3656 Clear 21 1008 88 10000 1.5 30 22:38 14.08.2019
3657 Clear 21 1008 88 10000 1.5 360 22:19 14.08.2019
3658 Clear 21 1008 88 10000 1.5 360 21:55 14.08.2019
3659 Clear 21 1008 88 10000 1.5 360 21:55 14.08.2019
3660 Clear 21 1008 88 10000 1.5 360 21:55 14.08.2019
3661 Clear 21 1008 88 10000 1.5 360 21:55 14.08.2019
3662 Clear 21 1008 83 10000 2.6 40 21:37 14.08.2019
3663 Clear 21 1008 83 10000 2.6 40 21:37 14.08.2019
3664 Clear 21 1007 83 10000 2.6 50 21:18 14.08.2019
3665 Clear 22 1007 83 10000 2.6 90 20:41 14.08.2019
3666 Clear 23 1007 78 10000 3.1 110 20:21 14.08.2019
3667 Clear 23 1007 78 10000 3.1 110 19:56 14.08.2019
3668 Clear 24 1007 78 10000 3.1 110 19:37 14.08.2019
3669 Clear 25 1007 73 10000 5.7 120 19:19 14.08.2019
3670 Clear 26 1007 69 10000 5.7 120 18:56 14.08.2019
3671 Clear 26 1007 69 10000 5.7 120 18:38 14.08.2019
3672 Clear 26 1007 69 10000 6.2 120 18:19 14.08.2019
3673 Clear 26 1007 69 10000 6.2 120 17:56 14.08.2019
3674 Clear 27 1007 69 10000 6.7 140 17:36 14.08.2019
3675 Clear 28 1007 61 10000 6.7 150 17:18 14.08.2019
3676 Clear 28 1007 61 10000 6.2 130 16:41 14.08.2019
3677 Clear 29 1007 61 10000 7.2 130 16:20 14.08.2019
3678 Clear 29 1007 58 10000 7.7 130 15:44 14.08.2019
3679 Clear 30 1008 54 10000 7.2 130 15:24 14.08.2019
3680 Clear 30 1008 54 10000 7.2 130 14:59 14.08.2019
3681 Clear 30 1008 51 10000 7.7 120 14:39 14.08.2019
3682 Clear 30 1008 51 10000 7.2 130 14:19 14.08.2019
3683 Clear 30 1008 51 10000 7.2 130 14:19 14.08.2019
3684 Clear 30 1008 51 10000 7.2 130 13:55 14.08.2019
3685 Clear 30 1008 51 10000 7.7 120 13:37 14.08.2019
3686 Clear 29 1008 54 10000 7.7 130 13:18 14.08.2019
3687 Clear 29 1008 54 10000 7.7 140 12:55 14.08.2019
3688 Clear 29 1008 54 10000 7.7 140 12:36 14.08.2019
3689 Clear 29 1009 51 10000 6.2 140 12:18 14.08.2019
3690 Clear 29 1009 51 10000 4.6 110 11:45 14.08.2019
3691 Clear 28 1009 45 10000 5.1 110 11:23 14.08.2019
3692 Clear 28 1009 45 10000 5.1 110 10:54 14.08.2019
3693 Clear 28 1010 45 10000 5.7 120 10:36 14.08.2019
3694 Clear 27 1010 45 10000 4.6 110 10:18 14.08.2019
3695 Clear 26 1010 51 10000 2.6 130 09:41 14.08.2019
3696 Clear 26 1010 51 10000 2.6 130 09:41 14.08.2019
3697 Clear 25 1010 54 10000 3.1 120 09:20 14.08.2019
3698 Clear 24 1010 65 10000 2.6 0 08:42 14.08.2019
3699 Clear 24 1010 65 10000 2.6 0 08:24 14.08.2019
3700 Clear 21 1010 69 10000 1 0 07:55 14.08.2019
3701 Clear 21 1011 73 10000 0.5 0 07:35 14.08.2019
3702 Clouds 20 1011 88 10000 2.6 80 06:50 14.08.2019
3703 Clouds 20 1011 88 10000 2.6 80 06:25 14.08.2019
3704 Clear 20 1011 82 10000 1.5 0 05:28 14.08.2019
3705 Clear 19 1011 82 10000 1.5 140 03:41 14.08.2019
3706 Clear 20 1012 77 10000 1.5 200 02:37 14.08.2019
3707 Clear 19 1012 82 10000 1 0 01:57 14.08.2019
3708 Clear 21 1012 73 10000 2.6 70 01:23 14.08.2019
3709 Clear 21 1012 73 10000 2.6 50 00:23 14.08.2019
3710 Clear 18 1012 68 10000 2.1 90 23:40 13.08.2019
3711 Clear 18 1012 73 10000 2.6 40 23:19 13.08.2019
3712 Clear 19 1013 68 10000 3.1 50 22:43 13.08.2019
3713 Clear 20 1013 68 10000 3.1 50 22:24 13.08.2019
3714 Clear 21 1013 68 10000 3.1 50 21:59 13.08.2019
3715 Clear 21 1013 68 10000 2.6 40 21:39 13.08.2019
3716 Clear 21 1013 68 10000 2.6 50 21:20 13.08.2019
3717 Clear 21 1013 68 10000 2.6 50 20:59 13.08.2019
3718 Clear 22 1013 68 10000 3.1 40 20:40 13.08.2019
3719 Clear 23 1013 57 10000 2.6 70 20:19 13.08.2019
3720 Clear 24 1013 57 10000 2.6 70 19:55 13.08.2019
3721 Clear 26 1013 47 10000 3.6 80 19:37 13.08.2019
3722 Clear 26 1013 44 10000 5.7 80 19:18 13.08.2019
3723 Clear 28 1013 42 10000 5.7 90 18:41 13.08.2019
3724 Clear 28 1013 45 10000 6.2 90 18:22 13.08.2019
3725 Clear 29 1013 37 10000 6.7 100 17:43 13.08.2019
3726 Clear 29 1013 37 10000 6.7 100 17:23 13.08.2019
3727 Clear 29 1013 37 10000 6.7 90 16:59 13.08.2019
3728 Clear 29 1013 37 10000 6.7 90 16:59 13.08.2019
3729 Clear 30 1013 37 10000 6.7 90 16:40 13.08.2019
3730 Clear 29 1013 37 10000 7.2 110 16:21 13.08.2019
3731 Clear 29 1013 37 10000 7.2 110 15:59 13.08.2019
3732 Clear 29 1013 35 10000 8.2 100 15:38 13.08.2019
3733 Clear 30 1013 31 10000 7.7 110 15:19 13.08.2019
3734 Clear 30 1014 35 10000 7.7 100 14:43 13.08.2019
3735 Clear 30 1014 35 10000 8.2 90 14:20 13.08.2019
3736 Clear 30 1014 35 10000 8.2 90 13:58 13.08.2019
3737 Clear 30 1014 35 10000 8.2 90 13:58 13.08.2019
3738 Clear 31 1014 33 10000 8.2 100 13:39 13.08.2019
3739 Clear 31 1014 33 10000 8.2 110 13:18 13.08.2019
3740 Clear 31 1014 33 10000 8.2 110 12:56 13.08.2019
3741 Clear 31 1014 35 10000 8.2 100 12:38 13.08.2019
3742 Clear 30 1015 42 10000 7.7 110 12:18 13.08.2019
3743 Clear 30 1014 37 10000 8.2 110 11:42 13.08.2019
3744 Clear 30 1014 37 10000 8.2 90 11:22 13.08.2019
3745 Clear 29 1014 37 10000 8.2 90 10:57 13.08.2019
3746 Clear 30 1015 38 10000 7.7 90 10:38 13.08.2019
3747 Clear 28 1015 45 10000 6.2 90 10:19 13.08.2019
3748 Clear 28 1015 51 10000 5.7 80 09:45 13.08.2019
3749 Clear 28 1015 51 10000 5.7 80 09:24 13.08.2019
3750 Clear 28 1015 51 10000 5.7 80 09:24 13.08.2019
3751 Clear 27 1014 54 10000 6.2 110 08:57 13.08.2019
3752 Clear 26 1014 61 10000 4.6 90 08:39 13.08.2019
3753 Clear 24 1015 65 10000 3.1 70 08:19 13.08.2019
3754 Clear 23 1014 69 10000 3.1 50 07:40 13.08.2019
3755 Clear 23 1014 78 10000 3.1 50 07:20 13.08.2019
3756 Clear 19 1014 82 10000 1 0 06:43 13.08.2019
3757 Clear 19 1014 82 10000 1.5 50 05:47 13.08.2019
3758 Clear 19 1015 82 10000 1.13 89.392 03:46 13.08.2019
3759 Clear 21 1015 73 10000 3.1 40 02:22 13.08.2019
3760 Clear 21 1015 73 10000 2.6 40 01:26 13.08.2019
3761 Clear 23 1016 69 10000 1.5 50 00:47 13.08.2019
3762 Clear 22 1016 68 10000 1.5 50 00:19 13.08.2019
3763 Clear 21 1016 64 10000 3.1 110 23:43 12.08.2019
3764 Clear 21 1016 68 10000 2.6 100 23:20 12.08.2019
3765 Clear 22 1016 64 10000 1.5 100 22:40 12.08.2019
3766 Clear 22 1016 64 10000 2.16 124.301 22:20 12.08.2019
3767 Clear 22 1016 69 10000 0.5 0 21:57 12.08.2019
3768 Clear 22 1016 69 10000 0.5 0 21:38 12.08.2019
3769 Clear 23 1016 69 10000 2.1 0 21:19 12.08.2019
3770 Clear 23 1016 69 10000 2.1 0 20:58 12.08.2019
3771 Clear 23 1016 69 10000 2.1 0 20:58 12.08.2019
3772 Clear 24 1016 53 10000 0.5 0 20:39 12.08.2019
3773 Clear 24 1016 57 10000 3.1 120 20:20 12.08.2019
3774 Clear 25 1016 54 10000 3.1 130 19:56 12.08.2019
3775 Clear 25 1016 54 10000 3.1 130 19:37 12.08.2019
3776 Clear 26 1016 51 10000 4.1 120 19:19 12.08.2019
3777 Clear 27 1016 51 10000 4.1 120 18:55 12.08.2019
3778 Clear 28 1016 45 10000 5.1 120 18:37 12.08.2019
3779 Clear 28 1016 45 10000 5.1 120 18:37 12.08.2019
3780 Clear 28 1016 54 10000 5.1 140 18:19 12.08.2019
3781 Clear 29 1016 54 10000 6.2 140 17:47 12.08.2019
3782 Clear 29 1016 54 10000 6.2 140 17:28 12.08.2019
3783 Clear 29 1016 51 10000 6.7 140 16:57 12.08.2019
3784 Clear 30 1016 51 10000 6.7 140 16:39 12.08.2019
3785 Clear 30 1016 51 10000 6.7 140 16:20 12.08.2019
3786 Clear 30 1016 51 10000 6.7 140 15:58 12.08.2019
3787 Clear 31 1016 48 10000 6.2 140 15:40 12.08.2019
3788 -273 0 0 0 0 0 15:39 12.08.2019
3789 -273 0 0 0 0 0 15:39 12.08.2019
3790 Clear 31 1016 48 10000 6.2 140 15:38 12.08.2019
3791 Clear 30 1017 45 10000 6.7 140 15:20 12.08.2019
3792 Clear 31 1017 45 10000 6.7 140 14:55 12.08.2019
3793 Clear 31 1017 42 10000 6.7 140 14:36 12.08.2019
3794 -273 0 0 0 0 0 14:18 12.08.2019
3795 Clear 30 1017 45 10000 7.7 140 14:18 12.08.2019
3796 Clear 30 1017 45 10000 7.7 140 13:42 12.08.2019
3797 Clear 31 1017 40 10000 7.2 140 13:23 12.08.2019
3798 Clear 30 1017 45 10000 7.2 140 12:44 12.08.2019
3799 Clear 30 1017 42 10000 6.2 120 12:22 12.08.2019
3800 Clear 30 1017 42 10000 6.2 120 11:56 12.08.2019
3801 Clear 30 1017 45 10000 6.2 130 11:38 12.08.2019
3802 Clear 30 1018 39 10000 6.2 130 11:19 12.08.2019
3803 Clouds 29 1017 37 10000 6.2 120 10:40 12.08.2019
3804 Clouds 29 1017 37 10000 6.2 120 10:40 12.08.2019
3805 Clouds 28 1017 37 10000 5.1 130 10:22 12.08.2019
3806 Clouds 28 1017 37 10000 5.1 130 09:56 12.08.2019
3807 Clouds 28 1017 57 10000 4.6 120 09:37 12.08.2019
3808 Clouds 28 1017 57 10000 4.6 120 09:37 12.08.2019
3809 Clouds 27 1017 61 10000 2.1 150 09:18 12.08.2019
3810 Mist 26 1017 69 5000 1 0 08:42 12.08.2019
3811 Mist 26 1017 69 5000 1 0 08:24 12.08.2019
3812 Mist 23 1017 73 4300 1 0 07:56 12.08.2019
3813 Mist 23 1017 82 4100 1.5 250 07:36 12.08.2019
3814 Clear 24 1017 88 6000 1 0 06:58 12.08.2019
3815 Fog 17 1017 93 3900 1.4 196.731 06:22 12.08.2019
3816 Clear 16 1017 100 10000 1.4 196.731 04:31 12.08.2019
3817 Clear 17 1017 88 10000 1.96 192.224 02:43 12.08.2019
3818 Clear 18 1017 88 10000 1.5 310 01:48 12.08.2019
3819 Clear 18 1017 88 10000 1.5 310 01:19 12.08.2019
3820 Clear 18 1017 88 10000 1.5 310 00:55 12.08.2019
3821 Clear 18 1018 82 10000 1 0 00:37 12.08.2019
3822 Clear 19 1018 77 10000 1.5 340 00:18 12.08.2019
3823 Clear 19 1017 77 10000 2.1 340 23:40 11.08.2019
3824 Clear 19 1017 77 10000 2.7 178.833 23:20 11.08.2019
3825 Clear 19 1017 77 10000 2.7 178.833 22:57 11.08.2019
3826 Clear 20 1017 73 10000 2.1 50 22:38 11.08.2019
3827 Clear 21 1017 73 10000 2.1 60 22:18 11.08.2019
3828 Clear 21 1017 56 10000 1 10 21:56 11.08.2019
3829 Clear 21 1017 56 10000 1 10 21:38 11.08.2019
3830 Clear 21 1017 56 10000 2.6 20 21:19 11.08.2019
3831 Clear 21 1017 56 10000 2.6 20 21:19 11.08.2019
3832 Clear 22 1017 60 10000 2.1 80 20:44 11.08.2019
3833 Clear 23 1017 60 10000 2.1 80 20:23 11.08.2019
3834 Clear 23 1017 60 10000 2.1 130 19:56 11.08.2019
3835 Clear 24 1017 53 10000 3.6 120 19:37 11.08.2019
3836 Clear 26 1017 47 10000 3.6 120 19:18 11.08.2019
3837 Clear 27 1017 44 10000 4.1 130 18:40 11.08.2019
3838 Clear 28 1017 45 10000 5.1 130 18:20 11.08.2019
3839 Clear 29 1017 45 10000 5.1 130 17:54 11.08.2019
3840 Clear 29 1017 42 10000 5.7 130 17:36 11.08.2019
3841 Clear 30 1017 39 10000 6.2 130 17:18 11.08.2019
3842 Clear 30 1017 35 10000 6.2 130 16:41 11.08.2019
3843 Clear 30 1017 35 10000 6.2 130 16:22 11.08.2019
3844 Clear 30 1017 35 10000 6.2 130 15:59 11.08.2019
3845 Clear 30 1017 35 10000 5.7 130 15:41 11.08.2019
3846 Clear 30 1017 35 10000 5.7 130 15:22 11.08.2019
3847 Clear 31 1017 35 10000 5.7 130 14:55 11.08.2019
3848 Clear 31 1018 33 10000 5.7 140 14:37 11.08.2019
3849 Clear 30 1018 39 10000 5.7 130 14:19 11.08.2019
3850 Clear 30 1018 39 10000 5.7 130 14:19 11.08.2019
3851 Clear 30 1018 42 10000 6.2 130 13:43 11.08.2019
3852 Clear 30 1018 39 10000 5.7 130 13:23 11.08.2019
3853 Clear 30 1018 45 10000 5.7 130 12:44 11.08.2019
3854 Clear 30 1018 48 10000 5.1 140 12:22 11.08.2019
3855 Clear 30 1018 42 10000 4.6 130 11:41 11.08.2019
3856 Clear 30 1018 42 10000 4.1 130 11:23 11.08.2019
3857 Clear 30 1018 42 10000 4.1 130 10:57 11.08.2019
3858 Clouds 30 1018 37 10000 3.6 130 10:39 11.08.2019
3859 Clouds 29 1018 51 10000 2.1 140 10:21 11.08.2019
3860 Clouds 27 1018 94 10000 1 0 09:55 11.08.2019
3861 Clouds 27 1018 94 10000 1 0 09:37 11.08.2019
3862 Clouds 27 1018 94 7000 1 0 09:18 11.08.2019
3863 Fog 26 1018 100 3400 1.5 270 08:41 11.08.2019
3864 Fog 21 1017 94 2500 1 0 08:23 11.08.2019
3865 Fog 24 1017 100 4000 1 290 07:47 11.08.2019
3866 Fog 24 1017 94 9000 1.5 260 07:20 11.08.2019
3867 Fog 21 1017 100 5000 2.55 151.14 06:38 11.08.2019
3868 Fog 17 1016 93 300 0.5 280 05:33 11.08.2019
3869 Clear 18 1016 93 10000 1 0 02:54 11.08.2019
3870 Clear 18 1016 93 10000 1.5 320 02:26 11.08.2019
3871 Clouds 19 1017 100 10000 1.5 360 01:35 11.08.2019
3872 Clear 20 1017 94 10000 1.5 270 00:56 11.08.2019
3873 Clear 20 1017 94 10000 1.5 20 00:36 11.08.2019
3874 Clear 20 1017 94 10000 1.5 20 00:36 11.08.2019
3875 Clear 20 1017 94 10000 2.1 20 00:18 11.08.2019
3876 Clouds 20 1017 94 10000 2.1 30 23:39 10.08.2019
3877 Clouds 20 1017 94 10000 1.5 20 23:20 10.08.2019
3878 Clear 21 1017 94 10000 2.1 30 22:42 10.08.2019
3879 Clear 21 1017 94 10000 2.1 30 22:23 10.08.2019
3880 Clear 21 1017 94 10000 3.1 40 21:56 10.08.2019
3881 Clear 21 1017 94 10000 3.1 40 21:56 10.08.2019
3882 Clear 22 1017 88 10000 2.1 30 21:36 10.08.2019
3883 Clear 22 1017 88 10000 2.1 60 21:18 10.08.2019
3884 Clear 22 1017 88 10000 2.1 60 21:18 10.08.2019
3885 Clear 22 1017 88 10000 3.1 90 20:42 10.08.2019
3886 Clear 23 1016 83 10000 4.1 100 20:21 10.08.2019
3887 Clear 23 1016 83 10000 4.1 100 19:56 10.08.2019
3888 Clear 24 1016 78 10000 4.6 110 19:37 10.08.2019
3889 Clear 25 1016 65 10000 5.7 110 19:19 10.08.2019
3890 Clear 26 1016 69 10000 5.7 120 18:39 10.08.2019
3891 Clear 27 1016 69 10000 5.7 130 18:20 10.08.2019
3892 Clear 28 1015 69 10000 6.2 120 17:44 10.08.2019
3893 Clear 28 1015 69 10000 6.2 120 17:24 10.08.2019
3894 Clear 29 1015 74 10000 7.2 130 16:46 10.08.2019
3895 Clear 29 1015 74 10000 7.2 130 16:28 10.08.2019
3896 Clear 30 1015 65 10000 7.2 120 15:54 10.08.2019
3897 Clear 30 1015 65 10000 7.7 120 15:25 10.08.2019
3898 Clear 31 1015 69 10000 8.7 120 14:45 10.08.2019
3899 Clear 30 1015 69 10000 8.2 120 14:22 10.08.2019
3900 Clear 30 1015 66 10000 7.2 140 13:42 10.08.2019
3901 Clear 30 1015 62 10000 7.2 120 13:21 10.08.2019
3902 Clear 30 1015 62 10000 7.2 120 12:59 10.08.2019
3903 Clear 30 1015 62 10000 7.2 120 12:59 10.08.2019
3904 Clear 30 1015 58 10000 6.7 130 12:39 10.08.2019
3905 Clear 30 1015 58 10000 7.2 140 12:21 10.08.2019
3906 Clear 31 1015 58 10000 7.2 140 11:43 10.08.2019
3907 Clear 31 1015 45 10000 4.6 150 11:23 10.08.2019
3908 Clear 32 1015 45 10000 4.6 150 10:59 10.08.2019
3909 Clear 31 1015 43 10000 2.6 0 10:38 10.08.2019
3910 Clear 30 1015 45 10000 2.1 20 10:19 10.08.2019
3911 Clear 30 1015 48 10000 3.6 30 09:43 10.08.2019
3912 Clear 30 1015 48 10000 3.6 30 09:24 10.08.2019
3913 Clear 29 1015 48 10000 3.1 60 08:56 10.08.2019
3914 Clear 28 1015 61 10000 1 0 08:37 10.08.2019
3915 Clear 26 1014 73 10000 0.5 0 08:18 10.08.2019
3916 Clouds 25 1014 83 7000 1 0 07:46 10.08.2019
3917 Mist 23 1014 88 5000 0.5 0 07:22 10.08.2019
3918 Mist 22 1014 93 3800 0.5 0 06:46 10.08.2019
3919 Clear 19 1013 93 8000 3.1 280 05:52 10.08.2019
3920 Clear 19 1013 93 10000 1.5 280 05:20 10.08.2019
3921 Clear 18 1013 93 10000 2.1 280 03:54 10.08.2019
3922 Clear 19 1013 88 10000 2.1 20 02:48 10.08.2019
3923 Clear 19 1013 88 10000 1.5 10 01:56 10.08.2019
3924 Clear 19 1013 88 10000 1.5 10 01:36 10.08.2019
3925 Clear 19 1013 94 10000 2.1 10 01:18 10.08.2019
3926 Clear 19 1013 88 10000 2.1 20 00:41 10.08.2019
3927 Clear 20 1013 88 10000 2.1 10 00:19 10.08.2019
3928 Clear 20 1013 83 10000 1.5 30 23:39 09.08.2019
3929 Clear 20 1013 88 10000 1.5 30 23:20 09.08.2019
3930 Clear 20 1013 88 10000 1.5 30 22:55 09.08.2019
3931 Clear 21 1013 83 10000 2.1 20 22:37 09.08.2019
3932 Clear 21 1013 83 10000 1.5 20 22:18 09.08.2019
3933 Clear 22 1013 83 10000 1.5 90 21:40 09.08.2019
3934 Clear 22 1013 78 10000 1.5 120 21:21 09.08.2019
3935 Clear 23 1013 78 10000 1.5 120 20:57 09.08.2019
3936 Clear 23 1013 73 10000 2.1 130 20:39 09.08.2019
3937 Clear 23 1012 69 10000 2.6 120 20:18 09.08.2019
3938 Clear 24 1012 65 10000 3.1 120 19:43 09.08.2019
3939 Clear 25 1012 61 10000 3.6 130 19:22 09.08.2019
3940 Clear 26 1012 61 10000 3.6 130 18:56 09.08.2019
3941 Clear 26 1012 65 10000 4.6 120 18:38 09.08.2019
3942 Clear 26 1012 65 10000 4.6 120 18:38 09.08.2019
3943 Clear 27 1012 65 10000 4.6 110 18:19 09.08.2019
3944 Clear 27 1012 65 10000 4.6 110 18:19 09.08.2019
3945 Clear 28 1012 65 10000 4.1 110 17:42 09.08.2019
3946 Clear 28 1012 65 10000 4.1 110 17:24 09.08.2019
3947 -273 0 0 0 0 0 16:55 09.08.2019
3948 Clear 28 1012 57 10000 6.2 120 16:36 09.08.2019
3949 Clear 27 1012 57 10000 6.7 120 16:18 09.08.2019
3950 Clear 28 1012 58 10000 7.7 130 15:41 09.08.2019
3951 Clear 28 1012 61 10000 6.2 120 15:21 09.08.2019
3952 Clear 28 1012 61 10000 6.2 120 14:57 09.08.2019
3953 Clear 29 1012 58 10000 6.7 110 14:38 09.08.2019
3954 Clear 28 1012 58 10000 6.7 110 14:19 09.08.2019
3955 Clear 29 1012 58 10000 6.7 110 13:44 09.08.2019
3956 Clear 30 1012 51 10000 6.7 120 13:21 09.08.2019
3957 Clear 30 1012 45 10000 6.2 110 12:48 09.08.2019
3958 Clear 31 1012 45 10000 6.2 110 12:26 09.08.2019
3959 Clear 30 1012 51 10000 5.1 110 11:59 09.08.2019
3960 Clear 30 1012 58 10000 3.6 140 11:41 09.08.2019
3961 Clear 29 1013 51 10000 2.6 110 11:20 09.08.2019
3962 Clear 29 1013 51 10000 2.6 130 10:41 09.08.2019
3963 Clear 29 1013 51 10000 2.1 0 10:22 09.08.2019
3964 Clear 28 1013 51 10000 2.1 0 09:59 09.08.2019
3965 Clear 28 1013 65 10000 1.5 160 09:37 09.08.2019
3966 Clear 24 1013 73 10000 1.5 140 09:18 09.08.2019
3967 Clear 26 1013 78 10000 1.5 170 08:44 09.08.2019
3968 Clear 24 1013 83 10000 2.22 194.737 08:25 09.08.2019
3969 Clear 23 1013 83 10000 2.22 194.737 07:56 09.08.2019
3970 Clear 23 1013 83 10000 2.22 194.737 07:56 09.08.2019
3971 Clear 22 1013 88 10000 2.22 194.737 07:24 09.08.2019
3972 Clear 22 1013 94 10000 2.22 194.737 06:59 09.08.2019
3973 Clear 20 1013 93 10000 2.22 194.737 06:38 09.08.2019
3974 Fog 20 1013 93 7000 1 0 06:20 09.08.2019
3975 Clear 18 1013 100 10000 0.5 10 04:57 09.08.2019
3976 Clear 19 1013 93 10000 1.5 350 02:26 09.08.2019
3977 Clear 19 1013 93 10000 1.5 20 01:21 09.08.2019
3978 Clear 19 1013 93 10000 2.1 10 00:41 09.08.2019
3979 Clear 19 1013 93 10000 2.1 10 00:22 09.08.2019
3980 Clear 20 1013 93 10000 2.1 10 23:55 08.08.2019
3981 Clear 20 1013 93 10000 1.5 20 23:36 08.08.2019
3982 Clear 20 1013 88 10000 1 30 23:18 08.08.2019
3983 Clear 21 1014 83 10000 1 50 22:37 08.08.2019
3984 Clear 21 1014 83 10000 0.5 0 22:19 08.08.2019
3985 Clear 21 1014 83 10000 0.5 0 21:59 08.08.2019
3986 Clear 21 1014 83 10000 0.5 0 21:59 08.08.2019
3987 Clear 21 1014 83 10000 1 160 21:41 08.08.2019
3988 Clear 22 1013 78 10000 2.1 130 21:22 08.08.2019
3989 Clear 22 1013 78 10000 2.1 130 20:56 08.08.2019
3990 Clear 22 1013 78 10000 2.6 130 20:38 08.08.2019
3991 Clear 22 1013 73 10000 3.1 130 20:19 08.08.2019
3992 Clear 23 1013 69 10000 4.1 120 19:43 08.08.2019
3993 Clear 24 1013 69 10000 5.1 120 19:22 08.08.2019
3994 Clear 25 1013 69 10000 5.1 120 18:44 08.08.2019
3995 Clear 26 1013 65 10000 5.7 120 18:24 08.08.2019
3996 Clear 26 1013 65 10000 5.7 120 17:58 08.08.2019
3997 Clear 26 1013 65 10000 5.7 120 17:58 08.08.2019
3998 Clear 26 1013 61 10000 7.2 120 17:40 08.08.2019
3999 Clear 27 1013 61 10000 7.2 120 17:21 08.08.2019
4000 Clear 27 1013 57 10000 6.7 130 16:55 08.08.2019
4001 Clear 28 1013 57 10000 6.7 130 16:37 08.08.2019
4002 Clear 27 1013 57 10000 7.2 130 16:18 08.08.2019
4003 Clear 28 1013 54 10000 7.7 120 15:41 08.08.2019
4004 Clear 28 1013 54 10000 6.7 120 15:23 08.08.2019
4005 Clear 28 1013 54 10000 6.7 120 14:55 08.08.2019
4006 Clear 28 1013 54 10000 7.2 110 14:36 08.08.2019
4007 Clear 28 1014 51 10000 7.2 110 14:18 08.08.2019
4008 Clear 28 1014 54 10000 6.2 110 13:39 08.08.2019
4009 Clear 28 1014 57 10000 7.2 100 13:20 08.08.2019
4010 Clear 28 1014 54 10000 6.7 120 12:40 08.08.2019
4011 Clear 28 1014 51 10000 6.2 110 12:21 08.08.2019
4012 Clear 28 1014 51 10000 6.2 110 11:58 08.08.2019
4013 Clear 28 1014 48 10000 5.7 110 11:39 08.08.2019
4014 Clear 28 1014 51 10000 5.1 120 11:20 08.08.2019
4015 Clear 28 1015 57 10000 3.6 130 10:41 08.08.2019
4016 Clear 28 1015 57 10000 3.6 130 10:41 08.08.2019
4017 Clear 28 1015 57 10000 3.6 130 10:41 08.08.2019
4018 Clear 27 1015 54 10000 2.6 160 10:21 08.08.2019
4019 Clear 26 1015 69 10000 1.5 0 09:49 08.08.2019
4020 Clear 26 1015 69 10000 1.5 0 09:30 08.08.2019
4021 Clear 25 1015 69 10000 1.5 0 08:57 08.08.2019
4022 Clear 25 1015 73 10000 1 0 08:37 08.08.2019
4023 Clear 23 1015 83 10000 1 0 08:18 08.08.2019
4024 Clear 22 1015 88 10000 4.66 172.222 07:40 08.08.2019
4025 Clear 22 1015 88 10000 4.66 172.222 07:19 08.08.2019
4026 Clear 20 1015 93 10000 1 0 06:47 08.08.2019
4027 Clear 17 1015 93 10000 1.5 320 06:23 08.08.2019
4028 Clear 17 1014 93 10000 1 0 05:51 08.08.2019
4029 Clear 18 1015 93 10000 2.1 30 04:48 08.08.2019
4030 Clear 18 1015 88 10000 1.5 40 03:51 08.08.2019
4031 Clear 18 1015 93 10000 1.5 360 01:59 08.08.2019
4032 Clear 19 1016 88 10000 1.5 40 01:33 08.08.2019
4033 Clear 19 1016 88 10000 1 0 00:25 08.08.2019
4034 Clear 20 1016 83 10000 1 120 23:46 07.08.2019
4035 Clear 20 1016 83 10000 2.1 120 23:19 07.08.2019
4036 Clear 20 1016 83 10000 2.1 120 22:55 07.08.2019
4037 Clear 21 1016 78 10000 2.1 130 22:36 07.08.2019
4038 Clear 21 1016 78 10000 2.1 130 22:18 07.08.2019
4039 Clear 21 1016 78 10000 2.1 130 21:54 07.08.2019
4040 Clear 21 1016 78 10000 2.1 130 21:36 07.08.2019
4041 Clear 22 1016 73 10000 2.6 130 21:18 07.08.2019
4042 Clear 22 1016 69 10000 2.6 130 20:41 07.08.2019
4043 Clear 22 1016 69 10000 2.6 130 20:41 07.08.2019
4044 Clear 22 1016 69 10000 3.1 130 20:23 07.08.2019
4045 Clear 23 1016 69 10000 3.1 130 19:56 07.08.2019
4046 Clear 23 1016 64 10000 4.1 130 19:38 07.08.2019
4047 Clear 24 1016 61 10000 4.6 130 19:19 07.08.2019
4048 Clear 25 1016 57 10000 5.1 130 18:41 07.08.2019
4049 Clear 26 1016 57 10000 5.7 120 18:20 07.08.2019
4050 Clear 26 1016 57 10000 5.7 120 17:57 07.08.2019
4051 Clear 27 1016 54 10000 6.7 120 17:38 07.08.2019
4052 Clear 27 1016 54 10000 6.7 120 17:19 07.08.2019
4053 Clear 27 1016 54 10000 6.7 120 16:57 07.08.2019
4054 Clear 27 1016 54 10000 6.2 120 16:38 07.08.2019
4055 Clear 27 1016 54 10000 6.7 120 16:19 07.08.2019
4056 Clear 28 1016 39 10000 6.7 110 15:43 07.08.2019
4057 Clear 28 1016 45 10000 7.7 120 15:23 07.08.2019
4058 Clear 28 1016 45 10000 7.7 120 14:57 07.08.2019
4059 Clear 28 1016 48 10000 7.7 120 14:39 07.08.2019
4060 Clear 28 1016 51 10000 8.2 110 14:21 07.08.2019
4061 Clear 28 1017 51 10000 8.2 100 13:41 07.08.2019
4062 Clear 28 1017 51 10000 7.2 110 13:19 07.08.2019
4063 Clear 28 1017 51 10000 7.2 110 12:58 07.08.2019
4064 Clear 29 1017 45 10000 6.7 100 12:39 07.08.2019
4065 Clear 29 1017 37 10000 6.2 100 12:20 07.08.2019
4066 Clear 29 1017 37 10000 6.2 100 11:58 07.08.2019
4067 Clear 29 1017 42 10000 4.6 110 11:40 07.08.2019
4068 Clear 28 1017 39 10000 3.1 130 11:18 07.08.2019
4069 Clear 28 1017 37 10000 2.6 140 10:41 07.08.2019
4070 Clear 27 1017 39 10000 2.1 140 10:20 07.08.2019
4071 Clear 27 1017 39 10000 2.1 140 09:59 07.08.2019
4072 Clear 27 1017 44 10000 1.5 150 09:39 07.08.2019
4073 Clear 26 1017 47 10000 1.5 120 09:18 07.08.2019
4074 Clear 25 1017 60 10000 0.5 0 08:45 07.08.2019
4075 Clear 23 1017 68 10000 3.99 199.367 08:25 07.08.2019
4076 Clear 22 1016 82 10000 1.5 290 07:51 07.08.2019
4077 Clear 22 1016 82 10000 1.5 290 07:30 07.08.2019
4078 Clear 19 1016 93 10000 0.5 0 06:47 07.08.2019
4079 Clear 18 1016 93 10000 2.54 204.748 06:22 07.08.2019
4080 Clear 16 1016 93 10000 0.5 0 05:42 07.08.2019
4081 Clear 15 1016 93 10000 1.5 340 04:37 07.08.2019
4082 Clear 16 1016 88 10000 1.5 310 02:55 07.08.2019
4083 Clear 17 1016 82 10000 1.5 30 02:36 07.08.2019
4084 Clear 18 1016 82 10000 1 10 01:50 07.08.2019
4085 Clear 18 1016 82 10000 2.6 30 00:54 07.08.2019
4086 Clear 19 1016 77 10000 2.1 60 00:24 07.08.2019
4087 Clear 19 1016 82 10000 2.1 50 23:57 06.08.2019
4088 Clear 19 1016 82 10000 1.5 70 23:36 06.08.2019
4089 Clear 19 1016 82 10000 1.5 60 23:18 06.08.2019
4090 Clear 20 1016 77 10000 1.5 80 22:40 06.08.2019
4091 Clear 21 1016 68 10000 1.5 110 22:21 06.08.2019
4092 Clear 21 1016 68 10000 1.5 110 21:56 06.08.2019
4093 Clear 21 1016 69 10000 1.5 130 21:38 06.08.2019
4094 Clear 22 1016 69 10000 3.1 150 21:18 06.08.2019
4095 Clouds 22 1016 64 10000 3.1 130 20:42 06.08.2019
4096 Clouds 22 1015 60 10000 3.6 130 20:23 06.08.2019
4097 Clouds 23 1015 57 10000 3.6 120 19:48 06.08.2019
4098 Clouds 23 1015 57 10000 3.6 120 19:29 06.08.2019
4099 Clouds 25 1015 44 10000 4.1 140 18:57 06.08.2019
4100 Clear 27 1015 42 10000 3.1 150 18:38 06.08.2019
4101 Clouds 26 1015 44 10000 3.1 150 18:19 06.08.2019
4102 Clouds 26 1015 44 10000 3.1 150 17:56 06.08.2019
4103 Clouds 26 1015 44 10000 3.1 150 17:56 06.08.2019
4104 Clouds 27 1015 39 10000 4.6 140 17:37 06.08.2019
4105 -273 0 0 0 0 0 17:18 06.08.2019
4106 Clouds 29 1015 39 10000 5.1 110 16:43 06.08.2019
4107 Clouds 28 1015 39 10000 5.1 110 16:24 06.08.2019
4108 Clouds 27 1015 42 10000 5.1 110 15:58 06.08.2019
4109 Clouds 28 1015 42 10000 5.1 110 15:39 06.08.2019
4110 Clouds 28 1015 42 10000 5.7 100 15:21 06.08.2019
4111 Clouds 29 1015 39 10000 5.7 110 14:46 06.08.2019
4112 Clear 29 1016 37 10000 5.7 110 14:27 06.08.2019
4113 Clear 29 1016 37 10000 5.7 110 13:59 06.08.2019
4114 Clouds 29 1016 37 10000 6.7 100 13:41 06.08.2019
4115 Clouds 28 1016 37 10000 6.2 100 13:23 06.08.2019
4116 Clouds 29 1016 37 10000 6.2 100 12:59 06.08.2019
4117 Clouds 29 1016 39 10000 7.2 100 12:39 06.08.2019
4118 Clouds 29 1016 32 10000 3.1 0 12:21 06.08.2019
4119 Clouds 27 1016 35 10000 3.1 0 11:43 06.08.2019
4120 Clear 29 1016 37 10000 3.1 220 11:20 06.08.2019
4121 Clear 28 1016 42 10000 3.1 230 10:56 06.08.2019
4122 Clear 28 1016 42 10000 3.1 230 10:56 06.08.2019
4123 Clear 28 1016 42 10000 3.1 230 10:38 06.08.2019
4124 Clear 27 1016 50 10000 2.1 0 10:19 06.08.2019
4125 Clear 26 1016 57 10000 1.5 0 09:41 06.08.2019
4126 Clear 25 1016 60 10000 2.1 250 09:20 06.08.2019
4127 Clear 24 1016 68 10000 1.5 270 08:49 06.08.2019
4128 Clear 24 1016 68 10000 1.5 270 08:27 06.08.2019
4129 Clear 22 1016 72 10000 1 0 07:56 06.08.2019
4130 Clear 21 1016 82 10000 1.47 249.8 07:23 06.08.2019
4131 Clear 19 1016 87 9000 1 0 06:43 06.08.2019
4132 Clear 17 1015 93 8000 0.5 0 06:19 06.08.2019
4133 Clear 15 1015 87 10000 1.03 245.51 04:36 06.08.2019
4134 Clear 16 1015 82 10000 1.5 290 01:59 06.08.2019
4135 Clear 16 1015 82 10000 2.1 340 01:24 06.08.2019
4136 Clear 17 1015 82 10000 1.5 10 00:39 06.08.2019
4137 Clear 17 1015 82 10000 2.1 10 23:51 05.08.2019
4138 Clear 17 1015 77 10000 2.1 30 23:19 05.08.2019
4139 Clear 17 1015 82 10000 2.1 20 22:42 05.08.2019
4140 Clear 17 1015 82 10000 2.1 20 22:23 05.08.2019
4141 Clear 18 1015 72 10000 1.5 20 21:56 05.08.2019
4142 Clear 19 1015 72 10000 1.5 20 21:37 05.08.2019
4143 Clear 19 1015 68 10000 1.5 60 21:19 05.08.2019
4144 Clear 19 1015 68 10000 1.5 60 20:56 05.08.2019
4145 Clear 19 1014 64 10000 2.6 120 20:37 05.08.2019
4146 Clear 21 1014 60 10000 2.6 130 20:18 05.08.2019
4147 Clear 22 1014 56 10000 3.6 110 19:43 05.08.2019
4148 Clear 23 1014 56 10000 3.6 110 19:24 05.08.2019
4149 Clear 24 1014 53 10000 4.6 110 18:57 05.08.2019
4150 Clear 24 1013 53 10000 5.1 120 18:39 05.08.2019
4151 Clouds 27 1013 50 10000 5.7 120 18:19 05.08.2019
4152 Clouds 26 1013 53 10000 5.7 120 17:42 05.08.2019
4153 Clouds 27 1013 53 10000 5.7 120 17:24 05.08.2019
4154 Clouds 27 1013 47 10000 6.7 120 16:46 05.08.2019
4155 Clouds 25 1013 47 10000 6.7 120 16:25 05.08.2019
4156 -273 0 0 0 0 0 15:56 05.08.2019
4157 Clouds 27 1013 42 10000 3.1 80 15:36 05.08.2019
4158 Clouds 27 1013 26 10000 2.6 0 15:18 05.08.2019
4159 Clouds 27 1013 30 10000 3.1 110 14:38 05.08.2019
4160 Clouds 27 1013 32 10000 4.1 320 14:19 05.08.2019
4161 Clouds 27 1013 28 10000 4.1 340 13:43 05.08.2019
4162 Clouds 27 1013 32 10000 5.7 320 13:22 05.08.2019
4163 Clouds 27 1014 32 10000 5.7 310 12:46 05.08.2019
4164 Clouds 26 1014 39 10000 4.1 330 12:20 05.08.2019
4165 Clouds 26 1014 38 10000 3.1 280 11:47 05.08.2019
4166 Clouds 26 1014 38 10000 3.1 280 11:27 05.08.2019
4167 Clouds 26 1014 38 10000 3.6 210 10:58 05.08.2019
4168 Clear 26 1014 53 10000 3.1 220 10:40 05.08.2019
4169 Clear 24 1015 56 10000 4.1 230 10:21 05.08.2019
4170 Clear 23 1015 60 10000 3.1 240 09:41 05.08.2019
4171 Clear 23 1015 64 10000 2.6 240 09:21 05.08.2019
4172 Clear 22 1015 68 10000 2.6 260 08:49 05.08.2019
4173 Clear 22 1015 68 10000 2.6 260 08:25 05.08.2019
4174 Clouds 20 1015 82 7000 1.5 270 07:54 05.08.2019
4175 Clouds 19 1015 87 7000 2.6 250 07:31 05.08.2019
4176 Clouds 18 1014 82 7000 2.6 250 06:59 05.08.2019
4177 Clouds 16 1014 93 8000 2.56 296.575 06:29 05.08.2019
4178 Clear 13 1014 87 10000 2.1 300 05:41 05.08.2019
4179 Clear 14 1014 87 10000 1.5 220 04:56 05.08.2019
4180 Clear 13 1014 93 10000 2.6 320 03:56 05.08.2019
4181 Clear 13 1013 93 10000 2.6 300 03:20 05.08.2019
4182 Clear 13 1013 87 10000 1 0 02:26 05.08.2019
4183 Clear 13 1013 87 10000 2.1 250 01:32 05.08.2019
4184 Clear 15 1013 77 10000 0.5 0 00:41 05.08.2019
4185 Clear 15 1013 77 10000 0.5 0 00:21 05.08.2019
4186 Clear 16 1013 77 10000 1.5 280 23:44 04.08.2019
4187 Clear 15 1013 77 10000 1.5 280 23:24 04.08.2019
4188 Clear 16 1013 72 10000 1 0 22:58 04.08.2019
4189 Clear 18 1013 72 10000 2.1 350 22:39 04.08.2019
4190 Clear 17 1012 77 10000 2.6 320 22:20 04.08.2019
4191 Clear 17 1012 77 10000 2.6 320 21:59 04.08.2019
4192 Clear 19 1012 68 10000 2.6 240 21:41 04.08.2019
4193 Clear 18 1012 64 10000 2.1 330 21:20 04.08.2019
4194 Clear 19 1012 56 10000 2.1 350 20:43 04.08.2019
4195 Clouds 20 1011 53 10000 2.6 330 20:19 04.08.2019
4196 Clouds 20 1011 53 10000 2.6 330 19:55 04.08.2019
4197 Clouds 23 1011 49 10000 2.6 320 19:36 04.08.2019
4198 Clouds 23 1011 46 10000 2.6 340 19:18 04.08.2019
4199 Clouds 24 1011 44 10000 3.1 310 18:41 04.08.2019
4200 Clouds 23 1011 53 10000 3.6 340 18:20 04.08.2019
4201 Clouds 23 1010 49 10000 5.1 330 17:44 04.08.2019
4202 Clouds 23 1010 49 10000 5.1 330 17:24 04.08.2019
4203 Clouds 24 1010 44 10000 8.2 340 16:46 04.08.2019
4204 Clouds 24 1010 44 10000 8.2 340 16:28 04.08.2019
4205 Clouds 25 1010 41 10000 6.7 330 15:56 04.08.2019
4206 Clouds 26 1010 41 10000 5.1 330 15:37 04.08.2019
4207 Clouds 26 1010 41 10000 5.7 310 15:19 04.08.2019
4208 Clouds 26 1009 41 10000 6.7 320 14:42 04.08.2019
4209 Clouds 26 1009 41 10000 6.7 320 14:22 04.08.2019
4210 Clouds 26 1009 39 10000 7.7 310 13:46 04.08.2019
4211 Clouds 26 1009 39 10000 7.7 310 13:27 04.08.2019
4212 Clouds 25 1009 39 10000 6.2 320 12:57 04.08.2019
4213 Clouds 25 1009 41 10000 7.2 310 12:39 04.08.2019
4214 Clouds 25 1009 47 10000 6.7 340 12:21 04.08.2019
4215 Clouds 24 1009 53 10000 6.2 330 11:46 04.08.2019
4216 Clouds 24 1009 50 10000 5.7 330 11:23 04.08.2019
4217 Clouds 23 1009 56 10000 7.2 310 10:48 04.08.2019
4218 Clouds 22 1009 60 10000 5.1 330 10:22 04.08.2019
4219 Clouds 22 1009 64 10000 7.2 330 09:46 04.08.2019
4220 Clouds 21 1009 64 10000 7.2 330 09:26 04.08.2019
4221 Clouds 21 1008 64 10000 10.3 340 08:58 04.08.2019
4222 Clouds 20 1008 68 10000 6.2 340 08:34 04.08.2019
4223 Clouds 19 1008 72 10000 5.7 330 07:55 04.08.2019
4224 Clouds 18 1008 77 10000 4.1 300 07:28 04.08.2019
4225 Clouds 17 1007 77 10000 5.1 270 06:40 04.08.2019
4226 Clouds 17 1007 82 10000 5.1 300 06:18 04.08.2019
4227 Clouds 17 1005 82 10000 6.7 300 03:36 04.08.2019
4228 Clouds 18 1004 83 10000 8.2 300 01:52 04.08.2019
4229 Clouds 19 1004 83 10000 8.2 300 01:32 04.08.2019
4230 Clear 19 1004 82 10000 6.2 280 00:41 04.08.2019
4231 Clear 19 1004 77 10000 6.7 280 00:23 04.08.2019
4232 Clear 20 1003 82 10000 4.1 280 23:42 03.08.2019
4233 Clear 20 1004 88 10000 3.1 280 23:19 03.08.2019
4234 Clear 20 1004 88 10000 3.1 280 22:57 03.08.2019
4235 Clear 20 1004 82 10000 4.1 270 22:38 03.08.2019
4236 Clear 20 1004 82 10000 3.6 290 22:19 03.08.2019
4237 Clouds 20 1004 77 10000 4.6 280 21:39 03.08.2019
4238 Clouds 21 1004 73 10000 5.1 270 21:20 03.08.2019
4239 Clouds 21 1004 73 10000 6.7 280 20:43 03.08.2019
4240 Clouds 21 1004 73 10000 6.7 280 20:24 03.08.2019
4241 Clouds 22 1003 78 10000 8.7 280 19:43 03.08.2019
4242 Clouds 22 1003 78 10000 8.7 280 19:43 03.08.2019
4243 Clouds 22 1003 78 10000 8.7 280 19:25 03.08.2019
4244 Clouds 22 1003 78 10000 8.2 260 19:25 03.08.2019
4245 Clouds 22 1003 78 10000 8.2 260 18:56 03.08.2019
4246 Clouds 22 1002 78 10000 4.6 270 18:28 03.08.2019
4247 Thunderstorm 21 1003 77 6000 8.2 250 17:51 03.08.2019
4248 Thunderstorm 22 1003 77 6000 8.2 250 17:23 03.08.2019
4249 Thunderstorm 26 1004 66 450 17.5 270 16:58 03.08.2019
4250 Clouds 27 1002 66 10000 5.1 80 16:38 03.08.2019
4251 Clouds 29 1002 62 10000 4.6 120 16:19 03.08.2019
4252 Clouds 30 1002 58 10000 6.2 110 15:45 03.08.2019
4253 Clouds 30 1002 58 10000 6.2 110 15:24 03.08.2019
4254 Clouds 31 1002 52 10000 7.2 130 14:43 03.08.2019
4255 Clouds 32 1002 52 10000 6.7 120 14:22 03.08.2019
4256 Clouds 32 1003 46 10000 6.2 140 13:53 03.08.2019
4257 Clouds 32 1003 46 10000 6.2 140 13:25 03.08.2019
4258 Clouds 32 1003 46 10000 6.2 130 12:59 03.08.2019
4259 Clouds 32 1004 55 10000 6.2 110 12:40 03.08.2019
4260 Clouds 31 1004 51 10000 6.2 90 12:21 03.08.2019
4261 Clouds 30 1005 55 10000 5.7 110 11:49 03.08.2019
4262 Clouds 31 1005 55 10000 5.7 110 11:28 03.08.2019
4263 Clear 31 1005 51 10000 2.6 190 10:42 03.08.2019
4264 Clear 31 1005 51 10000 2.6 190 10:24 03.08.2019
4265 Clear 30 1006 58 10000 1.5 0 09:44 03.08.2019
4266 Clear 27 1006 61 10000 2.1 300 09:23 03.08.2019
4267 Clear 28 1006 61 10000 2.1 300 08:54 03.08.2019
4268 Clear 26 1007 65 10000 1 0 07:56 03.08.2019
4269 Clear 26 1007 69 10000 0.5 0 07:36 03.08.2019
4270 Clear 21 1007 83 10000 1.5 340 06:39 03.08.2019
4271 Clear 22 1007 83 10000 2.1 40 04:52 03.08.2019
4272 Clear 21 1009 88 10000 0.5 0 02:39 03.08.2019
4273 Clear 21 1009 88 10000 1.5 80 01:50 03.08.2019
4274 Clear 21 1009 88 10000 1 110 00:49 03.08.2019
4275 Clear 22 1009 83 10000 2.1 110 23:59 02.08.2019
4276 Clear 22 1009 83 10000 1.5 100 23:40 02.08.2019
4277 Clear 22 1010 78 10000 1.5 140 23:19 02.08.2019
4278 Clear 22 1010 78 10000 1.5 140 22:57 02.08.2019
4279 Clouds 22 1010 78 10000 1.5 140 22:38 02.08.2019
4280 Clouds 22 1010 78 10000 1.5 140 22:38 02.08.2019
4281 Clear 22 1009 83 10000 2.1 120 22:18 02.08.2019
4282 Clouds 23 1009 78 10000 2.6 120 21:43 02.08.2019
4283 Clouds 23 1009 78 10000 2.6 120 21:23 02.08.2019
4284 Clear 23 1010 78 10000 2.6 120 20:55 02.08.2019
4285 Clear 23 1009 78 10000 3.6 120 20:37 02.08.2019
4286 Clear 24 1009 73 10000 3.1 120 20:19 02.08.2019
4287 Clouds 25 1009 73 10000 3.6 120 19:42 02.08.2019
4288 Rain 25 1009 69 10000 4.1 120 19:24 02.08.2019
4289 Rain 26 1010 69 10000 4.6 100 18:44 02.08.2019
4290 Clouds 27 1010 54 10000 3.1 140 18:24 02.08.2019
4291 Clouds 28 1010 54 10000 3.6 150 17:44 02.08.2019
4292 Clouds 28 1010 54 10000 4.1 150 17:24 02.08.2019
4293 Clouds 28 1010 54 10000 4.1 150 16:56 02.08.2019
4294 Clouds 30 1010 51 10000 5.1 130 16:37 02.08.2019
4295 Clouds 29 1010 51 10000 4.1 120 16:18 02.08.2019
4296 Clouds 28 1010 54 10000 5.7 100 15:39 02.08.2019
4297 Clouds 30 1010 45 10000 4.1 130 15:19 02.08.2019
4298 Clouds 30 1010 48 10000 5.1 120 14:45 02.08.2019
4299 Clouds 30 1010 48 10000 5.1 120 14:45 02.08.2019
4300 Clouds 29 1010 48 10000 3.6 0 14:18 02.08.2019
4301 Clouds 29 1011 48 10000 3.1 0 13:47 02.08.2019
4302 Clouds 30 1011 48 10000 3.1 0 13:23 02.08.2019
4303 Clouds 29 1011 48 10000 3.1 320 12:44 02.08.2019
4304 Clouds 29 1011 45 10000 2.6 0 12:21 02.08.2019
4305 Clouds 29 1011 51 10000 3.1 0 11:48 02.08.2019
4306 Clouds 29 1011 51 10000 3.1 0 11:26 02.08.2019
4307 Clouds 29 1012 51 10000 4.1 340 10:55 02.08.2019
4308 Clouds 29 1012 51 10000 4.1 340 10:55 02.08.2019
4309 Clouds 28 1012 54 10000 2.1 0 10:37 02.08.2019
4310 Clouds 28 1012 54 10000 3.1 250 10:19 02.08.2019
4311 Clouds 27 1012 61 10000 2.6 230 09:48 02.08.2019
4312 Clouds 27 1012 61 10000 2.6 230 09:24 02.08.2019
4313 Clear 25 1012 65 10000 3.1 250 08:46 02.08.2019
4314 Clear 23 1012 73 10000 2.6 270 08:21 02.08.2019
4315 Clear 22 1012 73 10000 1.5 320 07:48 02.08.2019
4316 Clear 22 1012 73 10000 1.5 320 07:29 02.08.2019
4317 Clear 21 1012 88 10000 1 0 06:44 02.08.2019
4318 Clouds 20 1012 83 10000 0.5 0 05:50 02.08.2019
4319 Clouds 19 1011 83 10000 1.5 270 03:55 02.08.2019
4320 Clouds 20 1011 83 10000 0.5 0 03:25 02.08.2019
4321 Clouds 21 1011 78 10000 1 0 01:44 02.08.2019
4322 Clouds 22 1012 78 10000 0.5 0 00:35 02.08.2019
4323 Clear 23 1011 73 10000 1.5 0 23:46 01.08.2019
4324 Clear 22 1011 73 10000 2.1 330 23:27 01.08.2019
4325 Clear 22 1011 73 10000 1 0 22:46 01.08.2019
4326 Clear 22 1011 73 10000 1 0 22:26 01.08.2019
4327 Clouds 22 1011 73 10000 1 0 22:00 01.08.2019
4328 Clear 23 1011 73 10000 2.1 50 21:41 01.08.2019
4329 Clear 23 1011 73 10000 2.1 50 21:23 01.08.2019
4330 Clear 24 1011 78 10000 1.5 80 20:47 01.08.2019
4331 Clear 26 1011 69 10000 1.5 140 20:23 01.08.2019
4332 Clear 26 1011 69 10000 1.5 140 19:59 01.08.2019
4333 Clear 26 1011 69 10000 1.5 140 19:59 01.08.2019
4334 Clouds 26 1011 65 10000 2.1 150 19:38 01.08.2019
4335 Clouds 27 1010 54 10000 2.1 130 19:19 01.08.2019
4336 Clouds 28 1010 54 10000 2.1 160 18:43 01.08.2019
4337 Clouds 28 1010 54 10000 2.1 160 18:24 01.08.2019
4338 Clouds 28 1010 65 10000 3.6 150 17:50 01.08.2019
4339 Clouds 28 1010 65 10000 3.6 150 17:31 01.08.2019
4340 Clouds 28 1010 61 10000 3.1 140 16:45 01.08.2019
4341 Clouds 28 1010 61 10000 3.1 140 16:23 01.08.2019
4342 Clouds 29 1010 48 10000 2.6 10 15:56 01.08.2019
4343 Clouds 29 1010 48 10000 2.6 10 15:38 01.08.2019
4344 Clouds 28 1010 48 10000 2.1 0 15:18 01.08.2019
4345 Clouds 28 1010 51 10000 2.6 0 14:42 01.08.2019
4346 Clouds 27 1011 51 10000 4.1 30 14:19 01.08.2019
4347 Clouds 27 1011 51 10000 4.1 30 13:57 01.08.2019
4348 Clouds 28 1011 51 10000 2.1 0 13:39 01.08.2019
4349 Clouds 26 1011 51 10000 1.5 0 13:20 01.08.2019
4350 Clouds 25 1011 57 10000 2.1 0 12:43 01.08.2019
4351 Clouds 25 1011 57 10000 2.1 0 12:25 01.08.2019
4352 Rain 24 1011 69 10000 4.6 10 11:43 01.08.2019
4353 Rain 24 1011 69 10000 4.6 10 11:24 01.08.2019
4354 Rain 23 1011 73 10000 6.2 360 10:54 01.08.2019
4355 Rain 24 1011 61 10000 6.7 10 10:36 01.08.2019
4356 Rain 24 1011 61 10000 6.7 10 10:36 01.08.2019
4357 Clouds 25 1011 61 10000 6.7 350 10:18 01.08.2019
4358 Clouds 25 1011 61 10000 5.1 330 09:41 01.08.2019
4359 Clouds 25 1011 57 10000 2.6 340 09:23 01.08.2019
4360 Clouds 25 1011 57 10000 2.6 340 09:23 01.08.2019
4361 Clear 24 1010 57 10000 1.5 0 08:46 01.08.2019
4362 Clear 22 1010 65 10000 1.5 280 08:20 01.08.2019
4363 Clear 22 1010 73 10000 2.1 250 07:50 01.08.2019
4364 Clear 22 1010 73 10000 2.1 250 07:26 01.08.2019
4365 Clear 22 1010 83 10000 1 0 06:49 01.08.2019
4366 Clear 22 1010 83 10000 1 0 06:27 01.08.2019
4367 Clear 21 1009 77 10000 1.5 260 04:24 01.08.2019
4368 Clear 21 1009 73 10000 0.5 0 02:35 01.08.2019
4369 Clear 22 1009 73 10000 1.5 310 00:46 01.08.2019
4370 Clear 22 1009 73 10000 1.5 310 00:25 01.08.2019
4371 Clear 23 1009 60 10000 1.5 360 23:43 31.07.2019
4372 Clear 23 1009 60 10000 1.5 360 23:43 31.07.2019
4373 Clear 23 1009 60 10000 2.48 169.918 23:21 31.07.2019
4374 Clear 23 1009 60 10000 2.48 169.918 22:58 31.07.2019
4375 Clear 23 1009 60 10000 1.5 40 22:39 31.07.2019
4376 Clear 24 1009 60 10000 2.1 30 22:21 31.07.2019
4377 Clear 24 1009 57 10000 2.6 30 21:38 31.07.2019
4378 Clear 25 1009 54 10000 2.1 40 21:19 31.07.2019
4379 Clear 25 1008 54 10000 2.6 60 20:43 31.07.2019
4380 Clouds 26 1008 51 10000 2.1 90 20:22 31.07.2019
4381 Clouds 28 1008 51 10000 1.5 120 19:43 31.07.2019
4382 Clouds 28 1008 51 10000 1.5 120 19:24 31.07.2019
4383 Clear 30 1008 48 10000 4.6 100 18:53 31.07.2019
4384 Clear 29 1008 48 10000 4.6 100 18:28 31.07.2019
4385 Clear 29 1007 45 10000 5.1 100 17:59 31.07.2019
4386 Clear 29 1007 45 10000 6.2 90 17:40 31.07.2019
4387 Clear 30 1007 43 10000 5.1 100 17:19 31.07.2019
4388 Clear 31 1007 46 10000 6.7 90 16:46 31.07.2019
4389 Clear 31 1007 41 10000 5.7 110 16:20 31.07.2019
4390 Clouds 32 1007 40 10000 3.6 120 15:45 31.07.2019
4391 Clouds 32 1007 40 10000 3.6 120 15:26 31.07.2019
4392 Clouds 32 1007 40 10000 3.6 120 15:26 31.07.2019
4393 Clouds 33 1008 40 10000 3.6 130 14:54 31.07.2019
4394 Clouds 32 1008 40 10000 3.6 130 14:36 31.07.2019
4395 Clouds 34 1008 38 10000 3.1 90 14:18 31.07.2019
4396 Clouds 33 1008 40 10000 4.1 110 13:42 31.07.2019
4397 Clouds 34 1008 40 10000 4.1 110 13:23 31.07.2019
4398 Clouds 33 1008 43 10000 2.1 0 12:45 31.07.2019
4399 Clouds 32 1008 43 10000 2.1 0 12:27 31.07.2019
4400 Clouds 33 1008 40 10000 3.6 310 11:59 31.07.2019
4401 Clouds 33 1008 38 10000 4.1 320 11:38 31.07.2019
4402 Clear 32 1008 43 10000 3.6 0 11:19 31.07.2019
4403 Clear 31 1008 51 10000 2.1 0 10:41 31.07.2019
4404 Clear 31 1008 54 10000 3.1 230 10:20 31.07.2019
4405 Clear 29 1008 58 10000 3.6 250 09:44 31.07.2019
4406 Clear 30 1008 58 10000 3.6 250 09:24 31.07.2019
4407 Clear 28 1008 65 10000 3.6 240 08:57 31.07.2019
4408 Clear 27 1008 69 10000 2.6 260 08:39 31.07.2019
4409 Clear 26 1008 73 10000 2.6 260 08:20 31.07.2019
4410 Clear 25 1008 83 9000 2.1 270 07:35 31.07.2019
4411 Clear 22 1007 88 7000 1.5 280 06:32 31.07.2019
4412 Clear 19 1007 88 7000 0.5 0 04:50 31.07.2019
4413 Clear 20 1007 83 10000 1 0 01:32 31.07.2019
4414 Clear 21 1008 78 10000 1 320 23:58 30.07.2019
4415 Clear 22 1007 78 10000 2.1 270 23:39 30.07.2019
4416 Clear 22 1007 73 10000 1.5 290 23:18 30.07.2019
4417 Clear 22 1007 73 10000 1.5 310 22:45 30.07.2019
4418 Clear 22 1007 73 10000 1.5 310 22:25 30.07.2019
4419 Clear 23 1007 78 10000 1 0 21:39 30.07.2019
4420 Clear 23 1007 69 10000 2.6 300 21:20 30.07.2019
4421 Clear 23 1007 69 10000 2.6 300 20:59 30.07.2019
4422 Clear 24 1006 65 10000 2.6 290 20:41 30.07.2019
4423 Clear 25 1006 57 10000 1 0 20:23 30.07.2019
4424 Clear 25 1006 57 10000 1 0 19:56 30.07.2019
4425 Clear 26 1006 54 10000 3.6 240 19:36 30.07.2019
4426 Clear 28 1005 45 10000 1.5 0 18:48 30.07.2019
4427 Clear 28 1005 45 10000 1.5 0 18:27 30.07.2019
4428 Clouds 28 1005 45 10000 2.6 260 17:59 30.07.2019
4429 Clouds 28 1006 51 10000 4.6 280 17:41 30.07.2019
4430 Clouds 28 1006 54 10000 5.1 270 17:19 30.07.2019
4431 Clouds 29 1005 48 10000 4.1 250 16:46 30.07.2019
4432 Clouds 28 1006 48 10000 3.6 230 16:20 30.07.2019
4433 Thunderstorm 27 1006 51 10000 4.1 280 15:44 30.07.2019
4434 Clouds 27 1007 61 10000 6.2 270 15:23 30.07.2019
4435 Clouds 27 1007 61 10000 6.2 270 14:59 30.07.2019
4436 Clouds 26 1006 54 10000 4.1 290 14:40 30.07.2019
4437 Clouds 27 1006 54 10000 6.2 280 14:18 30.07.2019
4438 Clouds 26 1006 54 10000 5.1 260 13:41 30.07.2019
4439 Clouds 28 1006 51 10000 3.6 230 13:23 30.07.2019
4440 Clouds 29 1006 51 10000 3.6 230 12:55 30.07.2019
4441 Clouds 30 1006 54 10000 4.1 190 12:37 30.07.2019
4442 Clouds 29 1006 48 10000 3.6 180 12:18 30.07.2019
4443 Clouds 30 1006 48 10000 1.5 320 11:38 30.07.2019
4444 Clouds 29 1006 51 10000 3.6 270 11:18 30.07.2019
4445 Clouds 29 1006 54 10000 1.5 0 10:42 30.07.2019
4446 Clear 28 1006 57 10000 1 0 10:21 30.07.2019
4447 Clear 26 1006 69 10000 1.5 0 09:48 30.07.2019
4448 Clear 26 1006 69 10000 1.5 0 09:30 30.07.2019
4449 Clear 25 1006 78 10000 2.1 270 08:44 30.07.2019
4450 Clear 24 1006 88 10000 2.6 260 08:22 30.07.2019
4451 Clouds 23 1006 88 10000 2.1 240 07:46 30.07.2019
4452 Clouds 22 1006 88 10000 2.1 240 07:25 30.07.2019
4453 Clouds 21 1005 94 10000 1.5 310 06:46 30.07.2019
4454 Rain 19 1005 94 10000 1.5 250 05:52 30.07.2019
4455 Rain 19 1005 94 10000 1.5 250 05:32 30.07.2019
4456 Clear 20 1005 88 10000 1.5 280 01:38 30.07.2019
4457 Clear 20 1005 88 10000 0.5 0 00:40 30.07.2019
4458 Clear 20 1005 88 10000 1.5 360 00:20 30.07.2019
4459 Clear 20 1004 88 10000 1.5 10 23:44 29.07.2019
4460 Clear 20 1004 88 10000 1.5 10 23:25 29.07.2019
4461 Clear 20 1004 83 10000 2.6 10 22:57 29.07.2019
4462 Clear 20 1004 83 10000 2.6 10 22:57 29.07.2019
4463 Clear 21 1005 83 10000 1.5 330 22:38 29.07.2019
4464 Clear 21 1005 83 10000 1 0 22:18 29.07.2019
4465 Clear 22 1005 83 10000 1 0 21:43 29.07.2019
4466 Clear 22 1004 78 10000 1.5 120 21:24 29.07.2019
4467 Clear 23 1004 78 10000 1.5 120 20:58 29.07.2019
4468 Clear 23 1004 78 10000 2.1 120 20:39 29.07.2019
4469 Clear 23 1004 73 10000 3.1 120 20:20 29.07.2019
4470 Clear 24 1004 73 10000 4.1 120 19:50 29.07.2019
4471 Clear 24 1004 73 10000 4.6 120 19:24 29.07.2019
4472 Clear 25 1004 73 10000 4.6 120 18:58 29.07.2019
4473 Clear 25 1004 69 10000 4.6 130 18:40 29.07.2019
4474 Clouds 25 1004 65 10000 5.1 130 18:20 29.07.2019
4475 Clouds 25 1004 65 10000 5.7 140 17:48 29.07.2019
4476 Clouds 25 1004 65 10000 5.7 140 17:29 29.07.2019
4477 Clear 25 1004 65 10000 5.7 130 16:57 29.07.2019
4478 Clear 25 1004 65 10000 4.6 130 16:37 29.07.2019
4479 Clear 27 1004 61 10000 5.1 120 16:19 29.07.2019
4480 Clear 27 1004 61 10000 4.6 140 15:47 29.07.2019
4481 Clear 27 1004 61 10000 4.6 120 15:28 29.07.2019
4482 Clear 27 1004 57 10000 4.6 120 14:43 29.07.2019
4483 Clear 28 1004 54 10000 4.6 130 14:21 29.07.2019
4484 Clouds 28 1004 51 10000 4.1 130 13:48 29.07.2019
4485 Clouds 28 1004 51 10000 4.1 130 13:24 29.07.2019
4486 Clouds 28 1005 54 10000 3.6 130 12:59 29.07.2019
4487 Clouds 28 1004 54 10000 3.6 140 12:40 29.07.2019
4488 Clouds 28 1004 58 10000 4.1 120 12:21 29.07.2019
4489 Clouds 28 1005 61 10000 4.1 120 11:42 29.07.2019
4490 Clouds 28 1004 61 10000 4.1 130 11:19 29.07.2019
4491 Clouds 28 1004 61 10000 4.1 120 10:43 29.07.2019
4492 Clouds 27 1004 61 10000 3.1 130 10:21 29.07.2019
4493 Clouds 26 1005 65 10000 2.6 150 09:44 29.07.2019
4494 Clouds 25 1005 69 10000 3.1 140 09:21 29.07.2019
4495 Clouds 26 1004 73 10000 4.6 120 08:47 29.07.2019
4496 Clouds 25 1004 73 10000 4.6 120 08:26 29.07.2019
4497 Clear 23 1004 88 10000 1.5 150 07:46 29.07.2019
4498 Clear 23 1004 88 10000 1.5 150 07:27 29.07.2019
4499 Clear 22 1005 94 10000 1 280 06:40 29.07.2019
4500 Clear 19 1005 93 10000 0.5 0 05:36 29.07.2019
4501 Clear 18 1005 94 10000 3.23 141.65 02:54 29.07.2019
4502 Clear 18 1006 88 10000 2.1 30 01:50 29.07.2019
4503 Clear 18 1006 88 10000 2.1 30 01:31 29.07.2019
4504 Clear 18 1006 93 10000 1 280 00:57 29.07.2019
4505 Clear 19 1006 94 10000 3.34 140.789 00:24 29.07.2019
4506 Clear 20 1007 83 10000 1 100 23:42 28.07.2019
4507 Clear 20 1007 88 10000 3.34 140.789 23:24 28.07.2019
4508 Clear 20 1007 83 10000 3.34 140.789 22:43 28.07.2019
4509 Clear 20 1007 83 10000 3.34 140.789 22:25 28.07.2019
4510 Clear 21 1007 78 10000 1.5 90 21:51 28.07.2019
4511 Clear 21 1007 78 10000 2.1 90 21:20 28.07.2019
4512 Clear 22 1007 73 10000 2.1 130 20:49 28.07.2019
4513 Clear 23 1007 73 10000 2.1 130 20:31 28.07.2019
4514 Clear 23 1007 73 10000 3.1 130 19:58 28.07.2019
4515 Clear 24 1007 65 10000 3.6 130 19:40 28.07.2019
4516 Clear 25 1007 61 10000 4.1 120 19:20 28.07.2019
4517 Clear 26 1007 61 10000 4.6 130 18:46 28.07.2019
4518 Clear 26 1007 61 10000 4.6 130 18:25 28.07.2019
4519 Clear 27 1007 57 10000 4.6 130 17:56 28.07.2019
4520 Clear 27 1008 54 10000 5.1 140 17:37 28.07.2019
4521 Clear 28 1008 51 10000 5.7 130 17:19 28.07.2019
4522 Clear 28 1008 51 10000 5.7 130 17:19 28.07.2019
4523 Clear 29 1008 54 10000 5.1 130 16:41 28.07.2019
4524 Clear 28 1008 51 10000 5.1 140 16:22 28.07.2019
4525 Clear 29 1008 51 10000 5.7 130 15:44 28.07.2019
4526 Clear 29 1008 51 10000 5.7 130 15:25 28.07.2019
4527 Clear 29 1009 48 10000 5.7 130 14:39 28.07.2019
4528 Clear 29 1009 45 10000 6.2 130 14:20 28.07.2019
4529 Clear 29 1009 45 10000 5.7 130 13:56 28.07.2019
4530 Clear 30 1009 45 10000 5.7 130 13:37 28.07.2019
4531 Clear 29 1009 42 10000 5.7 130 13:19 28.07.2019
4532 Clear 30 1009 45 10000 5.1 140 12:42 28.07.2019
4533 Clear 28 1009 54 10000 5.1 140 12:23 28.07.2019
4534 Clear 29 1009 54 10000 5.1 140 12:23 28.07.2019
4535 Clear 29 1009 54 10000 5.1 120 11:49 28.07.2019
4536 Clear 29 1009 54 10000 5.1 120 11:27 28.07.2019
4537 Clear 28 1009 51 10000 5.1 120 10:43 28.07.2019
4538 Clear 28 1009 54 10000 3.6 150 10:23 28.07.2019
4539 Clear 28 1009 54 10000 3.6 150 10:23 28.07.2019
4540 Clear 28 1009 54 10000 3.6 150 09:59 28.07.2019
4541 Clear 27 1009 61 10000 3.6 140 09:39 28.07.2019
4542 Clear 26 1009 69 10000 3.1 130 09:19 28.07.2019
4543 Clear 26 1009 73 10000 1 0 08:41 28.07.2019
4544 Clear 24 1009 83 10000 1.5 270 08:21 28.07.2019
4545 Clear 24 1009 88 10000 3.93 133.774 07:39 28.07.2019
4546 Clear 18 1009 93 10000 1.5 270 06:56 28.07.2019
4547 Clear 19 1009 93 10000 1 0 06:28 28.07.2019
4548 Clear 16 1008 93 7000 0.5 340 05:18 28.07.2019
4549 Clear 18 1009 88 10000 2.1 30 02:25 28.07.2019
4550 Clear 18 1009 93 10000 1.5 320 01:31 28.07.2019
4551 Clear 18 1009 88 10000 2.1 20 00:52 28.07.2019
4552 Clear 19 1009 88 10000 1.5 10 00:25 28.07.2019
4553 Clear 19 1009 88 10000 1.5 20 23:48 27.07.2019
4554 Clear 19 1009 88 10000 1.5 20 23:27 27.07.2019
4555 Clear 20 1009 83 10000 0.5 0 22:43 27.07.2019
4556 Clear 20 1009 83 10000 0.5 0 22:23 27.07.2019
4557 Clear 20 1009 83 10000 2.1 30 21:45 27.07.2019
4558 Clear 21 1009 78 10000 3.68 146.504 21:23 27.07.2019
4559 Clear 21 1009 78 10000 3.61 146.306 20:54 27.07.2019
4560 Clear 22 1008 73 10000 2.1 130 20:30 27.07.2019
4561 Clear 23 1008 73 10000 3.6 120 19:58 27.07.2019
4562 Clear 24 1008 69 10000 4.1 120 19:38 27.07.2019
4563 Clear 24 1008 69 10000 5.7 120 19:19 27.07.2019
4564 Clear 25 1008 61 10000 6.2 120 18:46 27.07.2019
4565 Clear 26 1008 61 10000 6.2 120 18:28 27.07.2019
4566 Clear 27 1008 54 10000 6.7 110 17:49 27.07.2019
4567 Clear 27 1008 54 10000 6.7 110 17:31 27.07.2019
4568 Clear 28 1008 54 10000 7.2 120 16:53 27.07.2019
4569 Clear 28 1008 54 10000 7.2 120 16:34 27.07.2019
4570 Clear 29 1009 48 10000 6.7 120 15:56 27.07.2019
4571 Clear 29 1009 45 10000 7.2 110 15:28 27.07.2019
4572 Clear 29 1009 45 10000 6.7 110 14:53 27.07.2019
4573 Clear 30 1009 42 10000 6.2 120 14:34 27.07.2019
4574 Clear 30 1009 48 10000 5.7 120 13:59 27.07.2019
4575 Clouds 30 1009 48 10000 6.2 110 13:41 27.07.2019
4576 Clear 29 1009 54 10000 6.2 110 13:21 27.07.2019
4577 Clear 29 1009 54 10000 5.7 120 12:49 27.07.2019
4578 Clear 30 1009 54 10000 5.7 120 12:26 27.07.2019
4579 Clear 29 1009 58 10000 6.2 100 11:46 27.07.2019
4580 Clear 29 1009 61 10000 5.7 110 11:25 27.07.2019
4581 Clear 29 1009 61 10000 5.7 110 10:57 27.07.2019
4582 Clear 29 1009 54 10000 4.6 100 10:39 27.07.2019
4583 Clear 29 1009 47 10000 3.6 110 10:18 27.07.2019
4584 Clear 29 1009 44 10000 3.1 140 09:40 27.07.2019
4585 Clear 29 1009 50 10000 2.6 140 09:21 27.07.2019
4586 Clear 28 1009 53 10000 1.5 120 08:46 27.07.2019
4587 Clear 27 1009 53 10000 1.5 120 08:26 27.07.2019
4588 Clear 25 1009 68 10000 2.87 183.838 07:45 27.07.2019
4589 Clear 23 1009 72 10000 0.5 0 07:23 27.07.2019
4590 Clear 23 1009 72 10000 0.5 0 06:54 27.07.2019
4591 Clear 20 1009 82 10000 2.87 183.838 06:28 27.07.2019
4592 Clear 17 1009 87 10000 2.82 187.613 05:42 27.07.2019
4593 Clear 17 1009 82 10000 1.5 290 04:52 27.07.2019
4594 Clear 17 1009 82 10000 0.5 0 03:55 27.07.2019
4595 Clear 18 1009 77 10000 1.5 10 02:43 27.07.2019
4596 Clouds 18 1009 77 10000 0.5 0 02:20 27.07.2019
4597 Clear 18 1010 77 10000 1.5 40 01:38 27.07.2019
4598 Clear 19 1010 72 10000 0.5 0 00:49 27.07.2019
4599 Clear 19 1010 72 10000 0.5 0 00:31 27.07.2019
4600 Clear 20 1010 77 10000 2.1 70 23:44 26.07.2019
4601 Clear 20 1010 77 10000 2.1 70 23:26 26.07.2019
4602 Clear 21 1011 73 10000 1.5 70 22:44 26.07.2019
4603 Clear 21 1011 73 10000 1.5 70 22:26 26.07.2019
4604 Clear 22 1011 69 10000 3.1 120 21:52 26.07.2019
4605 Clear 22 1011 60 10000 3.1 120 21:21 26.07.2019
4606 Clear 23 1011 60 10000 3.1 120 20:58 26.07.2019
4607 Clear 23 1011 57 10000 2.6 130 20:39 26.07.2019
4608 Clear 23 1011 57 10000 2.1 130 20:21 26.07.2019
4609 Clear 25 1011 54 10000 3.1 130 19:41 26.07.2019
4610 Clear 25 1011 54 10000 4.1 120 19:22 26.07.2019
4611 Clear 27 1011 47 10000 5.1 130 18:44 26.07.2019
4612 Clear 28 1011 45 10000 4.6 130 18:21 26.07.2019
4613 Clear 28 1011 45 10000 4.6 130 17:57 26.07.2019
4614 Clear 28 1011 48 10000 5.1 130 17:38 26.07.2019
4615 Clear 28 1011 48 10000 5.7 130 17:18 26.07.2019
4616 Clear 29 1011 48 10000 5.7 130 16:55 26.07.2019
4617 Clear 29 1011 45 10000 6.2 120 16:36 26.07.2019
4618 Clear 29 1012 42 10000 6.2 110 16:18 26.07.2019
4619 Clear 29 1012 42 10000 6.2 110 16:18 26.07.2019
4620 Clear 29 1012 42 10000 6.7 110 15:44 26.07.2019
4621 Clear 29 1012 37 10000 6.7 110 15:21 26.07.2019
4622 Clear 30 1012 35 10000 6.7 120 14:46 26.07.2019
4623 Clear 29 1012 35 10000 6.7 120 14:25 26.07.2019
4624 Clear 29 1012 37 10000 6.7 110 13:48 26.07.2019
4625 Clear 29 1012 37 10000 6.7 110 13:29 26.07.2019
4626 Clear 29 1013 39 10000 6.2 130 12:55 26.07.2019
4627 Clear 30 1013 39 10000 4.6 130 12:36 26.07.2019
4628 Clear 29 1013 37 10000 4.1 130 12:18 26.07.2019
4629 Clear 29 1013 37 10000 3.6 0 11:38 26.07.2019
4630 Clear 29 1013 37 10000 2.1 0 11:18 26.07.2019
4631 Clear 29 1014 37 10000 2.1 220 10:46 26.07.2019
4632 Clear 29 1014 37 10000 2.1 220 10:28 26.07.2019
4633 Clear 29 1014 51 10000 1.5 220 09:50 26.07.2019
4634 Clear 28 1014 51 10000 1.5 220 09:31 26.07.2019
4635 Clear 24 1014 64 10000 1 0 08:42 26.07.2019
4636 Clear 22 1014 73 6000 1.5 260 08:21 26.07.2019
4637 Clear 24 1014 82 6000 1.5 250 07:43 26.07.2019
4638 Clear 23 1014 82 6000 1.5 250 07:24 26.07.2019
4639 Clear 21 1014 88 6000 0.5 0 06:31 26.07.2019
4640 Clear 16 1014 88 10000 1 270 04:31 26.07.2019
4641 Clear 16 1014 93 10000 0.5 230 03:55 26.07.2019
4642 Clear 17 1015 82 10000 1.5 250 01:50 26.07.2019
4643 Clear 17 1015 82 10000 1.5 250 01:26 26.07.2019
4644 Clear 18 1016 72 10000 1 340 00:32 26.07.2019
4645 Clear 18 1016 77 10000 2.6 30 23:48 25.07.2019
4646 Clear 18 1016 77 10000 2.1 10 23:23 25.07.2019
4647 Clear 19 1016 77 10000 2.1 20 22:42 25.07.2019
4648 Clear 19 1016 77 10000 2.1 20 22:23 25.07.2019
4649 Clear 19 1016 72 10000 2.1 20 21:57 25.07.2019
4650 Clear 20 1016 73 10000 2.1 10 21:38 25.07.2019
4651 Clear 20 1016 73 10000 1.5 50 21:20 25.07.2019
4652 Clear 21 1016 68 10000 2.1 100 20:41 25.07.2019
4653 Clear 22 1016 60 10000 2.1 140 20:21 25.07.2019
4654 Clear 24 1016 57 10000 3.6 130 19:41 25.07.2019
4655 Clear 24 1016 57 10000 3.1 130 19:23 25.07.2019
4656 Clear 26 1016 50 10000 5.1 110 18:43 25.07.2019
4657 Clear 26 1016 50 10000 5.1 110 18:25 25.07.2019
4658 Clear 27 1015 51 10000 5.7 120 17:51 25.07.2019
4659 Clear 28 1015 51 10000 5.7 120 17:33 25.07.2019
4660 Clear 27 1015 51 10000 5.7 120 16:57 25.07.2019
4661 Clouds 26 1016 57 10000 7.2 100 16:39 25.07.2019
4662 Clouds 26 1016 54 10000 7.7 110 16:20 25.07.2019
4663 Clouds 27 1016 54 10000 6.2 120 15:50 25.07.2019
4664 Clouds 28 1016 28 10000 3.1 350 15:21 25.07.2019
4665 Clouds 28 1016 33 10000 4.6 20 14:43 25.07.2019
4666 Clouds 29 1016 33 10000 4.6 20 14:23 25.07.2019
4667 Clouds 29 1016 32 10000 3.6 20 13:59 25.07.2019
4668 Clouds 29 1016 37 10000 4.1 350 13:37 25.07.2019
4669 Clouds 29 1016 37 10000 3.6 20 13:19 25.07.2019
4670 Clouds 28 1016 39 10000 4.1 10 12:34 25.07.2019
4671 Clouds 28 1016 39 10000 4.1 360 11:56 25.07.2019
4672 Clear 28 1016 39 10000 4.6 20 11:38 25.07.2019
4673 Clear 27 1016 39 10000 4.6 20 11:19 25.07.2019
4674 Clear 27 1016 39 10000 5.1 320 10:42 25.07.2019
4675 Clear 27 1016 42 10000 4.6 310 10:23 25.07.2019
4676 Clear 26 1016 47 10000 4.6 350 09:44 25.07.2019
4677 Clear 25 1016 47 10000 4.6 350 09:26 25.07.2019
4678 Clear 24 1017 53 10000 3.6 350 08:47 25.07.2019
4679 Clear 22 1016 60 10000 4.6 290 08:20 25.07.2019
4680 Clear 22 1016 60 10000 4.6 290 08:20 25.07.2019
4681 Clear 21 1016 60 10000 2.6 270 07:36 25.07.2019
4682 Clear 21 1016 68 10000 1.5 270 06:44 25.07.2019
4683 Clear 16 1016 82 10000 1 0 05:48 25.07.2019
4684 Clear 16 1016 82 10000 1 0 05:30 25.07.2019
4685 Clear 16 1015 77 10000 1 0 04:38 25.07.2019
4686 Clear 18 1015 68 10000 2.1 290 01:48 25.07.2019
4687 Clear 18 1015 68 10000 2.1 300 01:20 25.07.2019
4688 Clear 19 1015 64 10000 3.6 350 00:20 25.07.2019
4689 Clear 19 1015 72 10000 2.6 300 23:50 24.07.2019
4690 Clear 19 1015 72 10000 2.6 300 23:31 24.07.2019
4691 Clear 19 1015 77 10000 1.5 340 22:56 24.07.2019
4692 Clear 20 1015 72 10000 2.1 330 22:38 24.07.2019
4693 Clear 20 1015 77 10000 2.1 330 22:19 24.07.2019
4694 Clear 20 1015 72 10000 3.1 360 21:43 24.07.2019
4695 Clear 21 1015 77 10000 2.1 10 21:22 24.07.2019
4696 Clear 21 1015 68 10000 2.1 10 20:56 24.07.2019
4697 Clear 21 1015 68 10000 2.1 10 20:37 24.07.2019
4698 Clear 23 1014 60 10000 1.5 290 20:19 24.07.2019
4699 Clouds 24 1014 57 10000 1.5 190 19:42 24.07.2019
4700 Clouds 25 1014 53 10000 2.1 170 19:22 24.07.2019
4701 Clouds 26 1014 53 10000 2.1 170 18:58 24.07.2019
4702 Clouds 25 1014 53 10000 2.1 150 18:37 24.07.2019
4703 Clouds 26 1014 57 10000 2.6 140 18:19 24.07.2019
4704 Clouds 26 1014 53 10000 3.1 120 17:42 24.07.2019
4705 Clouds 27 1013 53 10000 4.1 130 17:19 24.07.2019
4706 Clouds 26 1013 53 10000 4.6 120 16:40 24.07.2019
4707 Clouds 26 1013 53 10000 4.6 120 16:40 24.07.2019
4708 Clouds 26 1013 57 10000 4.6 120 16:21 24.07.2019
4709 Clouds 26 1013 53 10000 4.6 140 15:39 24.07.2019
4710 Clouds 27 1013 47 10000 4.6 130 15:21 24.07.2019
4711 Clouds 27 1013 50 10000 4.1 130 14:50 24.07.2019
4712 Clouds 27 1013 50 10000 4.1 130 14:23 24.07.2019
4713 Clouds 27 1013 50 10000 4.1 120 13:58 24.07.2019
4714 Clouds 28 1013 45 10000 5.1 340 13:36 24.07.2019
4715 Clouds 26 1013 44 10000 5.1 10 13:18 24.07.2019
4716 Clouds 26 1013 44 10000 3.1 20 12:46 24.07.2019
4717 Clouds 25 1013 47 10000 5.1 30 12:23 24.07.2019
4718 Clouds 26 1013 47 10000 5.1 350 11:38 24.07.2019
4719 Clouds 25 1013 53 10000 4.6 350 11:19 24.07.2019
4720 Clouds 25 1013 57 10000 4.6 30 10:43 24.07.2019
4721 Clouds 25 1013 57 10000 4.6 30 10:24 24.07.2019
4722 Clouds 23 1013 64 10000 4.1 350 09:44 24.07.2019
4723 Clouds 23 1013 64 10000 4.1 350 09:44 24.07.2019
4724 Clouds 22 1013 68 10000 3.6 360 09:24 24.07.2019
4725 Clouds 22 1013 68 10000 3.6 360 08:55 24.07.2019
4726 Clouds 20 1013 77 10000 2.1 280 08:30 24.07.2019
4727 Clear 20 1013 77 10000 3.6 280 07:51 24.07.2019
4728 Clear 20 1013 77 10000 3.6 280 07:23 24.07.2019
4729 Clouds 19 1013 82 10000 3.1 280 06:28 24.07.2019
4730 Clouds 19 1013 82 10000 3.1 280 06:28 24.07.2019
4731 Clear 18 1012 88 10000 2.6 0 05:26 24.07.2019
4732 Clear 18 1013 82 10000 1 0 01:58 24.07.2019
4733 Clear 19 1013 88 10000 0.5 0 01:28 24.07.2019
4734 Clear 18 1013 93 10000 0.5 0 00:54 24.07.2019
4735 Mist 19 1013 93 5000 1.5 280 00:22 24.07.2019
4736 Rain 19 1013 93 4000 2.1 290 23:41 23.07.2019
4737 Rain 19 1014 100 4000 2.1 270 23:23 23.07.2019
4738 Rain 20 1014 100 10000 3.1 260 22:39 23.07.2019
4739 Clouds 20 1014 94 10000 2.6 250 22:19 23.07.2019
4740 Clouds 20 1014 94 10000 2.6 250 21:57 23.07.2019
4741 Clouds 20 1014 94 10000 1.5 300 21:39 23.07.2019
4742 Thunderstorm 20 1014 100 10000 2.1 90 21:21 23.07.2019
4743 Thunderstorm 21 1014 94 8000 2.1 110 20:44 23.07.2019
4744 Thunderstorm 21 1014 94 8000 3.6 170 20:21 23.07.2019
4745 Thunderstorm 20 1014 94 2100 5.7 360 19:41 23.07.2019
4746 Rain 22 1013 83 6000 4.6 20 19:19 23.07.2019
4747 Clouds 25 1012 65 10000 5.1 130 18:47 23.07.2019
4748 Clouds 25 1013 69 10000 4.6 150 18:23 23.07.2019
4749 Clouds 26 1013 54 10000 3.6 360 17:44 23.07.2019
4750 Clouds 26 1013 54 10000 3.6 360 17:25 23.07.2019
4751 Clouds 28 1013 45 10000 2.6 360 16:51 23.07.2019
4752 Clouds 25 1013 45 10000 2.6 360 16:28 23.07.2019
4753 Clouds 26 1013 48 10000 4.6 20 15:59 23.07.2019
4754 Clouds 26 1013 54 10000 5.1 360 15:40 23.07.2019
4755 Clouds 26 1013 61 10000 4.6 20 15:21 23.07.2019
4756 Rain 25 1013 69 10000 4.6 20 14:38 23.07.2019
4757 Clouds 25 1014 65 10000 5.7 10 14:19 23.07.2019
4758 Clouds 24 1014 65 10000 5.7 10 13:56 23.07.2019
4759 Clouds 24 1014 65 10000 5.7 10 13:56 23.07.2019
4760 Clouds 26 1014 48 10000 6.2 360 13:38 23.07.2019
4761 Clouds 27 1014 51 10000 5.1 10 13:20 23.07.2019
4762 Clouds 25 1014 57 10000 5.1 30 12:44 23.07.2019
4763 Clouds 26 1014 57 10000 5.1 30 12:25 23.07.2019
4764 Clouds 26 1014 54 10000 6.7 360 11:45 23.07.2019
4765 Clouds 26 1014 54 10000 6.7 360 11:26 23.07.2019
4766 Clouds 26 1014 58 10000 5.1 330 10:52 23.07.2019
4767 Clouds 26 1014 58 10000 5.1 330 10:26 23.07.2019
4768 Clouds 26 1014 57 10000 4.1 250 09:44 23.07.2019
4769 Clouds 26 1014 57 10000 4.1 250 09:24 23.07.2019
4770 Clouds 25 1014 61 10000 3.1 240 08:57 23.07.2019
4771 Clouds 25 1014 61 10000 2.1 230 08:38 23.07.2019
4772 Clouds 22 1014 64 10000 2.1 250 08:19 23.07.2019
4773 Clouds 24 1014 64 10000 1.5 0 07:50 23.07.2019
4774 Clouds 24 1014 64 10000 1.5 0 07:32 23.07.2019
4775 Clear 22 1014 77 10000 2.6 280 06:38 23.07.2019
4776 Clear 18 1014 77 10000 1.5 270 04:51 23.07.2019
4777 Clear 19 1015 68 10000 1 0 01:55 23.07.2019
4778 Clear 19 1016 68 10000 1.5 290 00:54 23.07.2019
4779 Clear 19 1016 68 10000 1.5 290 00:27 23.07.2019
4780 Clear 20 1016 60 10000 2.1 30 23:40 22.07.2019
4781 Clear 20 1016 56 10000 0.5 0 23:21 22.07.2019
4782 Clear 21 1016 56 10000 1 0 22:46 22.07.2019
4783 Clear 21 1016 56 10000 1 0 22:46 22.07.2019
4784 Clear 21 1016 56 10000 1 0 22:26 22.07.2019
4785 Clear 21 1016 60 10000 1 0 21:58 22.07.2019
4786 Clear 22 1016 60 10000 2.1 60 21:39 22.07.2019
4787 Clear 23 1016 64 10000 2.6 50 21:19 22.07.2019
4788 Clouds 24 1016 69 10000 2.1 80 20:42 22.07.2019
4789 Clouds 25 1016 65 10000 3.1 90 20:22 22.07.2019
4790 Clouds 26 1016 51 10000 3.6 100 19:43 22.07.2019
4791 Clear 27 1016 39 10000 3.6 110 19:23 22.07.2019
4792 Clear 28 1016 39 10000 3.6 110 18:55 22.07.2019
4793 Clouds 29 1016 35 10000 4.6 100 18:37 22.07.2019
4794 Clouds 29 1016 35 10000 5.1 100 18:19 22.07.2019
4795 Clouds 30 1016 35 10000 5.1 110 17:39 22.07.2019
4796 Clear 30 1016 33 10000 6.2 110 17:20 22.07.2019
4797 Clear 30 1016 35 10000 6.7 110 16:41 22.07.2019
4798 Clear 30 1016 33 10000 6.7 110 16:21 22.07.2019
4799 Clear 29 1016 33 10000 7.2 100 15:55 22.07.2019
4800 Clear 29 1016 33 10000 7.2 100 15:36 22.07.2019
4801 Clear 30 1016 33 10000 7.2 110 15:18 22.07.2019
4802 Clouds 31 1017 31 10000 6.7 100 14:41 22.07.2019
4803 Clouds 31 1017 31 10000 6.7 100 14:41 22.07.2019
4804 Clouds 29 1017 33 10000 6.2 100 14:19 22.07.2019
4805 Clouds 31 1017 37 10000 6.2 100 13:44 22.07.2019
4806 Clouds 31 1017 45 10000 6.2 110 13:22 22.07.2019
4807 Clouds 31 1017 40 10000 5.1 110 12:43 22.07.2019
4808 Clouds 31 1018 38 10000 5.1 120 12:23 22.07.2019
4809 Clear 30 1018 45 10000 4.1 130 11:44 22.07.2019
4810 Clear 29 1018 40 10000 3.6 140 11:20 22.07.2019
4811 Clear 30 1018 40 10000 1.5 0 10:43 22.07.2019
4812 Clear 30 1018 40 10000 1.5 0 10:24 22.07.2019
4813 Clear 28 1018 51 10000 1.5 0 09:42 22.07.2019
4814 Clear 25 1018 54 10000 1.5 170 09:23 22.07.2019
4815 Clear 24 1018 57 10000 1.5 190 08:44 22.07.2019
4816 Clear 24 1018 57 10000 1.5 190 08:44 22.07.2019
4817 Clear 24 1018 57 10000 1.5 190 08:24 22.07.2019
4818 Clear 25 1018 68 8000 0.5 0 07:54 22.07.2019
4819 Mist 22 1018 68 4800 1 0 07:32 22.07.2019
4820 Mist 22 1018 77 5000 0.56 266.328 06:42 22.07.2019
4821 Clear 17 1018 77 10000 0.92 242.43 03:50 22.07.2019
4822 Clear 17 1018 82 10000 0.5 320 01:53 22.07.2019
4823 Clear 18 1019 77 10000 2.6 20 00:50 22.07.2019
4824 Clear 18 1019 77 10000 2.6 20 00:24 22.07.2019
4825 Clear 18 1019 77 10000 2.6 10 23:54 21.07.2019
4826 Clear 18 1019 72 10000 2.6 20 23:27 21.07.2019
4827 Clear 19 1019 77 10000 1.5 20 22:41 21.07.2019
4828 Clear 20 1018 83 10000 2.1 40 22:21 21.07.2019
4829 Clear 20 1018 73 10000 1.5 70 21:56 21.07.2019
4830 Clear 21 1018 73 10000 1.5 70 21:37 21.07.2019
4831 Clear 21 1018 78 10000 2.6 100 21:18 21.07.2019
4832 Clear 22 1018 69 10000 1.5 120 20:43 21.07.2019
4833 Clear 23 1018 65 10000 2.6 120 20:23 21.07.2019
4834 Clear 24 1018 65 10000 3.6 110 19:53 21.07.2019
4835 Clear 24 1018 65 10000 3.6 110 19:32 21.07.2019
4836 Clear 26 1018 61 10000 4.1 120 18:59 21.07.2019
4837 Clear 26 1018 54 10000 5.1 110 18:41 21.07.2019
4838 Clear 27 1018 44 10000 5.7 120 18:22 21.07.2019
4839 Clear 27 1018 45 10000 6.2 120 17:41 21.07.2019
4840 Clear 27 1018 45 10000 6.2 120 17:19 21.07.2019
4841 Clear 27 1018 39 10000 7.2 120 16:43 21.07.2019
4842 Clear 28 1018 39 10000 7.2 110 16:25 21.07.2019
4843 Clear 29 1018 39 10000 7.2 110 15:47 21.07.2019
4844 Clear 29 1018 37 10000 7.2 100 15:24 21.07.2019
4845 Clear 29 1018 37 10000 7.2 100 14:58 21.07.2019
4846 Clear 31 1018 37 10000 7.2 110 14:39 21.07.2019
4847 Clear 31 1018 39 10000 6.2 120 14:18 21.07.2019
4848 Clear 31 1018 39 10000 6.2 120 13:42 21.07.2019
4849 Clear 29 1018 39 10000 6.2 120 13:24 21.07.2019
4850 Clear 31 1018 45 10000 5.7 120 12:42 21.07.2019
4851 Clear 30 1018 45 10000 5.7 120 12:24 21.07.2019
4852 Clear 30 1019 48 10000 4.1 130 11:46 21.07.2019
4853 Clear 31 1019 48 10000 4.1 130 11:28 21.07.2019
4854 Clear 28 1019 54 10000 2.1 0 10:47 21.07.2019
4855 Clear 28 1019 54 10000 2.1 0 10:26 21.07.2019
4856 Clear 28 1019 51 10000 1.5 0 09:56 21.07.2019
4857 Clear 28 1019 54 10000 1.5 0 09:36 21.07.2019
4858 Clear 28 1019 54 10000 1.5 0 09:36 21.07.2019
4859 Clear 26 1019 73 7000 1.5 240 08:50 21.07.2019
4860 Clear 27 1019 73 7000 1.5 240 08:32 21.07.2019
4861 Mist 26 1019 77 4800 1 0 07:58 21.07.2019
4862 Mist 19 1019 88 3100 0.5 0 07:19 21.07.2019
4863 Clear 21 1019 88 10000 1.5 320 06:34 21.07.2019
4864 Clear 16 1018 93 9000 1 260 04:19 21.07.2019
4865 Clear 16 1019 93 10000 0.5 0 01:57 21.07.2019
4866 Clear 18 1019 88 10000 1.5 10 00:48 21.07.2019
4867 Clear 18 1019 88 10000 0.5 320 00:21 21.07.2019
4868 Clear 18 1019 88 10000 1.5 330 23:46 20.07.2019
4869 Clear 18 1019 88 10000 1.5 330 23:27 20.07.2019
4870 Clear 19 1019 82 10000 0.5 0 22:55 20.07.2019
4871 Clear 19 1019 82 10000 2.1 30 22:37 20.07.2019
4872 Clear 20 1019 77 10000 1.5 60 22:18 20.07.2019
4873 Clear 20 1019 77 10000 2.1 50 21:42 20.07.2019
4874 Clear 20 1019 77 10000 2.1 50 21:24 20.07.2019
4875 Clear 21 1018 69 10000 2.1 130 20:43 20.07.2019
4876 Clear 22 1018 69 10000 2.6 130 20:23 20.07.2019
4877 Clear 23 1018 64 10000 3.1 130 19:49 20.07.2019
4878 Clear 23 1018 64 10000 3.1 130 19:27 20.07.2019
4879 Clear 25 1018 57 10000 4.6 130 18:46 20.07.2019
4880 Clear 24 1018 57 10000 4.6 130 18:26 20.07.2019
4881 Clear 25 1018 50 10000 4.6 120 17:58 20.07.2019
4882 Clear 25 1018 54 10000 5.1 140 17:37 20.07.2019
4883 Clear 25 1018 54 10000 5.1 140 17:37 20.07.2019
4884 Clear 27 1018 51 10000 5.1 120 17:19 20.07.2019
4885 Clear 28 1018 51 10000 5.7 130 16:39 20.07.2019
4886 Clear 28 1018 54 10000 5.7 140 16:21 20.07.2019
4887 Clear 28 1018 54 10000 6.7 130 15:41 20.07.2019
4888 Clear 28 1018 54 10000 6.7 140 15:21 20.07.2019
4889 Clear 28 1019 54 10000 7.2 130 14:49 20.07.2019
4890 Clear 28 1019 54 10000 7.2 130 14:29 20.07.2019
4891 Clear 28 1019 57 10000 6.7 140 13:57 20.07.2019
4892 Clear 28 1019 54 10000 6.2 140 13:37 20.07.2019
4893 Clear 29 1019 47 10000 6.7 130 13:19 20.07.2019
4894 Clear 29 1019 45 10000 6.2 140 12:48 20.07.2019
4895 Clear 29 1019 42 10000 6.2 140 12:19 20.07.2019
4896 Clear 28 1019 47 10000 5.7 130 11:43 20.07.2019
4897 Clear 28 1019 44 10000 5.1 150 11:20 20.07.2019
4898 Clear 27 1019 47 10000 4.1 140 10:42 20.07.2019
4899 Clear 27 1019 47 10000 3.1 140 10:22 20.07.2019
4900 Clear 27 1019 57 10000 2.6 170 09:51 20.07.2019
4901 Clear 26 1019 64 10000 1 0 09:25 20.07.2019
4902 Clear 25 1019 69 10000 1 0 08:51 20.07.2019
4903 Clear 23 1019 69 10000 1 0 08:23 20.07.2019
4904 Clear 22 1018 82 10000 1.5 260 07:39 20.07.2019
4905 Clear 20 1018 93 10000 1.96 176.312 06:46 20.07.2019
4906 Clear 15 1018 93 10000 0.5 0 05:25 20.07.2019
4907 Clear 15 1017 93 10000 1.68 185.911 04:31 20.07.2019
4908 Clear 16 1018 93 10000 1 350 01:55 20.07.2019
4909 Clear 17 1018 88 10000 2.6 10 00:53 20.07.2019
4910 Clear 17 1018 88 10000 2.6 10 00:33 20.07.2019
4911 Clear 17 1017 88 10000 2.1 20 23:59 19.07.2019
4912 Clear 18 1017 82 10000 2.1 20 23:39 19.07.2019
4913 Clear 18 1017 88 10000 1.5 10 23:20 19.07.2019
4914 Clear 18 1017 82 10000 1 0 22:41 19.07.2019
4915 Clear 18 1017 82 10000 1 0 22:22 19.07.2019
4916 Clear 20 1017 73 10000 1 140 21:44 19.07.2019
4917 Clear 19 1017 73 10000 1 140 21:26 19.07.2019
4918 Clear 21 1017 64 10000 2.6 130 20:44 19.07.2019
4919 Clear 21 1017 64 10000 2.6 130 20:25 19.07.2019
4920 Clear 23 1016 60 10000 4.1 130 19:40 19.07.2019
4921 Clear 24 1016 57 10000 4.1 120 19:19 19.07.2019
4922 Clear 26 1016 54 10000 4.6 120 18:41 19.07.2019
4923 Clear 26 1016 50 10000 6.2 110 18:20 19.07.2019
4924 Clear 27 1016 51 10000 6.2 120 17:47 19.07.2019
4925 Clear 27 1016 51 10000 6.2 120 17:26 19.07.2019
4926 Clear 27 1016 51 10000 6.2 120 16:48 19.07.2019
4927 Clear 27 1016 51 10000 6.2 120 16:48 19.07.2019
4928 Clear 28 1016 51 10000 6.2 120 16:26 19.07.2019
4929 Clouds 28 1016 42 10000 6.7 120 15:50 19.07.2019
4930 Clouds 28 1016 42 10000 6.7 120 15:30 19.07.2019
4931 Clouds 28 1016 42 10000 7.7 110 14:56 19.07.2019
4932 Clouds 28 1016 44 10000 7.2 110 14:38 19.07.2019
4933 Clouds 28 1016 34 10000 7.7 120 14:20 19.07.2019
4934 Clouds 27 1016 45 10000 6.2 130 13:43 19.07.2019
4935 Clouds 27 1016 45 10000 6.2 130 13:43 19.07.2019
4936 Clouds 27 1016 45 10000 6.2 130 13:43 19.07.2019
4937 Clouds 27 1016 45 10000 6.2 130 13:43 19.07.2019
4938 Clouds 27 1017 47 10000 6.7 110 13:24 19.07.2019
4939 Clouds 27 1017 47 10000 6.7 110 12:54 19.07.2019
4940 Clouds 27 1017 48 10000 6.2 110 12:30 19.07.2019
4941 Clouds 27 1017 47 10000 5.7 110 11:58 19.07.2019
4942 Clouds 27 1017 51 10000 5.1 110 11:39 19.07.2019
4943 Clouds 27 1017 54 10000 5.1 120 11:18 19.07.2019
4944 Clouds 26 1016 51 10000 4.1 120 10:40 19.07.2019
4945 Clouds 26 1016 50 10000 2.6 140 10:21 19.07.2019
4946 Clouds 26 1016 50 10000 2.6 140 10:21 19.07.2019
4947 Clouds 25 1016 69 10000 2.1 0 09:44 19.07.2019
4948 Clouds 24 1016 73 10000 2.1 150 09:22 19.07.2019
4949 Clouds 24 1016 73 10000 2.1 150 08:57 19.07.2019
4950 Clouds 24 1016 78 10000 1 0 08:39 19.07.2019
4951 Clear 22 1016 94 10000 1 0 07:43 19.07.2019
4952 Clouds 21 1016 93 10000 2.18 162.936 07:25 19.07.2019
4953 Mist 16 1015 93 5000 0.5 340 05:40 19.07.2019
4954 Clouds 17 1015 93 10000 2.1 340 01:59 19.07.2019
4955 Clear 17 1014 93 10000 0.5 0 00:59 19.07.2019
4956 Clear 18 1014 93 10000 2.6 30 00:26 19.07.2019
4957 Clear 19 1014 88 10000 2.6 30 23:43 18.07.2019
4958 Clear 19 1014 88 10000 2.6 30 23:23 18.07.2019
4959 Clear 19 1014 88 10000 2.6 30 22:58 18.07.2019
4960 Clear 19 1014 83 10000 2.1 50 22:39 18.07.2019
4961 Clear 19 1014 83 10000 2.1 50 22:39 18.07.2019
4962 Clear 20 1014 83 10000 1.5 10 22:18 18.07.2019
4963 Clear 20 1013 88 10000 2.6 50 21:40 18.07.2019
4964 Clear 20 1013 83 10000 2.1 60 21:20 18.07.2019
4965 Clear 21 1013 83 10000 2.1 80 20:49 18.07.2019
4966 Clear 21 1013 83 10000 2.1 80 20:27 18.07.2019
4967 Clouds 22 1013 73 10000 2.6 130 19:52 18.07.2019
4968 Clouds 23 1013 73 10000 2.6 130 19:30 18.07.2019
4969 Clouds 24 1012 69 10000 3.1 120 18:57 18.07.2019
4970 Clouds 24 1012 69 10000 3.6 90 18:24 18.07.2019
4971 Clouds 24 1012 61 10000 5.1 80 17:57 18.07.2019
4972 Clouds 25 1012 65 10000 5.1 100 17:38 18.07.2019
4973 Clouds 25 1012 65 10000 5.1 100 17:38 18.07.2019
4974 Clouds 25 1012 65 10000 6.7 110 17:19 18.07.2019
4975 Clouds 25 1012 69 10000 6.7 140 16:53 18.07.2019
4976 Clouds 25 1012 69 10000 6.7 140 16:26 18.07.2019
4977 Clouds 24 1012 69 10000 5.7 120 15:58 18.07.2019
4978 Clouds 24 1012 69 10000 6.2 100 15:36 18.07.2019
4979 Clouds 25 1011 78 10000 5.1 100 14:56 18.07.2019
4980 Rain 24 1011 73 9000 7.2 90 14:38 18.07.2019
4981 Clouds 26 1011 69 10000 6.7 100 14:19 18.07.2019
4982 Clouds 26 1011 69 10000 6.7 100 13:43 18.07.2019
4983 Rain 26 1011 69 10000 7.2 100 13:21 18.07.2019
4984 Clouds 26 1012 61 10000 4.1 60 12:46 18.07.2019
4985 Clouds 26 1011 50 10000 3.1 120 12:21 18.07.2019
4986 Clouds 26 1011 50 10000 3.1 120 12:21 18.07.2019
4987 Clear 26 1011 47 10000 3.6 160 11:52 18.07.2019
4988 Clear 26 1011 47 10000 3.6 160 11:33 18.07.2019
4989 Clear 26 1011 50 10000 2.1 0 10:52 18.07.2019
4990 Clear 26 1011 50 10000 2.1 0 10:52 18.07.2019
4991 Clear 26 1011 50 10000 2.1 0 10:30 18.07.2019
4992 Clear 25 1010 50 10000 2.6 70 09:45 18.07.2019
4993 Clear 23 1010 53 10000 2.1 0 09:23 18.07.2019
4994 Clear 22 1010 56 10000 3.6 300 08:49 18.07.2019
4995 Clear 22 1010 60 10000 5.1 310 08:20 18.07.2019
4996 Clear 22 1010 60 10000 5.1 310 07:43 18.07.2019
4997 Clear 21 1010 60 10000 2.6 250 07:24 18.07.2019
4998 Clear 19 1010 64 10000 3.1 240 06:37 18.07.2019
4999 Clear 16 1009 87 10000 2.99 320.882 05:33 18.07.2019
5000 Clear 15 1009 77 10000 1.1 273.641 02:55 18.07.2019
5001 Clear 16 1009 82 10000 0.5 0 01:50 18.07.2019
5002 Clear 16 1009 72 10000 2.6 340 00:35 18.07.2019
5003 Clear 17 1009 82 10000 2.6 10 23:49 17.07.2019
5004 Clear 17 1009 82 10000 2.1 10 23:19 17.07.2019
5005 Clear 17 1009 82 10000 2.6 10 22:54 17.07.2019
5006 Clear 17 1009 82 10000 2.6 10 22:36 17.07.2019
5007 Clear 18 1009 77 10000 2.1 30 22:18 17.07.2019
5008 Clear 19 1009 72 10000 1 0 21:41 17.07.2019
5009 Clear 20 1009 68 10000 1.5 120 21:21 17.07.2019
5010 Clear 20 1009 68 10000 1.5 120 20:58 17.07.2019
5011 Clear 21 1008 64 10000 1 0 20:39 17.07.2019
5012 Clear 22 1008 60 10000 2.1 130 20:20 17.07.2019
5013 Clear 23 1008 60 10000 2.1 130 19:43 17.07.2019
5014 Clear 24 1008 53 10000 3.1 120 19:22 17.07.2019
5015 Clear 25 1008 50 10000 4.6 120 18:56 17.07.2019
5016 Clear 25 1008 50 10000 4.6 120 18:38 17.07.2019
5017 Clear 26 1008 44 10000 5.1 110 18:18 17.07.2019
5018 Clear 27 1008 42 10000 4.1 110 17:43 17.07.2019
5019 Clear 26 1008 42 10000 4.1 110 17:23 17.07.2019
5020 Clouds 25 1008 47 10000 6.2 120 16:42 17.07.2019
5021 Clouds 25 1008 47 10000 6.2 120 16:22 17.07.2019
5022 Clear 25 1008 44 10000 5.7 120 15:51 17.07.2019
5023 Clear 27 1008 44 10000 5.1 120 15:31 17.07.2019
5024 Clear 27 1008 47 10000 5.7 130 14:57 17.07.2019
5025 Clear 28 1008 42 10000 4.1 130 14:39 17.07.2019
5026 Clear 26 1008 42 10000 4.1 130 14:21 17.07.2019
5027 Clear 26 1008 42 10000 4.1 130 14:21 17.07.2019
5028 Clear 27 1008 42 10000 4.1 100 13:51 17.07.2019
5029 Clear 27 1008 39 10000 2.6 130 13:31 17.07.2019
5030 Clear 28 1009 44 10000 3.1 150 12:59 17.07.2019
5031 Clear 27 1009 39 10000 2.1 170 12:38 17.07.2019
5032 Clear 27 1009 39 10000 2.1 170 12:19 17.07.2019
5033 Clear 26 1009 37 10000 2.1 0 11:40 17.07.2019
5034 Clear 26 1009 37 10000 2.1 0 11:19 17.07.2019
5035 Clear 26 1009 41 10000 4.6 360 10:45 17.07.2019
5036 Clear 26 1009 41 10000 4.6 360 10:21 17.07.2019
5037 Clear 25 1009 39 10000 5.1 10 09:45 17.07.2019
5038 Clear 24 1009 41 10000 5.1 10 09:27 17.07.2019
5039 Clear 23 1009 44 10000 5.1 10 08:45 17.07.2019
5040 Clear 22 1009 53 10000 4.6 10 08:24 17.07.2019
5041 Clear 22 1009 56 10000 5.1 360 07:58 17.07.2019
5042 Clear 21 1009 60 10000 4.6 350 07:38 17.07.2019
5043 Clear 21 1009 60 10000 4.6 350 07:19 17.07.2019
5044 Clear 20 1009 64 10000 4.6 350 06:45 17.07.2019
5045 Clear 18 1009 72 10000 3.1 350 06:22 17.07.2019
5046 Clear 15 1009 82 10000 4.1 340 05:38 17.07.2019
5047 Clear 15 1009 82 10000 5.1 360 04:57 17.07.2019
5048 Clear 15 1009 82 10000 3.1 350 03:52 17.07.2019
5049 Clear 16 1009 82 10000 2.1 300 02:43 17.07.2019
5050 Clear 15 1009 93 10000 1.5 240 01:42 17.07.2019
5051 Clear 15 1009 93 10000 1.5 240 01:22 17.07.2019
5052 Clear 15 1010 93 10000 0.5 0 00:39 17.07.2019
5053 Clear 15 1010 93 10000 0.5 0 00:20 17.07.2019
5054 Clear 16 1010 93 10000 2.1 290 23:45 16.07.2019
5055 Clear 17 1010 88 10000 1 0 23:24 16.07.2019
5056 Clear 17 1010 88 10000 1 0 23:24 16.07.2019
5057 Clear 17 1010 88 10000 1.5 350 22:44 16.07.2019
5058 Clear 17 1010 88 10000 1.5 350 22:26 16.07.2019
5059 Clear 17 1010 88 10000 1.5 350 21:59 16.07.2019
5060 Clear 17 1010 88 10000 1.5 350 21:59 16.07.2019
5061 Clear 18 1010 82 10000 2.6 10 21:40 16.07.2019
5062 Clear 18 1010 82 10000 2.6 10 21:19 16.07.2019
5063 Clear 19 1009 77 10000 2.6 130 20:41 16.07.2019
5064 Clear 19 1009 77 10000 2.6 130 20:23 16.07.2019
5065 Clear 20 1009 73 10000 3.1 110 19:55 16.07.2019
5066 Clear 20 1009 68 10000 3.6 100 19:30 16.07.2019
5067 Clear 22 1009 60 10000 3.6 120 18:59 16.07.2019
5068 Clear 24 1009 57 10000 3.6 130 18:41 16.07.2019
5069 Clear 25 1009 57 10000 3.6 130 18:21 16.07.2019
5070 Clear 25 1009 57 10000 2.1 140 17:49 16.07.2019
5071 Clear 25 1009 60 10000 2.1 110 17:28 16.07.2019
5072 Clear 24 1009 60 10000 2.6 150 16:51 16.07.2019
5073 Clouds 23 1009 53 10000 2.1 110 16:27 16.07.2019
5074 Clouds 23 1010 68 10000 3.1 50 15:57 16.07.2019
5075 Clouds 22 1010 77 10000 3.1 30 15:39 16.07.2019
5076 Clouds 23 1010 77 10000 3.1 30 15:19 16.07.2019
5077 Clouds 23 1010 68 10000 2.1 350 14:55 16.07.2019
5078 Clouds 23 1010 64 10000 4.1 100 14:37 16.07.2019
5079 Clouds 21 1010 64 10000 4.1 100 14:18 16.07.2019
5080 Rain 22 1010 82 10000 3.6 150 13:43 16.07.2019
5081 Rain 22 1010 82 10000 3.6 150 13:18 16.07.2019
5082 Clouds 23 1010 56 10000 2.1 130 12:44 16.07.2019
5083 Clouds 23 1010 56 10000 2.1 130 12:20 16.07.2019
5084 Clouds 24 1010 50 10000 2.6 0 11:55 16.07.2019
5085 Clouds 24 1010 47 10000 1.5 0 11:36 16.07.2019
5086 Clouds 25 1010 47 10000 1.5 0 11:18 16.07.2019
5087 Clouds 25 1010 47 10000 1.5 0 11:18 16.07.2019
5088 Clouds 24 1010 50 10000 2.6 40 10:43 16.07.2019
5089 Clouds 24 1010 50 10000 2.6 40 10:20 16.07.2019
5090 Clouds 22 1010 64 10000 2.6 0 09:44 16.07.2019
5091 Clouds 21 1010 64 10000 2.6 0 09:21 16.07.2019
5092 Clear 21 1010 64 10000 2.6 290 08:49 16.07.2019
5093 Clouds 19 1010 72 10000 2.6 0 08:28 16.07.2019
5094 Clear 19 1010 77 10000 2.1 310 07:57 16.07.2019
5095 Clear 18 1010 82 10000 2.1 310 07:36 16.07.2019
5096 Clouds 16 1010 88 10000 1.5 240 06:59 16.07.2019
5097 Clouds 16 1010 82 10000 1.5 250 06:38 16.07.2019
5098 Clouds 16 1010 82 10000 1.5 320 05:52 16.07.2019
5099 Clouds 16 1010 82 10000 3.1 270 05:30 16.07.2019
5100 Clear 16 1009 88 10000 3.6 310 04:45 16.07.2019
5101 Clouds 17 1009 77 10000 2.6 280 03:44 16.07.2019
5102 Clear 17 1009 77 10000 3.1 340 02:46 16.07.2019
5103 Clear 17 1009 77 10000 3.1 340 02:28 16.07.2019
5104 Clouds 17 1009 77 10000 3.1 10 01:36 16.07.2019
5105 Clear 18 1009 77 10000 1.5 10 00:27 16.07.2019
5106 Clear 18 1010 77 10000 2.6 300 23:59 15.07.2019
5107 Clear 18 1010 77 10000 2.1 310 23:39 15.07.2019
5108 Clear 18 1010 77 10000 2.1 310 23:21 15.07.2019
5109 Clear 18 1009 77 10000 2.6 250 22:46 15.07.2019
5110 Clear 19 1009 77 10000 2.6 270 22:20 15.07.2019
5111 Clear 19 1009 68 10000 2.1 340 21:57 15.07.2019
5112 Clouds 20 1009 64 10000 2.6 10 21:39 15.07.2019
5113 Clouds 20 1009 64 10000 2.6 10 21:19 15.07.2019
5114 Clouds 21 1009 68 10000 2.6 340 20:44 15.07.2019
5115 Clouds 21 1009 68 10000 2.6 340 20:24 15.07.2019
5116 Clouds 21 1008 68 10000 3.6 120 19:57 15.07.2019
5117 Clouds 22 1008 60 10000 3.6 120 19:38 15.07.2019
5118 Clouds 22 1008 60 10000 3.6 120 19:18 15.07.2019
5119 Clear 23 1008 57 10000 5.1 90 18:44 15.07.2019
5120 Clear 23 1008 57 10000 5.1 90 18:21 15.07.2019
5121 Clear 24 1007 50 10000 3.1 0 17:56 15.07.2019
5122 Clear 24 1007 50 10000 3.1 0 17:56 15.07.2019
5123 Clear 25 1007 34 10000 4.6 280 17:38 15.07.2019
5124 Clear 25 1007 34 10000 4.6 280 17:20 15.07.2019
5125 Clear 25 1007 32 10000 3.6 260 16:57 15.07.2019
5126 Clear 25 1007 34 10000 2.1 0 16:36 15.07.2019
5127 Clear 26 1007 34 10000 2.1 0 16:18 15.07.2019
5128 Clear 25 1007 34 10000 3.1 310 15:39 15.07.2019
5129 Clear 26 1007 34 10000 3.1 310 15:21 15.07.2019
5130 Clear 26 1008 39 10000 3.1 310 14:57 15.07.2019
5131 Clear 25 1008 41 10000 4.1 330 14:37 15.07.2019
5132 Clear 26 1008 41 10000 4.1 330 14:19 15.07.2019
5133 Clear 26 1008 44 10000 4.1 330 13:45 15.07.2019
5134 Clouds 25 1008 44 10000 3.1 320 13:18 15.07.2019
5135 Clouds 25 1008 44 10000 4.6 310 12:43 15.07.2019
5136 Clouds 25 1008 44 10000 4.6 310 12:24 15.07.2019
5137 Clouds 24 1008 56 10000 4.6 310 11:44 15.07.2019
5138 Clouds 24 1008 56 10000 4.6 310 11:26 15.07.2019
5139 Clouds 24 1008 57 10000 5.7 310 10:54 15.07.2019
5140 Clouds 22 1008 64 10000 6.2 310 10:36 15.07.2019
5141 Clouds 22 1008 64 10000 6.2 310 10:18 15.07.2019
5142 Clouds 20 1008 72 10000 6.2 290 09:41 15.07.2019
5143 Clouds 20 1008 72 10000 6.2 290 09:19 15.07.2019
5144 Clouds 19 1008 77 10000 4.1 300 08:43 15.07.2019
5145 Clouds 19 1008 77 10000 4.1 300 08:24 15.07.2019
5146 Clouds 17 1007 87 10000 4.1 270 07:43 15.07.2019
5147 Clouds 17 1007 87 10000 4.1 270 07:21 15.07.2019
5148 Clouds 16 1007 82 10000 2.6 250 06:39 15.07.2019
5149 Clouds 15 1007 87 10000 4.6 300 05:51 15.07.2019
5150 Clouds 15 1007 87 10000 4.6 300 05:51 15.07.2019
5151 Clouds 15 1007 87 10000 4.1 270 05:32 15.07.2019
5152 Clouds 15 1007 87 10000 3.6 290 04:43 15.07.2019
5153 Clouds 15 1007 87 10000 3.6 290 03:58 15.07.2019
5154 Clouds 15 1007 87 10000 3.6 290 03:58 15.07.2019
5155 Clear 15 1007 82 10000 2.6 280 02:47 15.07.2019
5156 Clear 15 1007 87 10000 1 0 01:53 15.07.2019
5157 Clear 15 1007 82 10000 3.1 260 01:28 15.07.2019
5158 Clear 16 1007 82 10000 3.1 280 00:53 15.07.2019
5159 Clear 16 1007 82 10000 2.6 280 00:23 15.07.2019
5160 Clouds 16 1007 77 10000 2.6 290 23:55 14.07.2019
5161 Clouds 16 1007 77 10000 2.1 330 23:37 14.07.2019
5162 Clouds 16 1007 77 10000 2.1 330 23:18 14.07.2019
5163 Clouds 16 1007 77 10000 4.6 350 22:55 14.07.2019
5164 Clouds 17 1007 77 10000 1.5 0 22:36 14.07.2019
5165 Clouds 17 1007 77 10000 1.5 0 22:18 14.07.2019
5166 Clouds 16 1007 77 10000 2.6 310 21:42 14.07.2019
5167 Clouds 16 1007 77 10000 2.6 310 21:18 14.07.2019
5168 Clouds 16 1007 77 10000 4.1 340 20:57 14.07.2019
5169 Clouds 17 1007 77 10000 4.1 350 20:37 14.07.2019
5170 Clouds 17 1007 77 10000 4.1 350 20:18 14.07.2019
5171 Rain 17 1007 82 10000 3.6 350 19:43 14.07.2019
5172 Rain 17 1007 82 10000 3.6 350 19:24 14.07.2019
5173 Rain 18 1007 82 10000 3.1 340 18:57 14.07.2019
5174 Rain 18 1007 82 10000 3.6 360 18:38 14.07.2019
5175 Rain 18 1007 82 10000 3.6 360 18:18 14.07.2019
5176 Rain 19 1007 77 10000 3.1 330 17:47 14.07.2019
5177 Rain 19 1007 77 10000 3.6 350 17:20 14.07.2019
5178 Rain 19 1007 77 10000 4.6 320 16:46 14.07.2019
5179 Rain 20 1007 77 10000 4.6 320 16:24 14.07.2019
5180 Clouds 20 1007 73 10000 3.6 320 15:54 14.07.2019
5181 Clouds 20 1007 72 10000 3.6 310 15:29 14.07.2019
5182 Rain 20 1007 72 10000 2.6 290 14:49 14.07.2019
5183 Rain 20 1007 68 10000 2.6 270 14:22 14.07.2019
5184 Clouds 19 1007 72 10000 3.1 260 13:49 14.07.2019
5185 Rain 19 1007 72 10000 3.1 310 13:26 14.07.2019
5186 Rain 19 1007 77 10000 4.1 320 12:59 14.07.2019
5187 Rain 19 1007 77 10000 3.1 360 12:40 14.07.2019
5188 Rain 18 1007 77 10000 3.1 360 12:21 14.07.2019
5189 Clouds 18 1007 77 10000 4.1 330 11:52 14.07.2019
5190 Rain 18 1007 82 10000 5.1 330 11:24 14.07.2019
5191 Rain 19 1007 82 10000 3.6 260 10:50 14.07.2019
5192 Clouds 19 1007 82 10000 4.6 280 10:25 14.07.2019
5193 Thunderstorm 20 1007 77 10000 6.7 270 09:55 14.07.2019
5194 Thunderstorm 23 1006 60 10000 5.1 130 09:37 14.07.2019
5195 Thunderstorm 23 1006 60 10000 5.1 130 09:18 14.07.2019
5196 Clouds 23 1007 69 10000 2.1 120 08:41 14.07.2019
5197 Clouds 21 1007 77 10000 1 0 07:56 14.07.2019
5198 Clouds 20 1007 77 10000 1.54 150.693 07:34 14.07.2019
5199 Clouds 18 1007 88 10000 0.5 0 06:23 14.07.2019
5200 Clouds 17 1007 88 10000 0.5 0 05:43 14.07.2019
5201 Clear 17 1007 77 10000 2.1 50 03:44 14.07.2019
5202 Clear 17 1007 77 10000 2.1 50 03:25 14.07.2019
5203 Clear 17 1008 77 10000 1 30 02:25 14.07.2019
5204 Clear 17 1008 77 10000 0.5 0 01:57 14.07.2019
5205 Clear 18 1008 72 10000 1.5 110 01:30 14.07.2019
5206 Clear 18 1009 72 10000 1 150 00:42 14.07.2019
5207 Clear 18 1009 72 10000 1 150 00:21 14.07.2019
5208 Clear 18 1009 68 10000 2.1 140 23:59 13.07.2019
5209 Clear 18 1009 72 10000 2.1 130 23:41 13.07.2019
5210 Clear 18 1009 72 10000 2.1 130 23:22 13.07.2019
5211 Clear 19 1009 64 10000 2.1 150 22:42 13.07.2019
5212 Clear 19 1009 64 10000 2.1 150 22:22 13.07.2019
5213 Clear 19 1010 64 10000 2.1 130 21:49 13.07.2019
5214 Clear 19 1010 64 10000 2.6 140 21:22 13.07.2019
5215 Clear 19 1010 64 10000 3.1 140 20:53 13.07.2019
5216 Clear 20 1009 60 10000 3.1 140 20:33 13.07.2019
5217 Clear 21 1009 60 10000 2.6 140 19:53 13.07.2019
5218 Clear 22 1009 53 10000 3.6 140 19:31 13.07.2019
5219 Clear 22 1010 53 10000 4.1 150 18:56 13.07.2019
5220 Clear 23 1009 47 10000 5.1 160 18:38 13.07.2019
5221 Clear 23 1009 47 10000 5.1 160 18:18 13.07.2019
5222 Clear 25 1009 41 10000 6.2 150 17:37 13.07.2019
5223 Clear 24 1009 41 10000 6.2 150 17:19 13.07.2019
5224 Clear 25 1010 39 10000 5.7 140 16:43 13.07.2019
5225 Clear 26 1010 39 10000 5.7 140 16:24 13.07.2019
5226 Clouds 26 1010 39 10000 6.7 140 15:46 13.07.2019
5227 Clouds 25 1010 38 10000 6.2 130 15:24 13.07.2019
5228 Clouds 25 1010 47 10000 7.2 150 14:47 13.07.2019
5229 Clouds 25 1010 47 10000 7.2 150 14:28 13.07.2019
5230 Clouds 24 1010 57 10000 6.2 140 13:58 13.07.2019
5231 Clouds 25 1010 57 10000 6.7 130 13:40 13.07.2019
5232 Clouds 25 1010 57 10000 6.7 130 13:19 13.07.2019
5233 Clouds 28 1011 50 10000 6.2 120 12:40 13.07.2019
5234 Clouds 26 1011 50 10000 6.2 120 12:22 13.07.2019
5235 Clouds 27 1011 44 10000 4.6 130 11:57 13.07.2019
5236 Clouds 25 1011 44 10000 4.1 140 11:20 13.07.2019
5237 Clouds 27 1011 39 10000 2.6 240 10:55 13.07.2019
5238 Clouds 25 1011 38 10000 3.1 190 10:37 13.07.2019
5239 Clouds 26 1011 38 10000 3.1 190 10:18 13.07.2019
5240 Clear 24 1011 56 10000 1.5 0 09:41 13.07.2019
5241 Clear 23 1011 56 10000 1.5 0 09:20 13.07.2019
5242 Clear 21 1012 64 10000 2.1 260 08:45 13.07.2019
5243 Clear 21 1012 64 10000 2.1 260 08:26 13.07.2019
5244 Clouds 17 1012 82 10000 1.5 280 07:30 13.07.2019
5245 Clouds 18 1012 87 10000 2.1 280 06:50 13.07.2019
5246 Clouds 15 1012 87 10000 2.1 290 06:22 13.07.2019
5247 Clouds 14 1012 93 8000 2.1 290 05:33 13.07.2019
5248 Clear 12 1011 93 10000 0.5 0 04:24 13.07.2019
5249 Clear 12 1011 93 10000 1.5 310 03:57 13.07.2019
5250 Clear 13 1011 87 10000 1 0 03:39 13.07.2019
5251 Clear 13 1012 87 10000 2.1 310 02:18 13.07.2019
5252 Clear 13 1012 87 10000 1 0 01:41 13.07.2019
5253 Clear 13 1012 87 10000 1 0 01:19 13.07.2019
5254 Clear 14 1012 87 10000 1 0 00:54 13.07.2019
5255 Clear 14 1012 82 10000 1.5 350 00:20 13.07.2019
5256 Clear 14 1012 82 10000 2.1 360 23:48 12.07.2019
5257 Clear 15 1012 82 10000 2.1 10 23:29 12.07.2019
5258 Clear 15 1012 82 10000 2.1 10 22:46 12.07.2019
5259 Clear 16 1012 77 10000 1.5 20 22:24 12.07.2019
5260 Clear 16 1012 77 10000 1.5 0 21:43 12.07.2019
5261 Clear 16 1012 77 10000 1.5 0 21:22 12.07.2019
5262 Clear 17 1012 68 10000 0.41 309.931 20:57 12.07.2019
5263 Clear 18 1012 68 10000 1 0 20:38 12.07.2019
5264 Clear 19 1012 68 10000 1 0 20:20 12.07.2019
5265 Clouds 21 1011 64 10000 2.6 140 19:42 12.07.2019
5266 Clouds 21 1011 64 10000 2.6 140 19:23 12.07.2019
5267 Clear 21 1011 64 10000 3.1 130 18:46 12.07.2019
5268 Clear 24 1011 64 10000 5.1 130 18:22 12.07.2019
5269 Clouds 23 1011 64 10000 5.1 130 17:53 12.07.2019
5270 Clouds 22 1011 60 10000 6.7 120 17:29 12.07.2019
5271 Clouds 25 1011 56 10000 7.7 120 16:51 12.07.2019
5272 Clouds 26 1011 34 10000 4.6 90 16:23 12.07.2019
5273 Clouds 25 1011 36 10000 4.6 330 15:54 12.07.2019
5274 Clouds 25 1011 36 10000 4.1 340 15:36 12.07.2019
5275 Clouds 25 1011 36 10000 4.1 340 15:18 12.07.2019
5276 Clouds 24 1010 38 10000 4.6 300 14:43 12.07.2019
5277 Clouds 25 1010 38 10000 4.6 300 14:20 12.07.2019
5278 Clouds 24 1011 41 10000 4.6 320 13:43 12.07.2019
5279 Clouds 24 1011 41 10000 4.6 320 13:20 12.07.2019
5280 Clouds 25 1011 38 10000 4.6 320 12:41 12.07.2019
5281 Clouds 24 1011 38 10000 4.6 320 12:21 12.07.2019
5282 Clouds 24 1011 41 10000 3.6 0 11:45 12.07.2019
5283 Clouds 24 1011 41 10000 3.1 350 11:24 12.07.2019
5284 Clouds 23 1011 41 10000 3.1 310 10:55 12.07.2019
5285 Clouds 23 1011 47 10000 1.5 0 10:37 12.07.2019
5286 Clouds 23 1011 47 10000 1.5 0 10:18 12.07.2019
5287 Clear 21 1011 56 10000 2.1 230 09:46 12.07.2019
5288 Clear 20 1011 56 10000 2.1 230 09:23 12.07.2019
5289 Clear 18 1011 63 10000 3.1 260 08:42 12.07.2019
5290 Clear 19 1011 63 10000 3.1 260 08:21 12.07.2019
5291 Clear 18 1011 68 10000 2.1 270 07:47 12.07.2019
5292 Clear 19 1011 72 10000 2.6 260 07:27 12.07.2019
5293 Clear 16 1010 77 10000 1 0 06:29 12.07.2019
5294 Clear 15 1010 77 10000 3.6 300 05:50 12.07.2019
5295 Clear 14 1010 82 10000 1.5 360 03:24 12.07.2019
5296 Clear 14 1010 87 10000 1.46 5.984 01:48 12.07.2019
5297 Clear 14 1010 93 10000 2.6 280 01:26 12.07.2019
5298 Clear 15 1011 82 10000 1.5 250 00:34 12.07.2019
5299 Clear 16 1010 82 10000 1.5 340 23:50 11.07.2019
5300 Clear 16 1010 77 10000 1.5 10 23:28 11.07.2019
5301 Clear 16 1010 77 10000 2.1 30 22:59 11.07.2019
5302 Clear 16 1011 72 10000 3.1 10 22:40 11.07.2019
5303 Clear 16 1011 72 10000 3.1 10 22:21 11.07.2019
5304 Clouds 17 1010 68 10000 1 0 21:42 11.07.2019
5305 Clouds 17 1010 68 10000 1 0 21:19 11.07.2019
5306 Clouds 18 1010 68 10000 2.6 120 20:56 11.07.2019
5307 Clouds 19 1010 64 10000 3.1 110 20:37 11.07.2019
5308 Clouds 19 1010 64 10000 3.1 110 20:37 11.07.2019
5309 Clouds 20 1010 64 10000 3.1 110 20:18 11.07.2019
5310 Clouds 20 1010 64 10000 3.1 110 20:18 11.07.2019
5311 Clouds 24 1009 38 10000 3.6 350 19:45 11.07.2019
5312 Clouds 22 1009 38 10000 3.6 350 19:25 11.07.2019
5313 Clouds 23 1009 36 10000 3.1 320 18:53 11.07.2019
5314 Clouds 23 1009 36 10000 3.1 320 18:53 11.07.2019
5315 Clear 24 1009 33 10000 5.1 310 18:33 11.07.2019
5316 Clear 24 1009 33 10000 4.1 330 17:58 11.07.2019
5317 Clear 24 1009 33 10000 4.1 330 17:58 11.07.2019
5318 Clear 24 1009 33 10000 5.7 330 17:40 11.07.2019
5319 Clear 25 1009 33 10000 5.7 330 17:22 11.07.2019
5320 Clear 25 1009 36 10000 6.2 330 16:45 11.07.2019
5321 Clear 24 1009 34 10000 5.7 10 16:23 11.07.2019
5322 Clear 23 1009 38 10000 6.2 320 15:44 11.07.2019
5323 Clear 24 1009 38 10000 6.2 320 15:25 11.07.2019
5324 Clouds 25 1009 36 10000 7.2 320 14:59 11.07.2019
5325 Clouds 25 1009 36 10000 6.2 340 14:40 11.07.2019
5326 Clouds 25 1009 36 10000 6.2 340 14:20 11.07.2019
5327 Clouds 24 1009 33 10000 6.2 340 13:45 11.07.2019
5328 Clouds 24 1009 36 10000 5.7 360 13:25 11.07.2019
5329 Clouds 23 1009 38 10000 6.2 350 12:39 11.07.2019
5330 Clouds 24 1009 38 10000 6.2 350 12:20 11.07.2019
5331 Clouds 23 1009 38 10000 5.7 30 11:52 11.07.2019
5332 Clouds 23 1009 40 10000 6.2 340 11:30 11.07.2019
5333 Clouds 22 1010 43 10000 5.7 350 10:54 11.07.2019
5334 Clouds 21 1010 46 10000 5.7 360 10:21 11.07.2019
5335 Clouds 21 1010 52 10000 6.2 330 09:58 11.07.2019
5336 Clear 20 1010 52 10000 4.1 350 09:39 11.07.2019
5337 Clear 19 1010 52 10000 4.1 350 09:21 11.07.2019
5338 Clear 19 1010 56 10000 3.6 340 08:49 11.07.2019
5339 Clear 18 1010 52 10000 2.6 0 08:22 11.07.2019
5340 Clear 21 1010 63 10000 2.6 0 07:46 11.07.2019
5341 Clear 20 1010 72 10000 3.6 280 07:28 11.07.2019
5342 Clouds 16 1009 77 10000 2.6 320 06:21 11.07.2019
5343 Clouds 16 1009 77 10000 1.5 260 05:43 11.07.2019
5344 Clouds 16 1009 77 10000 1.5 260 05:24 11.07.2019
5345 Clouds 15 1008 72 10000 6.7 10 03:59 11.07.2019
5346 Clouds 16 1009 77 10000 6.2 350 02:34 11.07.2019
5347 Rain 16 1009 77 10000 3.6 270 00:48 11.07.2019
5348 Rain 17 1009 88 10000 3.6 250 23:52 10.07.2019
5349 Rain 17 1009 82 10000 3.1 300 23:31 10.07.2019
5350 Clouds 18 1009 77 10000 4.6 300 22:58 10.07.2019
5351 Clouds 18 1009 77 10000 4.1 270 22:27 10.07.2019
5352 Clouds 18 1009 72 10000 3.6 270 21:59 10.07.2019
5353 Clouds 18 1009 77 10000 1.5 220 21:39 10.07.2019
5354 Clouds 18 1009 77 10000 1.5 220 21:21 10.07.2019
5355 Rain 19 1009 72 10000 3.1 250 20:48 10.07.2019
5356 Clouds 19 1008 72 10000 3.6 300 20:27 10.07.2019
5357 Clouds 19 1008 77 10000 3.1 270 19:59 10.07.2019
5358 Clouds 19 1008 72 10000 4.1 310 19:40 10.07.2019
5359 Clouds 19 1008 72 10000 4.1 310 19:21 10.07.2019
5360 Rain 19 1009 72 10000 4.6 320 18:46 10.07.2019
5361 Rain 20 1009 64 10000 5.1 280 18:24 10.07.2019
5362 Clouds 20 1009 68 10000 4.6 280 17:50 10.07.2019
5363 Rain 21 1008 60 10000 5.1 280 17:30 10.07.2019
5364 Clouds 21 1008 56 10000 4.6 270 16:48 10.07.2019
5365 Clouds 22 1008 60 10000 4.6 250 16:22 10.07.2019
5366 Clouds 23 1008 57 10000 5.1 240 15:47 10.07.2019
5367 Clouds 24 1008 57 10000 5.1 240 15:26 10.07.2019
5368 Clouds 24 1008 50 10000 4.6 240 14:59 10.07.2019
5369 Clouds 25 1009 47 10000 3.1 270 14:37 10.07.2019
5370 Clouds 24 1009 47 10000 3.1 270 14:19 10.07.2019
5371 Clouds 25 1009 49 10000 4.1 250 13:38 10.07.2019
5372 Clouds 26 1009 49 10000 4.1 250 13:18 10.07.2019
5373 Clear 26 1010 47 10000 4.1 320 12:41 10.07.2019
5374 Clear 24 1010 47 10000 4.1 320 12:21 10.07.2019
5375 Clouds 24 1010 53 10000 3.6 320 11:49 10.07.2019
5376 Clouds 24 1010 49 10000 2.1 340 11:22 10.07.2019
5377 Clouds 24 1010 53 10000 3.1 340 10:58 10.07.2019
5378 Clear 23 1010 49 10000 4.1 330 10:24 10.07.2019
5379 Clear 22 1010 50 10000 3.1 350 09:57 10.07.2019
5380 Clear 22 1010 53 10000 1.5 360 09:38 10.07.2019
5381 Clear 22 1010 53 10000 1.5 360 09:19 10.07.2019
5382 Clear 22 1009 53 10000 1 0 08:49 10.07.2019
5383 Clear 21 1009 56 10000 1.5 330 08:24 10.07.2019
5384 Clear 21 1009 64 10000 1.5 300 07:51 10.07.2019
5385 Clear 21 1009 68 10000 2.1 250 07:23 10.07.2019
5386 Clear 20 1010 72 10000 0.5 0 06:39 10.07.2019
5387 Clouds 18 1010 82 10000 2.1 270 05:40 10.07.2019
5388 Clear 18 1010 77 10000 2.1 270 04:31 10.07.2019
5389 Clear 19 1010 64 10000 2.6 300 02:20 10.07.2019
5390 Clear 19 1010 72 10000 1 0 00:44 10.07.2019
5391 Clear 18 1011 72 10000 2.1 270 23:42 09.07.2019
5392 Clear 18 1011 72 10000 2.1 270 23:24 09.07.2019
5393 Clear 19 1011 73 10000 2.1 240 22:57 09.07.2019
5394 Clear 20 1011 64 10000 1.5 220 22:38 09.07.2019
5395 Clear 20 1011 64 10000 1.5 220 22:20 09.07.2019
5396 Clear 21 1011 64 10000 1 0 21:46 09.07.2019
5397 Clear 21 1011 64 10000 3.1 340 21:26 09.07.2019
5398 Clear 22 1010 60 10000 0.5 0 20:45 09.07.2019
5399 Clear 22 1010 60 10000 0.5 0 20:26 09.07.2019
5400 Clear 24 1010 57 10000 1.5 290 19:56 09.07.2019
5401 Clear 24 1010 57 10000 2.1 310 19:36 09.07.2019
5402 Clear 24 1010 57 10000 2.1 310 19:18 09.07.2019
5403 Clouds 26 1010 47 10000 4.6 330 18:38 09.07.2019
5404 Clouds 26 1010 47 10000 4.6 330 18:19 09.07.2019
5405 Clouds 26 1010 54 10000 2.6 330 17:43 09.07.2019
5406 Clouds 26 1010 54 10000 2.6 330 17:21 09.07.2019
5407 Clouds 26 1010 51 10000 4.6 350 16:55 09.07.2019
5408 Clouds 26 1010 51 10000 4.1 350 16:36 09.07.2019
5409 Clouds 27 1010 45 10000 4.6 300 16:18 09.07.2019
5410 Clouds 27 1010 39 10000 3.6 310 15:41 09.07.2019
5411 Clouds 27 1010 39 10000 3.6 310 15:22 09.07.2019
5412 Clouds 27 1010 39 10000 5.1 320 14:43 09.07.2019
5413 Clouds 27 1010 39 10000 5.1 320 14:22 09.07.2019
5414 Clouds 28 1011 37 10000 5.1 280 13:46 09.07.2019
5415 Clouds 28 1011 42 10000 4.1 280 13:28 09.07.2019
5416 Clouds 28 1011 42 10000 4.1 270 12:57 09.07.2019
5417 Clear 28 1011 42 10000 4.6 270 12:37 09.07.2019
5418 Clear 27 1011 42 10000 4.6 270 12:18 09.07.2019
5419 Clear 28 1012 45 10000 4.6 270 11:41 09.07.2019
5420 Clear 27 1012 45 10000 4.6 270 11:22 09.07.2019
5421 Clear 26 1012 54 10000 3.1 170 10:58 09.07.2019
5422 Clear 26 1012 57 10000 2.6 150 10:35 09.07.2019
5423 Clear 26 1012 54 10000 2.6 220 09:56 09.07.2019
5424 Clear 26 1012 57 10000 2.6 200 09:37 09.07.2019
5425 Clear 26 1012 57 10000 2.6 200 09:19 09.07.2019
5426 Clear 24 1013 64 10000 2.1 250 08:41 09.07.2019
5427 Rain 19 1017 94 4600 4.6 50 04:19 05.07.2019
5428 Clouds 19 1017 93 10000 0.5 0 03:39 05.07.2019
5429 Clouds 18 1017 93 10000 0.5 0 03:19 05.07.2019
5430 Clouds 19 1017 94 10000 1.5 30 02:51 05.07.2019
5431 Clouds 19 1017 88 10000 0.5 0 01:55 05.07.2019
5432 Clouds 19 1017 94 10000 1 30 01:28 05.07.2019
5433 Clouds 19 1017 88 10000 1.5 270 00:51 05.07.2019
5434 Clouds 20 1017 88 10000 1.5 250 00:29 05.07.2019
5435 Clouds 19 1018 88 10000 2.62 152.007 23:38 04.07.2019
5436 Clouds 19 1018 88 10000 2.62 152.007 23:18 04.07.2019
5437 Clear 20 1017 83 10000 2.6 70 22:41 04.07.2019
5438 Clear 20 1017 83 10000 2.6 70 22:20 04.07.2019
5439 Clear 20 1017 83 10000 2.6 40 21:44 04.07.2019
5440 Clear 20 1017 83 10000 2.6 40 21:25 04.07.2019
5441 Clear 22 1017 73 10000 4.1 90 20:58 04.07.2019
5442 Clear 22 1017 69 10000 4.6 100 20:37 04.07.2019
5443 Clear 22 1017 69 10000 4.6 100 20:18 04.07.2019
5444 Clear 24 1016 65 10000 5.1 110 19:41 04.07.2019
5445 Clear 24 1016 65 10000 5.1 110 19:21 04.07.2019
5446 Clear 25 1016 61 10000 5.7 110 18:46 04.07.2019
5447 Clear 26 1016 65 10000 6.2 120 18:28 04.07.2019
5448 Clear 26 1016 69 10000 6.7 120 17:58 04.07.2019
5449 Clear 27 1016 69 10000 6.7 120 17:40 04.07.2019
5450 Clear 27 1016 69 10000 6.7 120 17:18 04.07.2019
5451 Clear 27 1016 69 10000 6.7 120 17:18 04.07.2019
5452 Clear 27 1016 69 10000 6.7 120 17:18 04.07.2019
5453 Clouds 27 1016 65 10000 7.7 140 15:45 04.07.2019
5454 Clouds 27 1016 65 10000 7.7 140 15:24 04.07.2019
5455 Clouds 28 1017 65 10000 6.7 130 14:59 04.07.2019
5456 Clouds 27 1017 69 10000 6.7 140 14:38 04.07.2019
5457 Clouds 27 1017 69 10000 6.7 140 14:19 04.07.2019
5458 Clouds 28 1017 58 10000 6.2 130 13:56 04.07.2019
5459 Clouds 28 1017 54 10000 4.6 130 13:38 04.07.2019
5460 Clouds 28 1017 54 10000 4.6 130 13:18 04.07.2019
5461 Clouds 27 1017 58 10000 3.1 140 12:38 04.07.2019
5462 Clouds 27 1017 58 10000 3.1 140 12:19 04.07.2019
5463 Clouds 27 1017 61 10000 3.1 140 11:43 04.07.2019
5464 Clouds 27 1017 61 10000 3.1 140 11:20 04.07.2019
5465 Clouds 27 1017 61 10000 3.6 140 10:45 04.07.2019
5466 Clear 26 1017 54 10000 1.5 0 10:27 04.07.2019
5467 Clear 25 1017 57 10000 2.1 0 09:56 04.07.2019
5468 Clear 25 1017 61 10000 2.1 200 09:38 04.07.2019
5469 Clear 25 1017 61 10000 2.1 200 09:18 04.07.2019
5470 Clear 24 1017 61 10000 0.5 0 08:42 04.07.2019
5471 Clear 23 1017 61 10000 0.5 0 08:18 04.07.2019
5472 Clear 22 1016 78 10000 2.1 120 07:38 04.07.2019
5473 Clear 23 1016 78 10000 2.1 120 07:18 04.07.2019
5474 Clear 20 1017 82 10000 3.6 320 06:20 04.07.2019
5475 Clear 20 1015 73 10000 3.6 190 05:41 04.07.2019
5476 Clear 20 1014 73 10000 4.1 150 03:48 04.07.2019
5477 Clouds 21 1016 64 10000 5.7 330 01:48 04.07.2019
5478 Thunderstorm 21 1017 68 10000 3.1 260 01:26 04.07.2019
5479 Clear 21 1016 68 10000 2.1 260 00:39 04.07.2019
5480 Clear 20 1016 77 10000 5.1 270 23:52 03.07.2019
5481 Clear 21 1014 77 10000 4.6 300 23:20 03.07.2019
5482 Clear 22 1012 50 10000 5.1 100 22:56 03.07.2019
5483 Clouds 21 1012 56 10000 7.2 50 22:37 03.07.2019
5484 Clouds 22 1012 56 10000 7.2 50 22:18 03.07.2019
5485 Rain 22 1013 64 10000 6.7 10 21:50 03.07.2019
5486 Thunderstorm 21 1015 73 10000 8.2 10 21:31 03.07.2019
5487 Thunderstorm 21 1017 78 7000 5.1 10 20:47 03.07.2019
5488 Clouds 22 1015 60 10000 7.2 40 20:29 03.07.2019
5489 Clouds 22 1015 60 10000 7.2 40 20:29 03.07.2019
5490 Thunderstorm 23 1015 57 10000 9.3 40 19:57 03.07.2019
5491 Clouds 23 1013 36 10000 5.1 60 19:39 03.07.2019
5492 Clouds 23 1012 61 10000 4.6 100 18:56 03.07.2019
5493 Clouds 25 1011 54 10000 5.1 90 18:37 03.07.2019
5494 Clouds 27 1011 54 10000 5.1 90 18:19 03.07.2019
5495 Clear 28 1011 42 10000 5.1 90 17:49 03.07.2019
5496 Clear 29 1011 40 10000 5.1 90 17:19 03.07.2019
5497 Clear 30 1011 40 10000 5.1 90 16:44 03.07.2019
5498 Clear 29 1011 40 10000 6.2 100 16:24 03.07.2019
5499 Clear 30 1012 33 10000 6.7 100 15:52 03.07.2019
5500 Clear 30 1012 33 10000 6.7 100 15:52 03.07.2019
5501 Clear 31 1012 33 10000 6.7 110 15:32 03.07.2019
5502 Clear 30 1012 40 10000 6.2 100 14:59 03.07.2019
5503 Clear 31 1012 43 10000 6.7 100 14:41 03.07.2019
5504 Clear 31 1012 43 10000 6.7 100 14:19 03.07.2019
5505 Clear 31 1012 43 10000 7.2 100 13:43 03.07.2019
5506 Clear 31 1012 43 10000 7.2 100 13:24 03.07.2019
5507 Clear 32 1012 29 10000 6.7 100 12:45 03.07.2019
5508 Clear 32 1012 35 10000 5.1 100 12:18 03.07.2019
5509 Clear 31 1012 55 10000 7.2 110 11:43 03.07.2019
5510 Clear 28 1012 55 10000 7.2 110 11:22 03.07.2019
5511 Clear 31 1012 48 10000 1.5 180 10:44 03.07.2019
5512 Clear 31 1012 48 10000 1.5 180 10:25 03.07.2019
5513 Clear 30 1012 58 10000 1 0 09:57 03.07.2019
5514 Clear 30 1012 65 10000 2.1 260 09:38 03.07.2019
5515 Clear 26 1012 65 10000 2.1 260 09:19 03.07.2019
5516 Clear 25 1012 61 10000 1.5 270 08:50 03.07.2019
5517 Clear 24 1012 69 10000 1 0 08:26 03.07.2019
5518 Clear 25 1012 77 8000 1.5 260 07:39 03.07.2019
5519 Clear 24 1012 77 8000 1.5 260 07:19 03.07.2019
5520 Clear 22 1012 82 6000 1.19 230.822 06:20 03.07.2019
5521 Clear 19 1012 93 10000 1 290 05:29 03.07.2019
5522 Clear 17 1012 77 10000 2.1 350 04:28 03.07.2019
5523 Clear 17 1012 93 10000 1 290 03:22 03.07.2019
5524 Clear 19 1012 82 10000 2.1 40 01:42 03.07.2019
5525 Clear 19 1013 82 10000 2.1 20 01:21 03.07.2019
5526 Clear 19 1013 88 10000 1.5 20 00:42 03.07.2019
5527 Clear 20 1013 82 10000 1.5 10 23:58 02.07.2019
5528 Clear 20 1013 82 10000 1.5 30 23:37 02.07.2019
5529 Clear 20 1013 82 10000 1.5 30 23:19 02.07.2019
5530 Clear 20 1013 83 10000 1.5 40 22:55 02.07.2019
5531 Clear 20 1013 77 10000 1.5 40 22:36 02.07.2019
5532 Clear 20 1013 83 10000 1.5 40 22:18 02.07.2019
5533 Clear 21 1013 78 10000 2.1 120 21:41 02.07.2019
5534 Clear 22 1013 73 10000 1.5 120 21:20 02.07.2019
5535 Clear 22 1013 73 10000 1.5 120 20:57 02.07.2019
5536 Clear 23 1012 69 10000 2.6 130 20:39 02.07.2019
5537 Clear 23 1012 69 10000 3.6 100 20:19 02.07.2019
5538 Clear 25 1012 57 10000 4.1 100 19:42 02.07.2019
5539 Clear 26 1012 54 10000 4.6 100 19:23 02.07.2019
5540 Clear 27 1012 54 10000 5.1 100 18:47 02.07.2019
5541 Clear 30 1012 54 10000 5.7 100 18:18 02.07.2019
5542 Clear 30 1012 54 10000 5.7 100 18:18 02.07.2019
5543 Clear 31 1012 51 10000 5.7 110 17:41 02.07.2019
5544 Clear 31 1012 51 10000 5.7 110 17:22 02.07.2019
5545 Clear 32 1012 48 10000 5.7 100 16:49 02.07.2019
5546 Clear 31 1012 42 10000 5.1 90 16:31 02.07.2019
5547 Clear 31 1012 45 10000 5.7 100 15:46 02.07.2019
5548 Clear 29 1013 45 10000 5.7 100 15:26 02.07.2019
5549 Clear 29 1013 48 10000 6.2 100 14:56 02.07.2019
5550 Clear 29 1013 48 10000 6.2 100 14:38 02.07.2019
5551 Clear 30 1013 51 10000 6.7 100 13:58 02.07.2019
5552 Clear 30 1013 40 10000 4.1 120 13:36 02.07.2019
5553 Clear 30 1014 45 10000 4.1 100 13:18 02.07.2019
5554 Clear 31 1014 45 10000 3.6 100 12:43 02.07.2019
5555 Clear 30 1014 45 10000 3.6 100 12:22 02.07.2019
5556 Clear 30 1014 48 10000 4.1 90 11:43 02.07.2019
5557 Clear 30 1014 48 10000 4.1 90 11:43 02.07.2019
5558 Clear 30 1014 48 10000 4.1 90 11:23 02.07.2019
5559 Clear 29 1014 39 10000 2.6 150 10:51 02.07.2019
5560 Clear 28 1014 42 10000 2.1 0 10:26 02.07.2019
5561 Clear 27 1014 44 10000 2.1 220 09:49 02.07.2019
5562 Clear 27 1015 50 10000 0.5 0 09:22 02.07.2019
5563 Clear 26 1015 50 10000 1 0 08:52 02.07.2019
5564 Clear 25 1015 60 10000 1.5 210 08:34 02.07.2019
5565 Clear 26 1015 69 10000 2.55 198.841 07:55 02.07.2019
5566 Clear 22 1015 73 10000 2.55 198.841 07:21 02.07.2019
5567 Clear 22 1015 73 10000 2.55 198.841 07:21 02.07.2019
5568 Clear 22 1015 88 10000 2.55 198.841 06:54 02.07.2019
5569 Clear 22 1015 88 10000 2.55 198.841 06:35 02.07.2019
5570 Clear 17 1015 88 10000 0.5 310 04:59 02.07.2019
5571 Clear 18 1016 82 10000 2.61 199.248 02:28 02.07.2019
5572 Clear 19 1017 82 10000 2.6 60 00:23 02.07.2019
5573 Clear 20 1017 77 10000 2.6 110 23:24 01.07.2019
5574 Clear 20 1017 77 10000 2.1 110 22:48 01.07.2019
5575 Clear 20 1017 73 10000 3.6 120 22:28 01.07.2019
5576 Clear 21 1017 73 10000 3.1 120 21:49 01.07.2019
5577 Clear 21 1017 73 10000 3.1 120 21:28 01.07.2019
5578 Clear 22 1017 69 10000 2.6 110 20:57 01.07.2019
5579 Clear 23 1017 69 10000 3.1 120 20:39 01.07.2019
5580 Clear 23 1017 69 10000 3.1 120 20:19 01.07.2019
5581 Clear 26 1017 57 10000 3.6 120 19:42 01.07.2019
5582 Clear 25 1017 57 10000 3.6 120 19:24 01.07.2019
5583 Clear 27 1017 54 10000 3.1 120 18:55 01.07.2019
5584 Clear 27 1017 54 10000 3.6 120 18:37 01.07.2019
5585 Clear 28 1017 54 10000 3.6 120 18:18 01.07.2019
5586 Clear 29 1017 54 10000 5.7 100 17:42 01.07.2019
5587 Clear 30 1017 54 10000 5.7 100 17:22 01.07.2019
5588 Clear 30 1017 42 10000 6.2 130 16:47 01.07.2019
5589 Clear 29 1017 42 10000 6.2 130 16:26 01.07.2019
5590 Clear 28 1017 42 10000 6.7 110 15:55 01.07.2019
5591 Clear 28 1017 42 10000 6.2 120 15:36 01.07.2019
5592 Clear 28 1017 45 10000 6.2 120 15:18 01.07.2019
5593 Clear 30 1017 45 10000 6.7 120 14:42 01.07.2019
5594 Clear 28 1017 45 10000 6.2 100 14:19 01.07.2019
5595 Clear 30 1018 42 10000 4.6 110 13:41 01.07.2019
5596 Clear 30 1018 45 10000 5.1 110 13:22 01.07.2019
5597 Clear 30 1018 42 10000 4.6 120 12:49 01.07.2019
5598 Clear 30 1018 42 10000 4.6 120 12:30 01.07.2019
5599 Clear 28 1018 43 10000 3.1 140 11:59 01.07.2019
5600 Clear 29 1018 42 10000 2.6 150 11:39 01.07.2019
5601 Clear 29 1018 42 10000 4.1 170 11:19 01.07.2019
5602 Clear 30 1018 45 10000 3.1 200 10:47 01.07.2019
5603 Clear 28 1018 51 10000 2.6 230 10:23 01.07.2019
5604 Clear 27 1018 54 10000 2.6 210 09:45 01.07.2019
5605 Clear 26 1018 54 10000 2.6 210 09:27 01.07.2019
5606 Clear 25 1018 53 10000 3.1 230 08:59 01.07.2019
5607 Clear 25 1018 64 10000 3.1 250 08:37 01.07.2019
5608 Clear 22 1018 77 7000 2.1 260 07:39 01.07.2019
5609 Clear 19 1018 82 6000 3.72 298.757 06:52 01.07.2019
5610 Clear 17 1018 93 8000 2.6 290 05:34 01.07.2019
5611 Clear 17 1019 88 10000 1.5 290 01:27 01.07.2019
5612 Clear 17 1019 82 10000 1.5 10 00:44 01.07.2019
5613 Clear 17 1019 82 10000 1 0 00:22 01.07.2019
5614 Clear 18 1019 77 10000 2.1 40 23:39 30.06.2019
5615 Clear 17 1019 82 10000 1 60 23:18 30.06.2019
5616 Clear 18 1019 82 10000 1.5 20 22:39 30.06.2019
5617 Clear 18 1019 82 10000 1.5 60 22:19 30.06.2019
5618 Clear 19 1019 73 10000 1.5 150 21:41 30.06.2019
5619 Clear 19 1019 73 10000 1.5 150 21:41 30.06.2019
5620 Clear 20 1019 73 10000 2.6 120 21:19 30.06.2019
5621 Clear 20 1019 68 10000 2.1 140 20:54 30.06.2019
5622 Clear 21 1019 68 10000 2.1 140 20:36 30.06.2019
5623 Clear 22 1019 68 10000 2.6 130 20:18 30.06.2019
5624 Clear 23 1019 64 10000 3.6 120 19:42 30.06.2019
5625 Clear 24 1019 60 10000 4.1 110 19:24 30.06.2019
5626 Clouds 26 1019 57 10000 4.6 100 18:26 30.06.2019
5627 Clouds 25 1019 53 10000 2.1 0 17:56 30.06.2019
5628 Clear 25 1019 53 10000 3.6 120 17:37 30.06.2019
5629 Clear 28 1019 37 10000 4.6 360 17:18 30.06.2019
5630 Clear 27 1019 36 10000 6.2 330 16:44 30.06.2019
5631 Clear 27 1019 39 10000 5.1 340 16:25 30.06.2019
5632 Clouds 27 1019 39 10000 6.2 330 15:37 30.06.2019
5633 Clouds 27 1019 39 10000 4.6 350 15:18 30.06.2019
5634 Clouds 27 1019 39 10000 7.7 330 14:50 30.06.2019
5635 Clouds 26 1019 39 10000 7.7 330 14:29 30.06.2019
5636 Clouds 26 1019 41 10000 7.2 360 13:47 30.06.2019
5637 Clouds 26 1019 41 10000 7.2 360 13:28 30.06.2019
5638 Clouds 26 1019 39 10000 7.2 350 12:52 30.06.2019
5639 Clouds 25 1019 39 10000 7.2 350 12:28 30.06.2019
5640 Clouds 26 1019 41 10000 5.1 340 11:57 30.06.2019
5641 Clouds 25 1019 41 10000 7.2 330 11:38 30.06.2019
5642 Clouds 25 1019 41 10000 6.7 330 11:18 30.06.2019
5643 Clouds 25 1019 41 10000 6.2 340 10:44 30.06.2019
5644 Clear 25 1019 44 10000 6.7 340 10:19 30.06.2019
5645 Clear 24 1019 44 10000 6.7 340 09:57 30.06.2019
5646 Clear 25 1019 47 10000 6.2 350 09:36 30.06.2019
5647 Clear 23 1019 49 10000 5.7 330 09:18 30.06.2019
5648 Clear 24 1018 46 10000 5.1 350 08:38 30.06.2019
5649 Clear 23 1018 49 10000 6.2 340 08:18 30.06.2019
5650 Clear 22 1018 52 10000 5.7 350 07:38 30.06.2019
5651 Clear 22 1018 49 10000 3.1 340 07:19 30.06.2019
5652 Clear 17 1018 63 10000 2.1 280 06:18 30.06.2019
5653 Clear 17 1017 55 10000 2.1 0 03:25 30.06.2019
5654 Clear 19 1017 63 10000 4.1 350 01:31 30.06.2019
5655 Clear 19 1017 63 10000 1.5 280 00:38 30.06.2019
5656 Clear 19 1017 63 10000 1.5 280 00:38 30.06.2019
5657 Clear 18 1017 72 10000 1.5 310 23:57 29.06.2019
5658 Clear 18 1017 72 10000 1.5 310 23:25 29.06.2019
5659 Clear 18 1017 72 10000 1.5 310 23:25 29.06.2019
5660 Clear 19 1017 59 10000 1 0 22:59 29.06.2019
5661 Clear 18 1017 59 10000 1.5 40 22:40 29.06.2019
5662 Clear 18 1017 63 10000 1.5 60 22:21 29.06.2019
5663 Clear 18 1017 68 10000 2.1 90 21:51 29.06.2019
5664 Clear 19 1017 56 10000 1.5 90 21:23 29.06.2019
5665 Clear 20 1016 56 10000 2.1 180 20:45 29.06.2019
5666 Clear 20 1016 56 10000 2.1 180 20:27 29.06.2019
5667 Clear 22 1016 36 10000 2.6 350 19:48 29.06.2019
5668 Clear 23 1016 36 10000 2.6 350 19:25 29.06.2019
5669 Clear 25 1016 31 10000 5.1 330 18:54 29.06.2019
5670 Clear 24 1016 29 10000 3.6 350 18:27 29.06.2019
5671 Clear 25 1016 29 10000 3.6 350 17:55 29.06.2019
5672 Clear 26 1016 29 10000 3.6 360 17:36 29.06.2019
5673 Clear 26 1016 29 10000 4.1 340 17:18 29.06.2019
5674 Clear 26 1016 29 10000 5.1 340 16:42 29.06.2019
5675 Clear 26 1016 34 10000 7.2 310 15:54 29.06.2019
5676 Clear 26 1016 34 10000 7.2 310 15:31 29.06.2019
5677 Clear 25 1016 33 10000 8.2 320 14:45 29.06.2019
5678 Clear 26 1016 33 10000 8.2 320 14:26 29.06.2019
5679 Clear 25 1016 36 10000 6.2 340 13:50 29.06.2019
5680 Clear 25 1016 36 10000 6.2 340 13:27 29.06.2019
5681 Clear 25 1016 33 10000 4.6 330 12:57 29.06.2019
5682 Clear 25 1016 33 10000 5.7 330 12:37 29.06.2019
5683 Clear 25 1017 36 10000 5.1 340 12:18 29.06.2019
5684 Clear 25 1016 33 10000 5.1 340 11:40 29.06.2019
5685 Clear 24 1016 38 10000 4.6 350 11:21 29.06.2019
5686 Clear 24 1016 38 10000 5.7 340 10:41 29.06.2019
5687 Clear 23 1016 38 10000 5.1 340 10:20 29.06.2019
5688 Clear 22 1016 35 10000 5.1 20 09:48 29.06.2019
5689 Clear 19 1016 59 10000 2.1 340 08:54 29.06.2019
5690 Clear 19 1016 59 10000 2.1 340 08:25 29.06.2019
5691 Clear 20 1016 67 10000 1.5 320 07:44 29.06.2019
5692 Clear 18 1016 67 10000 5.1 350 06:47 29.06.2019
5693 Clear 17 1016 72 10000 4.1 350 06:24 29.06.2019
5694 Rain 18 1016 59 10000 6.2 280 02:52 29.06.2019
5695 Clear 20 1014 46 10000 6.2 20 01:22 29.06.2019
5696 Clouds 20 1014 49 10000 5.7 20 00:29 29.06.2019
5697 Clouds 20 1014 60 10000 5.1 20 23:36 28.06.2019
5698 Clouds 20 1013 64 10000 4.1 20 23:18 28.06.2019
5699 Clouds 20 1013 77 10000 1 0 22:44 28.06.2019
5700 Clouds 20 1013 88 10000 2.6 330 21:58 28.06.2019
5701 Clouds 22 1012 69 10000 1.5 20 21:26 28.06.2019
5702 Clouds 23 1012 64 10000 2.6 90 20:49 28.06.2019
5703 Clouds 23 1012 64 10000 2.6 90 20:29 28.06.2019
5704 Clear 23 1011 64 10000 3.1 120 19:57 28.06.2019
5705 Clear 23 1011 64 10000 3.1 130 19:37 28.06.2019
5706 Clear 24 1011 61 10000 4.1 130 19:18 28.06.2019
5707 Clear 25 1011 61 10000 3.6 140 18:40 28.06.2019
5708 Clear 26 1011 57 10000 3.6 160 18:20 28.06.2019
5709 Clear 27 1010 44 10000 2.6 50 17:34 28.06.2019
5710 Clouds 27 1010 57 10000 4.6 150 16:55 28.06.2019
5711 Clouds 27 1010 57 10000 4.6 150 16:29 28.06.2019
5712 Clear 27 1010 51 10000 4.1 360 15:49 28.06.2019
5713 Clear 26 1010 51 10000 4.1 360 15:26 28.06.2019
5714 Clear 27 1010 51 10000 4.6 360 14:57 28.06.2019
5715 Clear 27 1010 51 10000 4.6 360 14:57 28.06.2019
5716 Clear 28 1010 51 10000 5.7 350 14:38 28.06.2019
5717 Clear 28 1010 42 10000 3.6 30 14:20 28.06.2019
5718 Clouds 28 1010 39 10000 3.6 40 13:45 28.06.2019
5719 Clouds 28 1010 37 10000 3.6 50 13:22 28.06.2019
5720 Clouds 28 1011 42 10000 4.1 30 12:49 28.06.2019
5721 Clouds 28 1010 48 10000 5.1 10 12:24 28.06.2019
5722 Clouds 26 1010 47 10000 6.7 30 11:28 28.06.2019
5723 Clouds 26 1010 50 10000 6.7 30 10:47 28.06.2019
5724 Clouds 27 1010 54 10000 5.7 20 10:23 28.06.2019
5725 Clouds 26 1010 53 10000 6.2 20 09:49 28.06.2019
5726 Clouds 26 1010 53 10000 6.2 20 09:31 28.06.2019
5727 Clear 24 1010 57 10000 5.7 10 08:50 28.06.2019
5728 Clear 24 1010 57 10000 5.7 10 08:27 28.06.2019
5729 Clear 23 1010 60 10000 5.7 10 07:58 28.06.2019
5730 Clear 23 1010 60 10000 5.7 10 07:40 28.06.2019
5731 Clear 22 1010 69 10000 2.6 0 06:33 28.06.2019
5732 Clear 22 1009 64 10000 4.6 300 02:26 28.06.2019
5733 Clear 22 1010 78 10000 1.5 0 00:44 28.06.2019
5734 Clear 23 1010 69 10000 1 0 23:57 27.06.2019
5735 Clear 23 1010 69 10000 1 0 23:57 27.06.2019
5736 Clear 24 1010 65 10000 2.1 260 23:39 27.06.2019
5737 Clear 23 1011 78 10000 1 0 23:20 27.06.2019
5738 Clear 24 1011 61 10000 0.5 0 22:41 27.06.2019
5739 Clear 23 1011 64 10000 1 340 22:23 27.06.2019
5740 Clear 23 1011 69 10000 1.5 350 21:49 27.06.2019
5741 Clear 23 1011 69 10000 1.5 350 21:31 27.06.2019
5742 Clear 25 1011 69 10000 2.09 311.515 20:58 27.06.2019
5743 Clear 25 1011 69 10000 2.1 70 20:40 27.06.2019
5744 Clear 26 1010 65 10000 3.6 100 20:21 27.06.2019
5745 Clear 27 1011 58 10000 3.6 100 19:46 27.06.2019
5746 Clear 27 1011 58 10000 3.6 100 19:25 27.06.2019
5747 Clear 28 1011 54 10000 4.6 90 18:44 27.06.2019
5748 Clear 28 1011 54 10000 4.6 90 18:25 27.06.2019
5749 Clear 29 1011 45 10000 5.7 110 17:46 27.06.2019
5750 Clear 30 1011 43 10000 2.6 110 17:23 27.06.2019
5751 Clear 30 1012 31 10000 3.6 100 16:41 27.06.2019
5752 Clear 31 1012 27 10000 2.1 0 16:20 27.06.2019
5753 Clear 31 1012 27 10000 2.1 0 15:59 27.06.2019
5754 Clear 31 1013 31 10000 3.1 280 15:40 27.06.2019
5755 Clear 31 1013 31 10000 4.1 310 14:59 27.06.2019
5756 Clear 31 1014 35 10000 4.1 260 14:40 27.06.2019
5757 Clear 31 1014 33 10000 3.6 0 14:22 27.06.2019
5758 Clear 32 1014 38 10000 2.6 0 13:44 27.06.2019
5759 Clear 32 1014 38 10000 2.6 0 13:26 27.06.2019
5760 Clear 31 1015 43 10000 3.6 280 12:49 27.06.2019
5761 Clear 32 1015 43 10000 3.6 280 12:31 27.06.2019
5762 Clear 29 1016 45 10000 3.6 340 11:49 27.06.2019
5763 Clear 29 1016 45 10000 3.6 340 11:25 27.06.2019
5764 Clear 29 1016 45 10000 3.6 360 10:59 27.06.2019
5765 Clear 30 1017 48 10000 4.1 320 10:41 27.06.2019
5766 Clear 28 1017 48 10000 4.1 300 10:20 27.06.2019
5767 Clear 28 1017 54 10000 4.6 290 09:41 27.06.2019
5768 Clear 26 1017 54 10000 3.1 290 09:21 27.06.2019
5769 Clear 25 1018 65 10000 3.1 250 08:50 27.06.2019
5770 Clear 23 1018 73 10000 3.1 260 08:28 27.06.2019
5771 Clear 24 1018 78 10000 3.1 250 07:48 27.06.2019
5772 Clear 24 1018 83 9000 2.6 250 06:59 27.06.2019
5773 Clear 23 1018 88 10000 1.5 250 06:37 27.06.2019
5774 Clear 20 1018 77 10000 0.5 0 03:52 27.06.2019
5775 Clear 20 1019 83 10000 1.5 310 02:43 27.06.2019
5776 Clear 19 1019 82 10000 2.1 310 01:39 27.06.2019
5777 Clear 20 1019 83 10000 2.1 270 00:52 27.06.2019
5778 Clear 20 1019 83 10000 2.1 270 00:26 27.06.2019
5779 Clear 21 1020 73 10000 1 10 23:51 26.06.2019
5780 Clear 21 1020 73 10000 2.1 30 23:23 26.06.2019
5781 Clear 21 1020 73 10000 2.1 30 22:58 26.06.2019
5782 Clear 21 1020 73 10000 2.6 40 22:40 26.06.2019
5783 Clear 21 1020 73 10000 2.6 40 22:40 26.06.2019
5784 Clear 21 1020 73 10000 1 0 22:19 26.06.2019
5785 Clear 22 1020 69 10000 1 0 21:42 26.06.2019
5786 Clear 23 1020 69 10000 1.5 90 21:21 26.06.2019
5787 Clear 23 1020 69 10000 1.5 90 20:57 26.06.2019
5788 Clear 24 1020 69 10000 2.1 40 20:37 26.06.2019
5789 Clear 25 1020 61 10000 3.6 70 20:19 26.06.2019
5790 Clear 26 1019 61 10000 6.2 70 19:43 26.06.2019
5791 Clear 27 1019 61 10000 5.7 90 19:23 26.06.2019
5792 Clear 28 1019 58 10000 6.2 70 18:46 26.06.2019
5793 Clear 29 1019 58 10000 6.7 80 18:23 26.06.2019
5794 Clear 29 1019 58 10000 6.7 80 17:57 26.06.2019
5795 Clear 29 1019 51 10000 7.2 90 17:37 26.06.2019
5796 Clouds 29 1019 51 10000 7.2 80 17:18 26.06.2019
5797 Clear 30 1019 52 10000 7.2 70 16:46 26.06.2019
5798 Clouds 30 1019 52 10000 7.2 70 16:22 26.06.2019
5799 Clouds 30 1020 48 10000 8.2 70 15:37 26.06.2019
5800 Clouds 30 1019 52 10000 8.7 90 15:19 26.06.2019
5801 Clouds 31 1019 46 10000 8.2 50 14:38 26.06.2019
5802 Clouds 30 1020 48 10000 7.2 50 14:19 26.06.2019
5803 Clouds 30 1020 48 10000 6.7 60 13:41 26.06.2019
5804 Clouds 30 1020 48 10000 7.2 60 13:19 26.06.2019
5805 Clouds 30 1020 51 10000 6.7 50 12:41 26.06.2019
5806 Clouds 30 1020 51 10000 7.7 30 12:22 26.06.2019
5807 Clouds 30 1020 51 10000 6.7 50 11:44 26.06.2019
5808 Clouds 29 1020 51 10000 6.2 40 11:19 26.06.2019
5809 Clouds 29 1020 54 10000 7.2 50 10:41 26.06.2019
5810 Clouds 28 1020 58 10000 7.2 40 10:21 26.06.2019
5811 Clouds 28 1020 65 10000 7.2 30 09:41 26.06.2019
5812 Clouds 27 1020 65 10000 5.7 40 09:18 26.06.2019
5813 Clouds 27 1020 74 10000 6.2 30 08:39 26.06.2019
5814 Clouds 24 1020 74 10000 6.7 30 08:19 26.06.2019
5815 Clouds 25 1020 78 10000 6.2 30 07:45 26.06.2019
5816 Clear 23 1019 83 10000 5.7 20 06:38 26.06.2019
5817 Clear 23 1019 78 10000 5.7 10 06:20 26.06.2019
5818 Clear 20 1019 83 10000 5.7 360 00:59 26.06.2019
5819 Clear 21 1019 83 10000 5.1 360 00:20 26.06.2019
5820 Clear 21 1020 83 10000 5.7 360 23:43 25.06.2019
5821 Clear 21 1020 88 10000 4.6 350 23:24 25.06.2019
5822 Clear 21 1020 88 10000 4.6 350 22:56 25.06.2019
5823 Clear 21 1020 88 10000 4.1 350 22:37 25.06.2019
5824 Clear 21 1019 88 10000 3.1 330 22:19 25.06.2019
5825 Clear 22 1019 88 10000 2.1 300 21:40 25.06.2019
5826 Clear 23 1019 83 10000 4.54 24.854 21:21 25.06.2019
5827 Clear 23 1019 83 10000 1 0 20:43 25.06.2019
5828 Clear 23 1019 83 10000 1 0 20:43 25.06.2019
5829 Clouds 24 1019 88 10000 1 0 20:20 25.06.2019
5830 Clouds 24 1019 88 10000 1 0 20:20 25.06.2019
5831 Clouds 24 1018 88 10000 1.5 270 19:45 25.06.2019
5832 Clouds 25 1018 78 10000 1.5 250 19:23 25.06.2019
5833 Clouds 25 1018 78 10000 2.1 270 18:44 25.06.2019
5834 Clouds 25 1018 78 10000 2.1 270 18:44 25.06.2019
5835 Clouds 25 1018 78 10000 1.5 300 18:26 25.06.2019
5836 -273 0 0 0 0 0 17:54 25.06.2019
5837 -273 0 0 0 0 0 17:54 25.06.2019
5838 -273 0 0 0 0 0 17:54 25.06.2019
5839 -273 0 0 0 0 0 17:54 25.06.2019
5840 -273 0 0 0 0 0 17:29 25.06.2019
5841 Thunderstorm 26 1018 83 10000 0.5 0 16:57 25.06.2019
5842 Clouds 26 1018 88 10000 1.5 310 16:38 25.06.2019
5843 Thunderstorm 26 1017 94 10000 1 0 16:19 25.06.2019
5844 Rain 26 1017 83 4600 2.6 70 15:41 25.06.2019
5845 Rain 25 1018 83 10000 1.5 50 15:21 25.06.2019
5846 Rain 25 1018 83 8000 1.5 150 14:54 25.06.2019
5847 Rain 25 1018 83 8000 1.5 150 14:35 25.06.2019
5848 Thunderstorm 26 1017 83 10000 3.1 10 13:45 25.06.2019
5849 Thunderstorm 25 1017 83 10000 3.1 10 13:27 25.06.2019
5850 Thunderstorm 27 1017 54 10000 6.7 350 12:44 25.06.2019
5851 Clouds 28 1017 55 10000 6.2 10 12:25 25.06.2019
5852 Clouds 28 1017 55 10000 6.7 350 11:49 25.06.2019
5853 Clear 28 1017 58 10000 6.7 360 11:26 25.06.2019
5854 Clear 28 1017 58 10000 6.7 360 10:59 25.06.2019
5855 Clear 28 1017 58 10000 6.7 360 10:39 25.06.2019
5856 Clear 27 1017 65 10000 6.2 350 10:21 25.06.2019
5857 Clear 27 1017 65 10000 7.2 340 09:40 25.06.2019
5858 Clear 26 1017 69 10000 6.7 360 09:22 25.06.2019
5859 Clear 26 1017 69 10000 6.7 360 09:00 25.06.2019
5860 Clear 25 1017 73 10000 6.2 360 08:32 25.06.2019
5861 Clear 23 1017 73 10000 7.7 350 07:58 25.06.2019
5862 Clear 23 1017 78 10000 7.7 360 07:36 25.06.2019
5863 Clear 23 1017 83 10000 5.1 350 06:52 25.06.2019
5864 Clear 21 1017 88 10000 3.6 300 06:28 25.06.2019
5865 Clear 20 1017 83 10000 5.7 360 02:45 25.06.2019
5866 Clear 20 1017 78 10000 5.7 360 01:38 25.06.2019
5867 Clear 21 1017 78 10000 4.6 350 00:35 25.06.2019
5868 Clear 21 1017 83 10000 3.1 300 23:53 24.06.2019
5869 Clear 21 1017 83 10000 3.1 300 23:34 24.06.2019
5870 Clear 21 1017 78 10000 1.5 300 22:59 24.06.2019
5871 Clear 22 1016 73 10000 2.1 0 22:39 24.06.2019
5872 Clear 22 1016 78 10000 1 0 22:18 24.06.2019
5873 Clear 22 1016 78 10000 2.1 330 21:38 24.06.2019
5874 Clear 23 1016 73 10000 3.6 360 21:18 24.06.2019
5875 Clear 23 1016 64 10000 1.5 20 20:54 24.06.2019
5876 Clear 23 1016 64 10000 1.5 20 20:36 24.06.2019
5877 Clear 24 1015 64 10000 2.6 60 20:18 24.06.2019
5878 Clear 25 1015 74 10000 1.5 140 19:41 24.06.2019
5879 Clear 26 1015 51 10000 1.5 80 19:21 24.06.2019
5880 Clear 27 1015 54 10000 1.5 300 18:43 24.06.2019
5881 Clear 26 1015 57 10000 1 0 18:24 24.06.2019
5882 Clear 26 1015 48 10000 1 0 17:38 24.06.2019
5883 Clouds 25 1015 54 10000 2.1 50 17:19 24.06.2019
5884 Clouds 25 1015 51 10000 5.7 50 16:45 24.06.2019
5885 Clouds 27 1015 61 10000 7.7 30 16:20 24.06.2019
5886 Clouds 29 1015 51 10000 2.1 0 15:44 24.06.2019
5887 Clouds 28 1014 61 10000 2.1 190 15:25 24.06.2019
5888 Clouds 27 1014 61 10000 1.5 0 14:39 24.06.2019
5889 Thunderstorm 29 1015 61 10000 3.1 360 14:21 24.06.2019
5890 Thunderstorm 30 1014 66 10000 5.7 100 13:35 24.06.2019
5891 Rain 30 1014 62 10000 5.7 130 12:59 24.06.2019
5892 Clouds 30 1014 62 10000 4.1 140 12:41 24.06.2019
5893 Clouds 30 1014 62 10000 4.1 140 12:20 24.06.2019
5894 Clouds 30 1014 58 10000 3.6 0 11:45 24.06.2019
5895 Clouds 30 1014 58 10000 3.6 0 11:27 24.06.2019
5896 Clear 30 1014 55 10000 2.6 360 10:53 24.06.2019
5897 Clear 29 1014 55 10000 2.6 360 10:34 24.06.2019
5898 Clear 28 1014 65 10000 2.6 240 09:56 24.06.2019
5899 Clear 28 1014 65 10000 1 0 09:38 24.06.2019
5900 Clouds 27 1014 78 10000 1.5 260 09:18 24.06.2019
5901 Mist 26 1014 83 3500 4.1 250 08:36 24.06.2019
5902 Clouds 25 1014 88 7000 1 0 07:50 24.06.2019
5903 Clouds 24 1014 94 6000 0.83 185.006 07:27 24.06.2019
5904 Clouds 25 1014 94 6000 0.83 185.006 06:57 24.06.2019
5905 Mist 23 1013 94 8000 1 310 06:23 24.06.2019
5906 Fog 20 1013 100 4300 1.5 290 05:31 24.06.2019
5907 Clear 20 1013 100 10000 0.5 0 04:35 24.06.2019
5908 Clouds 21 1013 94 10000 1.5 360 03:44 24.06.2019
5909 Clear 21 1013 94 10000 1.5 80 02:35 24.06.2019
5910 Clear 22 1013 94 10000 1.5 50 01:54 24.06.2019
5911 Clear 22 1013 94 10000 1.5 50 01:28 24.06.2019
5912 Clear 22 1013 94 10000 3.1 90 00:46 24.06.2019
5913 Clear 23 1013 88 10000 3.1 80 00:20 24.06.2019
5914 Clear 22 1013 88 10000 2.1 70 23:47 23.06.2019
5915 Clear 22 1013 83 10000 1.5 70 23:28 23.06.2019
5916 Clear 22 1013 83 10000 1.5 70 22:56 23.06.2019
5917 Clear 22 1013 83 10000 2.1 100 22:38 23.06.2019
5918 Clear 23 1013 78 10000 3.6 90 22:19 23.06.2019
5919 Clear 23 1013 78 10000 2.1 60 21:40 23.06.2019
5920 Clear 23 1013 78 10000 3.1 100 21:21 23.06.2019
5921 Clear 24 1013 69 10000 4.1 100 20:49 23.06.2019
5922 Clear 24 1013 69 10000 4.1 100 20:29 23.06.2019
5923 Clear 27 1013 61 10000 4.1 100 19:46 23.06.2019
5924 Clear 27 1013 61 10000 4.6 100 19:22 23.06.2019
5925 Clear 28 1013 62 10000 3.6 90 18:55 23.06.2019
5926 Clear 28 1013 62 10000 3.6 90 18:27 23.06.2019
5927 Clear 28 1013 62 10000 5.7 100 17:59 23.06.2019
5928 Clear 28 1013 62 10000 7.2 100 17:38 23.06.2019
5929 Clear 29 1013 62 10000 6.7 90 17:19 23.06.2019
5930 Clear 30 1013 58 10000 6.7 90 16:43 23.06.2019
5931 Clear 30 1013 62 10000 5.1 100 16:23 23.06.2019
5932 Clear 31 1013 55 10000 5.1 100 15:41 23.06.2019
5933 Clear 30 1013 62 10000 5.1 110 15:22 23.06.2019
5934 Clear 30 1013 62 10000 5.7 100 14:42 23.06.2019
5935 Clear 31 1014 58 10000 5.7 100 14:24 23.06.2019
5936 Clear 33 1014 55 10000 4.1 140 13:59 23.06.2019
5937 Clear 33 1014 55 10000 4.1 140 13:41 23.06.2019
5938 Clear 33 1014 45 10000 2.6 160 13:19 23.06.2019
5939 Clear 33 1014 43 10000 2.1 200 12:47 23.06.2019
5940 Clear 31 1014 45 10000 2.1 0 12:23 23.06.2019
5941 Clear 31 1014 45 10000 2.1 0 11:58 23.06.2019
5942 Clear 32 1014 45 10000 2.1 0 11:40 23.06.2019
5943 Clear 29 1014 54 10000 2.6 200 11:21 23.06.2019
5944 Clear 30 1014 58 10000 2.1 190 10:46 23.06.2019
5945 Clear 29 1014 65 10000 2.1 170 10:20 23.06.2019
5946 Clear 29 1014 65 10000 2.1 170 10:20 23.06.2019
5947 Clear 29 1015 69 10000 1.5 200 09:44 23.06.2019
5948 Clear 26 1015 69 10000 1.5 200 09:21 23.06.2019
5949 Clear 25 1015 69 10000 1.5 190 08:45 23.06.2019
5950 Clear 24 1015 73 10000 1.5 220 08:27 23.06.2019
5951 Clear 24 1015 73 10000 1.5 220 08:27 23.06.2019
5952 Clear 26 1015 73 10000 0.5 0 07:55 23.06.2019
5953 Clouds 24 1015 83 7000 1.5 230 07:24 23.06.2019
5954 Mist 23 1015 88 4000 2.1 250 06:54 23.06.2019
5955 Clear 20 1014 93 10000 1 0 05:55 23.06.2019
5956 Clear 18 1014 93 10000 1 310 04:38 23.06.2019
5957 Clear 18 1014 88 10000 1.5 230 01:57 23.06.2019
5958 Clear 19 1014 82 10000 1.5 0 01:36 23.06.2019
5959 Clear 19 1014 77 10000 2.6 260 00:36 23.06.2019
5960 Clear 20 1014 83 10000 0.5 0 23:55 22.06.2019
5961 Clear 21 1014 73 10000 2.1 220 23:55 22.06.2019
5962 Clear 21 1014 73 10000 2.1 220 23:37 22.06.2019
5963 Clear 21 1014 78 10000 2.1 170 23:18 22.06.2019
5964 Clear 22 1014 64 10000 0.5 0 22:38 22.06.2019
5965 Clear 23 1014 64 10000 1 0 22:19 22.06.2019
5966 Clear 23 1014 69 10000 2.6 250 21:38 22.06.2019
5967 Clear 23 1014 64 10000 2.6 280 21:19 22.06.2019
5968 Clear 24 1014 57 10000 2.1 310 20:50 22.06.2019
5969 Clear 24 1014 61 10000 2.6 310 20:25 22.06.2019
5970 Clear 25 1014 54 10000 1.5 260 19:47 22.06.2019
5971 Clear 26 1014 57 10000 2.1 260 19:23 22.06.2019
5972 Clear 28 1013 51 10000 2.6 300 18:50 22.06.2019
5973 Clear 29 1013 51 10000 2.6 300 18:32 22.06.2019
5974 Clear 29 1013 57 10000 1.5 270 17:57 22.06.2019
5975 Clouds 29 1013 51 10000 2.1 200 17:35 22.06.2019
5976 Clouds 28 1013 51 10000 3.1 120 16:51 22.06.2019
5977 Clouds 27 1014 51 10000 6.2 100 16:25 22.06.2019
5978 Clouds 28 1014 51 10000 6.2 100 15:58 22.06.2019
5979 Thunderstorm 28 1014 42 10000 8.7 70 15:39 22.06.2019
5980 Clouds 29 1014 40 10000 6.2 330 15:21 22.06.2019
5981 Clouds 29 1013 40 10000 6.7 310 14:37 22.06.2019
5982 Clouds 29 1014 43 10000 4.1 350 14:18 22.06.2019
5983 Clouds 32 1014 40 10000 4.1 340 13:41 22.06.2019
5984 Clouds 32 1014 46 10000 4.1 10 13:21 22.06.2019
5985 Clouds 32 1014 48 10000 5.1 360 12:50 22.06.2019
5986 Clouds 31 1014 48 10000 5.1 360 12:32 22.06.2019
5987 Clouds 32 1014 45 10000 5.1 350 11:58 22.06.2019
5988 Clear 31 1014 48 10000 5.7 350 11:32 22.06.2019
5989 Clear 30 1014 51 10000 5.1 340 10:49 22.06.2019
5990 Clear 30 1014 58 10000 5.1 350 10:21 22.06.2019
5991 Clear 29 1014 58 10000 4.6 320 09:46 22.06.2019
5992 Clear 28 1014 58 10000 6.2 320 09:18 22.06.2019
5993 Clear 28 1014 61 10000 4.1 290 08:41 22.06.2019
5994 Clear 27 1014 65 10000 3.6 260 08:20 22.06.2019
5995 Clear 25 1014 69 10000 2.1 270 07:30 22.06.2019
5996 Clear 23 1014 73 10000 4.6 280 06:47 22.06.2019
5997 Clear 22 1013 69 10000 2.1 0 04:53 22.06.2019
5998 Clear 21 1013 73 10000 4.1 350 02:32 22.06.2019
5999 Clear 21 1013 69 10000 2.6 310 00:59 22.06.2019
6000 Clear 21 1013 64 10000 2.6 0 00:35 22.06.2019
6001 Clear 21 1013 69 10000 2.6 290 23:59 21.06.2019
6002 Clear 21 1013 73 10000 2.1 350 23:37 21.06.2019
6003 Clear 21 1013 73 10000 0.5 0 23:19 21.06.2019
6004 Clear 22 1013 73 10000 1.5 240 22:41 21.06.2019
6005 Clear 22 1013 60 10000 1.5 0 22:22 21.06.2019
6006 Clear 23 1013 60 10000 1.5 330 21:40 21.06.2019
6007 Clear 24 1013 57 10000 2.6 330 21:21 21.06.2019
6008 Clear 24 1013 61 10000 3.1 10 20:49 21.06.2019
6009 Clear 25 1013 54 10000 1.5 350 20:27 21.06.2019
6010 Clear 25 1012 61 10000 2.6 310 19:54 21.06.2019
6011 Clear 26 1012 51 10000 2.6 360 19:23 21.06.2019
6012 Clouds 28 1012 51 10000 2.1 320 18:43 21.06.2019
6013 Clouds 28 1012 48 10000 3.1 330 18:25 21.06.2019
6014 Clouds 28 1012 39 10000 4.1 330 17:36 21.06.2019
6015 Clouds 28 1012 42 10000 3.1 330 16:59 21.06.2019
6016 Clear 27 1012 42 10000 3.1 320 16:37 21.06.2019
6017 Clear 27 1013 48 10000 3.6 350 16:19 21.06.2019
6018 Clear 29 1013 51 10000 3.6 360 15:38 21.06.2019
6019 Clear 28 1013 47 10000 2.6 330 15:18 21.06.2019
6020 Clear 27 1013 69 10000 4.1 330 14:40 21.06.2019
6021 Clear 27 1013 69 10000 3.1 350 14:21 21.06.2019
6022 Clear 27 1013 69 10000 2.1 330 13:40 21.06.2019
6023 Clouds 26 1013 73 10000 3.6 320 13:22 21.06.2019
6024 Clouds 27 1013 73 10000 2.6 340 12:51 21.06.2019
6025 Rain 26 1013 73 10000 4.1 330 12:23 21.06.2019
6026 Rain 26 1013 73 10000 4.1 330 11:56 21.06.2019
6027 Clouds 26 1013 65 10000 4.1 320 11:37 21.06.2019
6028 Clear 25 1013 65 10000 3.1 320 11:19 21.06.2019
6029 Clear 25 1013 65 10000 3.1 320 11:19 21.06.2019
6030 Clear 25 1013 65 10000 3.1 320 11:19 21.06.2019
6031 Clear 25 1013 64 10000 3.6 280 10:44 21.06.2019
6032 Clear 23 1013 64 10000 3.1 280 10:20 21.06.2019
6033 Clear 23 1013 69 10000 3.1 290 09:43 21.06.2019
6034 Clear 21 1013 77 10000 3.1 270 09:23 21.06.2019
6035 Clear 21 1013 77 10000 3.1 270 08:56 21.06.2019
6036 Clear 21 1013 77 10000 3.1 270 08:56 21.06.2019
6037 Clear 21 1013 82 10000 2.1 270 08:37 21.06.2019
6038 Clear 19 1013 88 10000 1.5 250 08:19 21.06.2019
6039 Clear 19 1013 88 10000 0.5 0 07:44 21.06.2019
6040 Clear 18 1013 88 10000 3.6 270 07:19 21.06.2019
6041 Clear 17 1012 88 10000 2.6 270 06:28 21.06.2019
6042 Clear 16 1012 93 10000 2.6 260 05:35 21.06.2019
6043 Clear 16 1012 93 10000 1.5 0 04:48 21.06.2019
6044 Clear 16 1012 93 6000 2.6 290 03:47 21.06.2019
6045 Clouds 16 1012 93 7000 3.1 290 03:24 21.06.2019
6046 Clear 17 1012 88 10000 3.1 270 02:26 21.06.2019
6047 Clear 16 1012 93 9000 2.1 300 01:30 21.06.2019
6048 Clear 20 1012 77 10000 0.5 0 00:35 21.06.2019
6049 Clear 17 1012 88 10000 1 0 23:56 20.06.2019
6050 Clear 18 1012 82 10000 1 0 23:37 20.06.2019
6051 Clear 18 1012 82 10000 1 0 23:37 20.06.2019
6052 Clear 18 1012 82 10000 2.6 250 23:18 20.06.2019
6053 Clear 18 1012 82 10000 3.1 350 22:41 20.06.2019
6054 Clear 19 1012 77 10000 3.1 290 22:22 20.06.2019
6055 Clear 19 1012 73 10000 3.1 250 21:54 20.06.2019
6056 Clear 19 1012 73 10000 3.1 250 21:36 20.06.2019
6057 Clear 20 1011 68 10000 3.1 290 21:18 20.06.2019
6058 Clear 20 1011 77 10000 3.1 230 20:41 20.06.2019
6059 Clouds 20 1011 69 10000 5.7 10 20:21 20.06.2019
6060 Clear 21 1011 69 10000 4.6 360 19:43 20.06.2019
6061 Clear 21 1011 73 10000 2.6 270 19:19 20.06.2019
6062 Clear 21 1011 73 10000 2.6 270 18:56 20.06.2019
6063 Clear 22 1011 69 10000 2.1 0 18:38 20.06.2019
6064 Clear 22 1010 64 10000 3.1 360 18:20 20.06.2019
6065 Clear 21 1010 69 10000 4.6 350 17:45 20.06.2019
6066 Clear 21 1010 69 10000 4.1 350 17:22 20.06.2019
6067 Clear 21 1011 68 10000 4.6 10 16:42 20.06.2019
6068 Clouds 24 1010 73 10000 6.2 360 16:19 20.06.2019
6069 Clouds 23 1011 77 10000 8.2 360 15:43 20.06.2019
6070 Rain 26 1011 73 10000 6.7 360 15:24 20.06.2019
6071 Rain 26 1011 73 10000 6.7 360 14:57 20.06.2019
6072 Clouds 25 1011 77 10000 4.1 350 14:38 20.06.2019
6073 Thunderstorm 26 1010 77 10000 5.1 340 14:19 20.06.2019
6074 Thunderstorm 25 1010 60 8000 14.4 50 13:39 20.06.2019
6075 Clouds 27 1009 48 10000 4.1 350 13:18 20.06.2019
6076 Clouds 30 1010 48 10000 4.1 30 12:42 20.06.2019
6077 Clouds 29 1010 48 10000 4.1 350 12:21 20.06.2019
6078 Clear 29 1010 51 10000 3.6 340 11:41 20.06.2019
6079 Clear 29 1010 51 10000 4.1 320 11:23 20.06.2019
6080 Clear 29 1011 58 10000 4.1 350 10:45 20.06.2019
6081 Clear 27 1011 57 10000 4.1 360 10:24 20.06.2019
6082 Clear 27 1011 57 10000 4.1 340 09:55 20.06.2019
6083 Clear 27 1011 57 10000 4.1 340 09:37 20.06.2019
6084 Clouds 24 1011 61 10000 4.1 270 09:19 20.06.2019
6085 Clouds 23 1011 69 10000 2.6 260 08:44 20.06.2019
6086 Clouds 23 1011 73 10000 3.1 250 08:23 20.06.2019
6087 Clouds 21 1011 77 10000 2.6 260 07:47 20.06.2019
6088 Clouds 22 1011 82 8000 2.1 250 07:25 20.06.2019
6089 Clouds 22 1011 82 8000 2.1 250 07:25 20.06.2019
6090 Mist 17 1011 88 3800 3.1 290 06:20 20.06.2019
6091 Clear 17 1011 82 10000 1.5 260 03:41 20.06.2019
6092 Clear 18 1011 82 10000 2.6 250 02:26 20.06.2019
6093 Clear 20 1012 68 10000 3.1 320 00:33 20.06.2019
6094 Clear 21 1011 64 10000 3.6 310 23:48 19.06.2019
6095 Clear 21 1011 64 10000 3.6 310 23:29 19.06.2019
6096 Clear 21 1011 60 10000 2.6 310 22:49 19.06.2019
6097 Clear 20 1011 64 10000 2.1 310 22:24 19.06.2019
6098 Clear 20 1011 64 10000 2.1 310 21:58 19.06.2019
6099 Clear 20 1011 64 10000 2.1 310 21:58 19.06.2019
6100 Clear 20 1011 64 10000 2.1 310 21:58 19.06.2019
6101 Clear 21 1012 60 10000 3.6 330 21:37 19.06.2019
6102 Clear 21 1011 60 10000 3.1 360 21:19 19.06.2019
6103 Clear 22 1011 69 10000 1.5 360 20:41 19.06.2019
6104 Clear 22 1011 64 10000 1.5 330 20:21 19.06.2019
6105 Clear 23 1011 69 10000 2.1 330 19:45 19.06.2019
6106 Clear 24 1011 69 10000 2.1 330 19:26 19.06.2019
6107 Clear 25 1011 57 10000 2.1 150 18:56 19.06.2019
6108 Clear 26 1011 57 10000 5.1 140 18:24 19.06.2019
6109 Clear 28 1011 54 10000 5.1 130 17:44 19.06.2019
6110 Clear 30 1011 51 10000 5.1 120 17:25 19.06.2019
6111 Clear 29 1011 51 10000 5.7 140 16:56 19.06.2019
6112 Clear 29 1011 51 10000 5.7 140 16:36 19.06.2019
6113 Clear 30 1011 48 10000 5.7 140 16:18 19.06.2019
6114 Clouds 29 1011 48 10000 6.7 140 15:42 19.06.2019
6115 Clouds 30 1011 51 10000 7.7 140 15:20 19.06.2019
6116 Clouds 30 1012 45 10000 7.2 140 14:43 19.06.2019
6117 Clouds 30 1012 45 10000 7.7 140 14:23 19.06.2019
6118 Clouds 30 1012 45 10000 7.2 140 13:44 19.06.2019
6119 Clouds 30 1012 45 10000 7.2 140 13:25 19.06.2019
6120 Clouds 30 1012 45 10000 7.2 140 13:25 19.06.2019
6121 Clouds 29 1013 51 10000 6.7 130 12:48 19.06.2019
6122 Clear 29 1013 33 10000 2.6 110 12:22 19.06.2019
6123 Clear 29 1013 33 10000 2.6 110 12:22 19.06.2019
6124 Clear 30 1013 33 10000 2.6 110 11:58 19.06.2019
6125 Clear 29 1013 33 10000 2.6 110 11:39 19.06.2019
6126 Clear 29 1013 37 10000 3.6 50 11:20 19.06.2019
6127 Clear 28 1013 45 10000 3.1 0 10:46 19.06.2019
6128 Clear 27 1013 37 10000 2.1 0 10:28 19.06.2019
6129 Clear 26 1013 47 10000 3.6 340 09:51 19.06.2019
6130 Clear 24 1013 51 10000 1.5 0 09:23 19.06.2019
6131 Clear 25 1013 51 10000 1.5 0 08:58 19.06.2019
6132 Clouds 25 1014 69 10000 0.5 0 08:38 19.06.2019
6133 Clouds 21 1013 77 9000 1 0 08:19 19.06.2019
6134 Clear 22 1013 82 8000 1.5 270 07:43 19.06.2019
6135 Clear 21 1013 88 8000 1 0 07:21 19.06.2019
6136 Clear 19 1013 82 10000 1.5 270 06:36 19.06.2019
6137 Clear 19 1013 82 10000 1.5 280 05:58 19.06.2019
6138 Clear 16 1013 87 10000 1 0 05:20 19.06.2019
6139 Clear 15 1013 82 10000 3.1 320 03:51 19.06.2019
6140 Clear 16 1013 88 10000 1 0 02:35 19.06.2019
6141 Clear 17 1013 88 10000 2.1 300 01:36 19.06.2019
6142 Clear 17 1014 82 10000 2.1 270 00:53 19.06.2019
6143 Clear 18 1014 82 10000 2.1 270 00:35 19.06.2019
6144 Clear 18 1014 82 10000 0.5 0 23:58 18.06.2019
6145 Clear 19 1014 82 10000 1 0 23:30 18.06.2019
6146 Clear 20 1014 77 10000 1.5 320 22:55 18.06.2019
6147 Clear 20 1014 77 10000 0.5 0 22:37 18.06.2019
6148 Clear 20 1014 77 10000 0.47 296.785 22:19 18.06.2019
6149 Clear 21 1014 78 10000 2.6 340 21:44 18.06.2019
6150 Clear 22 1014 73 10000 2.1 360 21:21 18.06.2019
6151 Clear 22 1013 73 10000 0.5 0 20:55 18.06.2019
6152 Clear 23 1013 73 10000 0.5 0 20:37 18.06.2019
6153 Clear 24 1013 69 10000 2.1 160 20:18 18.06.2019
6154 Clear 24 1013 69 10000 2.1 160 20:18 18.06.2019
6155 Clear 26 1013 61 10000 3.1 150 19:39 18.06.2019
6156 Clear 26 1013 61 10000 3.6 170 19:20 18.06.2019
6157 Clear 26 1013 61 10000 3.1 180 18:46 18.06.2019
6158 Clear 28 1013 61 10000 3.6 160 18:25 18.06.2019
6159 Clear 28 1013 65 10000 3.6 160 17:46 18.06.2019
6160 Clouds 28 1013 61 10000 4.1 140 17:21 18.06.2019
6161 Clouds 28 1013 61 10000 4.1 140 16:57 18.06.2019
6162 Clouds 28 1013 57 10000 4.6 150 16:38 18.06.2019
6163 Clouds 28 1013 51 10000 6.7 150 16:20 18.06.2019
6164 Clouds 29 1013 58 10000 7.2 140 15:38 18.06.2019
6165 Clouds 29 1013 54 10000 7.2 140 15:19 18.06.2019
6166 Clouds 29 1013 51 10000 7.2 140 14:45 18.06.2019
6167 Clouds 29 1013 61 10000 8.2 150 14:23 18.06.2019
6168 Clouds 29 1013 58 10000 7.2 130 13:58 18.06.2019
6169 Clouds 29 1013 58 10000 7.2 130 13:38 18.06.2019
6170 Clouds 29 1014 54 10000 6.7 130 13:20 18.06.2019
6171 Clouds 29 1014 58 10000 4.1 110 12:43 18.06.2019
6172 Clouds 29 1014 40 10000 3.6 30 12:25 18.06.2019
6173 Clouds 29 1014 42 10000 3.6 40 11:45 18.06.2019
6174 Clouds 29 1014 54 10000 2.1 130 11:23 18.06.2019
6175 Clouds 29 1014 54 10000 2.1 130 11:23 18.06.2019
6176 Clear 29 1014 40 10000 4.6 20 10:57 18.06.2019
6177 Clear 30 1014 40 10000 4.6 20 10:37 18.06.2019
6178 Clear 28 1014 45 10000 4.1 30 10:18 18.06.2019
6179 Clear 28 1014 48 10000 6.7 30 09:48 18.06.2019
6180 Clear 25 1014 54 10000 5.7 10 09:24 18.06.2019
6181 Clear 26 1013 57 10000 5.7 20 08:43 18.06.2019
6182 Clear 26 1013 57 10000 5.7 20 08:43 18.06.2019
6183 Clear 23 1013 61 10000 6.2 10 08:21 18.06.2019
6184 Clear 24 1013 60 10000 5.7 10 07:41 18.06.2019
6185 Clear 23 1013 64 10000 6.2 10 07:20 18.06.2019
6186 Clear 22 1013 68 10000 6.2 360 06:43 18.06.2019
6187 Clear 19 1013 77 10000 6.7 360 05:20 18.06.2019
6188 Clear 19 1013 77 10000 3.1 270 02:53 18.06.2019
6189 Clear 19 1013 68 10000 4.6 350 01:55 18.06.2019
6190 Clear 19 1013 68 10000 4.6 360 01:24 18.06.2019
6191 Clear 18 1013 77 10000 2.6 310 00:55 18.06.2019
6192 Clear 18 1013 77 10000 2.6 310 00:27 18.06.2019
6193 Clear 18 1013 72 10000 2.1 350 23:41 17.06.2019
6194 Clear 20 1013 72 10000 1 0 23:20 17.06.2019
6195 Clear 19 1013 72 10000 1 0 22:56 17.06.2019
6196 Clear 19 1013 68 10000 2.6 10 22:37 17.06.2019
6197 Clear 20 1013 64 10000 2.1 20 22:18 17.06.2019
6198 Clear 20 1013 73 10000 1 330 21:42 17.06.2019
6199 Clear 21 1013 64 10000 1.5 70 21:21 17.06.2019
6200 Clear 23 1013 73 10000 3.1 100 20:37 17.06.2019
6201 Clear 24 1013 65 10000 2.6 110 20:18 17.06.2019
6202 Clear 25 1012 61 10000 1.5 210 19:42 17.06.2019
6203 Clear 26 1012 57 10000 2.1 270 19:23 17.06.2019
6204 Clear 27 1012 57 10000 2.1 270 18:57 17.06.2019
6205 Clear 27 1012 57 10000 2.1 270 18:37 17.06.2019
6206 Clear 27 1012 61 10000 3.6 150 18:18 17.06.2019
6207 Clear 28 1012 58 10000 4.6 130 17:44 17.06.2019
6208 Clear 29 1012 58 10000 4.6 130 17:26 17.06.2019
6209 Clear 29 1012 58 10000 4.6 130 16:47 17.06.2019
6210 Clouds 29 1012 54 10000 5.1 140 16:29 17.06.2019
6211 -273 0 0 0 0 0 15:57 17.06.2019
6212 Clouds 28 1012 57 10000 6.2 290 15:38 17.06.2019
6213 Clouds 28 1012 57 10000 6.2 290 15:19 17.06.2019
6214 Clouds 29 1012 54 10000 4.6 140 14:51 17.06.2019
6215 Thunderstorm 28 1012 61 10000 4.6 140 14:31 17.06.2019
6216 Thunderstorm 30 1011 51 10000 7.2 140 13:50 17.06.2019
6217 Clouds 30 1011 48 10000 7.2 130 13:24 17.06.2019
6218 Clouds 31 1011 52 10000 7.7 130 12:52 17.06.2019
6219 Clouds 31 1012 38 10000 4.1 0 12:31 17.06.2019
6220 Clear 32 1012 33 10000 4.6 90 11:49 17.06.2019
6221 Clear 32 1012 33 10000 5.1 60 11:26 17.06.2019
6222 Clear 31 1012 33 10000 4.6 40 10:59 17.06.2019
6223 Clear 31 1012 40 10000 3.6 50 10:40 17.06.2019
6224 Clear 31 1012 40 10000 3.6 50 10:22 17.06.2019
6225 Clear 30 1012 43 10000 4.1 30 09:53 17.06.2019
6226 Clear 30 1012 42 10000 4.6 30 09:30 17.06.2019
6227 Clear 27 1012 48 10000 3.6 30 08:42 17.06.2019
6228 Clear 27 1012 48 10000 3.6 30 08:23 17.06.2019
6229 Clear 25 1012 65 10000 1 0 07:46 17.06.2019
6230 Clear 24 1012 64 10000 1 0 07:28 17.06.2019
6231 Clear 22 1012 64 10000 1.5 330 06:44 17.06.2019
6232 Clear 21 1012 64 10000 2.1 290 05:49 17.06.2019
6233 Clear 18 1012 68 10000 2.6 280 04:42 17.06.2019
6234 Clear 18 1012 68 10000 2.1 290 03:49 17.06.2019
6235 Clear 17 1011 72 10000 2.6 300 02:59 17.06.2019
6236 Clear 17 1011 93 10000 1 0 02:41 17.06.2019
6237 Clear 17 1011 93 10000 1 0 01:55 17.06.2019
6238 Clear 17 1011 93 10000 2.6 210 01:33 17.06.2019
6239 Clear 18 1012 88 10000 2.6 250 00:44 17.06.2019
6240 Clear 18 1012 88 10000 2.6 250 00:44 17.06.2019
6241 Clear 18 1012 88 10000 2.6 250 00:22 17.06.2019
6242 Clear 19 1012 77 10000 2.1 190 23:43 16.06.2019
6243 Clear 19 1012 77 10000 2.1 190 23:23 16.06.2019
6244 Clear 19 1011 83 10000 0.5 0 22:57 16.06.2019
6245 Clear 19 1011 82 10000 1.5 310 22:39 16.06.2019
6246 Clear 19 1011 82 10000 1.5 310 22:18 16.06.2019
6247 Clear 20 1011 78 10000 2.1 330 21:41 16.06.2019
6248 Clear 20 1011 78 10000 2.1 330 21:23 16.06.2019
6249 Clear 21 1011 73 10000 3.6 320 20:59 16.06.2019
6250 Clear 22 1011 69 10000 2.6 360 20:37 16.06.2019
6251 Clear 22 1011 69 10000 2.6 360 20:18 16.06.2019
6252 Clear 22 1011 69 10000 2.6 360 20:18 16.06.2019
6253 Clear 23 1011 65 10000 1.5 300 19:42 16.06.2019
6254 Clear 24 1011 65 10000 1.5 300 19:22 16.06.2019
6255 Clear 25 1011 61 10000 1.5 10 18:58 16.06.2019
6256 Clear 25 1011 65 10000 2.1 320 18:40 16.06.2019
6257 Clear 25 1011 65 10000 2.1 320 18:20 16.06.2019
6258 Clear 26 1011 65 10000 2.1 280 17:48 16.06.2019
6259 Clear 26 1011 65 10000 2.1 280 17:22 16.06.2019
6260 Clear 26 1011 61 10000 1.5 260 16:57 16.06.2019
6261 Clouds 26 1011 61 10000 1.5 280 16:39 16.06.2019
6262 Clouds 26 1011 61 10000 1.5 280 16:21 16.06.2019
6263 Rain 27 1011 51 10000 6.2 130 15:42 16.06.2019
6264 Rain 27 1011 51 10000 6.2 130 15:24 16.06.2019
6265 Clouds 27 1011 58 10000 6.7 140 14:44 16.06.2019
6266 Clouds 28 1011 58 10000 6.7 140 14:23 16.06.2019
6267 Clouds 29 1011 58 10000 7.2 140 13:52 16.06.2019
6268 Clouds 31 1011 40 10000 4.6 60 13:28 16.06.2019
6269 Clouds 31 1011 42 10000 4.6 50 12:58 16.06.2019
6270 Clouds 31 1012 38 10000 5.1 40 12:39 16.06.2019
6271 Clouds 31 1012 43 10000 4.6 20 12:19 16.06.2019
6272 Clouds 31 1012 43 10000 4.6 20 11:46 16.06.2019
6273 Clear 30 1012 51 10000 5.1 340 11:20 16.06.2019
6274 Clear 30 1012 51 10000 5.1 330 10:46 16.06.2019
6275 Clear 29 1012 54 10000 4.6 350 10:22 16.06.2019
6276 Clear 29 1012 54 10000 5.1 340 09:56 16.06.2019
6277 Clear 28 1012 57 10000 5.1 350 09:36 16.06.2019
6278 Clear 27 1012 57 10000 5.1 350 09:18 16.06.2019
6279 Clear 26 1012 61 10000 6.7 350 08:38 16.06.2019
6280 Clear 26 1012 61 10000 6.7 350 08:18 16.06.2019
6281 Clear 24 1012 68 10000 7.2 360 07:44 16.06.2019
6282 Clear 23 1012 68 10000 6.2 360 06:59 16.06.2019
6283 Clear 22 1012 73 10000 6.2 360 06:37 16.06.2019
6284 Clear 20 1012 77 10000 5.1 350 05:43 16.06.2019
6285 Clear 19 1011 77 10000 5.1 350 04:49 16.06.2019
6286 Clear 18 1011 82 10000 3.1 310 03:57 16.06.2019
6287 Clear 18 1011 82 10000 3.1 310 03:57 16.06.2019
6288 Clear 18 1011 82 10000 3.1 310 03:57 16.06.2019
6289 Clear 18 1012 77 10000 1.5 0 03:32 16.06.2019
6290 Clear 19 1012 77 10000 3.1 340 02:26 16.06.2019
6291 Clear 20 1012 73 10000 2.1 0 01:42 16.06.2019
6292 Clear 19 1012 73 10000 2.1 0 01:24 16.06.2019
6293 Clear 20 1012 68 10000 2.6 0 00:40 16.06.2019
6294 Clear 20 1012 68 10000 2.6 0 00:20 16.06.2019
6295 Clear 21 1013 73 10000 2.1 140 23:43 15.06.2019
6296 Clear 20 1013 73 10000 2.1 140 23:25 15.06.2019
6297 Clear 21 1013 73 10000 4.6 330 22:49 15.06.2019
6298 Clear 21 1013 73 10000 4.6 340 22:27 15.06.2019
6299 Clear 22 1013 73 10000 4.1 340 21:49 15.06.2019
6300 Clear 22 1013 64 10000 2.6 310 21:29 15.06.2019
6301 Clear 23 1013 64 10000 0.5 360 20:57 15.06.2019
6302 Clear 23 1013 60 10000 2.6 320 20:39 15.06.2019
6303 Clear 24 1013 60 10000 2.6 320 20:18 15.06.2019
6304 Clear 25 1013 61 10000 1 0 19:41 15.06.2019
6305 Clear 25 1013 61 10000 1 0 19:23 15.06.2019
6306 Clear 27 1012 47 10000 4.6 100 18:39 15.06.2019
6307 Clear 26 1012 47 10000 4.6 100 18:20 15.06.2019
6308 Clear 28 1012 45 10000 4.6 80 17:43 15.06.2019
6309 Clear 28 1012 45 10000 4.6 80 17:22 15.06.2019
6310 Clear 29 1012 45 10000 4.6 80 16:48 15.06.2019
6311 Clear 29 1012 40 10000 6.2 100 16:20 15.06.2019
6312 Clear 30 1013 35 10000 7.2 70 15:44 15.06.2019
6313 Clear 30 1013 35 10000 7.2 70 15:23 15.06.2019
6314 Clear 30 1013 40 10000 6.7 70 14:43 15.06.2019
6315 Clear 30 1013 40 10000 6.7 70 14:19 15.06.2019
6316 Clear 29 1013 42 10000 6.2 60 13:57 15.06.2019
6317 Clear 29 1014 45 10000 5.7 70 13:38 15.06.2019
6318 Clear 29 1014 45 10000 5.7 70 13:38 15.06.2019
6319 Clear 29 1014 45 10000 5.7 70 13:38 15.06.2019
6320 Clear 29 1014 45 10000 5.7 70 13:18 15.06.2019
6321 Clouds 29 1014 45 10000 8.2 60 12:44 15.06.2019
6322 Clouds 29 1014 45 10000 8.2 60 12:23 15.06.2019
6323 Clouds 29 1014 45 10000 8.2 60 12:23 15.06.2019
6324 Clouds 29 1014 48 10000 8.2 40 11:49 15.06.2019
6325 Clouds 28 1014 51 10000 7.7 40 11:31 15.06.2019
6326 Clouds 28 1014 57 10000 4.1 40 10:46 15.06.2019
6327 Clouds 26 1014 69 10000 4.1 30 10:25 15.06.2019
6328 Clouds 26 1014 69 10000 4.1 20 09:48 15.06.2019
6329 Clouds 26 1014 73 10000 4.6 10 09:28 15.06.2019
6330 Clouds 25 1014 73 10000 6.2 30 08:56 15.06.2019
6331 Clouds 25 1014 73 10000 6.2 30 08:38 15.06.2019
6332 Clouds 25 1014 73 10000 6.2 30 08:18 15.06.2019
6333 Clear 23 1013 73 10000 5.1 30 07:26 15.06.2019
6334 Clear 23 1013 69 10000 3.6 20 06:48 15.06.2019
6335 Clear 22 1013 73 10000 3.1 330 06:28 15.06.2019
6336 Clear 20 1013 82 10000 1 0 05:39 15.06.2019
6337 Clear 19 1013 77 10000 3.1 340 04:56 15.06.2019
6338 Clear 19 1013 77 10000 4.1 340 04:26 15.06.2019
6339 Clear 20 1012 73 10000 5.1 360 03:22 15.06.2019
6340 Clear 21 1013 64 10000 3.6 360 02:34 15.06.2019
6341 Clear 21 1013 69 10000 3.6 10 01:57 15.06.2019
6342 Clear 21 1014 64 10000 3.6 10 01:24 15.06.2019
6343 Clear 20 1015 83 10000 2.6 270 00:42 15.06.2019
6344 Clear 20 1015 83 10000 2.6 270 00:42 15.06.2019
6345 Clear 20 1015 83 10000 2.6 270 00:23 15.06.2019
6346 Rain 21 1015 73 10000 1.5 0 23:46 14.06.2019
6347 Clear 20 1015 73 10000 1.5 260 23:20 14.06.2019
6348 Clear 21 1015 73 10000 2.1 290 22:41 14.06.2019
6349 Clear 21 1015 73 10000 2.1 290 22:21 14.06.2019
6350 Clear 21 1015 73 10000 3.1 360 21:48 14.06.2019
6351 Clear 21 1015 73 10000 2.6 320 21:28 14.06.2019
6352 Clear 21 1015 73 10000 2.6 320 20:55 14.06.2019
6353 Clouds 21 1014 73 10000 4.1 350 20:36 14.06.2019
6354 -273 0 0 0 0 0 20:18 14.06.2019
6355 Clouds 22 1014 69 10000 7.7 360 19:39 14.06.2019
6356 Clouds 22 1014 69 10000 7.7 360 19:19 14.06.2019
6357 Clouds 22 1014 64 10000 3.1 40 18:45 14.06.2019
6358 Clouds 24 1014 64 10000 3.1 40 18:27 14.06.2019
6359 Clouds 23 1014 73 10000 3.6 360 17:58 14.06.2019
6360 Clouds 23 1014 78 10000 5.7 340 17:40 14.06.2019
6361 Clouds 23 1014 78 10000 5.7 340 17:21 14.06.2019
6362 Clouds 21 1014 77 10000 4.6 360 16:48 14.06.2019
6363 Thunderstorm 26 1014 77 6000 12.3 330 16:23 14.06.2019
6364 Clouds 30 1014 43 10000 5.1 20 15:59 14.06.2019
6365 Clouds 30 1014 45 10000 5.7 10 15:39 14.06.2019
6366 Clouds 30 1014 48 10000 6.7 340 15:19 14.06.2019
6367 Clear 31 1014 45 10000 6.2 350 14:43 14.06.2019
6368 Clear 30 1014 45 10000 6.2 350 14:25 14.06.2019
6369 Clear 29 1015 48 10000 6.2 350 13:45 14.06.2019
6370 Clear 29 1015 48 10000 6.2 350 13:26 14.06.2019
6371 Clear 29 1015 48 10000 4.6 360 12:49 14.06.2019
6372 Clear 29 1015 48 10000 4.6 360 12:49 14.06.2019
6373 Clear 29 1015 48 10000 6.2 360 12:27 14.06.2019
6374 Clear 28 1015 42 10000 6.2 360 11:59 14.06.2019
6375 Clear 28 1015 51 10000 6.7 360 11:41 14.06.2019
6376 Clear 29 1015 51 10000 6.7 360 11:23 14.06.2019
6377 Clear 27 1015 54 10000 6.2 340 10:46 14.06.2019
6378 Clear 28 1015 54 10000 7.7 340 10:20 14.06.2019
6379 Clear 28 1015 54 10000 7.7 340 10:20 14.06.2019
6380 Clear 27 1015 54 10000 7.2 350 09:49 14.06.2019
6381 Clear 27 1015 61 10000 6.2 340 09:31 14.06.2019
6382 Clear 25 1015 61 10000 6.2 340 08:48 14.06.2019
6383 Clear 24 1015 65 10000 5.7 350 08:20 14.06.2019
6384 Clear 24 1015 65 10000 5.7 350 08:20 14.06.2019
6385 Clear 25 1015 61 10000 6.2 340 07:53 14.06.2019
6386 Clear 24 1015 60 10000 5.1 330 07:22 14.06.2019
6387 Clear 22 1015 73 10000 2.6 340 06:48 14.06.2019
6388 Clear 20 1015 73 10000 2.6 340 06:18 14.06.2019
6389 Clear 19 1015 77 10000 1.5 270 05:33 14.06.2019
6390 Clear 18 1015 68 10000 3.1 300 04:51 14.06.2019
6391 Clear 18 1014 72 10000 2.1 310 03:59 14.06.2019
6392 Clear 18 1014 82 10000 2.6 260 03:26 14.06.2019
6393 Clear 17 1015 88 10000 1 0 02:58 14.06.2019
6394 Clear 18 1015 88 10000 1 0 02:28 14.06.2019
6395 Clear 18 1015 88 10000 1 0 02:28 14.06.2019
6396 Clear 18 1015 82 10000 2.1 320 01:26 14.06.2019
6397 Clear 18 1015 82 10000 2.1 330 00:36 14.06.2019
6398 Clear 19 1015 82 10000 2.1 330 00:18 14.06.2019
6399 Clear 19 1015 82 10000 2.1 360 23:47 13.06.2019
6400 Clear 20 1015 82 10000 2.1 360 23:22 13.06.2019
6401 Clear 20 1015 82 10000 2.1 340 22:40 13.06.2019
6402 Clear 20 1015 82 10000 2.1 340 22:22 13.06.2019
6403 Clear 21 1015 88 10000 2.1 30 21:41 13.06.2019
6404 Clear 21 1015 88 10000 2.1 30 21:20 13.06.2019
6405 Clear 22 1014 88 10000 2.6 40 20:59 13.06.2019
6406 Clear 22 1014 88 10000 1.5 350 20:40 13.06.2019
6407 Clear 22 1014 88 10000 1.5 350 20:19 13.06.2019
6408 Clouds 24 1014 65 10000 0.5 0 19:42 13.06.2019
6409 Clouds 25 1014 65 10000 0.5 0 19:23 13.06.2019
6410 Rain 25 1014 57 10000 2.6 190 18:58 13.06.2019
6411 Clouds 26 1014 54 10000 3.6 160 18:40 13.06.2019
6412 Clouds 26 1014 54 10000 3.6 160 18:21 13.06.2019
6413 Clouds 27 1013 51 10000 5.1 130 17:44 13.06.2019
6414 Clouds 28 1013 51 10000 5.1 130 17:21 13.06.2019
6415 Clouds 29 1013 54 10000 3.6 140 16:55 13.06.2019
6416 Clouds 29 1013 54 10000 3.6 140 16:23 13.06.2019
6417 Clouds 29 1013 51 10000 5.1 130 15:59 13.06.2019
6418 Clouds 29 1013 58 10000 4.6 130 15:40 13.06.2019
6419 Clouds 29 1013 58 10000 4.6 130 15:19 13.06.2019
6420 Clouds 30 1014 55 10000 4.6 130 14:48 13.06.2019
6421 Clear 31 1014 43 10000 3.6 130 14:29 13.06.2019
6422 Clear 32 1014 43 10000 4.1 330 13:47 13.06.2019
6423 Clear 31 1014 45 10000 4.6 330 13:22 13.06.2019
6424 Clear 32 1014 45 10000 5.1 320 12:58 13.06.2019
6425 Clear 32 1014 45 10000 3.6 340 12:38 13.06.2019
6426 Clear 30 1014 45 10000 3.6 340 12:20 13.06.2019
6427 Clear 29 1014 51 10000 4.6 320 11:43 13.06.2019
6428 Clear 29 1014 51 10000 4.6 320 11:25 13.06.2019
6429 Clear 29 1014 58 10000 3.6 270 10:47 13.06.2019
6430 Clear 27 1014 65 10000 3.6 270 10:28 13.06.2019
6431 Clear 27 1014 57 10000 5.1 260 09:52 13.06.2019
6432 -273 0 0 0 0 0 09:28 13.06.2019
6433 Clear 23 1014 64 10000 4.1 270 08:55 13.06.2019
6434 Clear 23 1014 64 10000 4.1 270 08:55 13.06.2019
6435 Clear 23 1013 64 10000 5.1 260 08:37 13.06.2019
6436 Clear 23 1013 64 10000 5.1 260 08:19 13.06.2019
6437 Clear 24 1013 64 10000 4.6 270 07:32 13.06.2019
6438 Clear 22 1013 69 10000 5.7 270 06:54 13.06.2019
6439 Clear 22 1012 73 10000 5.1 280 06:36 13.06.2019
6440 Clear 21 1012 73 10000 5.1 280 06:18 13.06.2019
6441 Clear 20 1012 77 10000 4.1 250 05:39 13.06.2019
6442 Clear 20 1012 77 10000 5.1 270 05:18 13.06.2019
6443 Clear 20 1011 73 10000 2.6 270 03:45 13.06.2019
6444 Clear 20 1012 77 10000 0.5 0 01:55 13.06.2019
6445 Clear 20 1012 88 10000 4.1 280 00:31 13.06.2019
6446 Clear 21 1013 78 10000 1 0 23:37 12.06.2019
6447 Clear 22 1013 78 10000 1 0 23:18 12.06.2019
6448 Clear 21 1012 78 10000 3.6 300 22:41 12.06.2019
6449 Clear 22 1012 78 10000 3.6 300 22:21 12.06.2019
6450 Clouds 22 1012 73 10000 4.1 320 21:43 12.06.2019
6451 Clouds 22 1012 73 10000 4.1 320 21:25 12.06.2019
6452 Clouds 23 1012 69 10000 2.6 300 20:49 12.06.2019
6453 Clouds 22 1012 78 10000 3.6 270 20:30 12.06.2019
6454 Clouds 23 1011 78 10000 4.1 270 19:57 12.06.2019
6455 Clouds 24 1011 69 10000 4.1 290 19:38 12.06.2019
6456 Clouds 24 1011 69 10000 4.1 290 19:20 12.06.2019
6457 Clouds 24 1010 73 10000 3.1 220 18:47 12.06.2019
6458 Clouds 24 1010 73 10000 3.1 220 18:27 12.06.2019
6459 Clouds 24 1011 73 10000 4.1 250 17:47 12.06.2019
6460 Clouds 24 1011 69 10000 4.6 310 17:23 12.06.2019
6461 Clouds 27 1010 57 10000 3.1 140 16:44 12.06.2019
6462 Clouds 27 1010 57 10000 3.1 140 16:25 12.06.2019
6463 Thunderstorm 28 1011 48 10000 7.2 70 15:59 12.06.2019
6464 Clouds 28 1010 48 10000 5.7 340 15:36 12.06.2019
6465 Clouds 30 1011 48 10000 4.1 330 14:59 12.06.2019
6466 Clouds 28 1011 45 10000 4.1 20 14:35 12.06.2019
6467 Clouds 29 1011 37 10000 5.7 360 13:59 12.06.2019
6468 Clouds 29 1011 38 10000 4.6 20 13:41 12.06.2019
6469 Clouds 30 1011 38 10000 4.6 20 13:19 12.06.2019
6470 Clouds 29 1011 51 10000 3.6 330 12:44 12.06.2019
6471 Clouds 29 1011 51 10000 3.6 330 12:22 12.06.2019
6472 Clouds 29 1011 45 10000 4.1 20 11:58 12.06.2019
6473 Clouds 28 1011 51 10000 2.6 0 11:39 12.06.2019
6474 Clouds 28 1011 51 10000 2.6 0 11:20 12.06.2019
6475 Clear 28 1011 57 10000 3.6 360 10:44 12.06.2019
6476 Clear 28 1011 57 10000 3.6 360 10:20 12.06.2019
6477 Clouds 27 1011 65 10000 4.6 10 09:43 12.06.2019
6478 Clouds 25 1011 65 10000 4.6 10 09:22 12.06.2019
6479 Clouds 24 1011 83 10000 5.7 350 08:38 12.06.2019
6480 Clouds 24 1011 83 10000 5.7 350 08:19 12.06.2019
6481 Clouds 22 1011 83 10000 4.1 310 07:25 12.06.2019
6482 Clouds 20 1011 88 10000 1.5 0 06:40 12.06.2019
6483 Clear 19 1010 94 10000 1.5 280 05:25 12.06.2019
6484 Clear 19 1010 88 10000 2.6 270 03:41 12.06.2019
6485 Clear 19 1011 94 10000 2.6 330 00:47 12.06.2019
6486 Clear 20 1011 83 10000 0.5 0 00:20 12.06.2019
6487 Clear 20 1011 88 10000 0.5 0 23:43 11.06.2019
6488 Clear 20 1011 88 10000 0.5 0 23:24 11.06.2019
6489 Clear 21 1011 83 10000 2.6 360 22:43 11.06.2019
6490 Clear 21 1011 83 10000 2.6 360 22:18 11.06.2019
6491 Clear 21 1011 88 10000 2.6 340 21:56 11.06.2019
6492 Clear 21 1010 83 10000 3.1 360 21:37 11.06.2019
6493 Clear 22 1010 83 10000 3.1 360 21:19 11.06.2019
6494 Clear 23 1010 83 10000 3.6 350 20:46 11.06.2019
6495 Clear 23 1010 83 10000 2.1 330 20:22 11.06.2019
6496 Clouds 25 1010 78 10000 1 0 19:51 11.06.2019
6497 Clear 25 1010 78 10000 1 0 19:29 11.06.2019
6498 Clear 25 1010 69 10000 2.6 330 18:53 11.06.2019
6499 Clouds 26 1009 69 10000 3.1 310 18:20 11.06.2019
6500 Clouds 26 1009 73 10000 2.1 310 17:42 11.06.2019
6501 Clouds 26 1009 73 10000 2.1 310 17:22 11.06.2019
6502 Clouds 26 1010 78 10000 3.1 240 16:46 11.06.2019
6503 Clouds 25 1010 73 10000 2.1 230 16:24 11.06.2019
6504 Clouds 26 1010 73 10000 3.6 310 15:59 11.06.2019
6505 Clouds 27 1010 65 10000 1.5 340 15:41 11.06.2019
6506 Clouds 27 1010 65 10000 1.5 340 15:19 11.06.2019
6507 Clouds 27 1010 74 10000 3.1 160 14:41 11.06.2019
6508 Clouds 27 1010 74 10000 3.1 160 14:20 11.06.2019
6509 Clouds 26 1010 69 10000 3.6 140 13:50 11.06.2019
6510 Clouds 27 1010 69 10000 2.1 140 13:23 11.06.2019
6511 Clouds 27 1011 74 10000 3.6 210 12:43 11.06.2019
6512 Clouds 27 1011 74 10000 3.6 210 12:43 11.06.2019
6513 Clouds 26 1011 74 10000 3.6 210 12:22 11.06.2019
6514 Clouds 27 1011 74 10000 3.1 220 11:57 11.06.2019
6515 Clouds 25 1011 78 10000 2.1 190 11:34 11.06.2019
6516 Clouds 25 1011 78 10000 3.1 230 10:58 11.06.2019
6517 Clouds 25 1011 83 10000 3.6 230 10:40 11.06.2019
6518 Clouds 25 1011 83 10000 3.6 230 10:21 11.06.2019
6519 Clouds 24 1010 83 10000 2.6 260 09:45 11.06.2019
6520 Clouds 24 1010 83 10000 2.6 260 09:23 11.06.2019
6521 Clouds 24 1010 83 10000 2.6 260 09:23 11.06.2019
6522 Clouds 23 1010 83 10000 2.6 290 08:42 11.06.2019
6523 Clouds 23 1010 83 10000 2.6 290 08:23 11.06.2019
6524 Fog 21 1010 88 10000 2.6 320 07:36 11.06.2019
6525 Clouds 21 1009 83 10000 3.6 300 06:54 11.06.2019
6526 Clouds 20 1009 88 10000 3.1 290 06:23 11.06.2019
6527 Clouds 19 1009 93 10000 3.6 250 04:49 11.06.2019
6528 Clear 19 1010 82 10000 3.6 250 02:44 11.06.2019
6529 Clear 20 1010 88 10000 4.6 270 01:23 11.06.2019
6530 Clouds 20 1011 88 10000 3.1 260 00:44 11.06.2019
6531 Clouds 20 1011 88 10000 3.6 270 23:47 10.06.2019
6532 Rain 20 1011 88 5000 3.6 280 23:21 10.06.2019
6533 Clouds 20 1011 73 10000 4.6 350 22:47 10.06.2019
6534 Clouds 20 1011 73 10000 4.6 350 22:29 10.06.2019
6535 Clouds 21 1012 73 10000 6.7 340 21:58 10.06.2019
6536 Rain 22 1012 69 10000 4.6 330 21:38 10.06.2019
6537 Rain 23 1012 69 10000 4.6 330 21:20 10.06.2019
6538 Clear 23 1011 73 10000 1 0 20:44 10.06.2019
6539 Clear 23 1011 73 10000 1 0 20:21 10.06.2019
6540 Clear 23 1011 73 10000 1 0 19:48 10.06.2019
6541 Clear 23 1011 73 10000 3.6 90 19:26 10.06.2019
6542 Clouds 24 1011 65 10000 5.7 90 18:58 10.06.2019
6543 Clouds 25 1011 69 10000 5.1 90 18:40 10.06.2019
6544 Clouds 25 1011 69 10000 5.1 90 18:20 10.06.2019
6545 Clouds 26 1012 78 10000 6.2 140 17:44 10.06.2019
6546 Clouds 26 1012 78 10000 6.2 140 17:24 10.06.2019
6547 Clouds 26 1012 74 10000 6.2 130 16:56 10.06.2019
6548 Clouds 27 1012 74 10000 5.1 140 16:37 10.06.2019
6549 Clouds 27 1012 74 10000 5.1 140 16:18 10.06.2019
6550 Clouds 27 1012 74 10000 4.6 130 15:41 10.06.2019
6551 Clouds 27 1012 74 10000 4.6 130 15:23 10.06.2019
6552 Clouds 27 1012 74 10000 5.1 140 14:46 10.06.2019
6553 Clouds 27 1013 74 10000 5.1 140 14:28 10.06.2019
6554 Clouds 27 1013 69 10000 3.6 120 13:47 10.06.2019
6555 Clouds 27 1013 69 10000 3.6 120 13:28 10.06.2019
6556 Clouds 27 1014 61 10000 5.7 30 12:55 10.06.2019
6557 Clouds 26 1014 61 10000 5.1 30 12:32 10.06.2019
6558 Clouds 27 1014 57 10000 5.7 50 11:59 10.06.2019
6559 Clouds 26 1014 61 10000 6.2 20 11:39 10.06.2019
6560 Clouds 26 1014 61 10000 6.2 20 11:19 10.06.2019
6561 Clouds 25 1015 69 10000 5.7 360 10:41 10.06.2019
6562 Clouds 25 1015 69 10000 5.7 360 10:19 10.06.2019
6563 Clouds 23 1015 78 10000 5.7 10 09:52 10.06.2019
6564 Clouds 22 1015 83 10000 4.1 360 09:29 10.06.2019
6565 Clouds 21 1015 78 10000 3.6 10 08:50 10.06.2019
6566 Clouds 21 1015 83 10000 3.1 280 08:27 10.06.2019
6567 Clouds 20 1015 83 10000 2.6 340 07:46 10.06.2019
6568 Clear 17 1015 88 10000 2.6 330 04:44 10.06.2019
6569 Clouds 17 1015 93 10000 2.6 290 03:29 10.06.2019
6570 Clear 18 1016 88 10000 4.6 340 01:56 10.06.2019
6571 Clear 18 1016 88 10000 3.1 320 01:22 10.06.2019
6572 Clear 18 1017 88 10000 2.6 340 00:47 10.06.2019
6573 Clear 18 1016 82 10000 2.6 280 23:49 09.06.2019
6574 Clouds 19 1016 82 10000 1 0 23:25 09.06.2019
6575 Clear 19 1017 82 10000 4.1 340 22:48 09.06.2019
6576 Clear 19 1017 83 10000 2.6 360 22:27 09.06.2019
6577 Clouds 19 1017 83 10000 3.1 360 21:59 09.06.2019
6578 Clear 19 1017 83 10000 3.1 360 21:37 09.06.2019
6579 Clear 20 1017 83 10000 3.1 360 21:19 09.06.2019
6580 Clear 20 1017 83 10000 2.1 350 20:42 09.06.2019
6581 Clear 20 1017 83 10000 2.1 350 20:22 09.06.2019
6582 Clear 22 1016 78 10000 1.5 360 19:45 09.06.2019
6583 Clear 22 1016 78 10000 1.5 360 19:19 09.06.2019
6584 Clear 23 1017 73 10000 4.1 350 18:45 09.06.2019
6585 Clear 22 1017 73 10000 4.1 350 18:26 09.06.2019
6586 Clear 22 1017 78 10000 2.6 350 17:57 09.06.2019
6587 Clear 23 1017 78 10000 1.5 10 17:38 09.06.2019
6588 Clouds 22 1017 69 10000 2.1 40 16:59 09.06.2019
6589 Clear 21 1017 73 10000 1 0 16:40 09.06.2019
6590 Clear 21 1017 73 10000 1 0 16:20 09.06.2019
6591 Clear 21 1017 78 10000 1.5 240 15:50 09.06.2019
6592 Clouds 21 1018 83 10000 3.1 230 15:29 09.06.2019
6593 Rain 20 1018 83 10000 2.1 260 14:56 09.06.2019
6594 Thunderstorm 19 1018 82 10000 0.5 0 14:38 09.06.2019
6595 Thunderstorm 20 1018 82 10000 0.5 0 14:19 09.06.2019
6596 Thunderstorm 20 1019 88 5000 5.1 330 13:48 09.06.2019
6597 Thunderstorm 19 1018 83 6000 5.7 100 12:57 09.06.2019
6598 Thunderstorm 22 1018 78 10000 6.7 140 12:35 09.06.2019
6599 Thunderstorm 26 1018 69 10000 3.6 150 11:58 09.06.2019
6600 Thunderstorm 25 1018 69 10000 3.1 170 11:36 09.06.2019
6601 Thunderstorm 26 1018 69 10000 3.1 170 11:18 09.06.2019
6602 Clouds 27 1018 57 10000 4.1 50 10:43 09.06.2019
6603 Clouds 27 1018 57 10000 4.1 50 10:43 09.06.2019
6604 Clouds 26 1018 57 10000 4.1 50 10:20 09.06.2019
6605 Clouds 25 1018 65 10000 3.1 360 09:39 09.06.2019
6606 Clouds 24 1018 65 10000 3.1 360 09:20 09.06.2019
6607 Clouds 23 1018 69 10000 2.1 80 08:45 09.06.2019
6608 Clear 23 1018 78 10000 2.1 190 07:53 09.06.2019
6609 Rain 20 1018 93 6000 1.5 240 06:45 09.06.2019
6610 Rain 19 1018 93 6000 1.5 240 06:20 09.06.2019
6611 Clear 17 1017 93 10000 0.5 0 03:21 09.06.2019
6612 Clear 18 1017 93 10000 2.1 360 01:37 09.06.2019
6613 Clear 18 1017 93 10000 2.1 360 01:37 09.06.2019
6614 Clear 18 1017 93 10000 2.1 360 01:19 09.06.2019
6615 Clear 18 1017 93 10000 0.96 291.161 00:31 09.06.2019
6616 Clear 19 1017 93 10000 2.1 10 23:41 08.06.2019
6617 Clear 19 1017 93 10000 2.1 10 23:23 08.06.2019
6618 Clear 19 1017 93 10000 1 0 22:55 08.06.2019
6619 Clear 19 1017 93 10000 1.5 70 22:36 08.06.2019
6620 Clear 20 1017 93 10000 1.5 70 22:18 08.06.2019
6621 Clouds 21 1017 88 10000 1.5 270 21:41 08.06.2019
6622 Clouds 21 1017 88 10000 1.5 270 21:23 08.06.2019
6623 Clouds 21 1016 88 10000 2.6 100 20:45 08.06.2019
6624 Clouds 21 1016 88 10000 2.6 100 20:25 08.06.2019
6625 Thunderstorm 22 1016 83 10000 2.6 50 19:56 08.06.2019
6626 Rain 23 1017 88 10000 3.6 340 19:37 08.06.2019
6627 Rain 23 1017 88 10000 3.6 340 19:19 08.06.2019
6628 Clouds 24 1016 78 10000 2.6 90 18:41 08.06.2019
6629 Clouds 24 1016 78 10000 2.6 90 18:22 08.06.2019
6630 Rain 24 1016 83 10000 3.6 110 17:43 08.06.2019
6631 Rain 24 1016 83 10000 3.6 110 17:19 08.06.2019
6632 Rain 26 1016 78 10000 6.7 100 16:47 08.06.2019
6633 Rain 26 1016 83 10000 7.7 110 16:28 08.06.2019
6634 Clouds 27 1016 65 10000 5.7 100 15:49 08.06.2019
6635 Clouds 27 1016 61 10000 5.7 110 15:31 08.06.2019
6636 Clouds 27 1016 65 10000 5.7 130 14:47 08.06.2019
6637 Clouds 27 1016 69 10000 4.6 110 14:28 08.06.2019
6638 Clouds 29 1016 58 10000 4.1 130 13:44 08.06.2019
6639 Clouds 29 1017 54 10000 1.5 0 12:52 08.06.2019
6640 Clouds 30 1017 45 10000 2.1 0 12:33 08.06.2019
6641 Clouds 28 1017 58 10000 2.1 0 11:44 08.06.2019
6642 Clouds 28 1017 58 10000 2.1 0 11:44 08.06.2019
6643 Clouds 28 1017 58 10000 2.1 0 11:26 08.06.2019
6644 Clouds 28 1017 58 10000 3.6 190 10:47 08.06.2019
6645 Clouds 28 1017 61 10000 3.1 200 10:24 08.06.2019
6646 Clouds 27 1018 65 10000 2.6 190 09:52 08.06.2019
6647 Clear 25 1018 69 10000 2.1 180 09:28 08.06.2019
6648 Clear 24 1018 73 10000 1 0 08:39 08.06.2019
6649 Clear 24 1018 73 10000 1 0 08:18 08.06.2019
6650 Clouds 23 1017 88 6000 1 0 06:51 08.06.2019
6651 Mist 20 1017 93 4500 1 210 05:56 08.06.2019
6652 Clear 17 1017 93 8000 1.18 281.595 03:34 08.06.2019
6653 Clear 18 1017 93 10000 1 0 01:59 08.06.2019
6654 Clear 19 1017 88 10000 1.37 256.971 00:29 08.06.2019
6655 Clear 19 1017 88 10000 1 0 23:52 07.06.2019
6656 Clear 19 1017 82 10000 2.1 10 23:21 07.06.2019
6657 Clear 20 1017 82 10000 1 360 22:49 07.06.2019
6658 Clouds 20 1017 88 10000 1 0 22:30 07.06.2019
6659 Clouds 20 1017 77 10000 2.1 270 21:54 07.06.2019
6660 Clouds 20 1017 77 10000 1 340 21:31 07.06.2019
6661 Mist 21 1017 78 10000 2.1 50 20:57 07.06.2019
6662 Mist 22 1017 73 10000 3.6 100 20:38 07.06.2019
6663 Mist 22 1017 73 10000 3.6 100 20:38 07.06.2019
6664 Rain 22 1017 73 10000 4.6 100 19:52 07.06.2019
6665 Thunderstorm 22 1017 73 10000 4.1 100 19:27 07.06.2019
6666 Thunderstorm 24 1016 64 10000 4.6 100 18:59 07.06.2019
6667 Rain 24 1016 61 10000 5.7 100 18:37 07.06.2019
6668 Rain 24 1016 61 10000 5.7 100 18:18 07.06.2019
6669 Clouds 25 1016 61 10000 4.6 100 17:39 07.06.2019
6670 Clouds 26 1016 54 10000 2.6 170 17:19 07.06.2019
6671 Clouds 27 1016 58 10000 2.6 130 16:40 07.06.2019
6672 Clouds 27 1016 58 10000 2.6 130 16:40 07.06.2019
6673 Clouds 25 1016 57 10000 3.1 80 15:54 07.06.2019
6674 Rain 24 1016 73 10000 3.6 20 15:23 07.06.2019
6675 Clouds 27 1016 48 10000 4.1 260 14:49 07.06.2019
6676 Clouds 26 1017 51 10000 4.6 250 14:27 07.06.2019
6677 Clouds 28 1017 54 10000 3.6 220 13:52 07.06.2019
6678 Clouds 28 1017 57 10000 2.6 190 13:26 07.06.2019
6679 Clouds 27 1017 65 10000 1.5 180 12:51 07.06.2019
6680 Clouds 26 1017 61 10000 2.6 140 12:25 07.06.2019
6681 Clouds 26 1017 53 10000 3.6 100 11:54 07.06.2019
6682 Thunderstorm 25 1018 73 10000 4.1 130 11:31 07.06.2019
6683 Thunderstorm 26 1018 78 3500 6.7 220 10:55 07.06.2019
6684 Clouds 27 1017 61 10000 2.1 250 10:37 07.06.2019
6685 Clouds 26 1017 61 10000 2.1 250 10:18 07.06.2019
6686 Clouds 26